<?xml version="1.0" encoding="UTF-8" standalone="no" ?>
<gpx xmlns="http://www.topografix.com/GPX/1/1" xmlns:xsi="http://www.w3.org/2001/XMLSchema-instance" xsi:schemaLocation="http://www.topografix.com/GPX/1/1 http://www.topografix.com/GPX/1/1/gpx.xsd" version="1.1" creator="VisuGPX - https://www.visugpx.com">
  <metadata>
    <name>(84-Vaucluse) St Saturnin</name>
    <desc><![CDATA[Une sortie classique à St Sat avec une belle sélection de single]]></desc>
  </metadata>
  <trk>
    <name><![CDATA[Sortie à vélo matinale]]></name>
    <trkseg>
      <trkpt lat="43.98824" lon="5.39157">
        <ele>959.9</ele>
        <time>2019-10-27T09:58:07Z</time>
      </trkpt>
      <trkpt lat="43.9882" lon="5.39154">
        <ele>960.1</ele>
        <time>2019-10-27T10:03:13Z</time>
      </trkpt>
      <trkpt lat="43.98823" lon="5.39157">
        <ele>960.2</ele>
        <time>2019-10-27T10:04:27Z</time>
      </trkpt>
      <trkpt lat="43.9882" lon="5.39156">
        <ele>960.4</ele>
        <time>2019-10-27T10:06:17Z</time>
      </trkpt>
      <trkpt lat="43.98817" lon="5.39157">
        <ele>960.5</ele>
        <time>2019-10-27T10:07:21Z</time>
      </trkpt>
      <trkpt lat="43.98814" lon="5.39155">
        <ele>960.7</ele>
        <time>2019-10-27T10:07:31Z</time>
      </trkpt>
      <trkpt lat="43.98814" lon="5.39161">
        <ele>961</ele>
        <time>2019-10-27T10:07:53Z</time>
      </trkpt>
      <trkpt lat="43.98815" lon="5.39167">
        <ele>961.3</ele>
        <time>2019-10-27T10:07:55Z</time>
      </trkpt>
      <trkpt lat="43.98816" lon="5.39173">
        <ele>961.7</ele>
        <time>2019-10-27T10:07:57Z</time>
      </trkpt>
      <trkpt lat="43.98816" lon="5.39179">
        <ele>962</ele>
        <time>2019-10-27T10:07:59Z</time>
      </trkpt>
      <trkpt lat="43.98818" lon="5.39185">
        <ele>962.4</ele>
        <time>2019-10-27T10:08:01Z</time>
      </trkpt>
      <trkpt lat="43.98818" lon="5.39192">
        <ele>962.8</ele>
        <time>2019-10-27T10:08:03Z</time>
      </trkpt>
      <trkpt lat="43.98819" lon="5.39198">
        <ele>963.2</ele>
        <time>2019-10-27T10:08:05Z</time>
      </trkpt>
      <trkpt lat="43.9882" lon="5.39204">
        <ele>963.5</ele>
        <time>2019-10-27T10:08:07Z</time>
      </trkpt>
      <trkpt lat="43.98821" lon="5.3921">
        <ele>963.8</ele>
        <time>2019-10-27T10:08:09Z</time>
      </trkpt>
      <trkpt lat="43.98822" lon="5.39216">
        <ele>964</ele>
        <time>2019-10-27T10:08:11Z</time>
      </trkpt>
      <trkpt lat="43.98823" lon="5.39222">
        <ele>964.2</ele>
        <time>2019-10-27T10:08:13Z</time>
      </trkpt>
      <trkpt lat="43.98826" lon="5.39227">
        <ele>964.4</ele>
        <time>2019-10-27T10:08:15Z</time>
      </trkpt>
      <trkpt lat="43.98827" lon="5.39233">
        <ele>964.5</ele>
        <time>2019-10-27T10:08:17Z</time>
      </trkpt>
      <trkpt lat="43.98828" lon="5.39237">
        <ele>964.6</ele>
        <time>2019-10-27T10:08:18Z</time>
      </trkpt>
      <trkpt lat="43.98829" lon="5.39241">
        <ele>964.7</ele>
        <time>2019-10-27T10:08:19Z</time>
      </trkpt>
      <trkpt lat="43.98831" lon="5.39244">
        <ele>964.7</ele>
        <time>2019-10-27T10:08:20Z</time>
      </trkpt>
      <trkpt lat="43.98832" lon="5.39247">
        <ele>964.8</ele>
        <time>2019-10-27T10:08:21Z</time>
      </trkpt>
      <trkpt lat="43.98833" lon="5.39254">
        <ele>964.9</ele>
        <time>2019-10-27T10:08:23Z</time>
      </trkpt>
      <trkpt lat="43.98834" lon="5.39261">
        <ele>965</ele>
        <time>2019-10-27T10:08:25Z</time>
      </trkpt>
      <trkpt lat="43.98834" lon="5.39268">
        <ele>965.1</ele>
        <time>2019-10-27T10:08:27Z</time>
      </trkpt>
      <trkpt lat="43.98835" lon="5.39272">
        <ele>965.1</ele>
        <time>2019-10-27T10:08:28Z</time>
      </trkpt>
      <trkpt lat="43.98835" lon="5.39276">
        <ele>965.1</ele>
        <time>2019-10-27T10:08:29Z</time>
      </trkpt>
      <trkpt lat="43.98836" lon="5.39283">
        <ele>965.1</ele>
        <time>2019-10-27T10:08:31Z</time>
      </trkpt>
      <trkpt lat="43.98837" lon="5.39289">
        <ele>965.2</ele>
        <time>2019-10-27T10:08:33Z</time>
      </trkpt>
      <trkpt lat="43.98839" lon="5.39295">
        <ele>965.4</ele>
        <time>2019-10-27T10:08:35Z</time>
      </trkpt>
      <trkpt lat="43.98842" lon="5.39301">
        <ele>965.8</ele>
        <time>2019-10-27T10:08:37Z</time>
      </trkpt>
      <trkpt lat="43.98845" lon="5.39304">
        <ele>966.1</ele>
        <time>2019-10-27T10:08:38Z</time>
      </trkpt>
      <trkpt lat="43.98847" lon="5.39307">
        <ele>966.4</ele>
        <time>2019-10-27T10:08:39Z</time>
      </trkpt>
      <trkpt lat="43.98851" lon="5.39312">
        <ele>966.8</ele>
        <time>2019-10-27T10:08:41Z</time>
      </trkpt>
      <trkpt lat="43.98853" lon="5.39315">
        <ele>967</ele>
        <time>2019-10-27T10:08:42Z</time>
      </trkpt>
      <trkpt lat="43.98854" lon="5.39318">
        <ele>967.3</ele>
        <time>2019-10-27T10:08:43Z</time>
      </trkpt>
      <trkpt lat="43.98856" lon="5.39321">
        <ele>967.5</ele>
        <time>2019-10-27T10:08:44Z</time>
      </trkpt>
      <trkpt lat="43.98858" lon="5.39325">
        <ele>967.7</ele>
        <time>2019-10-27T10:08:45Z</time>
      </trkpt>
      <trkpt lat="43.9886" lon="5.39328">
        <ele>967.9</ele>
        <time>2019-10-27T10:08:46Z</time>
      </trkpt>
      <trkpt lat="43.98861" lon="5.39331">
        <ele>968</ele>
        <time>2019-10-27T10:08:47Z</time>
      </trkpt>
      <trkpt lat="43.98863" lon="5.39337">
        <ele>968.3</ele>
        <time>2019-10-27T10:08:49Z</time>
      </trkpt>
      <trkpt lat="43.98865" lon="5.39344">
        <ele>968.5</ele>
        <time>2019-10-27T10:08:51Z</time>
      </trkpt>
      <trkpt lat="43.98867" lon="5.3935">
        <ele>968.8</ele>
        <time>2019-10-27T10:08:53Z</time>
      </trkpt>
      <trkpt lat="43.98869" lon="5.39356">
        <ele>969.1</ele>
        <time>2019-10-27T10:08:55Z</time>
      </trkpt>
      <trkpt lat="43.98871" lon="5.39363">
        <ele>969.5</ele>
        <time>2019-10-27T10:08:57Z</time>
      </trkpt>
      <trkpt lat="43.98873" lon="5.39366">
        <ele>969.7</ele>
        <time>2019-10-27T10:08:58Z</time>
      </trkpt>
      <trkpt lat="43.98874" lon="5.39369">
        <ele>969.9</ele>
        <time>2019-10-27T10:08:59Z</time>
      </trkpt>
      <trkpt lat="43.98876" lon="5.39373">
        <ele>970.1</ele>
        <time>2019-10-27T10:09:00Z</time>
      </trkpt>
      <trkpt lat="43.98878" lon="5.39376">
        <ele>970.3</ele>
        <time>2019-10-27T10:09:01Z</time>
      </trkpt>
      <trkpt lat="43.98879" lon="5.39379">
        <ele>970.5</ele>
        <time>2019-10-27T10:09:02Z</time>
      </trkpt>
      <trkpt lat="43.98881" lon="5.39382">
        <ele>970.7</ele>
        <time>2019-10-27T10:09:03Z</time>
      </trkpt>
      <trkpt lat="43.98884" lon="5.39388">
        <ele>971</ele>
        <time>2019-10-27T10:09:05Z</time>
      </trkpt>
      <trkpt lat="43.98886" lon="5.39393">
        <ele>971.3</ele>
        <time>2019-10-27T10:09:07Z</time>
      </trkpt>
      <trkpt lat="43.98889" lon="5.39398">
        <ele>971.6</ele>
        <time>2019-10-27T10:09:09Z</time>
      </trkpt>
      <trkpt lat="43.98892" lon="5.39405">
        <ele>972</ele>
        <time>2019-10-27T10:09:11Z</time>
      </trkpt>
      <trkpt lat="43.98895" lon="5.39411">
        <ele>972.4</ele>
        <time>2019-10-27T10:09:13Z</time>
      </trkpt>
      <trkpt lat="43.98898" lon="5.39417">
        <ele>972.8</ele>
        <time>2019-10-27T10:09:15Z</time>
      </trkpt>
      <trkpt lat="43.98901" lon="5.39423">
        <ele>973.2</ele>
        <time>2019-10-27T10:09:17Z</time>
      </trkpt>
      <trkpt lat="43.98903" lon="5.3943">
        <ele>973.5</ele>
        <time>2019-10-27T10:09:19Z</time>
      </trkpt>
      <trkpt lat="43.98906" lon="5.39436">
        <ele>973.9</ele>
        <time>2019-10-27T10:09:21Z</time>
      </trkpt>
      <trkpt lat="43.98908" lon="5.39442">
        <ele>974.2</ele>
        <time>2019-10-27T10:09:23Z</time>
      </trkpt>
      <trkpt lat="43.9891" lon="5.39449">
        <ele>974.6</ele>
        <time>2019-10-27T10:09:25Z</time>
      </trkpt>
      <trkpt lat="43.98912" lon="5.39456">
        <ele>974.8</ele>
        <time>2019-10-27T10:09:27Z</time>
      </trkpt>
      <trkpt lat="43.98914" lon="5.39462">
        <ele>975.1</ele>
        <time>2019-10-27T10:09:29Z</time>
      </trkpt>
      <trkpt lat="43.98915" lon="5.39466">
        <ele>975.3</ele>
        <time>2019-10-27T10:09:30Z</time>
      </trkpt>
      <trkpt lat="43.98918" lon="5.39472">
        <ele>975.6</ele>
        <time>2019-10-27T10:09:32Z</time>
      </trkpt>
      <trkpt lat="43.9892" lon="5.39475">
        <ele>975.7</ele>
        <time>2019-10-27T10:09:33Z</time>
      </trkpt>
      <trkpt lat="43.98922" lon="5.39481">
        <ele>976</ele>
        <time>2019-10-27T10:09:35Z</time>
      </trkpt>
      <trkpt lat="43.98925" lon="5.39487">
        <ele>976.4</ele>
        <time>2019-10-27T10:09:37Z</time>
      </trkpt>
      <trkpt lat="43.98928" lon="5.39493">
        <ele>976.7</ele>
        <time>2019-10-27T10:09:39Z</time>
      </trkpt>
      <trkpt lat="43.98931" lon="5.39498">
        <ele>977.1</ele>
        <time>2019-10-27T10:09:41Z</time>
      </trkpt>
      <trkpt lat="43.98935" lon="5.39502">
        <ele>977.3</ele>
        <time>2019-10-27T10:09:43Z</time>
      </trkpt>
      <trkpt lat="43.98939" lon="5.39506">
        <ele>977.6</ele>
        <time>2019-10-27T10:09:45Z</time>
      </trkpt>
      <trkpt lat="43.98943" lon="5.3951">
        <ele>977.9</ele>
        <time>2019-10-27T10:09:47Z</time>
      </trkpt>
      <trkpt lat="43.98947" lon="5.39514">
        <ele>978.3</ele>
        <time>2019-10-27T10:09:49Z</time>
      </trkpt>
      <trkpt lat="43.98949" lon="5.39517">
        <ele>978.4</ele>
        <time>2019-10-27T10:09:50Z</time>
      </trkpt>
      <trkpt lat="43.98952" lon="5.39523">
        <ele>978.6</ele>
        <time>2019-10-27T10:09:52Z</time>
      </trkpt>
      <trkpt lat="43.98954" lon="5.39528">
        <ele>978.9</ele>
        <time>2019-10-27T10:09:54Z</time>
      </trkpt>
      <trkpt lat="43.98958" lon="5.39533">
        <ele>979.1</ele>
        <time>2019-10-27T10:09:56Z</time>
      </trkpt>
      <trkpt lat="43.98962" lon="5.39538">
        <ele>979.3</ele>
        <time>2019-10-27T10:09:58Z</time>
      </trkpt>
      <trkpt lat="43.98966" lon="5.39542">
        <ele>979.6</ele>
        <time>2019-10-27T10:10:00Z</time>
      </trkpt>
      <trkpt lat="43.98968" lon="5.39545">
        <ele>979.7</ele>
        <time>2019-10-27T10:10:01Z</time>
      </trkpt>
      <trkpt lat="43.98973" lon="5.3955">
        <ele>979.9</ele>
        <time>2019-10-27T10:10:03Z</time>
      </trkpt>
      <trkpt lat="43.98977" lon="5.39555">
        <ele>980.2</ele>
        <time>2019-10-27T10:10:05Z</time>
      </trkpt>
      <trkpt lat="43.98978" lon="5.39557">
        <ele>980.4</ele>
        <time>2019-10-27T10:10:06Z</time>
      </trkpt>
      <trkpt lat="43.9898" lon="5.3956">
        <ele>980.5</ele>
        <time>2019-10-27T10:10:07Z</time>
      </trkpt>
      <trkpt lat="43.98982" lon="5.39563">
        <ele>980.7</ele>
        <time>2019-10-27T10:10:08Z</time>
      </trkpt>
      <trkpt lat="43.98985" lon="5.39568">
        <ele>980.9</ele>
        <time>2019-10-27T10:10:10Z</time>
      </trkpt>
      <trkpt lat="43.98989" lon="5.39573">
        <ele>981.2</ele>
        <time>2019-10-27T10:10:12Z</time>
      </trkpt>
      <trkpt lat="43.98991" lon="5.39576">
        <ele>981.3</ele>
        <time>2019-10-27T10:10:13Z</time>
      </trkpt>
      <trkpt lat="43.98992" lon="5.39579">
        <ele>981.4</ele>
        <time>2019-10-27T10:10:14Z</time>
      </trkpt>
      <trkpt lat="43.98996" lon="5.39584">
        <ele>981.6</ele>
        <time>2019-10-27T10:10:16Z</time>
      </trkpt>
      <trkpt lat="43.98998" lon="5.39587">
        <ele>981.7</ele>
        <time>2019-10-27T10:10:17Z</time>
      </trkpt>
      <trkpt lat="43.99002" lon="5.39593">
        <ele>981.8</ele>
        <time>2019-10-27T10:10:19Z</time>
      </trkpt>
      <trkpt lat="43.99003" lon="5.39596">
        <ele>981.9</ele>
        <time>2019-10-27T10:10:20Z</time>
      </trkpt>
      <trkpt lat="43.99005" lon="5.39599">
        <ele>982</ele>
        <time>2019-10-27T10:10:21Z</time>
      </trkpt>
      <trkpt lat="43.99007" lon="5.39602">
        <ele>982</ele>
        <time>2019-10-27T10:10:22Z</time>
      </trkpt>
      <trkpt lat="43.99009" lon="5.39605">
        <ele>982.1</ele>
        <time>2019-10-27T10:10:23Z</time>
      </trkpt>
      <trkpt lat="43.99011" lon="5.39608">
        <ele>982.3</ele>
        <time>2019-10-27T10:10:24Z</time>
      </trkpt>
      <trkpt lat="43.99013" lon="5.39611">
        <ele>982.4</ele>
        <time>2019-10-27T10:10:25Z</time>
      </trkpt>
      <trkpt lat="43.99015" lon="5.39614">
        <ele>982.5</ele>
        <time>2019-10-27T10:10:26Z</time>
      </trkpt>
      <trkpt lat="43.99017" lon="5.39617">
        <ele>982.6</ele>
        <time>2019-10-27T10:10:27Z</time>
      </trkpt>
      <trkpt lat="43.99021" lon="5.39623">
        <ele>982.8</ele>
        <time>2019-10-27T10:10:29Z</time>
      </trkpt>
      <trkpt lat="43.99023" lon="5.39626">
        <ele>983</ele>
        <time>2019-10-27T10:10:30Z</time>
      </trkpt>
      <trkpt lat="43.99025" lon="5.39629">
        <ele>983</ele>
        <time>2019-10-27T10:10:31Z</time>
      </trkpt>
      <trkpt lat="43.99027" lon="5.39632">
        <ele>983.1</ele>
        <time>2019-10-27T10:10:32Z</time>
      </trkpt>
      <trkpt lat="43.9903" lon="5.39635">
        <ele>983.2</ele>
        <time>2019-10-27T10:10:33Z</time>
      </trkpt>
      <trkpt lat="43.99032" lon="5.39637">
        <ele>983.2</ele>
        <time>2019-10-27T10:10:34Z</time>
      </trkpt>
      <trkpt lat="43.99034" lon="5.3964">
        <ele>983.2</ele>
        <time>2019-10-27T10:10:35Z</time>
      </trkpt>
      <trkpt lat="43.99037" lon="5.39642">
        <ele>983.2</ele>
        <time>2019-10-27T10:10:36Z</time>
      </trkpt>
      <trkpt lat="43.99039" lon="5.39645">
        <ele>983.2</ele>
        <time>2019-10-27T10:10:37Z</time>
      </trkpt>
      <trkpt lat="43.99042" lon="5.39647">
        <ele>983.1</ele>
        <time>2019-10-27T10:10:38Z</time>
      </trkpt>
      <trkpt lat="43.99046" lon="5.39649">
        <ele>983.1</ele>
        <time>2019-10-27T10:10:39Z</time>
      </trkpt>
      <trkpt lat="43.99049" lon="5.39652">
        <ele>983</ele>
        <time>2019-10-27T10:10:40Z</time>
      </trkpt>
      <trkpt lat="43.99052" lon="5.39654">
        <ele>982.9</ele>
        <time>2019-10-27T10:10:41Z</time>
      </trkpt>
      <trkpt lat="43.99055" lon="5.39656">
        <ele>982.8</ele>
        <time>2019-10-27T10:10:42Z</time>
      </trkpt>
      <trkpt lat="43.99058" lon="5.39659">
        <ele>982.8</ele>
        <time>2019-10-27T10:10:43Z</time>
      </trkpt>
      <trkpt lat="43.99061" lon="5.39661">
        <ele>982.7</ele>
        <time>2019-10-27T10:10:44Z</time>
      </trkpt>
      <trkpt lat="43.99065" lon="5.39664">
        <ele>982.7</ele>
        <time>2019-10-27T10:10:45Z</time>
      </trkpt>
      <trkpt lat="43.99068" lon="5.39666">
        <ele>982.6</ele>
        <time>2019-10-27T10:10:46Z</time>
      </trkpt>
      <trkpt lat="43.9907" lon="5.39669">
        <ele>982.6</ele>
        <time>2019-10-27T10:10:47Z</time>
      </trkpt>
      <trkpt lat="43.99073" lon="5.39672">
        <ele>982.6</ele>
        <time>2019-10-27T10:10:48Z</time>
      </trkpt>
      <trkpt lat="43.99076" lon="5.39674">
        <ele>982.6</ele>
        <time>2019-10-27T10:10:49Z</time>
      </trkpt>
      <trkpt lat="43.99078" lon="5.39677">
        <ele>982.7</ele>
        <time>2019-10-27T10:10:50Z</time>
      </trkpt>
      <trkpt lat="43.99079" lon="5.39681">
        <ele>982.7</ele>
        <time>2019-10-27T10:10:51Z</time>
      </trkpt>
      <trkpt lat="43.99082" lon="5.39687">
        <ele>982.9</ele>
        <time>2019-10-27T10:10:53Z</time>
      </trkpt>
      <trkpt lat="43.99083" lon="5.39691">
        <ele>983</ele>
        <time>2019-10-27T10:10:54Z</time>
      </trkpt>
      <trkpt lat="43.99084" lon="5.39696">
        <ele>983.2</ele>
        <time>2019-10-27T10:10:55Z</time>
      </trkpt>
      <trkpt lat="43.99085" lon="5.397">
        <ele>983.4</ele>
        <time>2019-10-27T10:10:56Z</time>
      </trkpt>
      <trkpt lat="43.99085" lon="5.39704">
        <ele>983.7</ele>
        <time>2019-10-27T10:10:57Z</time>
      </trkpt>
      <trkpt lat="43.99085" lon="5.3971">
        <ele>984.1</ele>
        <time>2019-10-27T10:10:59Z</time>
      </trkpt>
      <trkpt lat="43.99085" lon="5.39717">
        <ele>984.6</ele>
        <time>2019-10-27T10:11:01Z</time>
      </trkpt>
      <trkpt lat="43.99085" lon="5.39724">
        <ele>985</ele>
        <time>2019-10-27T10:11:03Z</time>
      </trkpt>
      <trkpt lat="43.99086" lon="5.39731">
        <ele>985.4</ele>
        <time>2019-10-27T10:11:05Z</time>
      </trkpt>
      <trkpt lat="43.99086" lon="5.39738">
        <ele>985.8</ele>
        <time>2019-10-27T10:11:07Z</time>
      </trkpt>
      <trkpt lat="43.99086" lon="5.39745">
        <ele>986.2</ele>
        <time>2019-10-27T10:11:09Z</time>
      </trkpt>
      <trkpt lat="43.99085" lon="5.39751">
        <ele>986.6</ele>
        <time>2019-10-27T10:11:11Z</time>
      </trkpt>
      <trkpt lat="43.99085" lon="5.39757">
        <ele>987</ele>
        <time>2019-10-27T10:11:13Z</time>
      </trkpt>
      <trkpt lat="43.99086" lon="5.39764">
        <ele>987.4</ele>
        <time>2019-10-27T10:11:15Z</time>
      </trkpt>
      <trkpt lat="43.99086" lon="5.39769">
        <ele>987.7</ele>
        <time>2019-10-27T10:11:17Z</time>
      </trkpt>
      <trkpt lat="43.99085" lon="5.39775">
        <ele>987.9</ele>
        <time>2019-10-27T10:11:19Z</time>
      </trkpt>
      <trkpt lat="43.99085" lon="5.3978">
        <ele>988</ele>
        <time>2019-10-27T10:11:21Z</time>
      </trkpt>
      <trkpt lat="43.99085" lon="5.39786">
        <ele>988.1</ele>
        <time>2019-10-27T10:11:23Z</time>
      </trkpt>
      <trkpt lat="43.99085" lon="5.39791">
        <ele>988.2</ele>
        <time>2019-10-27T10:11:25Z</time>
      </trkpt>
      <trkpt lat="43.99084" lon="5.39798">
        <ele>988.3</ele>
        <time>2019-10-27T10:11:27Z</time>
      </trkpt>
      <trkpt lat="43.99084" lon="5.39804">
        <ele>988.4</ele>
        <time>2019-10-27T10:11:29Z</time>
      </trkpt>
      <trkpt lat="43.99084" lon="5.3981">
        <ele>988.5</ele>
        <time>2019-10-27T10:11:31Z</time>
      </trkpt>
      <trkpt lat="43.99084" lon="5.39818">
        <ele>988.7</ele>
        <time>2019-10-27T10:11:33Z</time>
      </trkpt>
      <trkpt lat="43.99084" lon="5.39822">
        <ele>988.7</ele>
        <time>2019-10-27T10:11:34Z</time>
      </trkpt>
      <trkpt lat="43.99084" lon="5.39826">
        <ele>988.8</ele>
        <time>2019-10-27T10:11:35Z</time>
      </trkpt>
      <trkpt lat="43.99084" lon="5.39833">
        <ele>988.9</ele>
        <time>2019-10-27T10:11:37Z</time>
      </trkpt>
      <trkpt lat="43.99084" lon="5.39836">
        <ele>988.9</ele>
        <time>2019-10-27T10:11:38Z</time>
      </trkpt>
      <trkpt lat="43.99084" lon="5.39844">
        <ele>989</ele>
        <time>2019-10-27T10:11:40Z</time>
      </trkpt>
      <trkpt lat="43.99084" lon="5.39848">
        <ele>989.1</ele>
        <time>2019-10-27T10:11:41Z</time>
      </trkpt>
      <trkpt lat="43.99083" lon="5.39852">
        <ele>989.1</ele>
        <time>2019-10-27T10:11:42Z</time>
      </trkpt>
      <trkpt lat="43.99083" lon="5.39856">
        <ele>989.1</ele>
        <time>2019-10-27T10:11:43Z</time>
      </trkpt>
      <trkpt lat="43.99083" lon="5.39859">
        <ele>989.2</ele>
        <time>2019-10-27T10:11:44Z</time>
      </trkpt>
      <trkpt lat="43.99083" lon="5.39867">
        <ele>989.2</ele>
        <time>2019-10-27T10:11:46Z</time>
      </trkpt>
      <trkpt lat="43.99082" lon="5.39874">
        <ele>989.3</ele>
        <time>2019-10-27T10:11:48Z</time>
      </trkpt>
      <trkpt lat="43.99082" lon="5.39881">
        <ele>989.3</ele>
        <time>2019-10-27T10:11:50Z</time>
      </trkpt>
      <trkpt lat="43.99081" lon="5.39888">
        <ele>989.3</ele>
        <time>2019-10-27T10:11:52Z</time>
      </trkpt>
      <trkpt lat="43.9908" lon="5.39895">
        <ele>989.3</ele>
        <time>2019-10-27T10:11:54Z</time>
      </trkpt>
      <trkpt lat="43.9908" lon="5.39902">
        <ele>989.4</ele>
        <time>2019-10-27T10:11:56Z</time>
      </trkpt>
      <trkpt lat="43.99079" lon="5.39909">
        <ele>989.5</ele>
        <time>2019-10-27T10:11:58Z</time>
      </trkpt>
      <trkpt lat="43.99079" lon="5.39913">
        <ele>989.5</ele>
        <time>2019-10-27T10:11:59Z</time>
      </trkpt>
      <trkpt lat="43.99079" lon="5.39917">
        <ele>989.6</ele>
        <time>2019-10-27T10:12:00Z</time>
      </trkpt>
      <trkpt lat="43.99079" lon="5.39922">
        <ele>989.7</ele>
        <time>2019-10-27T10:12:01Z</time>
      </trkpt>
      <trkpt lat="43.99078" lon="5.39926">
        <ele>989.7</ele>
        <time>2019-10-27T10:12:02Z</time>
      </trkpt>
      <trkpt lat="43.99078" lon="5.39929">
        <ele>989.8</ele>
        <time>2019-10-27T10:12:03Z</time>
      </trkpt>
      <trkpt lat="43.99078" lon="5.39934">
        <ele>989.9</ele>
        <time>2019-10-27T10:12:04Z</time>
      </trkpt>
      <trkpt lat="43.99078" lon="5.39941">
        <ele>989.9</ele>
        <time>2019-10-27T10:12:06Z</time>
      </trkpt>
      <trkpt lat="43.99078" lon="5.39945">
        <ele>990</ele>
        <time>2019-10-27T10:12:07Z</time>
      </trkpt>
      <trkpt lat="43.99078" lon="5.39949">
        <ele>990</ele>
        <time>2019-10-27T10:12:08Z</time>
      </trkpt>
      <trkpt lat="43.99077" lon="5.39953">
        <ele>990</ele>
        <time>2019-10-27T10:12:09Z</time>
      </trkpt>
      <trkpt lat="43.99077" lon="5.3996">
        <ele>990</ele>
        <time>2019-10-27T10:12:11Z</time>
      </trkpt>
      <trkpt lat="43.99077" lon="5.39967">
        <ele>990</ele>
        <time>2019-10-27T10:12:13Z</time>
      </trkpt>
      <trkpt lat="43.99077" lon="5.39974">
        <ele>990.1</ele>
        <time>2019-10-27T10:12:15Z</time>
      </trkpt>
      <trkpt lat="43.99077" lon="5.39979">
        <ele>989.3</ele>
        <time>2019-10-27T10:12:16Z</time>
      </trkpt>
      <trkpt lat="43.99077" lon="5.39983">
        <ele>989.1</ele>
        <time>2019-10-27T10:12:17Z</time>
      </trkpt>
      <trkpt lat="43.99078" lon="5.39988">
        <ele>988.9</ele>
        <time>2019-10-27T10:12:18Z</time>
      </trkpt>
      <trkpt lat="43.99077" lon="5.39992">
        <ele>988.7</ele>
        <time>2019-10-27T10:12:19Z</time>
      </trkpt>
      <trkpt lat="43.99077" lon="5.39997">
        <ele>988.5</ele>
        <time>2019-10-27T10:12:20Z</time>
      </trkpt>
      <trkpt lat="43.99075" lon="5.4">
        <ele>988.3</ele>
        <time>2019-10-27T10:12:21Z</time>
      </trkpt>
      <trkpt lat="43.99072" lon="5.40003">
        <ele>988</ele>
        <time>2019-10-27T10:12:22Z</time>
      </trkpt>
      <trkpt lat="43.99068" lon="5.40007">
        <ele>987.1</ele>
        <time>2019-10-27T10:12:23Z</time>
      </trkpt>
      <trkpt lat="43.99063" lon="5.40011">
        <ele>986.6</ele>
        <time>2019-10-27T10:12:24Z</time>
      </trkpt>
      <trkpt lat="43.99058" lon="5.40015">
        <ele>985.7</ele>
        <time>2019-10-27T10:12:25Z</time>
      </trkpt>
      <trkpt lat="43.99052" lon="5.4002">
        <ele>984.8</ele>
        <time>2019-10-27T10:12:26Z</time>
      </trkpt>
      <trkpt lat="43.99045" lon="5.40026">
        <ele>983.8</ele>
        <time>2019-10-27T10:12:27Z</time>
      </trkpt>
      <trkpt lat="43.99038" lon="5.40031">
        <ele>982.3</ele>
        <time>2019-10-27T10:12:28Z</time>
      </trkpt>
      <trkpt lat="43.99031" lon="5.40037">
        <ele>980.7</ele>
        <time>2019-10-27T10:12:29Z</time>
      </trkpt>
      <trkpt lat="43.99024" lon="5.40042">
        <ele>978.9</ele>
        <time>2019-10-27T10:12:30Z</time>
      </trkpt>
      <trkpt lat="43.99017" lon="5.40048">
        <ele>977</ele>
        <time>2019-10-27T10:12:31Z</time>
      </trkpt>
      <trkpt lat="43.9901" lon="5.40054">
        <ele>975.1</ele>
        <time>2019-10-27T10:12:32Z</time>
      </trkpt>
      <trkpt lat="43.99004" lon="5.4006">
        <ele>973.3</ele>
        <time>2019-10-27T10:12:33Z</time>
      </trkpt>
      <trkpt lat="43.98999" lon="5.40065">
        <ele>971.8</ele>
        <time>2019-10-27T10:12:34Z</time>
      </trkpt>
      <trkpt lat="43.98994" lon="5.4007">
        <ele>970.5</ele>
        <time>2019-10-27T10:12:35Z</time>
      </trkpt>
      <trkpt lat="43.9899" lon="5.40075">
        <ele>969.3</ele>
        <time>2019-10-27T10:12:36Z</time>
      </trkpt>
      <trkpt lat="43.98987" lon="5.40078">
        <ele>968.2</ele>
        <time>2019-10-27T10:12:37Z</time>
      </trkpt>
      <trkpt lat="43.98983" lon="5.40081">
        <ele>967.3</ele>
        <time>2019-10-27T10:12:38Z</time>
      </trkpt>
      <trkpt lat="43.98979" lon="5.40079">
        <ele>966.2</ele>
        <time>2019-10-27T10:12:39Z</time>
      </trkpt>
      <trkpt lat="43.98975" lon="5.40076">
        <ele>965.7</ele>
        <time>2019-10-27T10:12:40Z</time>
      </trkpt>
      <trkpt lat="43.98972" lon="5.40072">
        <ele>965.2</ele>
        <time>2019-10-27T10:12:41Z</time>
      </trkpt>
      <trkpt lat="43.9897" lon="5.40068">
        <ele>964.9</ele>
        <time>2019-10-27T10:12:42Z</time>
      </trkpt>
      <trkpt lat="43.98966" lon="5.40063">
        <ele>964.4</ele>
        <time>2019-10-27T10:12:43Z</time>
      </trkpt>
      <trkpt lat="43.98962" lon="5.40057">
        <ele>963.8</ele>
        <time>2019-10-27T10:12:44Z</time>
      </trkpt>
      <trkpt lat="43.98957" lon="5.40051">
        <ele>963.2</ele>
        <time>2019-10-27T10:12:45Z</time>
      </trkpt>
      <trkpt lat="43.98951" lon="5.40045">
        <ele>962.5</ele>
        <time>2019-10-27T10:12:46Z</time>
      </trkpt>
      <trkpt lat="43.98945" lon="5.40039">
        <ele>961.9</ele>
        <time>2019-10-27T10:12:47Z</time>
      </trkpt>
      <trkpt lat="43.98939" lon="5.40033">
        <ele>961.2</ele>
        <time>2019-10-27T10:12:48Z</time>
      </trkpt>
      <trkpt lat="43.98933" lon="5.40028">
        <ele>960.5</ele>
        <time>2019-10-27T10:12:49Z</time>
      </trkpt>
      <trkpt lat="43.98928" lon="5.40022">
        <ele>959.9</ele>
        <time>2019-10-27T10:12:50Z</time>
      </trkpt>
      <trkpt lat="43.98923" lon="5.40017">
        <ele>959.3</ele>
        <time>2019-10-27T10:12:51Z</time>
      </trkpt>
      <trkpt lat="43.98916" lon="5.40011">
        <ele>958.6</ele>
        <time>2019-10-27T10:12:52Z</time>
      </trkpt>
      <trkpt lat="43.98909" lon="5.40005">
        <ele>958</ele>
        <time>2019-10-27T10:12:53Z</time>
      </trkpt>
      <trkpt lat="43.98902" lon="5.4">
        <ele>957.5</ele>
        <time>2019-10-27T10:12:54Z</time>
      </trkpt>
      <trkpt lat="43.98896" lon="5.39993">
        <ele>956.9</ele>
        <time>2019-10-27T10:12:55Z</time>
      </trkpt>
      <trkpt lat="43.98891" lon="5.39985">
        <ele>956.2</ele>
        <time>2019-10-27T10:12:56Z</time>
      </trkpt>
      <trkpt lat="43.98885" lon="5.39975">
        <ele>955.5</ele>
        <time>2019-10-27T10:12:57Z</time>
      </trkpt>
      <trkpt lat="43.9888" lon="5.39967">
        <ele>954.8</ele>
        <time>2019-10-27T10:12:58Z</time>
      </trkpt>
      <trkpt lat="43.98874" lon="5.39959">
        <ele>954.2</ele>
        <time>2019-10-27T10:12:59Z</time>
      </trkpt>
      <trkpt lat="43.98869" lon="5.39952">
        <ele>953.6</ele>
        <time>2019-10-27T10:13:00Z</time>
      </trkpt>
      <trkpt lat="43.98864" lon="5.39945">
        <ele>953</ele>
        <time>2019-10-27T10:13:01Z</time>
      </trkpt>
      <trkpt lat="43.9886" lon="5.39937">
        <ele>952.3</ele>
        <time>2019-10-27T10:13:02Z</time>
      </trkpt>
      <trkpt lat="43.98855" lon="5.39928">
        <ele>951.6</ele>
        <time>2019-10-27T10:13:03Z</time>
      </trkpt>
      <trkpt lat="43.9885" lon="5.3992">
        <ele>950.8</ele>
        <time>2019-10-27T10:13:04Z</time>
      </trkpt>
      <trkpt lat="43.98843" lon="5.39912">
        <ele>949.9</ele>
        <time>2019-10-27T10:13:05Z</time>
      </trkpt>
      <trkpt lat="43.98837" lon="5.39902">
        <ele>949</ele>
        <time>2019-10-27T10:13:06Z</time>
      </trkpt>
      <trkpt lat="43.9883" lon="5.39894">
        <ele>948.3</ele>
        <time>2019-10-27T10:13:07Z</time>
      </trkpt>
      <trkpt lat="43.98823" lon="5.39886">
        <ele>947.8</ele>
        <time>2019-10-27T10:13:08Z</time>
      </trkpt>
      <trkpt lat="43.98819" lon="5.39878">
        <ele>947.4</ele>
        <time>2019-10-27T10:13:09Z</time>
      </trkpt>
      <trkpt lat="43.98814" lon="5.39871">
        <ele>947.1</ele>
        <time>2019-10-27T10:13:10Z</time>
      </trkpt>
      <trkpt lat="43.98809" lon="5.39863">
        <ele>946.7</ele>
        <time>2019-10-27T10:13:11Z</time>
      </trkpt>
      <trkpt lat="43.98804" lon="5.39856">
        <ele>946.2</ele>
        <time>2019-10-27T10:13:12Z</time>
      </trkpt>
      <trkpt lat="43.98799" lon="5.39848">
        <ele>945.6</ele>
        <time>2019-10-27T10:13:13Z</time>
      </trkpt>
      <trkpt lat="43.98794" lon="5.3984">
        <ele>945</ele>
        <time>2019-10-27T10:13:14Z</time>
      </trkpt>
      <trkpt lat="43.9879" lon="5.39831">
        <ele>944.5</ele>
        <time>2019-10-27T10:13:15Z</time>
      </trkpt>
      <trkpt lat="43.98786" lon="5.39823">
        <ele>943.9</ele>
        <time>2019-10-27T10:13:16Z</time>
      </trkpt>
      <trkpt lat="43.98782" lon="5.39815">
        <ele>943.3</ele>
        <time>2019-10-27T10:13:17Z</time>
      </trkpt>
      <trkpt lat="43.98777" lon="5.39808">
        <ele>942.6</ele>
        <time>2019-10-27T10:13:18Z</time>
      </trkpt>
      <trkpt lat="43.98772" lon="5.39804">
        <ele>941.9</ele>
        <time>2019-10-27T10:13:19Z</time>
      </trkpt>
      <trkpt lat="43.98766" lon="5.398">
        <ele>941.1</ele>
        <time>2019-10-27T10:13:20Z</time>
      </trkpt>
      <trkpt lat="43.9876" lon="5.39796">
        <ele>940.3</ele>
        <time>2019-10-27T10:13:21Z</time>
      </trkpt>
      <trkpt lat="43.98754" lon="5.39792">
        <ele>939.5</ele>
        <time>2019-10-27T10:13:22Z</time>
      </trkpt>
      <trkpt lat="43.98749" lon="5.39788">
        <ele>939</ele>
        <time>2019-10-27T10:13:23Z</time>
      </trkpt>
      <trkpt lat="43.98743" lon="5.39783">
        <ele>938.6</ele>
        <time>2019-10-27T10:13:24Z</time>
      </trkpt>
      <trkpt lat="43.98737" lon="5.39779">
        <ele>938.4</ele>
        <time>2019-10-27T10:13:25Z</time>
      </trkpt>
      <trkpt lat="43.9873" lon="5.39774">
        <ele>938.3</ele>
        <time>2019-10-27T10:13:26Z</time>
      </trkpt>
      <trkpt lat="43.98724" lon="5.39768">
        <ele>938.3</ele>
        <time>2019-10-27T10:13:27Z</time>
      </trkpt>
      <trkpt lat="43.98718" lon="5.39762">
        <ele>938.4</ele>
        <time>2019-10-27T10:13:28Z</time>
      </trkpt>
      <trkpt lat="43.98713" lon="5.39757">
        <ele>938.4</ele>
        <time>2019-10-27T10:13:29Z</time>
      </trkpt>
      <trkpt lat="43.98707" lon="5.39753">
        <ele>938.5</ele>
        <time>2019-10-27T10:13:30Z</time>
      </trkpt>
      <trkpt lat="43.98701" lon="5.39752">
        <ele>938.5</ele>
        <time>2019-10-27T10:13:31Z</time>
      </trkpt>
      <trkpt lat="43.98696" lon="5.39752">
        <ele>938.5</ele>
        <time>2019-10-27T10:13:32Z</time>
      </trkpt>
      <trkpt lat="43.98692" lon="5.39752">
        <ele>938.6</ele>
        <time>2019-10-27T10:13:33Z</time>
      </trkpt>
      <trkpt lat="43.98689" lon="5.39752">
        <ele>938.9</ele>
        <time>2019-10-27T10:13:34Z</time>
      </trkpt>
      <trkpt lat="43.98685" lon="5.39752">
        <ele>939.2</ele>
        <time>2019-10-27T10:13:36Z</time>
      </trkpt>
      <trkpt lat="43.98681" lon="5.39751">
        <ele>939.6</ele>
        <time>2019-10-27T10:13:38Z</time>
      </trkpt>
      <trkpt lat="43.98677" lon="5.3975">
        <ele>940</ele>
        <time>2019-10-27T10:13:40Z</time>
      </trkpt>
      <trkpt lat="43.98673" lon="5.39749">
        <ele>940.2</ele>
        <time>2019-10-27T10:13:42Z</time>
      </trkpt>
      <trkpt lat="43.98669" lon="5.39748">
        <ele>940.6</ele>
        <time>2019-10-27T10:13:44Z</time>
      </trkpt>
      <trkpt lat="43.98665" lon="5.39747">
        <ele>940.9</ele>
        <time>2019-10-27T10:13:46Z</time>
      </trkpt>
      <trkpt lat="43.98662" lon="5.39747">
        <ele>941.2</ele>
        <time>2019-10-27T10:13:48Z</time>
      </trkpt>
      <trkpt lat="43.98658" lon="5.39746">
        <ele>941.5</ele>
        <time>2019-10-27T10:13:50Z</time>
      </trkpt>
      <trkpt lat="43.98653" lon="5.39745">
        <ele>941.8</ele>
        <time>2019-10-27T10:13:52Z</time>
      </trkpt>
      <trkpt lat="43.9865" lon="5.39746">
        <ele>942</ele>
        <time>2019-10-27T10:13:54Z</time>
      </trkpt>
      <trkpt lat="43.98647" lon="5.39746">
        <ele>942.2</ele>
        <time>2019-10-27T10:13:56Z</time>
      </trkpt>
      <trkpt lat="43.98644" lon="5.39747">
        <ele>942.4</ele>
        <time>2019-10-27T10:13:58Z</time>
      </trkpt>
      <trkpt lat="43.98641" lon="5.39748">
        <ele>942.7</ele>
        <time>2019-10-27T10:14:00Z</time>
      </trkpt>
      <trkpt lat="43.98637" lon="5.39748">
        <ele>943</ele>
        <time>2019-10-27T10:14:02Z</time>
      </trkpt>
      <trkpt lat="43.98634" lon="5.39749">
        <ele>943.3</ele>
        <time>2019-10-27T10:14:04Z</time>
      </trkpt>
      <trkpt lat="43.98631" lon="5.3975">
        <ele>943.6</ele>
        <time>2019-10-27T10:14:06Z</time>
      </trkpt>
      <trkpt lat="43.98627" lon="5.39751">
        <ele>944</ele>
        <time>2019-10-27T10:14:08Z</time>
      </trkpt>
      <trkpt lat="43.98624" lon="5.39752">
        <ele>944.3</ele>
        <time>2019-10-27T10:14:10Z</time>
      </trkpt>
      <trkpt lat="43.98621" lon="5.39754">
        <ele>944.7</ele>
        <time>2019-10-27T10:14:12Z</time>
      </trkpt>
      <trkpt lat="43.98618" lon="5.39754">
        <ele>945.1</ele>
        <time>2019-10-27T10:14:14Z</time>
      </trkpt>
      <trkpt lat="43.98615" lon="5.39756">
        <ele>945.4</ele>
        <time>2019-10-27T10:14:16Z</time>
      </trkpt>
      <trkpt lat="43.98613" lon="5.39757">
        <ele>945.7</ele>
        <time>2019-10-27T10:14:18Z</time>
      </trkpt>
      <trkpt lat="43.98609" lon="5.3976">
        <ele>946.2</ele>
        <time>2019-10-27T10:14:21Z</time>
      </trkpt>
      <trkpt lat="43.98605" lon="5.39762">
        <ele>946.6</ele>
        <time>2019-10-27T10:14:24Z</time>
      </trkpt>
      <trkpt lat="43.98602" lon="5.39764">
        <ele>947</ele>
        <time>2019-10-27T10:14:26Z</time>
      </trkpt>
      <trkpt lat="43.98599" lon="5.39765">
        <ele>947.3</ele>
        <time>2019-10-27T10:14:28Z</time>
      </trkpt>
      <trkpt lat="43.98595" lon="5.39767">
        <ele>947.7</ele>
        <time>2019-10-27T10:14:31Z</time>
      </trkpt>
      <trkpt lat="43.98592" lon="5.39769">
        <ele>948</ele>
        <time>2019-10-27T10:14:33Z</time>
      </trkpt>
      <trkpt lat="43.98589" lon="5.3977">
        <ele>948.3</ele>
        <time>2019-10-27T10:14:35Z</time>
      </trkpt>
      <trkpt lat="43.98587" lon="5.39772">
        <ele>948.5</ele>
        <time>2019-10-27T10:14:37Z</time>
      </trkpt>
      <trkpt lat="43.98585" lon="5.39775">
        <ele>948.8</ele>
        <time>2019-10-27T10:14:39Z</time>
      </trkpt>
      <trkpt lat="43.98582" lon="5.39777">
        <ele>949</ele>
        <time>2019-10-27T10:14:41Z</time>
      </trkpt>
      <trkpt lat="43.9858" lon="5.3978">
        <ele>949.3</ele>
        <time>2019-10-27T10:14:43Z</time>
      </trkpt>
      <trkpt lat="43.98578" lon="5.39783">
        <ele>949.6</ele>
        <time>2019-10-27T10:14:45Z</time>
      </trkpt>
      <trkpt lat="43.98575" lon="5.39785">
        <ele>950</ele>
        <time>2019-10-27T10:14:47Z</time>
      </trkpt>
      <trkpt lat="43.98573" lon="5.39789">
        <ele>950.3</ele>
        <time>2019-10-27T10:14:49Z</time>
      </trkpt>
      <trkpt lat="43.9857" lon="5.39791">
        <ele>950.6</ele>
        <time>2019-10-27T10:14:51Z</time>
      </trkpt>
      <trkpt lat="43.98568" lon="5.39794">
        <ele>950.9</ele>
        <time>2019-10-27T10:14:53Z</time>
      </trkpt>
      <trkpt lat="43.98566" lon="5.39796">
        <ele>951.2</ele>
        <time>2019-10-27T10:14:55Z</time>
      </trkpt>
      <trkpt lat="43.98564" lon="5.39798">
        <ele>951.5</ele>
        <time>2019-10-27T10:14:57Z</time>
      </trkpt>
      <trkpt lat="43.98561" lon="5.39801">
        <ele>951.9</ele>
        <time>2019-10-27T10:15:00Z</time>
      </trkpt>
      <trkpt lat="43.98557" lon="5.39804">
        <ele>952.3</ele>
        <time>2019-10-27T10:15:03Z</time>
      </trkpt>
      <trkpt lat="43.98553" lon="5.39806">
        <ele>952.7</ele>
        <time>2019-10-27T10:15:06Z</time>
      </trkpt>
      <trkpt lat="43.98551" lon="5.39808">
        <ele>953</ele>
        <time>2019-10-27T10:15:08Z</time>
      </trkpt>
      <trkpt lat="43.98548" lon="5.39812">
        <ele>953.4</ele>
        <time>2019-10-27T10:15:11Z</time>
      </trkpt>
      <trkpt lat="43.98545" lon="5.39815">
        <ele>953.7</ele>
        <time>2019-10-27T10:15:14Z</time>
      </trkpt>
      <trkpt lat="43.98542" lon="5.39818">
        <ele>954.1</ele>
        <time>2019-10-27T10:15:17Z</time>
      </trkpt>
      <trkpt lat="43.9854" lon="5.39821">
        <ele>954.3</ele>
        <time>2019-10-27T10:15:19Z</time>
      </trkpt>
      <trkpt lat="43.98538" lon="5.39824">
        <ele>954.6</ele>
        <time>2019-10-27T10:15:22Z</time>
      </trkpt>
      <trkpt lat="43.98535" lon="5.39828">
        <ele>954.9</ele>
        <time>2019-10-27T10:15:25Z</time>
      </trkpt>
      <trkpt lat="43.98532" lon="5.39831">
        <ele>955.1</ele>
        <time>2019-10-27T10:15:27Z</time>
      </trkpt>
      <trkpt lat="43.9853" lon="5.39833">
        <ele>955.3</ele>
        <time>2019-10-27T10:15:29Z</time>
      </trkpt>
      <trkpt lat="43.98527" lon="5.39837">
        <ele>955.6</ele>
        <time>2019-10-27T10:15:31Z</time>
      </trkpt>
      <trkpt lat="43.98524" lon="5.39841">
        <ele>955.9</ele>
        <time>2019-10-27T10:15:33Z</time>
      </trkpt>
      <trkpt lat="43.98522" lon="5.39844">
        <ele>956.2</ele>
        <time>2019-10-27T10:15:36Z</time>
      </trkpt>
      <trkpt lat="43.9852" lon="5.39847">
        <ele>956.4</ele>
        <time>2019-10-27T10:15:38Z</time>
      </trkpt>
      <trkpt lat="43.98517" lon="5.3985">
        <ele>956.7</ele>
        <time>2019-10-27T10:15:40Z</time>
      </trkpt>
      <trkpt lat="43.98515" lon="5.39853">
        <ele>956.9</ele>
        <time>2019-10-27T10:15:42Z</time>
      </trkpt>
      <trkpt lat="43.98513" lon="5.39856">
        <ele>957.1</ele>
        <time>2019-10-27T10:15:44Z</time>
      </trkpt>
      <trkpt lat="43.9851" lon="5.3986">
        <ele>957.4</ele>
        <time>2019-10-27T10:15:46Z</time>
      </trkpt>
      <trkpt lat="43.98507" lon="5.39864">
        <ele>957.7</ele>
        <time>2019-10-27T10:15:48Z</time>
      </trkpt>
      <trkpt lat="43.98505" lon="5.39866">
        <ele>957.9</ele>
        <time>2019-10-27T10:15:50Z</time>
      </trkpt>
      <trkpt lat="43.98502" lon="5.3987">
        <ele>958.2</ele>
        <time>2019-10-27T10:15:53Z</time>
      </trkpt>
      <trkpt lat="43.985" lon="5.39872">
        <ele>958.4</ele>
        <time>2019-10-27T10:15:55Z</time>
      </trkpt>
      <trkpt lat="43.98498" lon="5.39876">
        <ele>958.7</ele>
        <time>2019-10-27T10:15:58Z</time>
      </trkpt>
      <trkpt lat="43.98496" lon="5.39879">
        <ele>958.9</ele>
        <time>2019-10-27T10:16:00Z</time>
      </trkpt>
      <trkpt lat="43.98494" lon="5.39883">
        <ele>959.2</ele>
        <time>2019-10-27T10:16:03Z</time>
      </trkpt>
      <trkpt lat="43.98491" lon="5.39886">
        <ele>959.4</ele>
        <time>2019-10-27T10:16:06Z</time>
      </trkpt>
      <trkpt lat="43.98488" lon="5.3989">
        <ele>959.7</ele>
        <time>2019-10-27T10:16:09Z</time>
      </trkpt>
      <trkpt lat="43.98485" lon="5.39895">
        <ele>960.1</ele>
        <time>2019-10-27T10:16:11Z</time>
      </trkpt>
      <trkpt lat="43.98482" lon="5.39899">
        <ele>960.3</ele>
        <time>2019-10-27T10:16:13Z</time>
      </trkpt>
      <trkpt lat="43.9848" lon="5.39902">
        <ele>960.5</ele>
        <time>2019-10-27T10:16:15Z</time>
      </trkpt>
      <trkpt lat="43.98478" lon="5.39904">
        <ele>960.7</ele>
        <time>2019-10-27T10:16:17Z</time>
      </trkpt>
      <trkpt lat="43.98475" lon="5.39908">
        <ele>960.9</ele>
        <time>2019-10-27T10:16:19Z</time>
      </trkpt>
      <trkpt lat="43.98473" lon="5.39911">
        <ele>961.1</ele>
        <time>2019-10-27T10:16:22Z</time>
      </trkpt>
      <trkpt lat="43.98469" lon="5.39915">
        <ele>961.3</ele>
        <time>2019-10-27T10:16:24Z</time>
      </trkpt>
      <trkpt lat="43.98466" lon="5.39919">
        <ele>961.4</ele>
        <time>2019-10-27T10:16:26Z</time>
      </trkpt>
      <trkpt lat="43.98464" lon="5.39921">
        <ele>961.6</ele>
        <time>2019-10-27T10:16:29Z</time>
      </trkpt>
      <trkpt lat="43.98461" lon="5.39924">
        <ele>961.8</ele>
        <time>2019-10-27T10:16:31Z</time>
      </trkpt>
      <trkpt lat="43.98458" lon="5.39929">
        <ele>962.1</ele>
        <time>2019-10-27T10:16:34Z</time>
      </trkpt>
      <trkpt lat="43.98455" lon="5.39933">
        <ele>962.3</ele>
        <time>2019-10-27T10:16:36Z</time>
      </trkpt>
      <trkpt lat="43.98453" lon="5.39936">
        <ele>962.5</ele>
        <time>2019-10-27T10:16:39Z</time>
      </trkpt>
      <trkpt lat="43.98451" lon="5.39939">
        <ele>962.8</ele>
        <time>2019-10-27T10:16:41Z</time>
      </trkpt>
      <trkpt lat="43.9845" lon="5.39943">
        <ele>963.1</ele>
        <time>2019-10-27T10:16:44Z</time>
      </trkpt>
      <trkpt lat="43.98448" lon="5.39947">
        <ele>963.5</ele>
        <time>2019-10-27T10:16:47Z</time>
      </trkpt>
      <trkpt lat="43.98447" lon="5.3995">
        <ele>963.8</ele>
        <time>2019-10-27T10:16:50Z</time>
      </trkpt>
      <trkpt lat="43.98445" lon="5.39953">
        <ele>964.2</ele>
        <time>2019-10-27T10:16:52Z</time>
      </trkpt>
      <trkpt lat="43.98443" lon="5.39957">
        <ele>964.6</ele>
        <time>2019-10-27T10:16:54Z</time>
      </trkpt>
      <trkpt lat="43.98441" lon="5.3996">
        <ele>965</ele>
        <time>2019-10-27T10:16:56Z</time>
      </trkpt>
      <trkpt lat="43.98438" lon="5.39965">
        <ele>965.5</ele>
        <time>2019-10-27T10:16:58Z</time>
      </trkpt>
      <trkpt lat="43.98435" lon="5.39969">
        <ele>966</ele>
        <time>2019-10-27T10:17:00Z</time>
      </trkpt>
      <trkpt lat="43.98433" lon="5.39972">
        <ele>966.3</ele>
        <time>2019-10-27T10:17:02Z</time>
      </trkpt>
      <trkpt lat="43.9843" lon="5.39976">
        <ele>966.6</ele>
        <time>2019-10-27T10:17:05Z</time>
      </trkpt>
      <trkpt lat="43.98428" lon="5.3998">
        <ele>966.8</ele>
        <time>2019-10-27T10:17:07Z</time>
      </trkpt>
      <trkpt lat="43.98426" lon="5.39983">
        <ele>967</ele>
        <time>2019-10-27T10:17:09Z</time>
      </trkpt>
      <trkpt lat="43.98424" lon="5.39986">
        <ele>967.2</ele>
        <time>2019-10-27T10:17:12Z</time>
      </trkpt>
      <trkpt lat="43.98422" lon="5.39989">
        <ele>967.4</ele>
        <time>2019-10-27T10:17:15Z</time>
      </trkpt>
      <trkpt lat="43.98419" lon="5.39993">
        <ele>967.6</ele>
        <time>2019-10-27T10:17:18Z</time>
      </trkpt>
      <trkpt lat="43.98418" lon="5.39996">
        <ele>967.8</ele>
        <time>2019-10-27T10:17:21Z</time>
      </trkpt>
      <trkpt lat="43.98416" lon="5.39999">
        <ele>968</ele>
        <time>2019-10-27T10:17:24Z</time>
      </trkpt>
      <trkpt lat="43.98415" lon="5.40005">
        <ele>968.2</ele>
        <time>2019-10-27T10:17:27Z</time>
      </trkpt>
      <trkpt lat="43.98415" lon="5.40009">
        <ele>968.5</ele>
        <time>2019-10-27T10:17:29Z</time>
      </trkpt>
      <trkpt lat="43.98415" lon="5.40014">
        <ele>968.7</ele>
        <time>2019-10-27T10:17:32Z</time>
      </trkpt>
      <trkpt lat="43.98414" lon="5.4002">
        <ele>969.1</ele>
        <time>2019-10-27T10:17:34Z</time>
      </trkpt>
      <trkpt lat="43.98413" lon="5.40024">
        <ele>969.4</ele>
        <time>2019-10-27T10:17:36Z</time>
      </trkpt>
      <trkpt lat="43.98412" lon="5.40029">
        <ele>969.7</ele>
        <time>2019-10-27T10:17:38Z</time>
      </trkpt>
      <trkpt lat="43.98411" lon="5.40032">
        <ele>969.9</ele>
        <time>2019-10-27T10:17:40Z</time>
      </trkpt>
      <trkpt lat="43.98411" lon="5.40037">
        <ele>970.2</ele>
        <time>2019-10-27T10:17:42Z</time>
      </trkpt>
      <trkpt lat="43.9841" lon="5.40041">
        <ele>970.5</ele>
        <time>2019-10-27T10:17:45Z</time>
      </trkpt>
      <trkpt lat="43.9841" lon="5.40046">
        <ele>970.7</ele>
        <time>2019-10-27T10:17:48Z</time>
      </trkpt>
      <trkpt lat="43.98412" lon="5.40049">
        <ele>971</ele>
        <time>2019-10-27T10:17:51Z</time>
      </trkpt>
      <trkpt lat="43.98416" lon="5.4005">
        <ele>971.4</ele>
        <time>2019-10-27T10:17:54Z</time>
      </trkpt>
      <trkpt lat="43.98419" lon="5.4005">
        <ele>971.6</ele>
        <time>2019-10-27T10:17:57Z</time>
      </trkpt>
      <trkpt lat="43.98421" lon="5.4005">
        <ele>971.9</ele>
        <time>2019-10-27T10:18:00Z</time>
      </trkpt>
      <trkpt lat="43.98426" lon="5.40048">
        <ele>972.3</ele>
        <time>2019-10-27T10:18:04Z</time>
      </trkpt>
      <trkpt lat="43.98429" lon="5.40047">
        <ele>972.7</ele>
        <time>2019-10-27T10:18:06Z</time>
      </trkpt>
      <trkpt lat="43.98432" lon="5.40045">
        <ele>973.1</ele>
        <time>2019-10-27T10:18:08Z</time>
      </trkpt>
      <trkpt lat="43.98436" lon="5.40042">
        <ele>973.8</ele>
        <time>2019-10-27T10:18:11Z</time>
      </trkpt>
      <trkpt lat="43.98438" lon="5.4004">
        <ele>974.3</ele>
        <time>2019-10-27T10:18:13Z</time>
      </trkpt>
      <trkpt lat="43.98442" lon="5.40038">
        <ele>975</ele>
        <time>2019-10-27T10:18:16Z</time>
      </trkpt>
      <trkpt lat="43.98445" lon="5.40036">
        <ele>975.9</ele>
        <time>2019-10-27T10:18:19Z</time>
      </trkpt>
      <trkpt lat="43.98449" lon="5.40035">
        <ele>976.7</ele>
        <time>2019-10-27T10:18:22Z</time>
      </trkpt>
      <trkpt lat="43.98452" lon="5.40036">
        <ele>977.4</ele>
        <time>2019-10-27T10:18:24Z</time>
      </trkpt>
      <trkpt lat="43.98455" lon="5.40037">
        <ele>978.1</ele>
        <time>2019-10-27T10:18:26Z</time>
      </trkpt>
      <trkpt lat="43.98458" lon="5.40041">
        <ele>979.2</ele>
        <time>2019-10-27T10:18:29Z</time>
      </trkpt>
      <trkpt lat="43.98459" lon="5.40045">
        <ele>980</ele>
        <time>2019-10-27T10:18:31Z</time>
      </trkpt>
      <trkpt lat="43.9846" lon="5.4005">
        <ele>980.9</ele>
        <time>2019-10-27T10:18:33Z</time>
      </trkpt>
      <trkpt lat="43.9846" lon="5.40054">
        <ele>981.5</ele>
        <time>2019-10-27T10:18:36Z</time>
      </trkpt>
      <trkpt lat="43.9846" lon="5.40058">
        <ele>982.1</ele>
        <time>2019-10-27T10:18:38Z</time>
      </trkpt>
      <trkpt lat="43.9846" lon="5.40062">
        <ele>982.6</ele>
        <time>2019-10-27T10:18:41Z</time>
      </trkpt>
      <trkpt lat="43.9846" lon="5.40067">
        <ele>983.3</ele>
        <time>2019-10-27T10:18:45Z</time>
      </trkpt>
      <trkpt lat="43.9846" lon="5.40072">
        <ele>984</ele>
        <time>2019-10-27T10:18:48Z</time>
      </trkpt>
      <trkpt lat="43.98459" lon="5.40076">
        <ele>984.5</ele>
        <time>2019-10-27T10:18:53Z</time>
      </trkpt>
      <trkpt lat="43.98459" lon="5.4008">
        <ele>985.1</ele>
        <time>2019-10-27T10:18:57Z</time>
      </trkpt>
      <trkpt lat="43.98459" lon="5.40085">
        <ele>985.7</ele>
        <time>2019-10-27T10:19:00Z</time>
      </trkpt>
      <trkpt lat="43.9846" lon="5.40089">
        <ele>986.2</ele>
        <time>2019-10-27T10:19:03Z</time>
      </trkpt>
      <trkpt lat="43.98461" lon="5.40094">
        <ele>986.9</ele>
        <time>2019-10-27T10:19:06Z</time>
      </trkpt>
      <trkpt lat="43.98462" lon="5.40099">
        <ele>987.6</ele>
        <time>2019-10-27T10:19:09Z</time>
      </trkpt>
      <trkpt lat="43.98463" lon="5.40104">
        <ele>988.4</ele>
        <time>2019-10-27T10:19:12Z</time>
      </trkpt>
      <trkpt lat="43.98462" lon="5.40112">
        <ele>989.6</ele>
        <time>2019-10-27T10:19:14Z</time>
      </trkpt>
      <trkpt lat="43.98462" lon="5.40117">
        <ele>990.3</ele>
        <time>2019-10-27T10:19:15Z</time>
      </trkpt>
      <trkpt lat="43.98463" lon="5.40121">
        <ele>990.9</ele>
        <time>2019-10-27T10:19:19Z</time>
      </trkpt>
      <trkpt lat="43.98464" lon="5.40124">
        <ele>991.4</ele>
        <time>2019-10-27T10:19:22Z</time>
      </trkpt>
      <trkpt lat="43.98464" lon="5.40129">
        <ele>992.1</ele>
        <time>2019-10-27T10:19:23Z</time>
      </trkpt>
      <trkpt lat="43.98464" lon="5.40134">
        <ele>992.8</ele>
        <time>2019-10-27T10:19:25Z</time>
      </trkpt>
      <trkpt lat="43.98464" lon="5.40138">
        <ele>993.5</ele>
        <time>2019-10-27T10:19:27Z</time>
      </trkpt>
      <trkpt lat="43.98464" lon="5.40144">
        <ele>994.2</ele>
        <time>2019-10-27T10:19:30Z</time>
      </trkpt>
      <trkpt lat="43.98464" lon="5.40148">
        <ele>994.9</ele>
        <time>2019-10-27T10:19:32Z</time>
      </trkpt>
      <trkpt lat="43.98465" lon="5.40152">
        <ele>995.6</ele>
        <time>2019-10-27T10:19:34Z</time>
      </trkpt>
      <trkpt lat="43.98467" lon="5.40156">
        <ele>996.2</ele>
        <time>2019-10-27T10:19:36Z</time>
      </trkpt>
      <trkpt lat="43.98469" lon="5.40159">
        <ele>996.9</ele>
        <time>2019-10-27T10:19:39Z</time>
      </trkpt>
      <trkpt lat="43.98472" lon="5.40161">
        <ele>997.5</ele>
        <time>2019-10-27T10:19:42Z</time>
      </trkpt>
      <trkpt lat="43.98475" lon="5.40163">
        <ele>998.1</ele>
        <time>2019-10-27T10:19:45Z</time>
      </trkpt>
      <trkpt lat="43.98476" lon="5.40168">
        <ele>998.9</ele>
        <time>2019-10-27T10:19:47Z</time>
      </trkpt>
      <trkpt lat="43.98479" lon="5.4017">
        <ele>999.6</ele>
        <time>2019-10-27T10:19:50Z</time>
      </trkpt>
      <trkpt lat="43.98482" lon="5.40174">
        <ele>1000.4</ele>
        <time>2019-10-27T10:19:53Z</time>
      </trkpt>
      <trkpt lat="43.98484" lon="5.40178">
        <ele>1001.3</ele>
        <time>2019-10-27T10:19:56Z</time>
      </trkpt>
      <trkpt lat="43.98484" lon="5.40188">
        <ele>1002.9</ele>
        <time>2019-10-27T10:19:58Z</time>
      </trkpt>
      <trkpt lat="43.98484" lon="5.40192">
        <ele>1003.4</ele>
        <time>2019-10-27T10:19:59Z</time>
      </trkpt>
      <trkpt lat="43.98484" lon="5.40197">
        <ele>1004</ele>
        <time>2019-10-27T10:20:01Z</time>
      </trkpt>
      <trkpt lat="43.98485" lon="5.40202">
        <ele>1004.7</ele>
        <time>2019-10-27T10:20:03Z</time>
      </trkpt>
      <trkpt lat="43.98486" lon="5.40208">
        <ele>1005.4</ele>
        <time>2019-10-27T10:20:05Z</time>
      </trkpt>
      <trkpt lat="43.98486" lon="5.40212">
        <ele>1006</ele>
        <time>2019-10-27T10:20:07Z</time>
      </trkpt>
      <trkpt lat="43.98486" lon="5.40217">
        <ele>1006.6</ele>
        <time>2019-10-27T10:20:10Z</time>
      </trkpt>
      <trkpt lat="43.98486" lon="5.40222">
        <ele>1007.3</ele>
        <time>2019-10-27T10:20:13Z</time>
      </trkpt>
      <trkpt lat="43.98487" lon="5.40226">
        <ele>1007.9</ele>
        <time>2019-10-27T10:20:16Z</time>
      </trkpt>
      <trkpt lat="43.98488" lon="5.40231">
        <ele>1008.5</ele>
        <time>2019-10-27T10:20:19Z</time>
      </trkpt>
      <trkpt lat="43.98489" lon="5.40234">
        <ele>1009</ele>
        <time>2019-10-27T10:20:21Z</time>
      </trkpt>
      <trkpt lat="43.98491" lon="5.40238">
        <ele>1009.4</ele>
        <time>2019-10-27T10:20:24Z</time>
      </trkpt>
      <trkpt lat="43.98493" lon="5.40241">
        <ele>1009.8</ele>
        <time>2019-10-27T10:20:27Z</time>
      </trkpt>
      <trkpt lat="43.98495" lon="5.40243">
        <ele>1010.1</ele>
        <time>2019-10-27T10:20:30Z</time>
      </trkpt>
      <trkpt lat="43.98497" lon="5.40246">
        <ele>1010.5</ele>
        <time>2019-10-27T10:20:35Z</time>
      </trkpt>
      <trkpt lat="43.98497" lon="5.40252">
        <ele>1010.9</ele>
        <time>2019-10-27T10:20:38Z</time>
      </trkpt>
      <trkpt lat="43.98495" lon="5.40256">
        <ele>1011.2</ele>
        <time>2019-10-27T10:20:42Z</time>
      </trkpt>
      <trkpt lat="43.98494" lon="5.40259">
        <ele>1011.4</ele>
        <time>2019-10-27T10:20:44Z</time>
      </trkpt>
      <trkpt lat="43.98493" lon="5.40263">
        <ele>1011.7</ele>
        <time>2019-10-27T10:20:45Z</time>
      </trkpt>
      <trkpt lat="43.98492" lon="5.40267">
        <ele>1012</ele>
        <time>2019-10-27T10:20:46Z</time>
      </trkpt>
      <trkpt lat="43.98491" lon="5.40273">
        <ele>1012.4</ele>
        <time>2019-10-27T10:20:48Z</time>
      </trkpt>
      <trkpt lat="43.9849" lon="5.40279">
        <ele>1012.8</ele>
        <time>2019-10-27T10:20:50Z</time>
      </trkpt>
      <trkpt lat="43.98489" lon="5.40282">
        <ele>1013</ele>
        <time>2019-10-27T10:20:52Z</time>
      </trkpt>
      <trkpt lat="43.98487" lon="5.40287">
        <ele>1013.3</ele>
        <time>2019-10-27T10:20:55Z</time>
      </trkpt>
      <trkpt lat="43.98486" lon="5.40291">
        <ele>1013.5</ele>
        <time>2019-10-27T10:20:57Z</time>
      </trkpt>
      <trkpt lat="43.98486" lon="5.40296">
        <ele>1013.7</ele>
        <time>2019-10-27T10:21:00Z</time>
      </trkpt>
      <trkpt lat="43.98486" lon="5.403">
        <ele>1013.8</ele>
        <time>2019-10-27T10:21:02Z</time>
      </trkpt>
      <trkpt lat="43.98485" lon="5.40305">
        <ele>1013.9</ele>
        <time>2019-10-27T10:21:04Z</time>
      </trkpt>
      <trkpt lat="43.98484" lon="5.40309">
        <ele>1014</ele>
        <time>2019-10-27T10:21:06Z</time>
      </trkpt>
      <trkpt lat="43.98483" lon="5.40314">
        <ele>1014</ele>
        <time>2019-10-27T10:21:09Z</time>
      </trkpt>
      <trkpt lat="43.98482" lon="5.40319">
        <ele>1014.2</ele>
        <time>2019-10-27T10:21:12Z</time>
      </trkpt>
      <trkpt lat="43.98481" lon="5.40325">
        <ele>1014.3</ele>
        <time>2019-10-27T10:21:14Z</time>
      </trkpt>
      <trkpt lat="43.9848" lon="5.40329">
        <ele>1014.5</ele>
        <time>2019-10-27T10:21:16Z</time>
      </trkpt>
      <trkpt lat="43.98479" lon="5.40333">
        <ele>1014.7</ele>
        <time>2019-10-27T10:21:18Z</time>
      </trkpt>
      <trkpt lat="43.98479" lon="5.40337">
        <ele>1014.8</ele>
        <time>2019-10-27T10:21:20Z</time>
      </trkpt>
      <trkpt lat="43.98478" lon="5.40341">
        <ele>1015.1</ele>
        <time>2019-10-27T10:21:22Z</time>
      </trkpt>
      <trkpt lat="43.98478" lon="5.40345">
        <ele>1015.4</ele>
        <time>2019-10-27T10:21:24Z</time>
      </trkpt>
      <trkpt lat="43.98478" lon="5.40351">
        <ele>1015.9</ele>
        <time>2019-10-27T10:21:27Z</time>
      </trkpt>
      <trkpt lat="43.98478" lon="5.40355">
        <ele>1016.4</ele>
        <time>2019-10-27T10:21:29Z</time>
      </trkpt>
      <trkpt lat="43.98476" lon="5.4036">
        <ele>1016.9</ele>
        <time>2019-10-27T10:21:31Z</time>
      </trkpt>
      <trkpt lat="43.98476" lon="5.40363">
        <ele>1017.4</ele>
        <time>2019-10-27T10:21:33Z</time>
      </trkpt>
      <trkpt lat="43.98475" lon="5.40369">
        <ele>1018</ele>
        <time>2019-10-27T10:21:36Z</time>
      </trkpt>
      <trkpt lat="43.98474" lon="5.40373">
        <ele>1018.5</ele>
        <time>2019-10-27T10:21:38Z</time>
      </trkpt>
      <trkpt lat="43.98473" lon="5.40378">
        <ele>1018.9</ele>
        <time>2019-10-27T10:21:40Z</time>
      </trkpt>
      <trkpt lat="43.98473" lon="5.40383">
        <ele>1019.3</ele>
        <time>2019-10-27T10:21:42Z</time>
      </trkpt>
      <trkpt lat="43.98473" lon="5.40387">
        <ele>1019.6</ele>
        <time>2019-10-27T10:21:44Z</time>
      </trkpt>
      <trkpt lat="43.98473" lon="5.40392">
        <ele>1019.9</ele>
        <time>2019-10-27T10:21:47Z</time>
      </trkpt>
      <trkpt lat="43.98473" lon="5.40395">
        <ele>1020.2</ele>
        <time>2019-10-27T10:21:52Z</time>
      </trkpt>
      <trkpt lat="43.98475" lon="5.404">
        <ele>1020.6</ele>
        <time>2019-10-27T10:21:57Z</time>
      </trkpt>
      <trkpt lat="43.98476" lon="5.40404">
        <ele>1020.9</ele>
        <time>2019-10-27T10:21:59Z</time>
      </trkpt>
      <trkpt lat="43.98478" lon="5.40408">
        <ele>1021.2</ele>
        <time>2019-10-27T10:22:02Z</time>
      </trkpt>
      <trkpt lat="43.98479" lon="5.40413">
        <ele>1021.5</ele>
        <time>2019-10-27T10:22:05Z</time>
      </trkpt>
      <trkpt lat="43.9848" lon="5.40417">
        <ele>1021.9</ele>
        <time>2019-10-27T10:22:09Z</time>
      </trkpt>
      <trkpt lat="43.98481" lon="5.40421">
        <ele>1022.2</ele>
        <time>2019-10-27T10:22:11Z</time>
      </trkpt>
      <trkpt lat="43.98482" lon="5.40426">
        <ele>1022.6</ele>
        <time>2019-10-27T10:22:14Z</time>
      </trkpt>
      <trkpt lat="43.98483" lon="5.4043">
        <ele>1023</ele>
        <time>2019-10-27T10:22:16Z</time>
      </trkpt>
      <trkpt lat="43.98484" lon="5.40435">
        <ele>1023.6</ele>
        <time>2019-10-27T10:22:19Z</time>
      </trkpt>
      <trkpt lat="43.98485" lon="5.4044">
        <ele>1024.1</ele>
        <time>2019-10-27T10:22:23Z</time>
      </trkpt>
      <trkpt lat="43.98485" lon="5.40444">
        <ele>1024.5</ele>
        <time>2019-10-27T10:22:26Z</time>
      </trkpt>
      <trkpt lat="43.98486" lon="5.40448">
        <ele>1024.9</ele>
        <time>2019-10-27T10:22:28Z</time>
      </trkpt>
      <trkpt lat="43.98487" lon="5.40453">
        <ele>1025.4</ele>
        <time>2019-10-27T10:22:30Z</time>
      </trkpt>
      <trkpt lat="43.98486" lon="5.40458">
        <ele>1025.9</ele>
        <time>2019-10-27T10:22:33Z</time>
      </trkpt>
      <trkpt lat="43.98485" lon="5.40462">
        <ele>1026.3</ele>
        <time>2019-10-27T10:22:36Z</time>
      </trkpt>
      <trkpt lat="43.98484" lon="5.40466">
        <ele>1026.7</ele>
        <time>2019-10-27T10:22:39Z</time>
      </trkpt>
      <trkpt lat="43.98483" lon="5.4047">
        <ele>1027</ele>
        <time>2019-10-27T10:22:42Z</time>
      </trkpt>
      <trkpt lat="43.98483" lon="5.40475">
        <ele>1027.4</ele>
        <time>2019-10-27T10:22:46Z</time>
      </trkpt>
      <trkpt lat="43.98483" lon="5.40481">
        <ele>1027.7</ele>
        <time>2019-10-27T10:22:48Z</time>
      </trkpt>
      <trkpt lat="43.98484" lon="5.40486">
        <ele>1028.1</ele>
        <time>2019-10-27T10:22:50Z</time>
      </trkpt>
      <trkpt lat="43.98484" lon="5.4049">
        <ele>1028.5</ele>
        <time>2019-10-27T10:22:52Z</time>
      </trkpt>
      <trkpt lat="43.98484" lon="5.40495">
        <ele>1029.1</ele>
        <time>2019-10-27T10:22:54Z</time>
      </trkpt>
      <trkpt lat="43.98484" lon="5.40499">
        <ele>1029.5</ele>
        <time>2019-10-27T10:22:56Z</time>
      </trkpt>
      <trkpt lat="43.98484" lon="5.40506">
        <ele>1030</ele>
        <time>2019-10-27T10:22:58Z</time>
      </trkpt>
      <trkpt lat="43.98484" lon="5.40511">
        <ele>1030.5</ele>
        <time>2019-10-27T10:23:00Z</time>
      </trkpt>
      <trkpt lat="43.98484" lon="5.40516">
        <ele>1031</ele>
        <time>2019-10-27T10:23:02Z</time>
      </trkpt>
      <trkpt lat="43.98484" lon="5.4052">
        <ele>1031.6</ele>
        <time>2019-10-27T10:23:04Z</time>
      </trkpt>
      <trkpt lat="43.98484" lon="5.40525">
        <ele>1032.2</ele>
        <time>2019-10-27T10:23:06Z</time>
      </trkpt>
      <trkpt lat="43.98484" lon="5.4053">
        <ele>1033</ele>
        <time>2019-10-27T10:23:09Z</time>
      </trkpt>
      <trkpt lat="43.98484" lon="5.40536">
        <ele>1033.8</ele>
        <time>2019-10-27T10:23:12Z</time>
      </trkpt>
      <trkpt lat="43.98484" lon="5.40541">
        <ele>1034.6</ele>
        <time>2019-10-27T10:23:15Z</time>
      </trkpt>
      <trkpt lat="43.98485" lon="5.40546">
        <ele>1035.4</ele>
        <time>2019-10-27T10:23:18Z</time>
      </trkpt>
      <trkpt lat="43.98484" lon="5.4055">
        <ele>1036.1</ele>
        <time>2019-10-27T10:23:21Z</time>
      </trkpt>
      <trkpt lat="43.98483" lon="5.40555">
        <ele>1037</ele>
        <time>2019-10-27T10:23:24Z</time>
      </trkpt>
      <trkpt lat="43.98483" lon="5.4056">
        <ele>1037.7</ele>
        <time>2019-10-27T10:23:26Z</time>
      </trkpt>
      <trkpt lat="43.98482" lon="5.40564">
        <ele>1038.5</ele>
        <time>2019-10-27T10:23:28Z</time>
      </trkpt>
      <trkpt lat="43.98482" lon="5.40568">
        <ele>1039.2</ele>
        <time>2019-10-27T10:23:30Z</time>
      </trkpt>
      <trkpt lat="43.98482" lon="5.40573">
        <ele>1040</ele>
        <time>2019-10-27T10:23:32Z</time>
      </trkpt>
      <trkpt lat="43.98481" lon="5.40577">
        <ele>1040.8</ele>
        <time>2019-10-27T10:23:34Z</time>
      </trkpt>
      <trkpt lat="43.98481" lon="5.40581">
        <ele>1041.6</ele>
        <time>2019-10-27T10:23:36Z</time>
      </trkpt>
      <trkpt lat="43.98481" lon="5.40585">
        <ele>1042.3</ele>
        <time>2019-10-27T10:23:38Z</time>
      </trkpt>
      <trkpt lat="43.9848" lon="5.4059">
        <ele>1043</ele>
        <time>2019-10-27T10:23:41Z</time>
      </trkpt>
      <trkpt lat="43.9848" lon="5.40595">
        <ele>1043.5</ele>
        <time>2019-10-27T10:23:43Z</time>
      </trkpt>
      <trkpt lat="43.98479" lon="5.40598">
        <ele>1044</ele>
        <time>2019-10-27T10:23:45Z</time>
      </trkpt>
      <trkpt lat="43.98479" lon="5.40604">
        <ele>1044.6</ele>
        <time>2019-10-27T10:23:48Z</time>
      </trkpt>
      <trkpt lat="43.98479" lon="5.40609">
        <ele>1045.1</ele>
        <time>2019-10-27T10:23:50Z</time>
      </trkpt>
      <trkpt lat="43.98479" lon="5.40614">
        <ele>1045.6</ele>
        <time>2019-10-27T10:23:53Z</time>
      </trkpt>
      <trkpt lat="43.98478" lon="5.40618">
        <ele>1045.9</ele>
        <time>2019-10-27T10:23:57Z</time>
      </trkpt>
      <trkpt lat="43.9848" lon="5.40622">
        <ele>1046.2</ele>
        <time>2019-10-27T10:24:02Z</time>
      </trkpt>
      <trkpt lat="43.98483" lon="5.40623">
        <ele>1046.5</ele>
        <time>2019-10-27T10:24:05Z</time>
      </trkpt>
      <trkpt lat="43.98487" lon="5.40622">
        <ele>1046.7</ele>
        <time>2019-10-27T10:24:09Z</time>
      </trkpt>
      <trkpt lat="43.9849" lon="5.40618">
        <ele>1046.7</ele>
        <time>2019-10-27T10:24:12Z</time>
      </trkpt>
      <trkpt lat="43.98491" lon="5.40615">
        <ele>1046.7</ele>
        <time>2019-10-27T10:24:14Z</time>
      </trkpt>
      <trkpt lat="43.98493" lon="5.40611">
        <ele>1046.7</ele>
        <time>2019-10-27T10:24:16Z</time>
      </trkpt>
      <trkpt lat="43.98494" lon="5.40608">
        <ele>1046.7</ele>
        <time>2019-10-27T10:24:18Z</time>
      </trkpt>
      <trkpt lat="43.98496" lon="5.40604">
        <ele>1046.6</ele>
        <time>2019-10-27T10:24:20Z</time>
      </trkpt>
      <trkpt lat="43.98498" lon="5.40601">
        <ele>1046.4</ele>
        <time>2019-10-27T10:24:22Z</time>
      </trkpt>
      <trkpt lat="43.985" lon="5.40597">
        <ele>1046.3</ele>
        <time>2019-10-27T10:24:24Z</time>
      </trkpt>
      <trkpt lat="43.98502" lon="5.40594">
        <ele>1046.1</ele>
        <time>2019-10-27T10:24:27Z</time>
      </trkpt>
      <trkpt lat="43.98504" lon="5.4059">
        <ele>1045.9</ele>
        <time>2019-10-27T10:24:29Z</time>
      </trkpt>
      <trkpt lat="43.98507" lon="5.40586">
        <ele>1045.5</ele>
        <time>2019-10-27T10:24:31Z</time>
      </trkpt>
      <trkpt lat="43.9851" lon="5.40581">
        <ele>1045.2</ele>
        <time>2019-10-27T10:24:33Z</time>
      </trkpt>
      <trkpt lat="43.98513" lon="5.40577">
        <ele>1044.9</ele>
        <time>2019-10-27T10:24:35Z</time>
      </trkpt>
      <trkpt lat="43.98517" lon="5.40576">
        <ele>1044.6</ele>
        <time>2019-10-27T10:24:38Z</time>
      </trkpt>
      <trkpt lat="43.98519" lon="5.40572">
        <ele>1044.3</ele>
        <time>2019-10-27T10:24:40Z</time>
      </trkpt>
      <trkpt lat="43.98522" lon="5.4057">
        <ele>1044.1</ele>
        <time>2019-10-27T10:24:42Z</time>
      </trkpt>
      <trkpt lat="43.98525" lon="5.40569">
        <ele>1043.7</ele>
        <time>2019-10-27T10:24:44Z</time>
      </trkpt>
      <trkpt lat="43.98528" lon="5.40568">
        <ele>1043.4</ele>
        <time>2019-10-27T10:24:46Z</time>
      </trkpt>
      <trkpt lat="43.98531" lon="5.40567">
        <ele>1043.6</ele>
        <time>2019-10-27T10:24:48Z</time>
      </trkpt>
      <trkpt lat="43.98534" lon="5.40565">
        <ele>1043.8</ele>
        <time>2019-10-27T10:24:50Z</time>
      </trkpt>
      <trkpt lat="43.98538" lon="5.40565">
        <ele>1044.1</ele>
        <time>2019-10-27T10:24:53Z</time>
      </trkpt>
      <trkpt lat="43.98541" lon="5.40566">
        <ele>1044.3</ele>
        <time>2019-10-27T10:24:55Z</time>
      </trkpt>
      <trkpt lat="43.98543" lon="5.40569">
        <ele>1044.5</ele>
        <time>2019-10-27T10:24:57Z</time>
      </trkpt>
      <trkpt lat="43.98545" lon="5.40574">
        <ele>1044.7</ele>
        <time>2019-10-27T10:24:58Z</time>
      </trkpt>
      <trkpt lat="43.98546" lon="5.40578">
        <ele>1044.8</ele>
        <time>2019-10-27T10:25:00Z</time>
      </trkpt>
      <trkpt lat="43.98547" lon="5.40583">
        <ele>1045</ele>
        <time>2019-10-27T10:25:02Z</time>
      </trkpt>
      <trkpt lat="43.98549" lon="5.40588">
        <ele>1045.2</ele>
        <time>2019-10-27T10:25:04Z</time>
      </trkpt>
      <trkpt lat="43.9855" lon="5.40592">
        <ele>1045.4</ele>
        <time>2019-10-27T10:25:06Z</time>
      </trkpt>
      <trkpt lat="43.98551" lon="5.40597">
        <ele>1045.6</ele>
        <time>2019-10-27T10:25:08Z</time>
      </trkpt>
      <trkpt lat="43.98551" lon="5.40604">
        <ele>1046.5</ele>
        <time>2019-10-27T10:25:12Z</time>
      </trkpt>
      <trkpt lat="43.98551" lon="5.40609">
        <ele>1046.6</ele>
        <time>2019-10-27T10:25:14Z</time>
      </trkpt>
      <trkpt lat="43.98551" lon="5.40616">
        <ele>1046.8</ele>
        <time>2019-10-27T10:25:16Z</time>
      </trkpt>
      <trkpt lat="43.98551" lon="5.40621">
        <ele>1046.9</ele>
        <time>2019-10-27T10:25:18Z</time>
      </trkpt>
      <trkpt lat="43.98553" lon="5.40625">
        <ele>1047</ele>
        <time>2019-10-27T10:25:20Z</time>
      </trkpt>
      <trkpt lat="43.98556" lon="5.40627">
        <ele>1047.1</ele>
        <time>2019-10-27T10:25:22Z</time>
      </trkpt>
      <trkpt lat="43.98559" lon="5.4063">
        <ele>1047.2</ele>
        <time>2019-10-27T10:25:24Z</time>
      </trkpt>
      <trkpt lat="43.98561" lon="5.40634">
        <ele>1047.3</ele>
        <time>2019-10-27T10:25:26Z</time>
      </trkpt>
      <trkpt lat="43.98563" lon="5.40638">
        <ele>1047.5</ele>
        <time>2019-10-27T10:25:28Z</time>
      </trkpt>
      <trkpt lat="43.98566" lon="5.40643">
        <ele>1047.6</ele>
        <time>2019-10-27T10:25:30Z</time>
      </trkpt>
      <trkpt lat="43.98568" lon="5.40647">
        <ele>1047.7</ele>
        <time>2019-10-27T10:25:32Z</time>
      </trkpt>
      <trkpt lat="43.9857" lon="5.40652">
        <ele>1047.9</ele>
        <time>2019-10-27T10:25:34Z</time>
      </trkpt>
      <trkpt lat="43.98569" lon="5.40656">
        <ele>1048.1</ele>
        <time>2019-10-27T10:25:36Z</time>
      </trkpt>
      <trkpt lat="43.98568" lon="5.40661">
        <ele>1048.3</ele>
        <time>2019-10-27T10:25:38Z</time>
      </trkpt>
      <trkpt lat="43.98567" lon="5.40665">
        <ele>1048.5</ele>
        <time>2019-10-27T10:25:40Z</time>
      </trkpt>
      <trkpt lat="43.98566" lon="5.40669">
        <ele>1048.6</ele>
        <time>2019-10-27T10:25:42Z</time>
      </trkpt>
      <trkpt lat="43.98565" lon="5.40674">
        <ele>1048.8</ele>
        <time>2019-10-27T10:25:44Z</time>
      </trkpt>
      <trkpt lat="43.98564" lon="5.40678">
        <ele>1048.9</ele>
        <time>2019-10-27T10:25:46Z</time>
      </trkpt>
      <trkpt lat="43.98563" lon="5.40683">
        <ele>1049</ele>
        <time>2019-10-27T10:25:49Z</time>
      </trkpt>
      <trkpt lat="43.98561" lon="5.40686">
        <ele>1049.1</ele>
        <time>2019-10-27T10:25:51Z</time>
      </trkpt>
      <trkpt lat="43.9856" lon="5.40691">
        <ele>1049.2</ele>
        <time>2019-10-27T10:25:54Z</time>
      </trkpt>
      <trkpt lat="43.98559" lon="5.40694">
        <ele>1049.2</ele>
        <time>2019-10-27T10:25:56Z</time>
      </trkpt>
      <trkpt lat="43.98558" lon="5.407">
        <ele>1049.3</ele>
        <time>2019-10-27T10:25:59Z</time>
      </trkpt>
      <trkpt lat="43.98559" lon="5.40704">
        <ele>1049.2</ele>
        <time>2019-10-27T10:26:01Z</time>
      </trkpt>
      <trkpt lat="43.98559" lon="5.40708">
        <ele>1049.2</ele>
        <time>2019-10-27T10:26:03Z</time>
      </trkpt>
      <trkpt lat="43.98559" lon="5.40713">
        <ele>1049.2</ele>
        <time>2019-10-27T10:26:05Z</time>
      </trkpt>
      <trkpt lat="43.98558" lon="5.40718">
        <ele>1049.1</ele>
        <time>2019-10-27T10:26:07Z</time>
      </trkpt>
      <trkpt lat="43.98558" lon="5.40723">
        <ele>1049.1</ele>
        <time>2019-10-27T10:26:09Z</time>
      </trkpt>
      <trkpt lat="43.98558" lon="5.40728">
        <ele>1049</ele>
        <time>2019-10-27T10:26:11Z</time>
      </trkpt>
      <trkpt lat="43.98557" lon="5.40732">
        <ele>1049</ele>
        <time>2019-10-27T10:26:13Z</time>
      </trkpt>
      <trkpt lat="43.98557" lon="5.40737">
        <ele>1048.9</ele>
        <time>2019-10-27T10:26:15Z</time>
      </trkpt>
      <trkpt lat="43.98557" lon="5.40741">
        <ele>1048.9</ele>
        <time>2019-10-27T10:26:17Z</time>
      </trkpt>
      <trkpt lat="43.98557" lon="5.40746">
        <ele>1048.8</ele>
        <time>2019-10-27T10:26:19Z</time>
      </trkpt>
      <trkpt lat="43.98559" lon="5.40751">
        <ele>1048.8</ele>
        <time>2019-10-27T10:26:21Z</time>
      </trkpt>
      <trkpt lat="43.98557" lon="5.40757">
        <ele>1048.7</ele>
        <time>2019-10-27T10:26:23Z</time>
      </trkpt>
      <trkpt lat="43.98554" lon="5.40759">
        <ele>1048.6</ele>
        <time>2019-10-27T10:26:27Z</time>
      </trkpt>
      <trkpt lat="43.98551" lon="5.40762">
        <ele>1048.5</ele>
        <time>2019-10-27T10:33:16Z</time>
      </trkpt>
      <trkpt lat="43.98547" lon="5.40764">
        <ele>1048.4</ele>
        <time>2019-10-27T10:33:17Z</time>
      </trkpt>
      <trkpt lat="43.98546" lon="5.40769">
        <ele>1048.4</ele>
        <time>2019-10-27T10:33:18Z</time>
      </trkpt>
      <trkpt lat="43.98545" lon="5.40776">
        <ele>1048.3</ele>
        <time>2019-10-27T10:33:19Z</time>
      </trkpt>
      <trkpt lat="43.98543" lon="5.40781">
        <ele>1048.2</ele>
        <time>2019-10-27T10:33:20Z</time>
      </trkpt>
      <trkpt lat="43.98542" lon="5.40787">
        <ele>1048.1</ele>
        <time>2019-10-27T10:33:21Z</time>
      </trkpt>
      <trkpt lat="43.98539" lon="5.40793">
        <ele>1048.1</ele>
        <time>2019-10-27T10:33:22Z</time>
      </trkpt>
      <trkpt lat="43.98537" lon="5.40799">
        <ele>1048</ele>
        <time>2019-10-27T10:33:23Z</time>
      </trkpt>
      <trkpt lat="43.98534" lon="5.40805">
        <ele>1047.8</ele>
        <time>2019-10-27T10:33:24Z</time>
      </trkpt>
      <trkpt lat="43.98531" lon="5.40809">
        <ele>1047.5</ele>
        <time>2019-10-27T10:33:25Z</time>
      </trkpt>
      <trkpt lat="43.98526" lon="5.40814">
        <ele>1047.1</ele>
        <time>2019-10-27T10:33:26Z</time>
      </trkpt>
      <trkpt lat="43.98523" lon="5.4082">
        <ele>1046.6</ele>
        <time>2019-10-27T10:33:27Z</time>
      </trkpt>
      <trkpt lat="43.98521" lon="5.40827">
        <ele>1046</ele>
        <time>2019-10-27T10:33:28Z</time>
      </trkpt>
      <trkpt lat="43.98521" lon="5.40834">
        <ele>1045.3</ele>
        <time>2019-10-27T10:33:29Z</time>
      </trkpt>
      <trkpt lat="43.98519" lon="5.40837">
        <ele>1044.9</ele>
        <time>2019-10-27T10:33:30Z</time>
      </trkpt>
      <trkpt lat="43.98515" lon="5.40838">
        <ele>1044.4</ele>
        <time>2019-10-27T10:33:31Z</time>
      </trkpt>
      <trkpt lat="43.9851" lon="5.40839">
        <ele>1043.6</ele>
        <time>2019-10-27T10:33:32Z</time>
      </trkpt>
      <trkpt lat="43.98504" lon="5.40839">
        <ele>1042.8</ele>
        <time>2019-10-27T10:33:33Z</time>
      </trkpt>
      <trkpt lat="43.98499" lon="5.40839">
        <ele>1042.1</ele>
        <time>2019-10-27T10:33:34Z</time>
      </trkpt>
      <trkpt lat="43.98495" lon="5.40838">
        <ele>1041.4</ele>
        <time>2019-10-27T10:33:35Z</time>
      </trkpt>
      <trkpt lat="43.98492" lon="5.40835">
        <ele>1040.9</ele>
        <time>2019-10-27T10:33:36Z</time>
      </trkpt>
      <trkpt lat="43.98489" lon="5.40836">
        <ele>1040.4</ele>
        <time>2019-10-27T10:33:38Z</time>
      </trkpt>
      <trkpt lat="43.98486" lon="5.40833">
        <ele>1039.8</ele>
        <time>2019-10-27T10:33:42Z</time>
      </trkpt>
      <trkpt lat="43.98483" lon="5.40827">
        <ele>1039</ele>
        <time>2019-10-27T10:33:44Z</time>
      </trkpt>
      <trkpt lat="43.9848" lon="5.40825">
        <ele>1038.5</ele>
        <time>2019-10-27T10:33:57Z</time>
      </trkpt>
      <trkpt lat="43.98477" lon="5.40826">
        <ele>1037.9</ele>
        <time>2019-10-27T10:33:59Z</time>
      </trkpt>
      <trkpt lat="43.98474" lon="5.40825">
        <ele>1037.2</ele>
        <time>2019-10-27T10:34:00Z</time>
      </trkpt>
      <trkpt lat="43.98468" lon="5.40823">
        <ele>1036.1</ele>
        <time>2019-10-27T10:34:01Z</time>
      </trkpt>
      <trkpt lat="43.98461" lon="5.40819">
        <ele>1034.3</ele>
        <time>2019-10-27T10:34:02Z</time>
      </trkpt>
      <trkpt lat="43.98453" lon="5.40815">
        <ele>1032.4</ele>
        <time>2019-10-27T10:34:03Z</time>
      </trkpt>
      <trkpt lat="43.98447" lon="5.40813">
        <ele>1030.8</ele>
        <time>2019-10-27T10:34:04Z</time>
      </trkpt>
      <trkpt lat="43.98442" lon="5.40812">
        <ele>1029.3</ele>
        <time>2019-10-27T10:34:05Z</time>
      </trkpt>
      <trkpt lat="43.98438" lon="5.40811">
        <ele>1028.1</ele>
        <time>2019-10-27T10:34:06Z</time>
      </trkpt>
      <trkpt lat="43.98433" lon="5.40807">
        <ele>1026.7</ele>
        <time>2019-10-27T10:34:07Z</time>
      </trkpt>
      <trkpt lat="43.98427" lon="5.40803">
        <ele>1024.9</ele>
        <time>2019-10-27T10:34:08Z</time>
      </trkpt>
      <trkpt lat="43.9842" lon="5.408">
        <ele>1023.1</ele>
        <time>2019-10-27T10:34:09Z</time>
      </trkpt>
      <trkpt lat="43.98413" lon="5.40796">
        <ele>1021.2</ele>
        <time>2019-10-27T10:34:10Z</time>
      </trkpt>
      <trkpt lat="43.98405" lon="5.40792">
        <ele>1019.4</ele>
        <time>2019-10-27T10:34:11Z</time>
      </trkpt>
      <trkpt lat="43.98398" lon="5.40789">
        <ele>1017.9</ele>
        <time>2019-10-27T10:34:12Z</time>
      </trkpt>
      <trkpt lat="43.98391" lon="5.40786">
        <ele>1016.6</ele>
        <time>2019-10-27T10:34:13Z</time>
      </trkpt>
      <trkpt lat="43.98384" lon="5.40782">
        <ele>1015.5</ele>
        <time>2019-10-27T10:34:14Z</time>
      </trkpt>
      <trkpt lat="43.98377" lon="5.40778">
        <ele>1014.5</ele>
        <time>2019-10-27T10:34:15Z</time>
      </trkpt>
      <trkpt lat="43.9837" lon="5.40776">
        <ele>1013.5</ele>
        <time>2019-10-27T10:34:16Z</time>
      </trkpt>
      <trkpt lat="43.98363" lon="5.40775">
        <ele>1012.4</ele>
        <time>2019-10-27T10:34:17Z</time>
      </trkpt>
      <trkpt lat="43.98357" lon="5.40771">
        <ele>1011.4</ele>
        <time>2019-10-27T10:34:18Z</time>
      </trkpt>
      <trkpt lat="43.98351" lon="5.40768">
        <ele>1010.6</ele>
        <time>2019-10-27T10:34:19Z</time>
      </trkpt>
      <trkpt lat="43.98347" lon="5.40763">
        <ele>1009.8</ele>
        <time>2019-10-27T10:34:20Z</time>
      </trkpt>
      <trkpt lat="43.98344" lon="5.40757">
        <ele>1009</ele>
        <time>2019-10-27T10:34:21Z</time>
      </trkpt>
      <trkpt lat="43.9834" lon="5.40756">
        <ele>1008.5</ele>
        <time>2019-10-27T10:34:22Z</time>
      </trkpt>
      <trkpt lat="43.98335" lon="5.40758">
        <ele>1007.7</ele>
        <time>2019-10-27T10:34:24Z</time>
      </trkpt>
      <trkpt lat="43.98329" lon="5.40754">
        <ele>1006.9</ele>
        <time>2019-10-27T10:34:25Z</time>
      </trkpt>
      <trkpt lat="43.98323" lon="5.40753">
        <ele>1006.1</ele>
        <time>2019-10-27T10:34:26Z</time>
      </trkpt>
      <trkpt lat="43.98317" lon="5.4075">
        <ele>1005.2</ele>
        <time>2019-10-27T10:34:27Z</time>
      </trkpt>
      <trkpt lat="43.98312" lon="5.40746">
        <ele>1004.1</ele>
        <time>2019-10-27T10:34:28Z</time>
      </trkpt>
      <trkpt lat="43.98305" lon="5.40746">
        <ele>1002.9</ele>
        <time>2019-10-27T10:34:29Z</time>
      </trkpt>
      <trkpt lat="43.983" lon="5.40745">
        <ele>1001.7</ele>
        <time>2019-10-27T10:34:30Z</time>
      </trkpt>
      <trkpt lat="43.98294" lon="5.40743">
        <ele>1000.6</ele>
        <time>2019-10-27T10:34:31Z</time>
      </trkpt>
      <trkpt lat="43.98289" lon="5.40739">
        <ele>999.5</ele>
        <time>2019-10-27T10:34:32Z</time>
      </trkpt>
      <trkpt lat="43.98283" lon="5.40736">
        <ele>998.3</ele>
        <time>2019-10-27T10:34:33Z</time>
      </trkpt>
      <trkpt lat="43.98278" lon="5.40732">
        <ele>997</ele>
        <time>2019-10-27T10:34:34Z</time>
      </trkpt>
      <trkpt lat="43.98273" lon="5.40731">
        <ele>996</ele>
        <time>2019-10-27T10:34:35Z</time>
      </trkpt>
      <trkpt lat="43.98267" lon="5.4073">
        <ele>994.9</ele>
        <time>2019-10-27T10:34:36Z</time>
      </trkpt>
      <trkpt lat="43.98261" lon="5.40728">
        <ele>993.6</ele>
        <time>2019-10-27T10:34:37Z</time>
      </trkpt>
      <trkpt lat="43.98255" lon="5.40725">
        <ele>992.2</ele>
        <time>2019-10-27T10:34:38Z</time>
      </trkpt>
      <trkpt lat="43.98248" lon="5.40721">
        <ele>990.5</ele>
        <time>2019-10-27T10:34:39Z</time>
      </trkpt>
      <trkpt lat="43.9824" lon="5.40719">
        <ele>988.7</ele>
        <time>2019-10-27T10:34:40Z</time>
      </trkpt>
      <trkpt lat="43.98234" lon="5.40718">
        <ele>987.3</ele>
        <time>2019-10-27T10:34:41Z</time>
      </trkpt>
      <trkpt lat="43.98229" lon="5.40716">
        <ele>986.2</ele>
        <time>2019-10-27T10:34:42Z</time>
      </trkpt>
      <trkpt lat="43.98224" lon="5.40712">
        <ele>985.1</ele>
        <time>2019-10-27T10:34:43Z</time>
      </trkpt>
      <trkpt lat="43.98216" lon="5.40707">
        <ele>983.9</ele>
        <time>2019-10-27T10:34:44Z</time>
      </trkpt>
      <trkpt lat="43.98209" lon="5.40701">
        <ele>982.3</ele>
        <time>2019-10-27T10:34:45Z</time>
      </trkpt>
      <trkpt lat="43.98202" lon="5.40695">
        <ele>981</ele>
        <time>2019-10-27T10:34:46Z</time>
      </trkpt>
      <trkpt lat="43.98195" lon="5.4069">
        <ele>979.7</ele>
        <time>2019-10-27T10:34:47Z</time>
      </trkpt>
      <trkpt lat="43.98189" lon="5.40687">
        <ele>978.4</ele>
        <time>2019-10-27T10:34:48Z</time>
      </trkpt>
      <trkpt lat="43.98184" lon="5.40684">
        <ele>977.3</ele>
        <time>2019-10-27T10:34:49Z</time>
      </trkpt>
      <trkpt lat="43.98179" lon="5.40683">
        <ele>976.2</ele>
        <time>2019-10-27T10:34:50Z</time>
      </trkpt>
      <trkpt lat="43.98174" lon="5.40684">
        <ele>974.8</ele>
        <time>2019-10-27T10:34:51Z</time>
      </trkpt>
      <trkpt lat="43.98169" lon="5.40683">
        <ele>973.6</ele>
        <time>2019-10-27T10:34:52Z</time>
      </trkpt>
      <trkpt lat="43.98166" lon="5.40683">
        <ele>972.8</ele>
        <time>2019-10-27T10:34:53Z</time>
      </trkpt>
      <trkpt lat="43.98163" lon="5.40684">
        <ele>972</ele>
        <time>2019-10-27T10:34:54Z</time>
      </trkpt>
      <trkpt lat="43.98158" lon="5.40684">
        <ele>970.9</ele>
        <time>2019-10-27T10:34:56Z</time>
      </trkpt>
      <trkpt lat="43.98154" lon="5.40681">
        <ele>970</ele>
        <time>2019-10-27T10:34:57Z</time>
      </trkpt>
      <trkpt lat="43.98151" lon="5.40679">
        <ele>969.2</ele>
        <time>2019-10-27T10:34:58Z</time>
      </trkpt>
      <trkpt lat="43.9814" lon="5.40673">
        <ele>966.9</ele>
        <time>2019-10-27T10:35:48Z</time>
      </trkpt>
      <trkpt lat="43.98139" lon="5.40672">
        <ele>966.5</ele>
        <time>2019-10-27T10:35:49Z</time>
      </trkpt>
      <trkpt lat="43.98136" lon="5.40668">
        <ele>965.7</ele>
        <time>2019-10-27T10:35:50Z</time>
      </trkpt>
      <trkpt lat="43.98132" lon="5.40665">
        <ele>964.8</ele>
        <time>2019-10-27T10:35:52Z</time>
      </trkpt>
      <trkpt lat="43.98123" lon="5.40664">
        <ele>963.1</ele>
        <time>2019-10-27T10:35:53Z</time>
      </trkpt>
      <trkpt lat="43.98117" lon="5.40662">
        <ele>961.8</ele>
        <time>2019-10-27T10:35:54Z</time>
      </trkpt>
      <trkpt lat="43.98109" lon="5.40659">
        <ele>959.9</ele>
        <time>2019-10-27T10:35:55Z</time>
      </trkpt>
      <trkpt lat="43.981" lon="5.40657">
        <ele>958</ele>
        <time>2019-10-27T10:35:56Z</time>
      </trkpt>
      <trkpt lat="43.98092" lon="5.40649">
        <ele>955.9</ele>
        <time>2019-10-27T10:35:57Z</time>
      </trkpt>
      <trkpt lat="43.98086" lon="5.40645">
        <ele>954.5</ele>
        <time>2019-10-27T10:35:58Z</time>
      </trkpt>
      <trkpt lat="43.9808" lon="5.40639">
        <ele>953.2</ele>
        <time>2019-10-27T10:35:59Z</time>
      </trkpt>
      <trkpt lat="43.98071" lon="5.40634">
        <ele>951.6</ele>
        <time>2019-10-27T10:36:00Z</time>
      </trkpt>
      <trkpt lat="43.98064" lon="5.4063">
        <ele>950.5</ele>
        <time>2019-10-27T10:36:01Z</time>
      </trkpt>
      <trkpt lat="43.98058" lon="5.40625">
        <ele>949.5</ele>
        <time>2019-10-27T10:36:02Z</time>
      </trkpt>
      <trkpt lat="43.98051" lon="5.4062">
        <ele>948.5</ele>
        <time>2019-10-27T10:36:03Z</time>
      </trkpt>
      <trkpt lat="43.98046" lon="5.40618">
        <ele>947.9</ele>
        <time>2019-10-27T10:36:04Z</time>
      </trkpt>
      <trkpt lat="43.98042" lon="5.40614">
        <ele>947.5</ele>
        <time>2019-10-27T10:36:05Z</time>
      </trkpt>
      <trkpt lat="43.98039" lon="5.40614">
        <ele>947.2</ele>
        <time>2019-10-27T10:36:06Z</time>
      </trkpt>
      <trkpt lat="43.98036" lon="5.40618">
        <ele>946.9</ele>
        <time>2019-10-27T10:36:07Z</time>
      </trkpt>
      <trkpt lat="43.98034" lon="5.40621">
        <ele>946.6</ele>
        <time>2019-10-27T10:36:08Z</time>
      </trkpt>
      <trkpt lat="43.98031" lon="5.40623">
        <ele>946.4</ele>
        <time>2019-10-27T10:36:09Z</time>
      </trkpt>
      <trkpt lat="43.98029" lon="5.4063">
        <ele>946</ele>
        <time>2019-10-27T10:36:10Z</time>
      </trkpt>
      <trkpt lat="43.98027" lon="5.40637">
        <ele>945.6</ele>
        <time>2019-10-27T10:36:11Z</time>
      </trkpt>
      <trkpt lat="43.98024" lon="5.40643">
        <ele>945.1</ele>
        <time>2019-10-27T10:36:12Z</time>
      </trkpt>
      <trkpt lat="43.98021" lon="5.40648">
        <ele>944.7</ele>
        <time>2019-10-27T10:36:13Z</time>
      </trkpt>
      <trkpt lat="43.98018" lon="5.40656">
        <ele>944.3</ele>
        <time>2019-10-27T10:36:14Z</time>
      </trkpt>
      <trkpt lat="43.98015" lon="5.40658">
        <ele>944</ele>
        <time>2019-10-27T10:36:15Z</time>
      </trkpt>
      <trkpt lat="43.98013" lon="5.40665">
        <ele>943.6</ele>
        <time>2019-10-27T10:36:16Z</time>
      </trkpt>
      <trkpt lat="43.98012" lon="5.4067">
        <ele>943.4</ele>
        <time>2019-10-27T10:36:17Z</time>
      </trkpt>
      <trkpt lat="43.98011" lon="5.40676">
        <ele>943.1</ele>
        <time>2019-10-27T10:36:18Z</time>
      </trkpt>
      <trkpt lat="43.9801" lon="5.40684">
        <ele>942.8</ele>
        <time>2019-10-27T10:36:19Z</time>
      </trkpt>
      <trkpt lat="43.98008" lon="5.40692">
        <ele>942.6</ele>
        <time>2019-10-27T10:36:20Z</time>
      </trkpt>
      <trkpt lat="43.98006" lon="5.40698">
        <ele>942.5</ele>
        <time>2019-10-27T10:36:21Z</time>
      </trkpt>
      <trkpt lat="43.98004" lon="5.40704">
        <ele>942.4</ele>
        <time>2019-10-27T10:36:22Z</time>
      </trkpt>
      <trkpt lat="43.98003" lon="5.40711">
        <ele>942.4</ele>
        <time>2019-10-27T10:36:23Z</time>
      </trkpt>
      <trkpt lat="43.98001" lon="5.40718">
        <ele>942.4</ele>
        <time>2019-10-27T10:36:24Z</time>
      </trkpt>
      <trkpt lat="43.97999" lon="5.40723">
        <ele>942.5</ele>
        <time>2019-10-27T10:36:25Z</time>
      </trkpt>
      <trkpt lat="43.97997" lon="5.40727">
        <ele>942.6</ele>
        <time>2019-10-27T10:36:26Z</time>
      </trkpt>
      <trkpt lat="43.97996" lon="5.40733">
        <ele>942.7</ele>
        <time>2019-10-27T10:36:27Z</time>
      </trkpt>
      <trkpt lat="43.97995" lon="5.40738">
        <ele>942.8</ele>
        <time>2019-10-27T10:36:28Z</time>
      </trkpt>
      <trkpt lat="43.97995" lon="5.40744">
        <ele>943</ele>
        <time>2019-10-27T10:36:30Z</time>
      </trkpt>
      <trkpt lat="43.97997" lon="5.40749">
        <ele>943.2</ele>
        <time>2019-10-27T10:36:32Z</time>
      </trkpt>
      <trkpt lat="43.97997" lon="5.40752">
        <ele>943.3</ele>
        <time>2019-10-27T10:36:33Z</time>
      </trkpt>
      <trkpt lat="43.97998" lon="5.40757">
        <ele>943.4</ele>
        <time>2019-10-27T10:36:34Z</time>
      </trkpt>
      <trkpt lat="43.97998" lon="5.40761">
        <ele>943.6</ele>
        <time>2019-10-27T10:36:35Z</time>
      </trkpt>
      <trkpt lat="43.97999" lon="5.40766">
        <ele>943.8</ele>
        <time>2019-10-27T10:36:36Z</time>
      </trkpt>
      <trkpt lat="43.98" lon="5.40772">
        <ele>944</ele>
        <time>2019-10-27T10:36:37Z</time>
      </trkpt>
      <trkpt lat="43.98" lon="5.40777">
        <ele>944.1</ele>
        <time>2019-10-27T10:36:38Z</time>
      </trkpt>
      <trkpt lat="43.98" lon="5.40782">
        <ele>944.2</ele>
        <time>2019-10-27T10:36:39Z</time>
      </trkpt>
      <trkpt lat="43.98" lon="5.40786">
        <ele>944.4</ele>
        <time>2019-10-27T10:36:40Z</time>
      </trkpt>
      <trkpt lat="43.98" lon="5.40793">
        <ele>944.6</ele>
        <time>2019-10-27T10:36:42Z</time>
      </trkpt>
      <trkpt lat="43.98" lon="5.40798">
        <ele>944.3</ele>
        <time>2019-10-27T10:36:43Z</time>
      </trkpt>
      <trkpt lat="43.98" lon="5.40802">
        <ele>944.1</ele>
        <time>2019-10-27T10:36:44Z</time>
      </trkpt>
      <trkpt lat="43.98" lon="5.40807">
        <ele>943.9</ele>
        <time>2019-10-27T10:36:45Z</time>
      </trkpt>
      <trkpt lat="43.98" lon="5.40814">
        <ele>943.6</ele>
        <time>2019-10-27T10:36:47Z</time>
      </trkpt>
      <trkpt lat="43.98001" lon="5.40818">
        <ele>943.3</ele>
        <time>2019-10-27T10:36:48Z</time>
      </trkpt>
      <trkpt lat="43.98001" lon="5.40823">
        <ele>943.1</ele>
        <time>2019-10-27T10:36:49Z</time>
      </trkpt>
      <trkpt lat="43.98" lon="5.40829">
        <ele>942.8</ele>
        <time>2019-10-27T10:36:50Z</time>
      </trkpt>
      <trkpt lat="43.97999" lon="5.40836">
        <ele>942.4</ele>
        <time>2019-10-27T10:36:51Z</time>
      </trkpt>
      <trkpt lat="43.97998" lon="5.40842">
        <ele>941.8</ele>
        <time>2019-10-27T10:36:52Z</time>
      </trkpt>
      <trkpt lat="43.97995" lon="5.40847">
        <ele>941.2</ele>
        <time>2019-10-27T10:36:53Z</time>
      </trkpt>
      <trkpt lat="43.97992" lon="5.40852">
        <ele>940.8</ele>
        <time>2019-10-27T10:36:54Z</time>
      </trkpt>
      <trkpt lat="43.97988" lon="5.40855">
        <ele>940.2</ele>
        <time>2019-10-27T10:36:55Z</time>
      </trkpt>
      <trkpt lat="43.97984" lon="5.40858">
        <ele>939.6</ele>
        <time>2019-10-27T10:36:56Z</time>
      </trkpt>
      <trkpt lat="43.97979" lon="5.40855">
        <ele>939.1</ele>
        <time>2019-10-27T10:36:57Z</time>
      </trkpt>
      <trkpt lat="43.97974" lon="5.40855">
        <ele>938.6</ele>
        <time>2019-10-27T10:36:58Z</time>
      </trkpt>
      <trkpt lat="43.9797" lon="5.40859">
        <ele>938.1</ele>
        <time>2019-10-27T10:36:59Z</time>
      </trkpt>
      <trkpt lat="43.97967" lon="5.40865">
        <ele>937.6</ele>
        <time>2019-10-27T10:37:00Z</time>
      </trkpt>
      <trkpt lat="43.97962" lon="5.40869">
        <ele>936.9</ele>
        <time>2019-10-27T10:37:01Z</time>
      </trkpt>
      <trkpt lat="43.97959" lon="5.40873">
        <ele>936.1</ele>
        <time>2019-10-27T10:37:02Z</time>
      </trkpt>
      <trkpt lat="43.97957" lon="5.40879">
        <ele>935.5</ele>
        <time>2019-10-27T10:37:03Z</time>
      </trkpt>
      <trkpt lat="43.97957" lon="5.40883">
        <ele>935.1</ele>
        <time>2019-10-27T10:37:04Z</time>
      </trkpt>
      <trkpt lat="43.97956" lon="5.40891">
        <ele>934.4</ele>
        <time>2019-10-27T10:37:06Z</time>
      </trkpt>
      <trkpt lat="43.97955" lon="5.40898">
        <ele>933.5</ele>
        <time>2019-10-27T10:37:07Z</time>
      </trkpt>
      <trkpt lat="43.97953" lon="5.40906">
        <ele>932.5</ele>
        <time>2019-10-27T10:37:08Z</time>
      </trkpt>
      <trkpt lat="43.97951" lon="5.40913">
        <ele>931.7</ele>
        <time>2019-10-27T10:37:09Z</time>
      </trkpt>
      <trkpt lat="43.97949" lon="5.40919">
        <ele>930.9</ele>
        <time>2019-10-27T10:37:10Z</time>
      </trkpt>
      <trkpt lat="43.97948" lon="5.40926">
        <ele>929.8</ele>
        <time>2019-10-27T10:37:11Z</time>
      </trkpt>
      <trkpt lat="43.97945" lon="5.40933">
        <ele>928.5</ele>
        <time>2019-10-27T10:37:13Z</time>
      </trkpt>
      <trkpt lat="43.97941" lon="5.40936">
        <ele>927.5</ele>
        <time>2019-10-27T10:37:14Z</time>
      </trkpt>
      <trkpt lat="43.97939" lon="5.40939">
        <ele>926.8</ele>
        <time>2019-10-27T10:37:15Z</time>
      </trkpt>
      <trkpt lat="43.97937" lon="5.40943">
        <ele>926.2</ele>
        <time>2019-10-27T10:37:16Z</time>
      </trkpt>
      <trkpt lat="43.97934" lon="5.40945">
        <ele>925.5</ele>
        <time>2019-10-27T10:37:18Z</time>
      </trkpt>
      <trkpt lat="43.9793" lon="5.40949">
        <ele>924.3</ele>
        <time>2019-10-27T10:37:20Z</time>
      </trkpt>
      <trkpt lat="43.97925" lon="5.40954">
        <ele>923.3</ele>
        <time>2019-10-27T10:37:21Z</time>
      </trkpt>
      <trkpt lat="43.9792" lon="5.40961">
        <ele>922.2</ele>
        <time>2019-10-27T10:37:22Z</time>
      </trkpt>
      <trkpt lat="43.97915" lon="5.40972">
        <ele>920.5</ele>
        <time>2019-10-27T10:37:23Z</time>
      </trkpt>
      <trkpt lat="43.97907" lon="5.40982">
        <ele>918.8</ele>
        <time>2019-10-27T10:37:24Z</time>
      </trkpt>
      <trkpt lat="43.97901" lon="5.40991">
        <ele>917.3</ele>
        <time>2019-10-27T10:37:25Z</time>
      </trkpt>
      <trkpt lat="43.97898" lon="5.40998">
        <ele>915.9</ele>
        <time>2019-10-27T10:37:26Z</time>
      </trkpt>
      <trkpt lat="43.97895" lon="5.41002">
        <ele>915</ele>
        <time>2019-10-27T10:37:27Z</time>
      </trkpt>
      <trkpt lat="43.97891" lon="5.41004">
        <ele>913.6</ele>
        <time>2019-10-27T10:37:28Z</time>
      </trkpt>
      <trkpt lat="43.97885" lon="5.41008">
        <ele>912.1</ele>
        <time>2019-10-27T10:37:29Z</time>
      </trkpt>
      <trkpt lat="43.97883" lon="5.41015">
        <ele>910.9</ele>
        <time>2019-10-27T10:37:30Z</time>
      </trkpt>
      <trkpt lat="43.97882" lon="5.41022">
        <ele>909.7</ele>
        <time>2019-10-27T10:37:31Z</time>
      </trkpt>
      <trkpt lat="43.97884" lon="5.41028">
        <ele>908.6</ele>
        <time>2019-10-27T10:37:32Z</time>
      </trkpt>
      <trkpt lat="43.97885" lon="5.41034">
        <ele>907.6</ele>
        <time>2019-10-27T10:37:33Z</time>
      </trkpt>
      <trkpt lat="43.97883" lon="5.4104">
        <ele>906.6</ele>
        <time>2019-10-27T10:37:34Z</time>
      </trkpt>
      <trkpt lat="43.9788" lon="5.41047">
        <ele>905.6</ele>
        <time>2019-10-27T10:37:35Z</time>
      </trkpt>
      <trkpt lat="43.97877" lon="5.41053">
        <ele>904.7</ele>
        <time>2019-10-27T10:37:36Z</time>
      </trkpt>
      <trkpt lat="43.97874" lon="5.41058">
        <ele>903.7</ele>
        <time>2019-10-27T10:37:37Z</time>
      </trkpt>
      <trkpt lat="43.9787" lon="5.41063">
        <ele>902.4</ele>
        <time>2019-10-27T10:37:38Z</time>
      </trkpt>
      <trkpt lat="43.97866" lon="5.41068">
        <ele>901</ele>
        <time>2019-10-27T10:37:39Z</time>
      </trkpt>
      <trkpt lat="43.9786" lon="5.41075">
        <ele>899.4</ele>
        <time>2019-10-27T10:37:40Z</time>
      </trkpt>
      <trkpt lat="43.97857" lon="5.41083">
        <ele>897.9</ele>
        <time>2019-10-27T10:37:41Z</time>
      </trkpt>
      <trkpt lat="43.97857" lon="5.41089">
        <ele>896.7</ele>
        <time>2019-10-27T10:37:42Z</time>
      </trkpt>
      <trkpt lat="43.97856" lon="5.41096">
        <ele>895.3</ele>
        <time>2019-10-27T10:37:43Z</time>
      </trkpt>
      <trkpt lat="43.97854" lon="5.41103">
        <ele>893.6</ele>
        <time>2019-10-27T10:37:44Z</time>
      </trkpt>
      <trkpt lat="43.97851" lon="5.41111">
        <ele>891.9</ele>
        <time>2019-10-27T10:37:45Z</time>
      </trkpt>
      <trkpt lat="43.97847" lon="5.41118">
        <ele>890.2</ele>
        <time>2019-10-27T10:37:46Z</time>
      </trkpt>
      <trkpt lat="43.97843" lon="5.41124">
        <ele>888.5</ele>
        <time>2019-10-27T10:37:47Z</time>
      </trkpt>
      <trkpt lat="43.9784" lon="5.41127">
        <ele>887.3</ele>
        <time>2019-10-27T10:37:48Z</time>
      </trkpt>
      <trkpt lat="43.97835" lon="5.4113">
        <ele>886</ele>
        <time>2019-10-27T10:37:49Z</time>
      </trkpt>
      <trkpt lat="43.9783" lon="5.41132">
        <ele>884.4</ele>
        <time>2019-10-27T10:37:50Z</time>
      </trkpt>
      <trkpt lat="43.97823" lon="5.41133">
        <ele>882.5</ele>
        <time>2019-10-27T10:37:51Z</time>
      </trkpt>
      <trkpt lat="43.97818" lon="5.41139">
        <ele>880.7</ele>
        <time>2019-10-27T10:37:52Z</time>
      </trkpt>
      <trkpt lat="43.97817" lon="5.41147">
        <ele>879.2</ele>
        <time>2019-10-27T10:37:53Z</time>
      </trkpt>
      <trkpt lat="43.97817" lon="5.41155">
        <ele>877.9</ele>
        <time>2019-10-27T10:37:54Z</time>
      </trkpt>
      <trkpt lat="43.97817" lon="5.41162">
        <ele>876.3</ele>
        <time>2019-10-27T10:37:55Z</time>
      </trkpt>
      <trkpt lat="43.97815" lon="5.41167">
        <ele>874.8</ele>
        <time>2019-10-27T10:37:56Z</time>
      </trkpt>
      <trkpt lat="43.97812" lon="5.4117">
        <ele>873.9</ele>
        <time>2019-10-27T10:37:57Z</time>
      </trkpt>
      <trkpt lat="43.97808" lon="5.41169">
        <ele>873</ele>
        <time>2019-10-27T10:37:58Z</time>
      </trkpt>
      <trkpt lat="43.97804" lon="5.41171">
        <ele>871.8</ele>
        <time>2019-10-27T10:37:59Z</time>
      </trkpt>
      <trkpt lat="43.97801" lon="5.41175">
        <ele>870.6</ele>
        <time>2019-10-27T10:38:00Z</time>
      </trkpt>
      <trkpt lat="43.97802" lon="5.41179">
        <ele>870</ele>
        <time>2019-10-27T10:38:01Z</time>
      </trkpt>
      <trkpt lat="43.97805" lon="5.41184">
        <ele>869</ele>
        <time>2019-10-27T10:38:02Z</time>
      </trkpt>
      <trkpt lat="43.97808" lon="5.41187">
        <ele>868.2</ele>
        <time>2019-10-27T10:38:03Z</time>
      </trkpt>
      <trkpt lat="43.97807" lon="5.41192">
        <ele>867.5</ele>
        <time>2019-10-27T10:38:05Z</time>
      </trkpt>
      <trkpt lat="43.97804" lon="5.41193">
        <ele>866.9</ele>
        <time>2019-10-27T10:38:06Z</time>
      </trkpt>
      <trkpt lat="43.97801" lon="5.41196">
        <ele>866.1</ele>
        <time>2019-10-27T10:38:07Z</time>
      </trkpt>
      <trkpt lat="43.978" lon="5.412">
        <ele>865.5</ele>
        <time>2019-10-27T10:38:08Z</time>
      </trkpt>
      <trkpt lat="43.97803" lon="5.41207">
        <ele>864.4</ele>
        <time>2019-10-27T10:38:10Z</time>
      </trkpt>
      <trkpt lat="43.97803" lon="5.41213">
        <ele>863.7</ele>
        <time>2019-10-27T10:38:11Z</time>
      </trkpt>
      <trkpt lat="43.97802" lon="5.41217">
        <ele>863.2</ele>
        <time>2019-10-27T10:38:12Z</time>
      </trkpt>
      <trkpt lat="43.97798" lon="5.41219">
        <ele>862.2</ele>
        <time>2019-10-27T10:38:14Z</time>
      </trkpt>
      <trkpt lat="43.97792" lon="5.41221">
        <ele>860.8</ele>
        <time>2019-10-27T10:38:16Z</time>
      </trkpt>
      <trkpt lat="43.97788" lon="5.41223">
        <ele>859.9</ele>
        <time>2019-10-27T10:38:17Z</time>
      </trkpt>
      <trkpt lat="43.97783" lon="5.41224">
        <ele>858.9</ele>
        <time>2019-10-27T10:38:18Z</time>
      </trkpt>
      <trkpt lat="43.97779" lon="5.41227">
        <ele>858.2</ele>
        <time>2019-10-27T10:38:19Z</time>
      </trkpt>
      <trkpt lat="43.97775" lon="5.41229">
        <ele>857.6</ele>
        <time>2019-10-27T10:38:20Z</time>
      </trkpt>
      <trkpt lat="43.97771" lon="5.41231">
        <ele>857</ele>
        <time>2019-10-27T10:38:21Z</time>
      </trkpt>
      <trkpt lat="43.97767" lon="5.41234">
        <ele>856.3</ele>
        <time>2019-10-27T10:38:22Z</time>
      </trkpt>
      <trkpt lat="43.97763" lon="5.41235">
        <ele>855.4</ele>
        <time>2019-10-27T10:38:23Z</time>
      </trkpt>
      <trkpt lat="43.97758" lon="5.41238">
        <ele>854.4</ele>
        <time>2019-10-27T10:38:24Z</time>
      </trkpt>
      <trkpt lat="43.97753" lon="5.41243">
        <ele>853.6</ele>
        <time>2019-10-27T10:38:25Z</time>
      </trkpt>
      <trkpt lat="43.9775" lon="5.41247">
        <ele>852.9</ele>
        <time>2019-10-27T10:38:26Z</time>
      </trkpt>
      <trkpt lat="43.97744" lon="5.41251">
        <ele>852.2</ele>
        <time>2019-10-27T10:38:27Z</time>
      </trkpt>
      <trkpt lat="43.97739" lon="5.41254">
        <ele>851.5</ele>
        <time>2019-10-27T10:38:28Z</time>
      </trkpt>
      <trkpt lat="43.97735" lon="5.41257">
        <ele>851</ele>
        <time>2019-10-27T10:38:29Z</time>
      </trkpt>
      <trkpt lat="43.97732" lon="5.41259">
        <ele>850.7</ele>
        <time>2019-10-27T10:38:30Z</time>
      </trkpt>
      <trkpt lat="43.97727" lon="5.41259">
        <ele>850.1</ele>
        <time>2019-10-27T10:38:32Z</time>
      </trkpt>
      <trkpt lat="43.97722" lon="5.4126">
        <ele>849.6</ele>
        <time>2019-10-27T10:38:34Z</time>
      </trkpt>
      <trkpt lat="43.97719" lon="5.41261">
        <ele>849.3</ele>
        <time>2019-10-27T10:38:36Z</time>
      </trkpt>
      <trkpt lat="43.97722" lon="5.41264">
        <ele>848.9</ele>
        <time>2019-10-27T10:38:42Z</time>
      </trkpt>
      <trkpt lat="43.97728" lon="5.41266">
        <ele>848.3</ele>
        <time>2019-10-27T10:38:44Z</time>
      </trkpt>
      <trkpt lat="43.97732" lon="5.41266">
        <ele>841.5</ele>
        <time>2019-10-27T10:38:46Z</time>
      </trkpt>
      <trkpt lat="43.97735" lon="5.41268">
        <ele>841</ele>
        <time>2019-10-27T10:38:49Z</time>
      </trkpt>
      <trkpt lat="43.97735" lon="5.41271">
        <ele>840.7</ele>
        <time>2019-10-27T10:39:24Z</time>
      </trkpt>
      <trkpt lat="43.9774" lon="5.41274">
        <ele>839.9</ele>
        <time>2019-10-27T10:39:26Z</time>
      </trkpt>
      <trkpt lat="43.97745" lon="5.41275">
        <ele>839.1</ele>
        <time>2019-10-27T10:39:27Z</time>
      </trkpt>
      <trkpt lat="43.97749" lon="5.41277">
        <ele>838.4</ele>
        <time>2019-10-27T10:39:28Z</time>
      </trkpt>
      <trkpt lat="43.97753" lon="5.4128">
        <ele>837.6</ele>
        <time>2019-10-27T10:39:29Z</time>
      </trkpt>
      <trkpt lat="43.97756" lon="5.41284">
        <ele>836.8</ele>
        <time>2019-10-27T10:39:30Z</time>
      </trkpt>
      <trkpt lat="43.97756" lon="5.4129">
        <ele>835.8</ele>
        <time>2019-10-27T10:39:31Z</time>
      </trkpt>
      <trkpt lat="43.97757" lon="5.41296">
        <ele>834.8</ele>
        <time>2019-10-27T10:39:32Z</time>
      </trkpt>
      <trkpt lat="43.9776" lon="5.41301">
        <ele>833.7</ele>
        <time>2019-10-27T10:39:33Z</time>
      </trkpt>
      <trkpt lat="43.97764" lon="5.41304">
        <ele>832.2</ele>
        <time>2019-10-27T10:39:34Z</time>
      </trkpt>
      <trkpt lat="43.97769" lon="5.41309">
        <ele>830.6</ele>
        <time>2019-10-27T10:39:35Z</time>
      </trkpt>
      <trkpt lat="43.97775" lon="5.41313">
        <ele>828.9</ele>
        <time>2019-10-27T10:39:36Z</time>
      </trkpt>
      <trkpt lat="43.97781" lon="5.41316">
        <ele>827.2</ele>
        <time>2019-10-27T10:39:37Z</time>
      </trkpt>
      <trkpt lat="43.97787" lon="5.41318">
        <ele>825.5</ele>
        <time>2019-10-27T10:39:38Z</time>
      </trkpt>
      <trkpt lat="43.97786" lon="5.41326">
        <ele>823.7</ele>
        <time>2019-10-27T10:39:40Z</time>
      </trkpt>
      <trkpt lat="43.97786" lon="5.41333">
        <ele>822.3</ele>
        <time>2019-10-27T10:39:41Z</time>
      </trkpt>
      <trkpt lat="43.97786" lon="5.41339">
        <ele>821.1</ele>
        <time>2019-10-27T10:39:42Z</time>
      </trkpt>
      <trkpt lat="43.97788" lon="5.41344">
        <ele>819.9</ele>
        <time>2019-10-27T10:39:43Z</time>
      </trkpt>
      <trkpt lat="43.97794" lon="5.41346">
        <ele>818</ele>
        <time>2019-10-27T10:39:45Z</time>
      </trkpt>
      <trkpt lat="43.97799" lon="5.41346">
        <ele>816.8</ele>
        <time>2019-10-27T10:39:46Z</time>
      </trkpt>
      <trkpt lat="43.97804" lon="5.41347">
        <ele>815.7</ele>
        <time>2019-10-27T10:39:47Z</time>
      </trkpt>
      <trkpt lat="43.97808" lon="5.4135">
        <ele>814.9</ele>
        <time>2019-10-27T10:39:48Z</time>
      </trkpt>
      <trkpt lat="43.97811" lon="5.41352">
        <ele>814.2</ele>
        <time>2019-10-27T10:39:49Z</time>
      </trkpt>
      <trkpt lat="43.97815" lon="5.41348">
        <ele>813.3</ele>
        <time>2019-10-27T10:39:50Z</time>
      </trkpt>
      <trkpt lat="43.97818" lon="5.41346">
        <ele>812.7</ele>
        <time>2019-10-27T10:39:51Z</time>
      </trkpt>
      <trkpt lat="43.97822" lon="5.41347">
        <ele>812.1</ele>
        <time>2019-10-27T10:39:52Z</time>
      </trkpt>
      <trkpt lat="43.97828" lon="5.41348">
        <ele>811.2</ele>
        <time>2019-10-27T10:39:53Z</time>
      </trkpt>
      <trkpt lat="43.97834" lon="5.4135">
        <ele>810.2</ele>
        <time>2019-10-27T10:39:54Z</time>
      </trkpt>
      <trkpt lat="43.97841" lon="5.4135">
        <ele>809.1</ele>
        <time>2019-10-27T10:39:55Z</time>
      </trkpt>
      <trkpt lat="43.97848" lon="5.41351">
        <ele>807.6</ele>
        <time>2019-10-27T10:39:56Z</time>
      </trkpt>
      <trkpt lat="43.97855" lon="5.41352">
        <ele>806.2</ele>
        <time>2019-10-27T10:39:57Z</time>
      </trkpt>
      <trkpt lat="43.97859" lon="5.41353">
        <ele>805</ele>
        <time>2019-10-27T10:39:58Z</time>
      </trkpt>
      <trkpt lat="43.97863" lon="5.41356">
        <ele>804.1</ele>
        <time>2019-10-27T10:39:59Z</time>
      </trkpt>
      <trkpt lat="43.97867" lon="5.41359">
        <ele>803.2</ele>
        <time>2019-10-27T10:40:00Z</time>
      </trkpt>
      <trkpt lat="43.97875" lon="5.41362">
        <ele>801.4</ele>
        <time>2019-10-27T10:40:01Z</time>
      </trkpt>
      <trkpt lat="43.97884" lon="5.41362">
        <ele>799.2</ele>
        <time>2019-10-27T10:40:02Z</time>
      </trkpt>
      <trkpt lat="43.97892" lon="5.41364">
        <ele>797.6</ele>
        <time>2019-10-27T10:40:03Z</time>
      </trkpt>
      <trkpt lat="43.97901" lon="5.41365">
        <ele>797.7</ele>
        <time>2019-10-27T10:40:04Z</time>
      </trkpt>
      <trkpt lat="43.9791" lon="5.41362">
        <ele>798.6</ele>
        <time>2019-10-27T10:40:05Z</time>
      </trkpt>
      <trkpt lat="43.97917" lon="5.41359">
        <ele>799.4</ele>
        <time>2019-10-27T10:40:06Z</time>
      </trkpt>
      <trkpt lat="43.97922" lon="5.41356">
        <ele>800</ele>
        <time>2019-10-27T10:40:07Z</time>
      </trkpt>
      <trkpt lat="43.97926" lon="5.41353">
        <ele>800.4</ele>
        <time>2019-10-27T10:40:08Z</time>
      </trkpt>
      <trkpt lat="43.97929" lon="5.41351">
        <ele>800.9</ele>
        <time>2019-10-27T10:40:09Z</time>
      </trkpt>
      <trkpt lat="43.97934" lon="5.41348">
        <ele>801.5</ele>
        <time>2019-10-27T10:40:11Z</time>
      </trkpt>
      <trkpt lat="43.97937" lon="5.41345">
        <ele>802</ele>
        <time>2019-10-27T10:40:13Z</time>
      </trkpt>
      <trkpt lat="43.9794" lon="5.41342">
        <ele>802.4</ele>
        <time>2019-10-27T10:40:15Z</time>
      </trkpt>
      <trkpt lat="43.97943" lon="5.41337">
        <ele>802.9</ele>
        <time>2019-10-27T10:43:06Z</time>
      </trkpt>
      <trkpt lat="43.97947" lon="5.41334">
        <ele>803.5</ele>
        <time>2019-10-27T10:43:08Z</time>
      </trkpt>
      <trkpt lat="43.97951" lon="5.41331">
        <ele>803.9</ele>
        <time>2019-10-27T10:43:10Z</time>
      </trkpt>
      <trkpt lat="43.97954" lon="5.41327">
        <ele>804.4</ele>
        <time>2019-10-27T10:43:12Z</time>
      </trkpt>
      <trkpt lat="43.97957" lon="5.41325">
        <ele>804.8</ele>
        <time>2019-10-27T10:43:14Z</time>
      </trkpt>
      <trkpt lat="43.9796" lon="5.41323">
        <ele>805.2</ele>
        <time>2019-10-27T10:43:16Z</time>
      </trkpt>
      <trkpt lat="43.97963" lon="5.41319">
        <ele>805.6</ele>
        <time>2019-10-27T10:43:19Z</time>
      </trkpt>
      <trkpt lat="43.97965" lon="5.41317">
        <ele>806</ele>
        <time>2019-10-27T10:43:22Z</time>
      </trkpt>
      <trkpt lat="43.97968" lon="5.41314">
        <ele>806.2</ele>
        <time>2019-10-27T10:43:24Z</time>
      </trkpt>
      <trkpt lat="43.97971" lon="5.41311">
        <ele>806.7</ele>
        <time>2019-10-27T10:43:27Z</time>
      </trkpt>
      <trkpt lat="43.97974" lon="5.41309">
        <ele>807</ele>
        <time>2019-10-27T10:43:29Z</time>
      </trkpt>
      <trkpt lat="43.97976" lon="5.41307">
        <ele>807.3</ele>
        <time>2019-10-27T10:43:31Z</time>
      </trkpt>
      <trkpt lat="43.97979" lon="5.41304">
        <ele>807.6</ele>
        <time>2019-10-27T10:43:33Z</time>
      </trkpt>
      <trkpt lat="43.97981" lon="5.41302">
        <ele>807.9</ele>
        <time>2019-10-27T10:43:35Z</time>
      </trkpt>
      <trkpt lat="43.97983" lon="5.41299">
        <ele>808.2</ele>
        <time>2019-10-27T10:43:37Z</time>
      </trkpt>
      <trkpt lat="43.97986" lon="5.41297">
        <ele>808.5</ele>
        <time>2019-10-27T10:43:39Z</time>
      </trkpt>
      <trkpt lat="43.97988" lon="5.41294">
        <ele>808.9</ele>
        <time>2019-10-27T10:43:41Z</time>
      </trkpt>
      <trkpt lat="43.9799" lon="5.41292">
        <ele>809.2</ele>
        <time>2019-10-27T10:43:43Z</time>
      </trkpt>
      <trkpt lat="43.97993" lon="5.41289">
        <ele>809.6</ele>
        <time>2019-10-27T10:43:45Z</time>
      </trkpt>
      <trkpt lat="43.97995" lon="5.41286">
        <ele>810</ele>
        <time>2019-10-27T10:43:47Z</time>
      </trkpt>
      <trkpt lat="43.97998" lon="5.41283">
        <ele>810.3</ele>
        <time>2019-10-27T10:43:49Z</time>
      </trkpt>
      <trkpt lat="43.98" lon="5.41281">
        <ele>810.7</ele>
        <time>2019-10-27T10:43:51Z</time>
      </trkpt>
      <trkpt lat="43.98002" lon="5.41278">
        <ele>811.1</ele>
        <time>2019-10-27T10:43:53Z</time>
      </trkpt>
      <trkpt lat="43.98004" lon="5.41275">
        <ele>811.5</ele>
        <time>2019-10-27T10:43:55Z</time>
      </trkpt>
      <trkpt lat="43.98006" lon="5.41272">
        <ele>812</ele>
        <time>2019-10-27T10:43:57Z</time>
      </trkpt>
      <trkpt lat="43.98009" lon="5.4127">
        <ele>812.5</ele>
        <time>2019-10-27T10:43:59Z</time>
      </trkpt>
      <trkpt lat="43.98011" lon="5.41268">
        <ele>813</ele>
        <time>2019-10-27T10:44:01Z</time>
      </trkpt>
      <trkpt lat="43.98014" lon="5.41267">
        <ele>813.4</ele>
        <time>2019-10-27T10:44:03Z</time>
      </trkpt>
      <trkpt lat="43.98016" lon="5.41265">
        <ele>813.9</ele>
        <time>2019-10-27T10:44:05Z</time>
      </trkpt>
      <trkpt lat="43.98019" lon="5.41265">
        <ele>814.4</ele>
        <time>2019-10-27T10:44:07Z</time>
      </trkpt>
      <trkpt lat="43.98022" lon="5.41264">
        <ele>815</ele>
        <time>2019-10-27T10:44:09Z</time>
      </trkpt>
      <trkpt lat="43.98025" lon="5.41263">
        <ele>815.5</ele>
        <time>2019-10-27T10:44:11Z</time>
      </trkpt>
      <trkpt lat="43.98028" lon="5.41262">
        <ele>816.1</ele>
        <time>2019-10-27T10:44:13Z</time>
      </trkpt>
      <trkpt lat="43.98031" lon="5.41261">
        <ele>816.6</ele>
        <time>2019-10-27T10:44:15Z</time>
      </trkpt>
      <trkpt lat="43.98034" lon="5.4126">
        <ele>817.1</ele>
        <time>2019-10-27T10:44:17Z</time>
      </trkpt>
      <trkpt lat="43.98037" lon="5.41259">
        <ele>817.7</ele>
        <time>2019-10-27T10:44:19Z</time>
      </trkpt>
      <trkpt lat="43.9804" lon="5.41259">
        <ele>818.2</ele>
        <time>2019-10-27T10:44:21Z</time>
      </trkpt>
      <trkpt lat="43.98043" lon="5.41258">
        <ele>818.8</ele>
        <time>2019-10-27T10:44:23Z</time>
      </trkpt>
      <trkpt lat="43.98046" lon="5.41258">
        <ele>819.5</ele>
        <time>2019-10-27T10:44:25Z</time>
      </trkpt>
      <trkpt lat="43.98049" lon="5.41258">
        <ele>820.2</ele>
        <time>2019-10-27T10:44:27Z</time>
      </trkpt>
      <trkpt lat="43.98053" lon="5.41257">
        <ele>820.9</ele>
        <time>2019-10-27T10:44:29Z</time>
      </trkpt>
      <trkpt lat="43.98056" lon="5.41257">
        <ele>821.6</ele>
        <time>2019-10-27T10:44:31Z</time>
      </trkpt>
      <trkpt lat="43.98059" lon="5.41257">
        <ele>822.2</ele>
        <time>2019-10-27T10:44:33Z</time>
      </trkpt>
      <trkpt lat="43.98062" lon="5.41257">
        <ele>822.9</ele>
        <time>2019-10-27T10:44:35Z</time>
      </trkpt>
      <trkpt lat="43.98066" lon="5.41257">
        <ele>823.9</ele>
        <time>2019-10-27T10:44:38Z</time>
      </trkpt>
      <trkpt lat="43.98069" lon="5.41257">
        <ele>824.6</ele>
        <time>2019-10-27T10:44:40Z</time>
      </trkpt>
      <trkpt lat="43.98072" lon="5.41257">
        <ele>825.3</ele>
        <time>2019-10-27T10:44:42Z</time>
      </trkpt>
      <trkpt lat="43.98075" lon="5.41256">
        <ele>826</ele>
        <time>2019-10-27T10:44:44Z</time>
      </trkpt>
      <trkpt lat="43.98079" lon="5.41256">
        <ele>826.9</ele>
        <time>2019-10-27T10:44:47Z</time>
      </trkpt>
      <trkpt lat="43.98082" lon="5.41255">
        <ele>827.7</ele>
        <time>2019-10-27T10:44:49Z</time>
      </trkpt>
      <trkpt lat="43.98085" lon="5.41255">
        <ele>828.4</ele>
        <time>2019-10-27T10:44:51Z</time>
      </trkpt>
      <trkpt lat="43.98089" lon="5.41255">
        <ele>829.5</ele>
        <time>2019-10-27T10:44:54Z</time>
      </trkpt>
      <trkpt lat="43.98092" lon="5.41257">
        <ele>830.3</ele>
        <time>2019-10-27T10:44:57Z</time>
      </trkpt>
      <trkpt lat="43.98095" lon="5.41257">
        <ele>831.1</ele>
        <time>2019-10-27T10:44:59Z</time>
      </trkpt>
      <trkpt lat="43.98098" lon="5.41256">
        <ele>832</ele>
        <time>2019-10-27T10:45:01Z</time>
      </trkpt>
      <trkpt lat="43.98102" lon="5.41256">
        <ele>833</ele>
        <time>2019-10-27T10:45:04Z</time>
      </trkpt>
      <trkpt lat="43.98105" lon="5.41257">
        <ele>834.1</ele>
        <time>2019-10-27T10:45:07Z</time>
      </trkpt>
      <trkpt lat="43.98109" lon="5.41258">
        <ele>835.3</ele>
        <time>2019-10-27T10:45:10Z</time>
      </trkpt>
      <trkpt lat="43.98113" lon="5.41258">
        <ele>836.5</ele>
        <time>2019-10-27T10:45:13Z</time>
      </trkpt>
      <trkpt lat="43.98117" lon="5.41258">
        <ele>837.6</ele>
        <time>2019-10-27T10:45:16Z</time>
      </trkpt>
      <trkpt lat="43.9812" lon="5.41259">
        <ele>838.6</ele>
        <time>2019-10-27T10:45:19Z</time>
      </trkpt>
      <trkpt lat="43.98124" lon="5.41259">
        <ele>839.7</ele>
        <time>2019-10-27T10:45:22Z</time>
      </trkpt>
      <trkpt lat="43.98127" lon="5.4126">
        <ele>840.4</ele>
        <time>2019-10-27T10:45:24Z</time>
      </trkpt>
      <trkpt lat="43.9813" lon="5.41261">
        <ele>841.2</ele>
        <time>2019-10-27T10:45:26Z</time>
      </trkpt>
      <trkpt lat="43.98133" lon="5.41261">
        <ele>842</ele>
        <time>2019-10-27T10:45:28Z</time>
      </trkpt>
      <trkpt lat="43.98137" lon="5.4126">
        <ele>842.7</ele>
        <time>2019-10-27T10:45:30Z</time>
      </trkpt>
      <trkpt lat="43.98139" lon="5.41261">
        <ele>843.4</ele>
        <time>2019-10-27T10:45:32Z</time>
      </trkpt>
      <trkpt lat="43.98142" lon="5.41261">
        <ele>844.1</ele>
        <time>2019-10-27T10:45:34Z</time>
      </trkpt>
      <trkpt lat="43.98145" lon="5.41263">
        <ele>844.8</ele>
        <time>2019-10-27T10:45:36Z</time>
      </trkpt>
      <trkpt lat="43.98148" lon="5.41265">
        <ele>845.5</ele>
        <time>2019-10-27T10:45:38Z</time>
      </trkpt>
      <trkpt lat="43.98151" lon="5.41266">
        <ele>846.1</ele>
        <time>2019-10-27T10:45:40Z</time>
      </trkpt>
      <trkpt lat="43.98154" lon="5.41269">
        <ele>846.9</ele>
        <time>2019-10-27T10:45:42Z</time>
      </trkpt>
      <trkpt lat="43.98158" lon="5.41272">
        <ele>847.8</ele>
        <time>2019-10-27T10:45:44Z</time>
      </trkpt>
      <trkpt lat="43.98161" lon="5.41274">
        <ele>848.4</ele>
        <time>2019-10-27T10:45:46Z</time>
      </trkpt>
      <trkpt lat="43.98164" lon="5.41276">
        <ele>849.1</ele>
        <time>2019-10-27T10:45:48Z</time>
      </trkpt>
      <trkpt lat="43.98167" lon="5.41279">
        <ele>849.7</ele>
        <time>2019-10-27T10:45:50Z</time>
      </trkpt>
      <trkpt lat="43.9817" lon="5.41281">
        <ele>850.3</ele>
        <time>2019-10-27T10:45:52Z</time>
      </trkpt>
      <trkpt lat="43.98173" lon="5.41283">
        <ele>850.8</ele>
        <time>2019-10-27T10:45:54Z</time>
      </trkpt>
      <trkpt lat="43.98176" lon="5.41285">
        <ele>851.2</ele>
        <time>2019-10-27T10:45:56Z</time>
      </trkpt>
      <trkpt lat="43.98178" lon="5.41287">
        <ele>851.7</ele>
        <time>2019-10-27T10:45:58Z</time>
      </trkpt>
      <trkpt lat="43.98181" lon="5.41289">
        <ele>852.1</ele>
        <time>2019-10-27T10:46:00Z</time>
      </trkpt>
      <trkpt lat="43.98184" lon="5.41292">
        <ele>852.7</ele>
        <time>2019-10-27T10:46:02Z</time>
      </trkpt>
      <trkpt lat="43.98187" lon="5.41293">
        <ele>853.1</ele>
        <time>2019-10-27T10:46:04Z</time>
      </trkpt>
      <trkpt lat="43.98189" lon="5.41295">
        <ele>853.5</ele>
        <time>2019-10-27T10:46:06Z</time>
      </trkpt>
      <trkpt lat="43.98192" lon="5.41296">
        <ele>853.9</ele>
        <time>2019-10-27T10:46:08Z</time>
      </trkpt>
      <trkpt lat="43.98195" lon="5.41299">
        <ele>854.3</ele>
        <time>2019-10-27T10:46:10Z</time>
      </trkpt>
      <trkpt lat="43.98199" lon="5.41301">
        <ele>854.8</ele>
        <time>2019-10-27T10:46:12Z</time>
      </trkpt>
      <trkpt lat="43.98203" lon="5.41303">
        <ele>855.1</ele>
        <time>2019-10-27T10:46:14Z</time>
      </trkpt>
      <trkpt lat="43.98206" lon="5.41306">
        <ele>855.4</ele>
        <time>2019-10-27T10:46:16Z</time>
      </trkpt>
      <trkpt lat="43.98208" lon="5.41308">
        <ele>855.6</ele>
        <time>2019-10-27T10:46:18Z</time>
      </trkpt>
      <trkpt lat="43.98211" lon="5.4131">
        <ele>855.8</ele>
        <time>2019-10-27T10:46:20Z</time>
      </trkpt>
      <trkpt lat="43.98214" lon="5.41312">
        <ele>856</ele>
        <time>2019-10-27T10:46:23Z</time>
      </trkpt>
      <trkpt lat="43.98218" lon="5.41314">
        <ele>856.1</ele>
        <time>2019-10-27T10:46:25Z</time>
      </trkpt>
      <trkpt lat="43.98221" lon="5.41316">
        <ele>856.1</ele>
        <time>2019-10-27T10:46:27Z</time>
      </trkpt>
      <trkpt lat="43.98224" lon="5.41317">
        <ele>856</ele>
        <time>2019-10-27T10:46:29Z</time>
      </trkpt>
      <trkpt lat="43.98228" lon="5.41319">
        <ele>855.8</ele>
        <time>2019-10-27T10:46:31Z</time>
      </trkpt>
      <trkpt lat="43.98231" lon="5.4132">
        <ele>855.7</ele>
        <time>2019-10-27T10:46:33Z</time>
      </trkpt>
      <trkpt lat="43.98234" lon="5.41321">
        <ele>855.4</ele>
        <time>2019-10-27T10:46:35Z</time>
      </trkpt>
      <trkpt lat="43.98237" lon="5.41322">
        <ele>855.2</ele>
        <time>2019-10-27T10:46:37Z</time>
      </trkpt>
      <trkpt lat="43.9824" lon="5.41324">
        <ele>854.9</ele>
        <time>2019-10-27T10:46:40Z</time>
      </trkpt>
      <trkpt lat="43.98243" lon="5.41325">
        <ele>854.6</ele>
        <time>2019-10-27T10:46:42Z</time>
      </trkpt>
      <trkpt lat="43.98246" lon="5.41326">
        <ele>854.2</ele>
        <time>2019-10-27T10:46:45Z</time>
      </trkpt>
      <trkpt lat="43.98249" lon="5.41328">
        <ele>853.8</ele>
        <time>2019-10-27T10:46:48Z</time>
      </trkpt>
      <trkpt lat="43.98253" lon="5.4133">
        <ele>853.2</ele>
        <time>2019-10-27T10:46:51Z</time>
      </trkpt>
      <trkpt lat="43.98256" lon="5.41331">
        <ele>852.8</ele>
        <time>2019-10-27T10:46:53Z</time>
      </trkpt>
      <trkpt lat="43.98259" lon="5.41333">
        <ele>852.4</ele>
        <time>2019-10-27T10:46:56Z</time>
      </trkpt>
      <trkpt lat="43.98262" lon="5.41335">
        <ele>852</ele>
        <time>2019-10-27T10:46:58Z</time>
      </trkpt>
      <trkpt lat="43.98264" lon="5.41337">
        <ele>851.6</ele>
        <time>2019-10-27T10:47:00Z</time>
      </trkpt>
      <trkpt lat="43.98267" lon="5.41338">
        <ele>851.1</ele>
        <time>2019-10-27T10:47:02Z</time>
      </trkpt>
      <trkpt lat="43.98271" lon="5.41339">
        <ele>850.5</ele>
        <time>2019-10-27T10:47:04Z</time>
      </trkpt>
      <trkpt lat="43.98274" lon="5.41342">
        <ele>849.9</ele>
        <time>2019-10-27T10:47:07Z</time>
      </trkpt>
      <trkpt lat="43.98277" lon="5.41342">
        <ele>849.4</ele>
        <time>2019-10-27T10:47:09Z</time>
      </trkpt>
      <trkpt lat="43.98281" lon="5.41344">
        <ele>848.8</ele>
        <time>2019-10-27T10:47:12Z</time>
      </trkpt>
      <trkpt lat="43.98283" lon="5.41344">
        <ele>848.4</ele>
        <time>2019-10-27T10:47:14Z</time>
      </trkpt>
      <trkpt lat="43.98287" lon="5.41346">
        <ele>847.8</ele>
        <time>2019-10-27T10:47:17Z</time>
      </trkpt>
      <trkpt lat="43.9829" lon="5.41346">
        <ele>847.3</ele>
        <time>2019-10-27T10:47:19Z</time>
      </trkpt>
      <trkpt lat="43.98293" lon="5.41347">
        <ele>846.9</ele>
        <time>2019-10-27T10:47:21Z</time>
      </trkpt>
      <trkpt lat="43.98297" lon="5.41347">
        <ele>846.4</ele>
        <time>2019-10-27T10:47:23Z</time>
      </trkpt>
      <trkpt lat="43.98299" lon="5.41347">
        <ele>846.1</ele>
        <time>2019-10-27T10:47:25Z</time>
      </trkpt>
      <trkpt lat="43.98303" lon="5.41348">
        <ele>845.6</ele>
        <time>2019-10-27T10:47:28Z</time>
      </trkpt>
      <trkpt lat="43.98307" lon="5.41347">
        <ele>845.2</ele>
        <time>2019-10-27T10:47:31Z</time>
      </trkpt>
      <trkpt lat="43.9831" lon="5.41346">
        <ele>844.9</ele>
        <time>2019-10-27T10:47:32Z</time>
      </trkpt>
      <trkpt lat="43.98314" lon="5.41345">
        <ele>844.6</ele>
        <time>2019-10-27T10:47:34Z</time>
      </trkpt>
      <trkpt lat="43.98317" lon="5.41344">
        <ele>844.4</ele>
        <time>2019-10-27T10:47:36Z</time>
      </trkpt>
      <trkpt lat="43.9832" lon="5.41342">
        <ele>844.1</ele>
        <time>2019-10-27T10:47:38Z</time>
      </trkpt>
      <trkpt lat="43.98323" lon="5.41341">
        <ele>843.9</ele>
        <time>2019-10-27T10:47:41Z</time>
      </trkpt>
      <trkpt lat="43.98326" lon="5.41338">
        <ele>843.7</ele>
        <time>2019-10-27T10:47:44Z</time>
      </trkpt>
      <trkpt lat="43.98329" lon="5.41336">
        <ele>843.6</ele>
        <time>2019-10-27T10:47:46Z</time>
      </trkpt>
      <trkpt lat="43.98334" lon="5.41335">
        <ele>843.4</ele>
        <time>2019-10-27T10:47:49Z</time>
      </trkpt>
      <trkpt lat="43.98337" lon="5.41333">
        <ele>843.3</ele>
        <time>2019-10-27T10:47:51Z</time>
      </trkpt>
      <trkpt lat="43.9834" lon="5.41332">
        <ele>843.3</ele>
        <time>2019-10-27T10:47:53Z</time>
      </trkpt>
      <trkpt lat="43.98344" lon="5.41331">
        <ele>843.3</ele>
        <time>2019-10-27T10:47:55Z</time>
      </trkpt>
      <trkpt lat="43.98348" lon="5.4133">
        <ele>843.3</ele>
        <time>2019-10-27T10:47:58Z</time>
      </trkpt>
      <trkpt lat="43.9835" lon="5.41329">
        <ele>843.4</ele>
        <time>2019-10-27T10:48:00Z</time>
      </trkpt>
      <trkpt lat="43.98353" lon="5.41328">
        <ele>843.5</ele>
        <time>2019-10-27T10:48:02Z</time>
      </trkpt>
      <trkpt lat="43.98356" lon="5.41327">
        <ele>843.6</ele>
        <time>2019-10-27T10:48:04Z</time>
      </trkpt>
      <trkpt lat="43.98359" lon="5.41327">
        <ele>843.8</ele>
        <time>2019-10-27T10:48:06Z</time>
      </trkpt>
      <trkpt lat="43.98362" lon="5.41327">
        <ele>844</ele>
        <time>2019-10-27T10:48:08Z</time>
      </trkpt>
      <trkpt lat="43.98365" lon="5.41327">
        <ele>844.2</ele>
        <time>2019-10-27T10:48:10Z</time>
      </trkpt>
      <trkpt lat="43.98368" lon="5.41327">
        <ele>844.5</ele>
        <time>2019-10-27T10:48:12Z</time>
      </trkpt>
      <trkpt lat="43.98371" lon="5.41327">
        <ele>844.8</ele>
        <time>2019-10-27T10:48:14Z</time>
      </trkpt>
      <trkpt lat="43.98373" lon="5.41326">
        <ele>845.1</ele>
        <time>2019-10-27T10:48:16Z</time>
      </trkpt>
      <trkpt lat="43.98377" lon="5.41327">
        <ele>845.6</ele>
        <time>2019-10-27T10:48:19Z</time>
      </trkpt>
      <trkpt lat="43.9838" lon="5.41327">
        <ele>846</ele>
        <time>2019-10-27T10:48:21Z</time>
      </trkpt>
      <trkpt lat="43.98383" lon="5.41327">
        <ele>846.4</ele>
        <time>2019-10-27T10:48:23Z</time>
      </trkpt>
      <trkpt lat="43.98386" lon="5.41327">
        <ele>846.7</ele>
        <time>2019-10-27T10:48:25Z</time>
      </trkpt>
      <trkpt lat="43.98389" lon="5.41327">
        <ele>847.1</ele>
        <time>2019-10-27T10:48:27Z</time>
      </trkpt>
      <trkpt lat="43.98392" lon="5.41327">
        <ele>847.5</ele>
        <time>2019-10-27T10:48:29Z</time>
      </trkpt>
      <trkpt lat="43.98395" lon="5.41326">
        <ele>847.9</ele>
        <time>2019-10-27T10:48:31Z</time>
      </trkpt>
      <trkpt lat="43.98398" lon="5.41325">
        <ele>848.3</ele>
        <time>2019-10-27T10:48:33Z</time>
      </trkpt>
      <trkpt lat="43.98401" lon="5.41324">
        <ele>848.8</ele>
        <time>2019-10-27T10:48:35Z</time>
      </trkpt>
      <trkpt lat="43.98404" lon="5.41323">
        <ele>849.3</ele>
        <time>2019-10-27T10:48:37Z</time>
      </trkpt>
      <trkpt lat="43.98407" lon="5.41323">
        <ele>849.8</ele>
        <time>2019-10-27T10:48:39Z</time>
      </trkpt>
      <trkpt lat="43.9841" lon="5.41322">
        <ele>850.3</ele>
        <time>2019-10-27T10:48:41Z</time>
      </trkpt>
      <trkpt lat="43.98413" lon="5.41321">
        <ele>850.8</ele>
        <time>2019-10-27T10:48:43Z</time>
      </trkpt>
      <trkpt lat="43.98416" lon="5.41322">
        <ele>851.3</ele>
        <time>2019-10-27T10:48:45Z</time>
      </trkpt>
      <trkpt lat="43.98419" lon="5.41322">
        <ele>851.9</ele>
        <time>2019-10-27T10:48:47Z</time>
      </trkpt>
      <trkpt lat="43.98423" lon="5.41322">
        <ele>852.6</ele>
        <time>2019-10-27T10:48:50Z</time>
      </trkpt>
      <trkpt lat="43.98426" lon="5.41321">
        <ele>853.2</ele>
        <time>2019-10-27T10:48:52Z</time>
      </trkpt>
      <trkpt lat="43.98429" lon="5.41322">
        <ele>853.9</ele>
        <time>2019-10-27T10:48:54Z</time>
      </trkpt>
      <trkpt lat="43.98432" lon="5.41323">
        <ele>854.6</ele>
        <time>2019-10-27T10:48:56Z</time>
      </trkpt>
      <trkpt lat="43.98435" lon="5.41324">
        <ele>855.2</ele>
        <time>2019-10-27T10:48:59Z</time>
      </trkpt>
      <trkpt lat="43.98439" lon="5.41324">
        <ele>855.9</ele>
        <time>2019-10-27T10:49:02Z</time>
      </trkpt>
      <trkpt lat="43.98442" lon="5.41325">
        <ele>856.6</ele>
        <time>2019-10-27T10:49:04Z</time>
      </trkpt>
      <trkpt lat="43.98445" lon="5.41326">
        <ele>857.4</ele>
        <time>2019-10-27T10:49:06Z</time>
      </trkpt>
      <trkpt lat="43.98449" lon="5.41326">
        <ele>858.3</ele>
        <time>2019-10-27T10:49:08Z</time>
      </trkpt>
      <trkpt lat="43.98452" lon="5.41327">
        <ele>859.1</ele>
        <time>2019-10-27T10:49:10Z</time>
      </trkpt>
      <trkpt lat="43.98456" lon="5.41327">
        <ele>860</ele>
        <time>2019-10-27T10:49:12Z</time>
      </trkpt>
      <trkpt lat="43.98459" lon="5.41327">
        <ele>860.8</ele>
        <time>2019-10-27T10:49:14Z</time>
      </trkpt>
      <trkpt lat="43.98462" lon="5.41327">
        <ele>861.6</ele>
        <time>2019-10-27T10:49:16Z</time>
      </trkpt>
      <trkpt lat="43.98465" lon="5.41327">
        <ele>862.4</ele>
        <time>2019-10-27T10:49:18Z</time>
      </trkpt>
      <trkpt lat="43.98468" lon="5.41327">
        <ele>863.2</ele>
        <time>2019-10-27T10:49:20Z</time>
      </trkpt>
      <trkpt lat="43.98471" lon="5.41327">
        <ele>864</ele>
        <time>2019-10-27T10:49:22Z</time>
      </trkpt>
      <trkpt lat="43.98474" lon="5.41327">
        <ele>865</ele>
        <time>2019-10-27T10:49:24Z</time>
      </trkpt>
      <trkpt lat="43.98477" lon="5.41327">
        <ele>865.8</ele>
        <time>2019-10-27T10:49:26Z</time>
      </trkpt>
      <trkpt lat="43.9848" lon="5.41327">
        <ele>866.6</ele>
        <time>2019-10-27T10:49:28Z</time>
      </trkpt>
      <trkpt lat="43.98483" lon="5.41326">
        <ele>867.1</ele>
        <time>2019-10-27T10:49:30Z</time>
      </trkpt>
      <trkpt lat="43.98486" lon="5.41325">
        <ele>867.5</ele>
        <time>2019-10-27T10:49:32Z</time>
      </trkpt>
      <trkpt lat="43.98489" lon="5.41324">
        <ele>868</ele>
        <time>2019-10-27T10:49:34Z</time>
      </trkpt>
      <trkpt lat="43.98493" lon="5.41323">
        <ele>868.5</ele>
        <time>2019-10-27T10:49:37Z</time>
      </trkpt>
      <trkpt lat="43.98496" lon="5.41322">
        <ele>869</ele>
        <time>2019-10-27T10:49:39Z</time>
      </trkpt>
      <trkpt lat="43.98499" lon="5.41321">
        <ele>869.3</ele>
        <time>2019-10-27T10:49:41Z</time>
      </trkpt>
      <trkpt lat="43.98502" lon="5.41319">
        <ele>869.9</ele>
        <time>2019-10-27T10:49:43Z</time>
      </trkpt>
      <trkpt lat="43.98505" lon="5.41317">
        <ele>870.5</ele>
        <time>2019-10-27T10:49:45Z</time>
      </trkpt>
      <trkpt lat="43.98508" lon="5.41314">
        <ele>871.2</ele>
        <time>2019-10-27T10:49:47Z</time>
      </trkpt>
      <trkpt lat="43.98511" lon="5.41312">
        <ele>871.8</ele>
        <time>2019-10-27T10:49:49Z</time>
      </trkpt>
      <trkpt lat="43.98514" lon="5.4131">
        <ele>872.3</ele>
        <time>2019-10-27T10:49:51Z</time>
      </trkpt>
      <trkpt lat="43.98518" lon="5.41309">
        <ele>872.7</ele>
        <time>2019-10-27T10:49:53Z</time>
      </trkpt>
      <trkpt lat="43.98521" lon="5.41308">
        <ele>873.2</ele>
        <time>2019-10-27T10:49:55Z</time>
      </trkpt>
      <trkpt lat="43.98524" lon="5.41307">
        <ele>873.6</ele>
        <time>2019-10-27T10:49:57Z</time>
      </trkpt>
      <trkpt lat="43.98527" lon="5.41307">
        <ele>873.9</ele>
        <time>2019-10-27T10:49:59Z</time>
      </trkpt>
      <trkpt lat="43.98531" lon="5.41306">
        <ele>874.3</ele>
        <time>2019-10-27T10:50:01Z</time>
      </trkpt>
      <trkpt lat="43.98534" lon="5.41306">
        <ele>874.6</ele>
        <time>2019-10-27T10:50:03Z</time>
      </trkpt>
      <trkpt lat="43.98538" lon="5.41306">
        <ele>875</ele>
        <time>2019-10-27T10:50:05Z</time>
      </trkpt>
      <trkpt lat="43.98542" lon="5.41306">
        <ele>875.3</ele>
        <time>2019-10-27T10:50:07Z</time>
      </trkpt>
      <trkpt lat="43.98545" lon="5.41307">
        <ele>875.5</ele>
        <time>2019-10-27T10:50:09Z</time>
      </trkpt>
      <trkpt lat="43.98549" lon="5.41307">
        <ele>875.8</ele>
        <time>2019-10-27T10:50:11Z</time>
      </trkpt>
      <trkpt lat="43.98553" lon="5.41308">
        <ele>876.1</ele>
        <time>2019-10-27T10:50:13Z</time>
      </trkpt>
      <trkpt lat="43.98556" lon="5.41308">
        <ele>876.3</ele>
        <time>2019-10-27T10:50:15Z</time>
      </trkpt>
      <trkpt lat="43.9856" lon="5.41309">
        <ele>876.6</ele>
        <time>2019-10-27T10:50:17Z</time>
      </trkpt>
      <trkpt lat="43.98563" lon="5.4131">
        <ele>876.9</ele>
        <time>2019-10-27T10:50:19Z</time>
      </trkpt>
      <trkpt lat="43.98566" lon="5.4131">
        <ele>877.1</ele>
        <time>2019-10-27T10:50:21Z</time>
      </trkpt>
      <trkpt lat="43.98569" lon="5.41311">
        <ele>877.4</ele>
        <time>2019-10-27T10:50:23Z</time>
      </trkpt>
      <trkpt lat="43.98572" lon="5.41312">
        <ele>877.7</ele>
        <time>2019-10-27T10:50:25Z</time>
      </trkpt>
      <trkpt lat="43.98575" lon="5.41312">
        <ele>877.9</ele>
        <time>2019-10-27T10:50:27Z</time>
      </trkpt>
      <trkpt lat="43.98578" lon="5.41312">
        <ele>878.2</ele>
        <time>2019-10-27T10:50:29Z</time>
      </trkpt>
      <trkpt lat="43.98581" lon="5.41312">
        <ele>878.5</ele>
        <time>2019-10-27T10:50:31Z</time>
      </trkpt>
      <trkpt lat="43.98584" lon="5.41313">
        <ele>878.9</ele>
        <time>2019-10-27T10:50:33Z</time>
      </trkpt>
      <trkpt lat="43.98587" lon="5.41313">
        <ele>879.2</ele>
        <time>2019-10-27T10:50:35Z</time>
      </trkpt>
      <trkpt lat="43.9859" lon="5.41314">
        <ele>879.5</ele>
        <time>2019-10-27T10:50:37Z</time>
      </trkpt>
      <trkpt lat="43.98593" lon="5.41315">
        <ele>879.9</ele>
        <time>2019-10-27T10:50:39Z</time>
      </trkpt>
      <trkpt lat="43.98597" lon="5.41316">
        <ele>880.3</ele>
        <time>2019-10-27T10:50:41Z</time>
      </trkpt>
      <trkpt lat="43.986" lon="5.41317">
        <ele>880.6</ele>
        <time>2019-10-27T10:50:43Z</time>
      </trkpt>
      <trkpt lat="43.98604" lon="5.41318">
        <ele>881</ele>
        <time>2019-10-27T10:50:45Z</time>
      </trkpt>
      <trkpt lat="43.98608" lon="5.41318">
        <ele>881.3</ele>
        <time>2019-10-27T10:50:47Z</time>
      </trkpt>
      <trkpt lat="43.98611" lon="5.41319">
        <ele>881.7</ele>
        <time>2019-10-27T10:50:49Z</time>
      </trkpt>
      <trkpt lat="43.98614" lon="5.41321">
        <ele>882</ele>
        <time>2019-10-27T10:50:51Z</time>
      </trkpt>
      <trkpt lat="43.98618" lon="5.41322">
        <ele>882.4</ele>
        <time>2019-10-27T10:50:53Z</time>
      </trkpt>
      <trkpt lat="43.9862" lon="5.41326">
        <ele>882.8</ele>
        <time>2019-10-27T10:50:54Z</time>
      </trkpt>
      <trkpt lat="43.98622" lon="5.41329">
        <ele>883.2</ele>
        <time>2019-10-27T10:50:55Z</time>
      </trkpt>
      <trkpt lat="43.98626" lon="5.41333">
        <ele>883.7</ele>
        <time>2019-10-27T10:50:57Z</time>
      </trkpt>
      <trkpt lat="43.98629" lon="5.41334">
        <ele>884.2</ele>
        <time>2019-10-27T10:51:00Z</time>
      </trkpt>
      <trkpt lat="43.98632" lon="5.41334">
        <ele>884.5</ele>
        <time>2019-10-27T10:51:02Z</time>
      </trkpt>
      <trkpt lat="43.98636" lon="5.41335">
        <ele>884.9</ele>
        <time>2019-10-27T10:51:04Z</time>
      </trkpt>
      <trkpt lat="43.98639" lon="5.41335">
        <ele>885.4</ele>
        <time>2019-10-27T10:51:06Z</time>
      </trkpt>
      <trkpt lat="43.98643" lon="5.41337">
        <ele>886</ele>
        <time>2019-10-27T10:51:08Z</time>
      </trkpt>
      <trkpt lat="43.98647" lon="5.41337">
        <ele>886.5</ele>
        <time>2019-10-27T10:51:10Z</time>
      </trkpt>
      <trkpt lat="43.9865" lon="5.41338">
        <ele>887</ele>
        <time>2019-10-27T10:51:12Z</time>
      </trkpt>
      <trkpt lat="43.98653" lon="5.41339">
        <ele>887.5</ele>
        <time>2019-10-27T10:51:14Z</time>
      </trkpt>
      <trkpt lat="43.98657" lon="5.41339">
        <ele>888</ele>
        <time>2019-10-27T10:51:16Z</time>
      </trkpt>
      <trkpt lat="43.9866" lon="5.41341">
        <ele>888.5</ele>
        <time>2019-10-27T10:51:18Z</time>
      </trkpt>
      <trkpt lat="43.98664" lon="5.41342">
        <ele>889</ele>
        <time>2019-10-27T10:51:20Z</time>
      </trkpt>
      <trkpt lat="43.98667" lon="5.41344">
        <ele>889.5</ele>
        <time>2019-10-27T10:51:22Z</time>
      </trkpt>
      <trkpt lat="43.98671" lon="5.41345">
        <ele>890</ele>
        <time>2019-10-27T10:51:24Z</time>
      </trkpt>
      <trkpt lat="43.98675" lon="5.41346">
        <ele>890.5</ele>
        <time>2019-10-27T10:51:26Z</time>
      </trkpt>
      <trkpt lat="43.98678" lon="5.41347">
        <ele>891</ele>
        <time>2019-10-27T10:51:28Z</time>
      </trkpt>
      <trkpt lat="43.98681" lon="5.41347">
        <ele>891.5</ele>
        <time>2019-10-27T10:51:30Z</time>
      </trkpt>
      <trkpt lat="43.98685" lon="5.41347">
        <ele>892.1</ele>
        <time>2019-10-27T10:51:32Z</time>
      </trkpt>
      <trkpt lat="43.98688" lon="5.41346">
        <ele>892.6</ele>
        <time>2019-10-27T10:51:34Z</time>
      </trkpt>
      <trkpt lat="43.98691" lon="5.41345">
        <ele>893</ele>
        <time>2019-10-27T10:51:36Z</time>
      </trkpt>
      <trkpt lat="43.98694" lon="5.41344">
        <ele>893.5</ele>
        <time>2019-10-27T10:51:38Z</time>
      </trkpt>
      <trkpt lat="43.98697" lon="5.41342">
        <ele>894</ele>
        <time>2019-10-27T10:51:40Z</time>
      </trkpt>
      <trkpt lat="43.98701" lon="5.41341">
        <ele>894.6</ele>
        <time>2019-10-27T10:51:42Z</time>
      </trkpt>
      <trkpt lat="43.98704" lon="5.41341">
        <ele>895.1</ele>
        <time>2019-10-27T10:51:44Z</time>
      </trkpt>
      <trkpt lat="43.98707" lon="5.4134">
        <ele>895.6</ele>
        <time>2019-10-27T10:51:46Z</time>
      </trkpt>
      <trkpt lat="43.9871" lon="5.4134">
        <ele>896.2</ele>
        <time>2019-10-27T10:51:48Z</time>
      </trkpt>
      <trkpt lat="43.98713" lon="5.41339">
        <ele>896.7</ele>
        <time>2019-10-27T10:51:50Z</time>
      </trkpt>
      <trkpt lat="43.98716" lon="5.41339">
        <ele>897.2</ele>
        <time>2019-10-27T10:51:52Z</time>
      </trkpt>
      <trkpt lat="43.98719" lon="5.41339">
        <ele>897.8</ele>
        <time>2019-10-27T10:51:54Z</time>
      </trkpt>
      <trkpt lat="43.98722" lon="5.4134">
        <ele>898.3</ele>
        <time>2019-10-27T10:51:56Z</time>
      </trkpt>
      <trkpt lat="43.98725" lon="5.4134">
        <ele>898.8</ele>
        <time>2019-10-27T10:51:58Z</time>
      </trkpt>
      <trkpt lat="43.98727" lon="5.41338">
        <ele>899.4</ele>
        <time>2019-10-27T10:52:09Z</time>
      </trkpt>
      <trkpt lat="43.98734" lon="5.41338">
        <ele>900.6</ele>
        <time>2019-10-27T10:54:14Z</time>
      </trkpt>
      <trkpt lat="43.98738" lon="5.41341">
        <ele>901.3</ele>
        <time>2019-10-27T10:54:16Z</time>
      </trkpt>
      <trkpt lat="43.98742" lon="5.41342">
        <ele>902</ele>
        <time>2019-10-27T10:54:18Z</time>
      </trkpt>
      <trkpt lat="43.98746" lon="5.41344">
        <ele>902.7</ele>
        <time>2019-10-27T10:54:20Z</time>
      </trkpt>
      <trkpt lat="43.9875" lon="5.41344">
        <ele>903.3</ele>
        <time>2019-10-27T10:54:22Z</time>
      </trkpt>
      <trkpt lat="43.98753" lon="5.41345">
        <ele>903.9</ele>
        <time>2019-10-27T10:54:24Z</time>
      </trkpt>
      <trkpt lat="43.98756" lon="5.41346">
        <ele>904.4</ele>
        <time>2019-10-27T10:54:26Z</time>
      </trkpt>
      <trkpt lat="43.98759" lon="5.41347">
        <ele>904.9</ele>
        <time>2019-10-27T10:54:28Z</time>
      </trkpt>
      <trkpt lat="43.98763" lon="5.41348">
        <ele>905.5</ele>
        <time>2019-10-27T10:54:30Z</time>
      </trkpt>
      <trkpt lat="43.98766" lon="5.4135">
        <ele>906.1</ele>
        <time>2019-10-27T10:54:32Z</time>
      </trkpt>
      <trkpt lat="43.98769" lon="5.41351">
        <ele>906.6</ele>
        <time>2019-10-27T10:54:34Z</time>
      </trkpt>
      <trkpt lat="43.98772" lon="5.41353">
        <ele>907</ele>
        <time>2019-10-27T10:54:36Z</time>
      </trkpt>
      <trkpt lat="43.98773" lon="5.41358">
        <ele>907.7</ele>
        <time>2019-10-27T10:54:54Z</time>
      </trkpt>
      <trkpt lat="43.98775" lon="5.41364">
        <ele>908.4</ele>
        <time>2019-10-27T10:57:56Z</time>
      </trkpt>
      <trkpt lat="43.98777" lon="5.41365">
        <ele>908.9</ele>
        <time>2019-10-27T10:57:59Z</time>
      </trkpt>
      <trkpt lat="43.98781" lon="5.41366">
        <ele>909.5</ele>
        <time>2019-10-27T10:58:01Z</time>
      </trkpt>
      <trkpt lat="43.98786" lon="5.41368">
        <ele>910.2</ele>
        <time>2019-10-27T10:58:03Z</time>
      </trkpt>
      <trkpt lat="43.98791" lon="5.4137">
        <ele>910.9</ele>
        <time>2019-10-27T10:58:05Z</time>
      </trkpt>
      <trkpt lat="43.98795" lon="5.41372">
        <ele>911.5</ele>
        <time>2019-10-27T10:58:07Z</time>
      </trkpt>
      <trkpt lat="43.98799" lon="5.41373">
        <ele>912.1</ele>
        <time>2019-10-27T10:58:09Z</time>
      </trkpt>
      <trkpt lat="43.98802" lon="5.41374">
        <ele>912.6</ele>
        <time>2019-10-27T10:58:11Z</time>
      </trkpt>
      <trkpt lat="43.98806" lon="5.41376">
        <ele>913.2</ele>
        <time>2019-10-27T10:58:13Z</time>
      </trkpt>
      <trkpt lat="43.9881" lon="5.41375">
        <ele>913.6</ele>
        <time>2019-10-27T10:58:15Z</time>
      </trkpt>
      <trkpt lat="43.98813" lon="5.41375">
        <ele>914.1</ele>
        <time>2019-10-27T10:58:17Z</time>
      </trkpt>
      <trkpt lat="43.98817" lon="5.41374">
        <ele>914.5</ele>
        <time>2019-10-27T10:58:19Z</time>
      </trkpt>
      <trkpt lat="43.9882" lon="5.41374">
        <ele>914.9</ele>
        <time>2019-10-27T10:58:21Z</time>
      </trkpt>
      <trkpt lat="43.98823" lon="5.41376">
        <ele>915.3</ele>
        <time>2019-10-27T10:58:23Z</time>
      </trkpt>
      <trkpt lat="43.98825" lon="5.41379">
        <ele>915.6</ele>
        <time>2019-10-27T10:58:25Z</time>
      </trkpt>
      <trkpt lat="43.98829" lon="5.4138">
        <ele>916</ele>
        <time>2019-10-27T10:58:29Z</time>
      </trkpt>
      <trkpt lat="43.9883" lon="5.41382">
        <ele>916.3</ele>
        <time>2019-10-27T10:58:38Z</time>
      </trkpt>
      <trkpt lat="43.98832" lon="5.41389">
        <ele>916.8</ele>
        <time>2019-10-27T10:59:27Z</time>
      </trkpt>
      <trkpt lat="43.9883" lon="5.41391">
        <ele>917.1</ele>
        <time>2019-10-27T10:59:29Z</time>
      </trkpt>
      <trkpt lat="43.98827" lon="5.41394">
        <ele>919.6</ele>
        <time>2019-10-27T10:59:31Z</time>
      </trkpt>
      <trkpt lat="43.98823" lon="5.41396">
        <ele>920</ele>
        <time>2019-10-27T10:59:33Z</time>
      </trkpt>
      <trkpt lat="43.98819" lon="5.41397">
        <ele>920.5</ele>
        <time>2019-10-27T10:59:35Z</time>
      </trkpt>
      <trkpt lat="43.98815" lon="5.41398">
        <ele>921.1</ele>
        <time>2019-10-27T10:59:39Z</time>
      </trkpt>
      <trkpt lat="43.98812" lon="5.41401">
        <ele>921.5</ele>
        <time>2019-10-27T10:59:41Z</time>
      </trkpt>
      <trkpt lat="43.98809" lon="5.41403">
        <ele>922</ele>
        <time>2019-10-27T10:59:46Z</time>
      </trkpt>
      <trkpt lat="43.98807" lon="5.41406">
        <ele>922.3</ele>
        <time>2019-10-27T10:59:49Z</time>
      </trkpt>
      <trkpt lat="43.98804" lon="5.41411">
        <ele>923</ele>
        <time>2019-10-27T10:59:53Z</time>
      </trkpt>
      <trkpt lat="43.98801" lon="5.41414">
        <ele>923.4</ele>
        <time>2019-10-27T10:59:55Z</time>
      </trkpt>
      <trkpt lat="43.98797" lon="5.41415">
        <ele>923.8</ele>
        <time>2019-10-27T10:59:58Z</time>
      </trkpt>
      <trkpt lat="43.98794" lon="5.41416">
        <ele>924.1</ele>
        <time>2019-10-27T11:00:02Z</time>
      </trkpt>
      <trkpt lat="43.98791" lon="5.41419">
        <ele>924.5</ele>
        <time>2019-10-27T11:00:05Z</time>
      </trkpt>
      <trkpt lat="43.98788" lon="5.4142">
        <ele>924.8</ele>
        <time>2019-10-27T11:00:07Z</time>
      </trkpt>
      <trkpt lat="43.98785" lon="5.41419">
        <ele>925.1</ele>
        <time>2019-10-27T11:00:08Z</time>
      </trkpt>
      <trkpt lat="43.98781" lon="5.41421">
        <ele>925.5</ele>
        <time>2019-10-27T11:00:10Z</time>
      </trkpt>
      <trkpt lat="43.98777" lon="5.41423">
        <ele>925.8</ele>
        <time>2019-10-27T11:00:13Z</time>
      </trkpt>
      <trkpt lat="43.98774" lon="5.41425">
        <ele>926.1</ele>
        <time>2019-10-27T11:00:16Z</time>
      </trkpt>
      <trkpt lat="43.98771" lon="5.41427">
        <ele>926.4</ele>
        <time>2019-10-27T11:00:18Z</time>
      </trkpt>
      <trkpt lat="43.98766" lon="5.41429">
        <ele>926.8</ele>
        <time>2019-10-27T11:00:20Z</time>
      </trkpt>
      <trkpt lat="43.98763" lon="5.41431">
        <ele>927.1</ele>
        <time>2019-10-27T11:00:21Z</time>
      </trkpt>
      <trkpt lat="43.98759" lon="5.41432">
        <ele>927.4</ele>
        <time>2019-10-27T11:00:22Z</time>
      </trkpt>
      <trkpt lat="43.98756" lon="5.41434">
        <ele>927.7</ele>
        <time>2019-10-27T11:00:23Z</time>
      </trkpt>
      <trkpt lat="43.98753" lon="5.41435">
        <ele>928</ele>
        <time>2019-10-27T11:00:25Z</time>
      </trkpt>
      <trkpt lat="43.9875" lon="5.41436">
        <ele>928.2</ele>
        <time>2019-10-27T11:00:27Z</time>
      </trkpt>
      <trkpt lat="43.98747" lon="5.41434">
        <ele>928.5</ele>
        <time>2019-10-27T11:00:30Z</time>
      </trkpt>
      <trkpt lat="43.98742" lon="5.41437">
        <ele>928.9</ele>
        <time>2019-10-27T11:00:34Z</time>
      </trkpt>
      <trkpt lat="43.98737" lon="5.41438">
        <ele>929.2</ele>
        <time>2019-10-27T11:00:35Z</time>
      </trkpt>
      <trkpt lat="43.98733" lon="5.41437">
        <ele>929.5</ele>
        <time>2019-10-27T11:00:36Z</time>
      </trkpt>
      <trkpt lat="43.98729" lon="5.41438">
        <ele>929.8</ele>
        <time>2019-10-27T11:00:38Z</time>
      </trkpt>
      <trkpt lat="43.98726" lon="5.41439">
        <ele>930</ele>
        <time>2019-10-27T11:00:40Z</time>
      </trkpt>
      <trkpt lat="43.98722" lon="5.4144">
        <ele>930.2</ele>
        <time>2019-10-27T11:00:43Z</time>
      </trkpt>
      <trkpt lat="43.98719" lon="5.41443">
        <ele>930.5</ele>
        <time>2019-10-27T11:00:45Z</time>
      </trkpt>
      <trkpt lat="43.98716" lon="5.41444">
        <ele>930.7</ele>
        <time>2019-10-27T11:00:48Z</time>
      </trkpt>
      <trkpt lat="43.98713" lon="5.41444">
        <ele>931</ele>
        <time>2019-10-27T11:00:51Z</time>
      </trkpt>
      <trkpt lat="43.9871" lon="5.41446">
        <ele>931.2</ele>
        <time>2019-10-27T11:00:55Z</time>
      </trkpt>
      <trkpt lat="43.98707" lon="5.41449">
        <ele>931.5</ele>
        <time>2019-10-27T11:00:59Z</time>
      </trkpt>
      <trkpt lat="43.98704" lon="5.41451">
        <ele>931.8</ele>
        <time>2019-10-27T11:01:01Z</time>
      </trkpt>
      <trkpt lat="43.98701" lon="5.41453">
        <ele>932.1</ele>
        <time>2019-10-27T11:01:03Z</time>
      </trkpt>
      <trkpt lat="43.98698" lon="5.41455">
        <ele>932.4</ele>
        <time>2019-10-27T11:01:05Z</time>
      </trkpt>
      <trkpt lat="43.98696" lon="5.41458">
        <ele>932.7</ele>
        <time>2019-10-27T11:01:07Z</time>
      </trkpt>
      <trkpt lat="43.98692" lon="5.41459">
        <ele>933</ele>
        <time>2019-10-27T11:01:09Z</time>
      </trkpt>
      <trkpt lat="43.98688" lon="5.4146">
        <ele>933.4</ele>
        <time>2019-10-27T11:01:12Z</time>
      </trkpt>
      <trkpt lat="43.98684" lon="5.41462">
        <ele>933.8</ele>
        <time>2019-10-27T11:01:14Z</time>
      </trkpt>
      <trkpt lat="43.9868" lon="5.41464">
        <ele>934.1</ele>
        <time>2019-10-27T11:01:16Z</time>
      </trkpt>
      <trkpt lat="43.98677" lon="5.41464">
        <ele>934.4</ele>
        <time>2019-10-27T11:01:18Z</time>
      </trkpt>
      <trkpt lat="43.98674" lon="5.41464">
        <ele>934.7</ele>
        <time>2019-10-27T11:01:21Z</time>
      </trkpt>
      <trkpt lat="43.98672" lon="5.41466">
        <ele>934.9</ele>
        <time>2019-10-27T11:01:24Z</time>
      </trkpt>
      <trkpt lat="43.98669" lon="5.41469">
        <ele>935.2</ele>
        <time>2019-10-27T11:01:27Z</time>
      </trkpt>
      <trkpt lat="43.98665" lon="5.41471">
        <ele>935.5</ele>
        <time>2019-10-27T11:01:30Z</time>
      </trkpt>
      <trkpt lat="43.98661" lon="5.41473">
        <ele>935.8</ele>
        <time>2019-10-27T11:01:31Z</time>
      </trkpt>
      <trkpt lat="43.98658" lon="5.41474">
        <ele>936</ele>
        <time>2019-10-27T11:01:32Z</time>
      </trkpt>
      <trkpt lat="43.98656" lon="5.41477">
        <ele>936.2</ele>
        <time>2019-10-27T11:01:36Z</time>
      </trkpt>
      <trkpt lat="43.98652" lon="5.41478">
        <ele>936.5</ele>
        <time>2019-10-27T11:01:39Z</time>
      </trkpt>
      <trkpt lat="43.98649" lon="5.4148">
        <ele>936.7</ele>
        <time>2019-10-27T11:01:41Z</time>
      </trkpt>
      <trkpt lat="43.98646" lon="5.41481">
        <ele>936.9</ele>
        <time>2019-10-27T11:01:43Z</time>
      </trkpt>
      <trkpt lat="43.98643" lon="5.41482">
        <ele>937.1</ele>
        <time>2019-10-27T11:01:45Z</time>
      </trkpt>
      <trkpt lat="43.9864" lon="5.41484">
        <ele>937.3</ele>
        <time>2019-10-27T11:01:47Z</time>
      </trkpt>
      <trkpt lat="43.98637" lon="5.41486">
        <ele>937.6</ele>
        <time>2019-10-27T11:01:49Z</time>
      </trkpt>
      <trkpt lat="43.98633" lon="5.41488">
        <ele>938</ele>
        <time>2019-10-27T11:01:52Z</time>
      </trkpt>
      <trkpt lat="43.9863" lon="5.41488">
        <ele>938.3</ele>
        <time>2019-10-27T11:01:55Z</time>
      </trkpt>
      <trkpt lat="43.98626" lon="5.41489">
        <ele>938.6</ele>
        <time>2019-10-27T11:01:58Z</time>
      </trkpt>
      <trkpt lat="43.98623" lon="5.41488">
        <ele>938.9</ele>
        <time>2019-10-27T11:02:02Z</time>
      </trkpt>
      <trkpt lat="43.9862" lon="5.4149">
        <ele>939.2</ele>
        <time>2019-10-27T11:02:04Z</time>
      </trkpt>
      <trkpt lat="43.98616" lon="5.41489">
        <ele>939.4</ele>
        <time>2019-10-27T11:02:05Z</time>
      </trkpt>
      <trkpt lat="43.98612" lon="5.41489">
        <ele>939.7</ele>
        <time>2019-10-27T11:02:06Z</time>
      </trkpt>
      <trkpt lat="43.98609" lon="5.4149">
        <ele>939.8</ele>
        <time>2019-10-27T11:02:08Z</time>
      </trkpt>
      <trkpt lat="43.98605" lon="5.4149">
        <ele>940</ele>
        <time>2019-10-27T11:02:10Z</time>
      </trkpt>
      <trkpt lat="43.98601" lon="5.4149">
        <ele>940.2</ele>
        <time>2019-10-27T11:02:13Z</time>
      </trkpt>
      <trkpt lat="43.98598" lon="5.4149">
        <ele>940.3</ele>
        <time>2019-10-27T11:02:16Z</time>
      </trkpt>
      <trkpt lat="43.98594" lon="5.41492">
        <ele>940.4</ele>
        <time>2019-10-27T11:02:20Z</time>
      </trkpt>
      <trkpt lat="43.9859" lon="5.41494">
        <ele>940.6</ele>
        <time>2019-10-27T11:02:22Z</time>
      </trkpt>
      <trkpt lat="43.98586" lon="5.41495">
        <ele>940.7</ele>
        <time>2019-10-27T11:02:24Z</time>
      </trkpt>
      <trkpt lat="43.98583" lon="5.41496">
        <ele>940.8</ele>
        <time>2019-10-27T11:02:26Z</time>
      </trkpt>
      <trkpt lat="43.98579" lon="5.41497">
        <ele>941</ele>
        <time>2019-10-27T11:02:29Z</time>
      </trkpt>
      <trkpt lat="43.98576" lon="5.41499">
        <ele>941.2</ele>
        <time>2019-10-27T11:02:31Z</time>
      </trkpt>
      <trkpt lat="43.98572" lon="5.415">
        <ele>941.5</ele>
        <time>2019-10-27T11:02:33Z</time>
      </trkpt>
      <trkpt lat="43.98569" lon="5.41501">
        <ele>941.7</ele>
        <time>2019-10-27T11:02:35Z</time>
      </trkpt>
      <trkpt lat="43.98566" lon="5.41503">
        <ele>941.9</ele>
        <time>2019-10-27T11:02:37Z</time>
      </trkpt>
      <trkpt lat="43.98562" lon="5.41504">
        <ele>942.2</ele>
        <time>2019-10-27T11:02:40Z</time>
      </trkpt>
      <trkpt lat="43.9856" lon="5.41505">
        <ele>942.3</ele>
        <time>2019-10-27T11:02:42Z</time>
      </trkpt>
      <trkpt lat="43.98556" lon="5.41506">
        <ele>942.6</ele>
        <time>2019-10-27T11:02:44Z</time>
      </trkpt>
      <trkpt lat="43.98554" lon="5.41506">
        <ele>942.7</ele>
        <time>2019-10-27T11:02:46Z</time>
      </trkpt>
      <trkpt lat="43.9855" lon="5.41507">
        <ele>943</ele>
        <time>2019-10-27T11:02:49Z</time>
      </trkpt>
      <trkpt lat="43.98546" lon="5.41508">
        <ele>943.1</ele>
        <time>2019-10-27T11:02:51Z</time>
      </trkpt>
      <trkpt lat="43.98543" lon="5.4151">
        <ele>943.3</ele>
        <time>2019-10-27T11:02:53Z</time>
      </trkpt>
      <trkpt lat="43.9854" lon="5.41512">
        <ele>943.5</ele>
        <time>2019-10-27T11:02:55Z</time>
      </trkpt>
      <trkpt lat="43.98536" lon="5.41513">
        <ele>943.7</ele>
        <time>2019-10-27T11:02:58Z</time>
      </trkpt>
      <trkpt lat="43.98533" lon="5.41514">
        <ele>943.8</ele>
        <time>2019-10-27T11:03:00Z</time>
      </trkpt>
      <trkpt lat="43.98529" lon="5.41516">
        <ele>943.9</ele>
        <time>2019-10-27T11:03:03Z</time>
      </trkpt>
      <trkpt lat="43.98526" lon="5.41517">
        <ele>944.1</ele>
        <time>2019-10-27T11:03:05Z</time>
      </trkpt>
      <trkpt lat="43.98523" lon="5.41518">
        <ele>944.2</ele>
        <time>2019-10-27T11:03:07Z</time>
      </trkpt>
      <trkpt lat="43.9852" lon="5.41519">
        <ele>944.3</ele>
        <time>2019-10-27T11:03:09Z</time>
      </trkpt>
      <trkpt lat="43.98516" lon="5.41521">
        <ele>944.4</ele>
        <time>2019-10-27T11:03:13Z</time>
      </trkpt>
      <trkpt lat="43.98513" lon="5.41523">
        <ele>944.5</ele>
        <time>2019-10-27T11:03:15Z</time>
      </trkpt>
      <trkpt lat="43.9851" lon="5.41526">
        <ele>944.6</ele>
        <time>2019-10-27T11:03:17Z</time>
      </trkpt>
      <trkpt lat="43.98506" lon="5.41529">
        <ele>944.8</ele>
        <time>2019-10-27T11:03:19Z</time>
      </trkpt>
      <trkpt lat="43.98503" lon="5.41531">
        <ele>944.9</ele>
        <time>2019-10-27T11:03:21Z</time>
      </trkpt>
      <trkpt lat="43.985" lon="5.41533">
        <ele>945</ele>
        <time>2019-10-27T11:03:23Z</time>
      </trkpt>
      <trkpt lat="43.98496" lon="5.41535">
        <ele>945</ele>
        <time>2019-10-27T11:03:25Z</time>
      </trkpt>
      <trkpt lat="43.98493" lon="5.41536">
        <ele>945.1</ele>
        <time>2019-10-27T11:03:27Z</time>
      </trkpt>
      <trkpt lat="43.9849" lon="5.41538">
        <ele>945.2</ele>
        <time>2019-10-27T11:03:29Z</time>
      </trkpt>
      <trkpt lat="43.98487" lon="5.41539">
        <ele>945.3</ele>
        <time>2019-10-27T11:03:31Z</time>
      </trkpt>
      <trkpt lat="43.98484" lon="5.41541">
        <ele>945.4</ele>
        <time>2019-10-27T11:03:33Z</time>
      </trkpt>
      <trkpt lat="43.9848" lon="5.41543">
        <ele>945.5</ele>
        <time>2019-10-27T11:03:35Z</time>
      </trkpt>
      <trkpt lat="43.98476" lon="5.41545">
        <ele>945.6</ele>
        <time>2019-10-27T11:03:37Z</time>
      </trkpt>
      <trkpt lat="43.98473" lon="5.41547">
        <ele>945.7</ele>
        <time>2019-10-27T11:03:39Z</time>
      </trkpt>
      <trkpt lat="43.98469" lon="5.41549">
        <ele>945.8</ele>
        <time>2019-10-27T11:03:41Z</time>
      </trkpt>
      <trkpt lat="43.98467" lon="5.41552">
        <ele>945.9</ele>
        <time>2019-10-27T11:03:43Z</time>
      </trkpt>
      <trkpt lat="43.98463" lon="5.41554">
        <ele>946</ele>
        <time>2019-10-27T11:03:45Z</time>
      </trkpt>
      <trkpt lat="43.98459" lon="5.41556">
        <ele>946.2</ele>
        <time>2019-10-27T11:03:47Z</time>
      </trkpt>
      <trkpt lat="43.98456" lon="5.41557">
        <ele>946.3</ele>
        <time>2019-10-27T11:03:49Z</time>
      </trkpt>
      <trkpt lat="43.98452" lon="5.41559">
        <ele>946.3</ele>
        <time>2019-10-27T11:03:51Z</time>
      </trkpt>
      <trkpt lat="43.98448" lon="5.4156">
        <ele>946.4</ele>
        <time>2019-10-27T11:03:53Z</time>
      </trkpt>
      <trkpt lat="43.98445" lon="5.41562">
        <ele>946.5</ele>
        <time>2019-10-27T11:03:55Z</time>
      </trkpt>
      <trkpt lat="43.98442" lon="5.41563">
        <ele>946.5</ele>
        <time>2019-10-27T11:03:57Z</time>
      </trkpt>
      <trkpt lat="43.98439" lon="5.41565">
        <ele>946.6</ele>
        <time>2019-10-27T11:03:59Z</time>
      </trkpt>
      <trkpt lat="43.98435" lon="5.41566">
        <ele>946.6</ele>
        <time>2019-10-27T11:04:02Z</time>
      </trkpt>
      <trkpt lat="43.98431" lon="5.41567">
        <ele>946.7</ele>
        <time>2019-10-27T11:04:04Z</time>
      </trkpt>
      <trkpt lat="43.98427" lon="5.41569">
        <ele>946.7</ele>
        <time>2019-10-27T11:04:06Z</time>
      </trkpt>
      <trkpt lat="43.98423" lon="5.4157">
        <ele>946.8</ele>
        <time>2019-10-27T11:04:08Z</time>
      </trkpt>
      <trkpt lat="43.98419" lon="5.41572">
        <ele>946.9</ele>
        <time>2019-10-27T11:04:10Z</time>
      </trkpt>
      <trkpt lat="43.98413" lon="5.41574">
        <ele>947</ele>
        <time>2019-10-27T11:04:12Z</time>
      </trkpt>
      <trkpt lat="43.98408" lon="5.41575">
        <ele>947.2</ele>
        <time>2019-10-27T11:04:14Z</time>
      </trkpt>
      <trkpt lat="43.98404" lon="5.41578">
        <ele>947.3</ele>
        <time>2019-10-27T11:04:16Z</time>
      </trkpt>
      <trkpt lat="43.98399" lon="5.4158">
        <ele>947.4</ele>
        <time>2019-10-27T11:04:18Z</time>
      </trkpt>
      <trkpt lat="43.98397" lon="5.41581">
        <ele>947.4</ele>
        <time>2019-10-27T11:04:19Z</time>
      </trkpt>
      <trkpt lat="43.98392" lon="5.41583">
        <ele>947.5</ele>
        <time>2019-10-27T11:04:21Z</time>
      </trkpt>
      <trkpt lat="43.98388" lon="5.41585">
        <ele>947.6</ele>
        <time>2019-10-27T11:04:23Z</time>
      </trkpt>
      <trkpt lat="43.98383" lon="5.41587">
        <ele>947.6</ele>
        <time>2019-10-27T11:04:25Z</time>
      </trkpt>
      <trkpt lat="43.9838" lon="5.41589">
        <ele>947.6</ele>
        <time>2019-10-27T11:04:27Z</time>
      </trkpt>
      <trkpt lat="43.98376" lon="5.4159">
        <ele>947.6</ele>
        <time>2019-10-27T11:04:29Z</time>
      </trkpt>
      <trkpt lat="43.98373" lon="5.41591">
        <ele>947.5</ele>
        <time>2019-10-27T11:04:31Z</time>
      </trkpt>
      <trkpt lat="43.98369" lon="5.41592">
        <ele>947.5</ele>
        <time>2019-10-27T11:04:33Z</time>
      </trkpt>
      <trkpt lat="43.98365" lon="5.41592">
        <ele>947.4</ele>
        <time>2019-10-27T11:04:35Z</time>
      </trkpt>
      <trkpt lat="43.98361" lon="5.41594">
        <ele>947.4</ele>
        <time>2019-10-27T11:04:37Z</time>
      </trkpt>
      <trkpt lat="43.98358" lon="5.41595">
        <ele>947.3</ele>
        <time>2019-10-27T11:04:38Z</time>
      </trkpt>
      <trkpt lat="43.98355" lon="5.41596">
        <ele>947.3</ele>
        <time>2019-10-27T11:04:39Z</time>
      </trkpt>
      <trkpt lat="43.98352" lon="5.41598">
        <ele>947.2</ele>
        <time>2019-10-27T11:04:40Z</time>
      </trkpt>
      <trkpt lat="43.98349" lon="5.41599">
        <ele>947.2</ele>
        <time>2019-10-27T11:04:41Z</time>
      </trkpt>
      <trkpt lat="43.98344" lon="5.416">
        <ele>947.1</ele>
        <time>2019-10-27T11:04:43Z</time>
      </trkpt>
      <trkpt lat="43.9834" lon="5.41601">
        <ele>947</ele>
        <time>2019-10-27T11:04:45Z</time>
      </trkpt>
      <trkpt lat="43.98336" lon="5.41603">
        <ele>946.9</ele>
        <time>2019-10-27T11:04:47Z</time>
      </trkpt>
      <trkpt lat="43.98332" lon="5.41605">
        <ele>946.8</ele>
        <time>2019-10-27T11:04:48Z</time>
      </trkpt>
      <trkpt lat="43.98329" lon="5.41606">
        <ele>946.7</ele>
        <time>2019-10-27T11:04:49Z</time>
      </trkpt>
      <trkpt lat="43.98326" lon="5.41606">
        <ele>946.6</ele>
        <time>2019-10-27T11:04:51Z</time>
      </trkpt>
      <trkpt lat="43.98321" lon="5.4161">
        <ele>946.4</ele>
        <time>2019-10-27T11:04:53Z</time>
      </trkpt>
      <trkpt lat="43.98317" lon="5.41611">
        <ele>946.1</ele>
        <time>2019-10-27T11:04:54Z</time>
      </trkpt>
      <trkpt lat="43.98314" lon="5.41612">
        <ele>945.9</ele>
        <time>2019-10-27T11:04:55Z</time>
      </trkpt>
      <trkpt lat="43.98306" lon="5.41615">
        <ele>945.4</ele>
        <time>2019-10-27T11:04:57Z</time>
      </trkpt>
      <trkpt lat="43.98302" lon="5.41617">
        <ele>945.1</ele>
        <time>2019-10-27T11:04:58Z</time>
      </trkpt>
      <trkpt lat="43.98297" lon="5.4162">
        <ele>944.8</ele>
        <time>2019-10-27T11:05:00Z</time>
      </trkpt>
      <trkpt lat="43.98293" lon="5.41624">
        <ele>944.4</ele>
        <time>2019-10-27T11:05:02Z</time>
      </trkpt>
      <trkpt lat="43.9829" lon="5.41626">
        <ele>944.2</ele>
        <time>2019-10-27T11:05:03Z</time>
      </trkpt>
      <trkpt lat="43.98286" lon="5.41629">
        <ele>943.8</ele>
        <time>2019-10-27T11:05:05Z</time>
      </trkpt>
      <trkpt lat="43.9828" lon="5.41633">
        <ele>943.4</ele>
        <time>2019-10-27T11:05:07Z</time>
      </trkpt>
      <trkpt lat="43.98278" lon="5.41636">
        <ele>943.1</ele>
        <time>2019-10-27T11:05:08Z</time>
      </trkpt>
      <trkpt lat="43.98274" lon="5.41639">
        <ele>942.7</ele>
        <time>2019-10-27T11:05:09Z</time>
      </trkpt>
      <trkpt lat="43.98271" lon="5.41643">
        <ele>942.4</ele>
        <time>2019-10-27T11:05:10Z</time>
      </trkpt>
      <trkpt lat="43.98268" lon="5.41646">
        <ele>942.2</ele>
        <time>2019-10-27T11:05:11Z</time>
      </trkpt>
      <trkpt lat="43.98264" lon="5.41649">
        <ele>941.8</ele>
        <time>2019-10-27T11:05:12Z</time>
      </trkpt>
      <trkpt lat="43.98261" lon="5.41652">
        <ele>941.5</ele>
        <time>2019-10-27T11:05:13Z</time>
      </trkpt>
      <trkpt lat="43.98258" lon="5.41655">
        <ele>941.2</ele>
        <time>2019-10-27T11:05:14Z</time>
      </trkpt>
      <trkpt lat="43.98255" lon="5.41658">
        <ele>941</ele>
        <time>2019-10-27T11:05:15Z</time>
      </trkpt>
      <trkpt lat="43.98252" lon="5.41661">
        <ele>940.7</ele>
        <time>2019-10-27T11:05:16Z</time>
      </trkpt>
      <trkpt lat="43.98249" lon="5.41664">
        <ele>940.4</ele>
        <time>2019-10-27T11:05:17Z</time>
      </trkpt>
      <trkpt lat="43.98246" lon="5.41667">
        <ele>940.2</ele>
        <time>2019-10-27T11:05:18Z</time>
      </trkpt>
      <trkpt lat="43.98243" lon="5.4167">
        <ele>940</ele>
        <time>2019-10-27T11:05:19Z</time>
      </trkpt>
      <trkpt lat="43.9824" lon="5.41672">
        <ele>939.7</ele>
        <time>2019-10-27T11:05:20Z</time>
      </trkpt>
      <trkpt lat="43.98237" lon="5.41675">
        <ele>939.5</ele>
        <time>2019-10-27T11:05:21Z</time>
      </trkpt>
      <trkpt lat="43.98233" lon="5.41678">
        <ele>939.2</ele>
        <time>2019-10-27T11:05:22Z</time>
      </trkpt>
      <trkpt lat="43.98231" lon="5.41681">
        <ele>939</ele>
        <time>2019-10-27T11:05:23Z</time>
      </trkpt>
      <trkpt lat="43.98229" lon="5.41683">
        <ele>938.8</ele>
        <time>2019-10-27T11:05:24Z</time>
      </trkpt>
      <trkpt lat="43.98227" lon="5.41686">
        <ele>938.6</ele>
        <time>2019-10-27T11:05:25Z</time>
      </trkpt>
      <trkpt lat="43.98222" lon="5.41691">
        <ele>938.1</ele>
        <time>2019-10-27T11:05:27Z</time>
      </trkpt>
      <trkpt lat="43.98217" lon="5.41694">
        <ele>937.6</ele>
        <time>2019-10-27T11:05:28Z</time>
      </trkpt>
      <trkpt lat="43.98212" lon="5.41698">
        <ele>937.3</ele>
        <time>2019-10-27T11:05:29Z</time>
      </trkpt>
      <trkpt lat="43.98209" lon="5.41701">
        <ele>937.1</ele>
        <time>2019-10-27T11:05:30Z</time>
      </trkpt>
      <trkpt lat="43.98207" lon="5.41705">
        <ele>936.9</ele>
        <time>2019-10-27T11:05:31Z</time>
      </trkpt>
      <trkpt lat="43.98205" lon="5.41709">
        <ele>936.8</ele>
        <time>2019-10-27T11:05:32Z</time>
      </trkpt>
      <trkpt lat="43.98203" lon="5.41714">
        <ele>936.6</ele>
        <time>2019-10-27T11:05:33Z</time>
      </trkpt>
      <trkpt lat="43.982" lon="5.4172">
        <ele>936.4</ele>
        <time>2019-10-27T11:05:34Z</time>
      </trkpt>
      <trkpt lat="43.98198" lon="5.41724">
        <ele>936.2</ele>
        <time>2019-10-27T11:05:35Z</time>
      </trkpt>
      <trkpt lat="43.98195" lon="5.41729">
        <ele>936</ele>
        <time>2019-10-27T11:05:36Z</time>
      </trkpt>
      <trkpt lat="43.98191" lon="5.41735">
        <ele>935.6</ele>
        <time>2019-10-27T11:05:37Z</time>
      </trkpt>
      <trkpt lat="43.98189" lon="5.4174">
        <ele>935.3</ele>
        <time>2019-10-27T11:05:38Z</time>
      </trkpt>
      <trkpt lat="43.98187" lon="5.41745">
        <ele>935</ele>
        <time>2019-10-27T11:05:39Z</time>
      </trkpt>
      <trkpt lat="43.98186" lon="5.4175">
        <ele>934.8</ele>
        <time>2019-10-27T11:05:40Z</time>
      </trkpt>
      <trkpt lat="43.98184" lon="5.41753">
        <ele>934.6</ele>
        <time>2019-10-27T11:05:41Z</time>
      </trkpt>
      <trkpt lat="43.98183" lon="5.4176">
        <ele>934.4</ele>
        <time>2019-10-27T11:05:43Z</time>
      </trkpt>
      <trkpt lat="43.98182" lon="5.41765">
        <ele>934.2</ele>
        <time>2019-10-27T11:05:45Z</time>
      </trkpt>
      <trkpt lat="43.9818" lon="5.41771">
        <ele>934.1</ele>
        <time>2019-10-27T11:05:46Z</time>
      </trkpt>
      <trkpt lat="43.98179" lon="5.41775">
        <ele>934</ele>
        <time>2019-10-27T11:05:48Z</time>
      </trkpt>
      <trkpt lat="43.9818" lon="5.41779">
        <ele>934</ele>
        <time>2019-10-27T11:05:56Z</time>
      </trkpt>
      <trkpt lat="43.98176" lon="5.41778">
        <ele>933.9</ele>
        <time>2019-10-27T11:05:58Z</time>
      </trkpt>
      <trkpt lat="43.98173" lon="5.41779">
        <ele>933.9</ele>
        <time>2019-10-27T11:06:05Z</time>
      </trkpt>
      <trkpt lat="43.9817" lon="5.41783">
        <ele>933.9</ele>
        <time>2019-10-27T11:06:09Z</time>
      </trkpt>
      <trkpt lat="43.98168" lon="5.41788">
        <ele>933.9</ele>
        <time>2019-10-27T11:06:11Z</time>
      </trkpt>
      <trkpt lat="43.98166" lon="5.41792">
        <ele>934</ele>
        <time>2019-10-27T11:06:13Z</time>
      </trkpt>
      <trkpt lat="43.98164" lon="5.41798">
        <ele>934</ele>
        <time>2019-10-27T11:06:15Z</time>
      </trkpt>
      <trkpt lat="43.98163" lon="5.41801">
        <ele>934</ele>
        <time>2019-10-27T11:06:16Z</time>
      </trkpt>
      <trkpt lat="43.98161" lon="5.41805">
        <ele>934</ele>
        <time>2019-10-27T11:06:17Z</time>
      </trkpt>
      <trkpt lat="43.98159" lon="5.41809">
        <ele>933.9</ele>
        <time>2019-10-27T11:06:18Z</time>
      </trkpt>
      <trkpt lat="43.98156" lon="5.41812">
        <ele>933.9</ele>
        <time>2019-10-27T11:06:20Z</time>
      </trkpt>
      <trkpt lat="43.98155" lon="5.41816">
        <ele>933.8</ele>
        <time>2019-10-27T11:06:22Z</time>
      </trkpt>
      <trkpt lat="43.98154" lon="5.41821">
        <ele>933.7</ele>
        <time>2019-10-27T11:06:32Z</time>
      </trkpt>
      <trkpt lat="43.98153" lon="5.41824">
        <ele>933.5</ele>
        <time>2019-10-27T11:06:41Z</time>
      </trkpt>
      <trkpt lat="43.98153" lon="5.41828">
        <ele>933.4</ele>
        <time>2019-10-27T11:06:45Z</time>
      </trkpt>
      <trkpt lat="43.98155" lon="5.41865">
        <ele>946.8</ele>
        <time>2019-10-27T11:08:14Z</time>
      </trkpt>
      <trkpt lat="43.98155" lon="5.41869">
        <ele>946.8</ele>
        <time>2019-10-27T11:08:31Z</time>
      </trkpt>
      <trkpt lat="43.98154" lon="5.41872">
        <ele>946.7</ele>
        <time>2019-10-27T11:08:58Z</time>
      </trkpt>
      <trkpt lat="43.98154" lon="5.41868">
        <ele>946.7</ele>
        <time>2019-10-27T11:09:21Z</time>
      </trkpt>
      <trkpt lat="43.98154" lon="5.41864">
        <ele>946.6</ele>
        <time>2019-10-27T11:09:26Z</time>
      </trkpt>
      <trkpt lat="43.98157" lon="5.41839">
        <ele>940.9</ele>
        <time>2019-10-27T11:10:04Z</time>
      </trkpt>
      <trkpt lat="43.98155" lon="5.41836">
        <ele>940</ele>
        <time>2019-10-27T11:10:08Z</time>
      </trkpt>
      <trkpt lat="43.98152" lon="5.41833">
        <ele>938.9</ele>
        <time>2019-10-27T11:10:12Z</time>
      </trkpt>
      <trkpt lat="43.98146" lon="5.41826">
        <ele>936.3</ele>
        <time>2019-10-27T11:10:38Z</time>
      </trkpt>
      <trkpt lat="43.98143" lon="5.41829">
        <ele>935.4</ele>
        <time>2019-10-27T11:10:41Z</time>
      </trkpt>
      <trkpt lat="43.9814" lon="5.41829">
        <ele>934.5</ele>
        <time>2019-10-27T11:11:26Z</time>
      </trkpt>
      <trkpt lat="43.98137" lon="5.41831">
        <ele>932.5</ele>
        <time>2019-10-27T11:11:28Z</time>
      </trkpt>
      <trkpt lat="43.98131" lon="5.41833">
        <ele>932</ele>
        <time>2019-10-27T11:11:30Z</time>
      </trkpt>
      <trkpt lat="43.98129" lon="5.41834">
        <ele>931.8</ele>
        <time>2019-10-27T11:11:31Z</time>
      </trkpt>
      <trkpt lat="43.98126" lon="5.41836">
        <ele>931.5</ele>
        <time>2019-10-27T11:11:32Z</time>
      </trkpt>
      <trkpt lat="43.98121" lon="5.41837">
        <ele>931.2</ele>
        <time>2019-10-27T11:11:34Z</time>
      </trkpt>
      <trkpt lat="43.98118" lon="5.41838">
        <ele>931</ele>
        <time>2019-10-27T11:11:35Z</time>
      </trkpt>
      <trkpt lat="43.98114" lon="5.4184">
        <ele>930.6</ele>
        <time>2019-10-27T11:11:37Z</time>
      </trkpt>
      <trkpt lat="43.9811" lon="5.41841">
        <ele>930.3</ele>
        <time>2019-10-27T11:11:39Z</time>
      </trkpt>
      <trkpt lat="43.98106" lon="5.41841">
        <ele>930.2</ele>
        <time>2019-10-27T11:11:41Z</time>
      </trkpt>
      <trkpt lat="43.98102" lon="5.41843">
        <ele>929.9</ele>
        <time>2019-10-27T11:11:43Z</time>
      </trkpt>
      <trkpt lat="43.98097" lon="5.41844">
        <ele>929.8</ele>
        <time>2019-10-27T11:11:45Z</time>
      </trkpt>
      <trkpt lat="43.98095" lon="5.41846">
        <ele>929.6</ele>
        <time>2019-10-27T11:11:47Z</time>
      </trkpt>
      <trkpt lat="43.98091" lon="5.4185">
        <ele>929.4</ele>
        <time>2019-10-27T11:11:49Z</time>
      </trkpt>
      <trkpt lat="43.98088" lon="5.41852">
        <ele>929.3</ele>
        <time>2019-10-27T11:11:51Z</time>
      </trkpt>
      <trkpt lat="43.98084" lon="5.41856">
        <ele>929.1</ele>
        <time>2019-10-27T11:11:53Z</time>
      </trkpt>
      <trkpt lat="43.98079" lon="5.41861">
        <ele>928.9</ele>
        <time>2019-10-27T11:11:55Z</time>
      </trkpt>
      <trkpt lat="43.98077" lon="5.41863">
        <ele>928.8</ele>
        <time>2019-10-27T11:11:56Z</time>
      </trkpt>
      <trkpt lat="43.98075" lon="5.41867">
        <ele>928.7</ele>
        <time>2019-10-27T11:11:57Z</time>
      </trkpt>
      <trkpt lat="43.98072" lon="5.4187">
        <ele>928.6</ele>
        <time>2019-10-27T11:11:58Z</time>
      </trkpt>
      <trkpt lat="43.98069" lon="5.41873">
        <ele>928.4</ele>
        <time>2019-10-27T11:11:59Z</time>
      </trkpt>
      <trkpt lat="43.98066" lon="5.41875">
        <ele>928.3</ele>
        <time>2019-10-27T11:12:00Z</time>
      </trkpt>
      <trkpt lat="43.98065" lon="5.41878">
        <ele>928.2</ele>
        <time>2019-10-27T11:12:01Z</time>
      </trkpt>
      <trkpt lat="43.98063" lon="5.41882">
        <ele>928.1</ele>
        <time>2019-10-27T11:12:02Z</time>
      </trkpt>
      <trkpt lat="43.98062" lon="5.41888">
        <ele>927.9</ele>
        <time>2019-10-27T11:12:04Z</time>
      </trkpt>
      <trkpt lat="43.9806" lon="5.41892">
        <ele>927.8</ele>
        <time>2019-10-27T11:12:05Z</time>
      </trkpt>
      <trkpt lat="43.98058" lon="5.41895">
        <ele>927.7</ele>
        <time>2019-10-27T11:12:06Z</time>
      </trkpt>
      <trkpt lat="43.98056" lon="5.41898">
        <ele>927.6</ele>
        <time>2019-10-27T11:12:07Z</time>
      </trkpt>
      <trkpt lat="43.98053" lon="5.41901">
        <ele>927.5</ele>
        <time>2019-10-27T11:12:08Z</time>
      </trkpt>
      <trkpt lat="43.9805" lon="5.41905">
        <ele>927.3</ele>
        <time>2019-10-27T11:12:09Z</time>
      </trkpt>
      <trkpt lat="43.98048" lon="5.41908">
        <ele>927.2</ele>
        <time>2019-10-27T11:12:10Z</time>
      </trkpt>
      <trkpt lat="43.98045" lon="5.41911">
        <ele>927</ele>
        <time>2019-10-27T11:12:11Z</time>
      </trkpt>
      <trkpt lat="43.98042" lon="5.41914">
        <ele>926.9</ele>
        <time>2019-10-27T11:12:12Z</time>
      </trkpt>
      <trkpt lat="43.98039" lon="5.41917">
        <ele>926.7</ele>
        <time>2019-10-27T11:12:13Z</time>
      </trkpt>
      <trkpt lat="43.98037" lon="5.4192">
        <ele>926.6</ele>
        <time>2019-10-27T11:12:14Z</time>
      </trkpt>
      <trkpt lat="43.98034" lon="5.41924">
        <ele>926.4</ele>
        <time>2019-10-27T11:12:15Z</time>
      </trkpt>
      <trkpt lat="43.98032" lon="5.41927">
        <ele>926.2</ele>
        <time>2019-10-27T11:12:16Z</time>
      </trkpt>
      <trkpt lat="43.98029" lon="5.41933">
        <ele>925.9</ele>
        <time>2019-10-27T11:12:18Z</time>
      </trkpt>
      <trkpt lat="43.98028" lon="5.41936">
        <ele>925.8</ele>
        <time>2019-10-27T11:12:19Z</time>
      </trkpt>
      <trkpt lat="43.98024" lon="5.41942">
        <ele>925.5</ele>
        <time>2019-10-27T11:12:21Z</time>
      </trkpt>
      <trkpt lat="43.98022" lon="5.41945">
        <ele>925.3</ele>
        <time>2019-10-27T11:12:22Z</time>
      </trkpt>
      <trkpt lat="43.9802" lon="5.41948">
        <ele>925.2</ele>
        <time>2019-10-27T11:12:23Z</time>
      </trkpt>
      <trkpt lat="43.98019" lon="5.41952">
        <ele>925</ele>
        <time>2019-10-27T11:12:24Z</time>
      </trkpt>
      <trkpt lat="43.98015" lon="5.41957">
        <ele>924.7</ele>
        <time>2019-10-27T11:12:26Z</time>
      </trkpt>
      <trkpt lat="43.98012" lon="5.41961">
        <ele>924.4</ele>
        <time>2019-10-27T11:12:27Z</time>
      </trkpt>
      <trkpt lat="43.9801" lon="5.41965">
        <ele>924.2</ele>
        <time>2019-10-27T11:12:28Z</time>
      </trkpt>
      <trkpt lat="43.98007" lon="5.41969">
        <ele>924</ele>
        <time>2019-10-27T11:12:29Z</time>
      </trkpt>
      <trkpt lat="43.98004" lon="5.41973">
        <ele>923.9</ele>
        <time>2019-10-27T11:12:30Z</time>
      </trkpt>
      <trkpt lat="43.98003" lon="5.41976">
        <ele>923.5</ele>
        <time>2019-10-27T11:12:31Z</time>
      </trkpt>
      <trkpt lat="43.98003" lon="5.41982">
        <ele>924.3</ele>
        <time>2019-10-27T11:12:33Z</time>
      </trkpt>
      <trkpt lat="43.98005" lon="5.41984">
        <ele>924.9</ele>
        <time>2019-10-27T11:12:36Z</time>
      </trkpt>
      <trkpt lat="43.98008" lon="5.41986">
        <ele>925.5</ele>
        <time>2019-10-27T11:12:38Z</time>
      </trkpt>
      <trkpt lat="43.98012" lon="5.41987">
        <ele>926.5</ele>
        <time>2019-10-27T11:12:41Z</time>
      </trkpt>
      <trkpt lat="43.98014" lon="5.4199">
        <ele>927.2</ele>
        <time>2019-10-27T11:12:43Z</time>
      </trkpt>
      <trkpt lat="43.98017" lon="5.41992">
        <ele>927.9</ele>
        <time>2019-10-27T11:12:45Z</time>
      </trkpt>
      <trkpt lat="43.9802" lon="5.41996">
        <ele>928.7</ele>
        <time>2019-10-27T11:12:48Z</time>
      </trkpt>
      <trkpt lat="43.98022" lon="5.42">
        <ele>929.5</ele>
        <time>2019-10-27T11:12:50Z</time>
      </trkpt>
      <trkpt lat="43.98025" lon="5.42003">
        <ele>930.2</ele>
        <time>2019-10-27T11:12:52Z</time>
      </trkpt>
      <trkpt lat="43.98027" lon="5.42008">
        <ele>931</ele>
        <time>2019-10-27T11:12:54Z</time>
      </trkpt>
      <trkpt lat="43.98028" lon="5.42012">
        <ele>931.6</ele>
        <time>2019-10-27T11:12:56Z</time>
      </trkpt>
      <trkpt lat="43.98029" lon="5.42017">
        <ele>932.2</ele>
        <time>2019-10-27T11:12:58Z</time>
      </trkpt>
      <trkpt lat="43.9803" lon="5.42022">
        <ele>932.8</ele>
        <time>2019-10-27T11:13:00Z</time>
      </trkpt>
      <trkpt lat="43.98032" lon="5.42026">
        <ele>933.1</ele>
        <time>2019-10-27T11:13:02Z</time>
      </trkpt>
      <trkpt lat="43.98034" lon="5.4203">
        <ele>933.6</ele>
        <time>2019-10-27T11:13:04Z</time>
      </trkpt>
      <trkpt lat="43.98035" lon="5.42034">
        <ele>933.9</ele>
        <time>2019-10-27T11:13:06Z</time>
      </trkpt>
      <trkpt lat="43.98037" lon="5.42037">
        <ele>934.3</ele>
        <time>2019-10-27T11:13:09Z</time>
      </trkpt>
      <trkpt lat="43.98039" lon="5.4204">
        <ele>934.6</ele>
        <time>2019-10-27T11:13:28Z</time>
      </trkpt>
      <trkpt lat="43.98043" lon="5.42045">
        <ele>935.5</ele>
        <time>2019-10-27T11:14:23Z</time>
      </trkpt>
      <trkpt lat="43.98046" lon="5.42045">
        <ele>935.9</ele>
        <time>2019-10-27T11:14:26Z</time>
      </trkpt>
      <trkpt lat="43.9805" lon="5.42046">
        <ele>936.6</ele>
        <time>2019-10-27T11:14:30Z</time>
      </trkpt>
      <trkpt lat="43.98053" lon="5.42045">
        <ele>937.1</ele>
        <time>2019-10-27T11:15:05Z</time>
      </trkpt>
      <trkpt lat="43.98056" lon="5.42047">
        <ele>937.8</ele>
        <time>2019-10-27T11:15:08Z</time>
      </trkpt>
      <trkpt lat="43.98059" lon="5.4205">
        <ele>938.3</ele>
        <time>2019-10-27T11:15:11Z</time>
      </trkpt>
      <trkpt lat="43.98062" lon="5.42052">
        <ele>938.9</ele>
        <time>2019-10-27T11:15:14Z</time>
      </trkpt>
      <trkpt lat="43.98064" lon="5.42057">
        <ele>939.5</ele>
        <time>2019-10-27T11:15:17Z</time>
      </trkpt>
      <trkpt lat="43.98067" lon="5.42061">
        <ele>940.1</ele>
        <time>2019-10-27T11:15:19Z</time>
      </trkpt>
      <trkpt lat="43.98069" lon="5.42065">
        <ele>940.4</ele>
        <time>2019-10-27T11:15:21Z</time>
      </trkpt>
      <trkpt lat="43.98071" lon="5.42068">
        <ele>940.7</ele>
        <time>2019-10-27T11:15:23Z</time>
      </trkpt>
      <trkpt lat="43.98074" lon="5.4207">
        <ele>941</ele>
        <time>2019-10-27T11:15:26Z</time>
      </trkpt>
      <trkpt lat="43.98076" lon="5.42074">
        <ele>941.4</ele>
        <time>2019-10-27T11:15:29Z</time>
      </trkpt>
      <trkpt lat="43.98079" lon="5.42079">
        <ele>941.8</ele>
        <time>2019-10-27T11:15:32Z</time>
      </trkpt>
      <trkpt lat="43.98081" lon="5.42084">
        <ele>942.1</ele>
        <time>2019-10-27T11:15:34Z</time>
      </trkpt>
      <trkpt lat="43.98084" lon="5.42088">
        <ele>942.5</ele>
        <time>2019-10-27T11:15:36Z</time>
      </trkpt>
      <trkpt lat="43.98087" lon="5.42094">
        <ele>942.9</ele>
        <time>2019-10-27T11:15:38Z</time>
      </trkpt>
      <trkpt lat="43.98088" lon="5.42099">
        <ele>943.2</ele>
        <time>2019-10-27T11:15:40Z</time>
      </trkpt>
      <trkpt lat="43.9809" lon="5.42106">
        <ele>943.5</ele>
        <time>2019-10-27T11:15:42Z</time>
      </trkpt>
      <trkpt lat="43.98092" lon="5.4211">
        <ele>943.8</ele>
        <time>2019-10-27T11:15:44Z</time>
      </trkpt>
      <trkpt lat="43.98093" lon="5.42114">
        <ele>944.1</ele>
        <time>2019-10-27T11:15:46Z</time>
      </trkpt>
      <trkpt lat="43.98094" lon="5.42118">
        <ele>944.4</ele>
        <time>2019-10-27T11:15:48Z</time>
      </trkpt>
      <trkpt lat="43.98096" lon="5.42121">
        <ele>944.7</ele>
        <time>2019-10-27T11:15:50Z</time>
      </trkpt>
      <trkpt lat="43.98098" lon="5.42125">
        <ele>945</ele>
        <time>2019-10-27T11:15:52Z</time>
      </trkpt>
      <trkpt lat="43.981" lon="5.42128">
        <ele>945.3</ele>
        <time>2019-10-27T11:15:54Z</time>
      </trkpt>
      <trkpt lat="43.98102" lon="5.42132">
        <ele>945.7</ele>
        <time>2019-10-27T11:15:56Z</time>
      </trkpt>
      <trkpt lat="43.98105" lon="5.42136">
        <ele>946.1</ele>
        <time>2019-10-27T11:15:59Z</time>
      </trkpt>
      <trkpt lat="43.98107" lon="5.4214">
        <ele>946.4</ele>
        <time>2019-10-27T11:16:01Z</time>
      </trkpt>
      <trkpt lat="43.98111" lon="5.42145">
        <ele>946.9</ele>
        <time>2019-10-27T11:16:03Z</time>
      </trkpt>
      <trkpt lat="43.98114" lon="5.42151">
        <ele>947.5</ele>
        <time>2019-10-27T11:16:05Z</time>
      </trkpt>
      <trkpt lat="43.98117" lon="5.42155">
        <ele>947.9</ele>
        <time>2019-10-27T11:16:07Z</time>
      </trkpt>
      <trkpt lat="43.98119" lon="5.4216">
        <ele>948.4</ele>
        <time>2019-10-27T11:16:09Z</time>
      </trkpt>
      <trkpt lat="43.98121" lon="5.42164">
        <ele>948.7</ele>
        <time>2019-10-27T11:16:11Z</time>
      </trkpt>
      <trkpt lat="43.98123" lon="5.42168">
        <ele>949.1</ele>
        <time>2019-10-27T11:16:13Z</time>
      </trkpt>
      <trkpt lat="43.98125" lon="5.42172">
        <ele>949.4</ele>
        <time>2019-10-27T11:16:15Z</time>
      </trkpt>
      <trkpt lat="43.98127" lon="5.42175">
        <ele>949.7</ele>
        <time>2019-10-27T11:16:17Z</time>
      </trkpt>
      <trkpt lat="43.9813" lon="5.42176">
        <ele>950</ele>
        <time>2019-10-27T11:16:20Z</time>
      </trkpt>
      <trkpt lat="43.98131" lon="5.42172">
        <ele>950.3</ele>
        <time>2019-10-27T11:16:24Z</time>
      </trkpt>
      <trkpt lat="43.98129" lon="5.42167">
        <ele>950.7</ele>
        <time>2019-10-27T11:16:27Z</time>
      </trkpt>
      <trkpt lat="43.98128" lon="5.42163">
        <ele>951</ele>
        <time>2019-10-27T11:16:29Z</time>
      </trkpt>
      <trkpt lat="43.98127" lon="5.42158">
        <ele>951.5</ele>
        <time>2019-10-27T11:16:32Z</time>
      </trkpt>
      <trkpt lat="43.98126" lon="5.42154">
        <ele>951.7</ele>
        <time>2019-10-27T11:16:35Z</time>
      </trkpt>
      <trkpt lat="43.98125" lon="5.4215">
        <ele>952</ele>
        <time>2019-10-27T11:16:38Z</time>
      </trkpt>
      <trkpt lat="43.98124" lon="5.42146">
        <ele>952.3</ele>
        <time>2019-10-27T11:16:41Z</time>
      </trkpt>
      <trkpt lat="43.98122" lon="5.42142">
        <ele>952.6</ele>
        <time>2019-10-27T11:16:43Z</time>
      </trkpt>
      <trkpt lat="43.9812" lon="5.42137">
        <ele>953</ele>
        <time>2019-10-27T11:16:45Z</time>
      </trkpt>
      <trkpt lat="43.98119" lon="5.42133">
        <ele>953.4</ele>
        <time>2019-10-27T11:16:48Z</time>
      </trkpt>
      <trkpt lat="43.98118" lon="5.42128">
        <ele>953.8</ele>
        <time>2019-10-27T11:16:50Z</time>
      </trkpt>
      <trkpt lat="43.98117" lon="5.42124">
        <ele>954</ele>
        <time>2019-10-27T11:16:53Z</time>
      </trkpt>
      <trkpt lat="43.98115" lon="5.42121">
        <ele>954.4</ele>
        <time>2019-10-27T11:16:55Z</time>
      </trkpt>
      <trkpt lat="43.98114" lon="5.42117">
        <ele>954.7</ele>
        <time>2019-10-27T11:16:57Z</time>
      </trkpt>
      <trkpt lat="43.98113" lon="5.42112">
        <ele>955.1</ele>
        <time>2019-10-27T11:16:59Z</time>
      </trkpt>
      <trkpt lat="43.98112" lon="5.42107">
        <ele>955.5</ele>
        <time>2019-10-27T11:17:01Z</time>
      </trkpt>
      <trkpt lat="43.98112" lon="5.42103">
        <ele>955.9</ele>
        <time>2019-10-27T11:17:02Z</time>
      </trkpt>
      <trkpt lat="43.98112" lon="5.42098">
        <ele>956.2</ele>
        <time>2019-10-27T11:17:04Z</time>
      </trkpt>
      <trkpt lat="43.98114" lon="5.42094">
        <ele>956.6</ele>
        <time>2019-10-27T11:17:07Z</time>
      </trkpt>
      <trkpt lat="43.98118" lon="5.42093">
        <ele>957</ele>
        <time>2019-10-27T11:17:09Z</time>
      </trkpt>
      <trkpt lat="43.9812" lon="5.42094">
        <ele>957.4</ele>
        <time>2019-10-27T11:17:11Z</time>
      </trkpt>
      <trkpt lat="43.98123" lon="5.42097">
        <ele>957.7</ele>
        <time>2019-10-27T11:17:13Z</time>
      </trkpt>
      <trkpt lat="43.98126" lon="5.421">
        <ele>958.2</ele>
        <time>2019-10-27T11:17:15Z</time>
      </trkpt>
      <trkpt lat="43.9813" lon="5.42102">
        <ele>958.8</ele>
        <time>2019-10-27T11:17:17Z</time>
      </trkpt>
      <trkpt lat="43.98135" lon="5.42103">
        <ele>959.4</ele>
        <time>2019-10-27T11:17:20Z</time>
      </trkpt>
      <trkpt lat="43.98137" lon="5.42106">
        <ele>959.8</ele>
        <time>2019-10-27T11:17:22Z</time>
      </trkpt>
      <trkpt lat="43.9814" lon="5.42108">
        <ele>960.1</ele>
        <time>2019-10-27T11:17:24Z</time>
      </trkpt>
      <trkpt lat="43.98142" lon="5.42111">
        <ele>960.4</ele>
        <time>2019-10-27T11:17:27Z</time>
      </trkpt>
      <trkpt lat="43.98145" lon="5.4211">
        <ele>960.8</ele>
        <time>2019-10-27T11:17:31Z</time>
      </trkpt>
      <trkpt lat="43.98147" lon="5.42108">
        <ele>961.1</ele>
        <time>2019-10-27T11:17:34Z</time>
      </trkpt>
      <trkpt lat="43.98149" lon="5.42103">
        <ele>961.6</ele>
        <time>2019-10-27T11:17:37Z</time>
      </trkpt>
      <trkpt lat="43.9815" lon="5.42099">
        <ele>961.9</ele>
        <time>2019-10-27T11:17:39Z</time>
      </trkpt>
      <trkpt lat="43.9815" lon="5.42094">
        <ele>962.3</ele>
        <time>2019-10-27T11:17:42Z</time>
      </trkpt>
      <trkpt lat="43.9815" lon="5.42089">
        <ele>962.6</ele>
        <time>2019-10-27T11:17:45Z</time>
      </trkpt>
      <trkpt lat="43.9815" lon="5.42085">
        <ele>963</ele>
        <time>2019-10-27T11:17:48Z</time>
      </trkpt>
      <trkpt lat="43.98151" lon="5.42081">
        <ele>963.3</ele>
        <time>2019-10-27T11:17:51Z</time>
      </trkpt>
      <trkpt lat="43.98154" lon="5.42078">
        <ele>963.7</ele>
        <time>2019-10-27T11:17:54Z</time>
      </trkpt>
      <trkpt lat="43.98158" lon="5.42078">
        <ele>964.1</ele>
        <time>2019-10-27T11:17:57Z</time>
      </trkpt>
      <trkpt lat="43.98162" lon="5.42078">
        <ele>964.4</ele>
        <time>2019-10-27T11:18:00Z</time>
      </trkpt>
      <trkpt lat="43.98165" lon="5.42078">
        <ele>964.8</ele>
        <time>2019-10-27T11:18:03Z</time>
      </trkpt>
      <trkpt lat="43.98168" lon="5.42077">
        <ele>965.1</ele>
        <time>2019-10-27T11:18:06Z</time>
      </trkpt>
      <trkpt lat="43.98171" lon="5.42073">
        <ele>965.4</ele>
        <time>2019-10-27T11:18:09Z</time>
      </trkpt>
      <trkpt lat="43.98173" lon="5.42069">
        <ele>965.7</ele>
        <time>2019-10-27T11:18:12Z</time>
      </trkpt>
      <trkpt lat="43.98174" lon="5.42065">
        <ele>965.9</ele>
        <time>2019-10-27T11:18:16Z</time>
      </trkpt>
      <trkpt lat="43.98177" lon="5.42064">
        <ele>966.1</ele>
        <time>2019-10-27T11:18:19Z</time>
      </trkpt>
      <trkpt lat="43.98182" lon="5.42063">
        <ele>966.5</ele>
        <time>2019-10-27T11:18:22Z</time>
      </trkpt>
      <trkpt lat="43.98185" lon="5.42062">
        <ele>966.7</ele>
        <time>2019-10-27T11:18:25Z</time>
      </trkpt>
      <trkpt lat="43.98189" lon="5.42061">
        <ele>967</ele>
        <time>2019-10-27T11:18:28Z</time>
      </trkpt>
      <trkpt lat="43.98192" lon="5.42058">
        <ele>967.2</ele>
        <time>2019-10-27T11:18:33Z</time>
      </trkpt>
      <trkpt lat="43.98195" lon="5.42055">
        <ele>967.4</ele>
        <time>2019-10-27T11:18:36Z</time>
      </trkpt>
      <trkpt lat="43.98198" lon="5.42053">
        <ele>967.6</ele>
        <time>2019-10-27T11:18:40Z</time>
      </trkpt>
      <trkpt lat="43.982" lon="5.42049">
        <ele>967.9</ele>
        <time>2019-10-27T11:18:42Z</time>
      </trkpt>
      <trkpt lat="43.98202" lon="5.42045">
        <ele>968.1</ele>
        <time>2019-10-27T11:18:44Z</time>
      </trkpt>
      <trkpt lat="43.98202" lon="5.42041">
        <ele>968.2</ele>
        <time>2019-10-27T11:18:49Z</time>
      </trkpt>
      <trkpt lat="43.98205" lon="5.42038">
        <ele>968.4</ele>
        <time>2019-10-27T11:18:52Z</time>
      </trkpt>
      <trkpt lat="43.98208" lon="5.42035">
        <ele>968.6</ele>
        <time>2019-10-27T11:18:55Z</time>
      </trkpt>
      <trkpt lat="43.9821" lon="5.42032">
        <ele>968.8</ele>
        <time>2019-10-27T11:19:01Z</time>
      </trkpt>
      <trkpt lat="43.98213" lon="5.42027">
        <ele>969.1</ele>
        <time>2019-10-27T11:19:04Z</time>
      </trkpt>
      <trkpt lat="43.98215" lon="5.42023">
        <ele>969.3</ele>
        <time>2019-10-27T11:19:06Z</time>
      </trkpt>
      <trkpt lat="43.98217" lon="5.4202">
        <ele>969.5</ele>
        <time>2019-10-27T11:19:09Z</time>
      </trkpt>
      <trkpt lat="43.9822" lon="5.42016">
        <ele>969.7</ele>
        <time>2019-10-27T11:19:12Z</time>
      </trkpt>
      <trkpt lat="43.98222" lon="5.42013">
        <ele>969.9</ele>
        <time>2019-10-27T11:19:14Z</time>
      </trkpt>
      <trkpt lat="43.98224" lon="5.42011">
        <ele>970.4</ele>
        <time>2019-10-27T11:19:16Z</time>
      </trkpt>
      <trkpt lat="43.98228" lon="5.42006">
        <ele>970.6</ele>
        <time>2019-10-27T11:19:18Z</time>
      </trkpt>
      <trkpt lat="43.98232" lon="5.42006">
        <ele>970.7</ele>
        <time>2019-10-27T11:19:23Z</time>
      </trkpt>
      <trkpt lat="43.98235" lon="5.42005">
        <ele>970.8</ele>
        <time>2019-10-27T11:19:26Z</time>
      </trkpt>
      <trkpt lat="43.98238" lon="5.42004">
        <ele>970.9</ele>
        <time>2019-10-27T11:19:29Z</time>
      </trkpt>
      <trkpt lat="43.98241" lon="5.42003">
        <ele>971</ele>
        <time>2019-10-27T11:19:32Z</time>
      </trkpt>
      <trkpt lat="43.98244" lon="5.42003">
        <ele>971.2</ele>
        <time>2019-10-27T11:19:35Z</time>
      </trkpt>
      <trkpt lat="43.98247" lon="5.42003">
        <ele>971.3</ele>
        <time>2019-10-27T11:19:38Z</time>
      </trkpt>
      <trkpt lat="43.9825" lon="5.42002">
        <ele>971.4</ele>
        <time>2019-10-27T11:19:41Z</time>
      </trkpt>
      <trkpt lat="43.98254" lon="5.42003">
        <ele>971.6</ele>
        <time>2019-10-27T11:19:44Z</time>
      </trkpt>
      <trkpt lat="43.98258" lon="5.42004">
        <ele>971.7</ele>
        <time>2019-10-27T11:19:46Z</time>
      </trkpt>
      <trkpt lat="43.98261" lon="5.42003">
        <ele>971.9</ele>
        <time>2019-10-27T11:19:48Z</time>
      </trkpt>
      <trkpt lat="43.98264" lon="5.42003">
        <ele>972</ele>
        <time>2019-10-27T11:19:55Z</time>
      </trkpt>
      <trkpt lat="43.98267" lon="5.42003">
        <ele>971.9</ele>
        <time>2019-10-27T11:19:59Z</time>
      </trkpt>
      <trkpt lat="43.98264" lon="5.41995">
        <ele>971.7</ele>
        <time>2019-10-27T11:28:29Z</time>
      </trkpt>
      <trkpt lat="43.9826" lon="5.41994">
        <ele>971.6</ele>
        <time>2019-10-27T11:28:31Z</time>
      </trkpt>
      <trkpt lat="43.98256" lon="5.41994">
        <ele>971.4</ele>
        <time>2019-10-27T11:28:32Z</time>
      </trkpt>
      <trkpt lat="43.98251" lon="5.41995">
        <ele>971.3</ele>
        <time>2019-10-27T11:28:33Z</time>
      </trkpt>
      <trkpt lat="43.98246" lon="5.41994">
        <ele>971.1</ele>
        <time>2019-10-27T11:28:34Z</time>
      </trkpt>
      <trkpt lat="43.98239" lon="5.41995">
        <ele>970.9</ele>
        <time>2019-10-27T11:28:35Z</time>
      </trkpt>
      <trkpt lat="43.98234" lon="5.41995">
        <ele>970.8</ele>
        <time>2019-10-27T11:28:36Z</time>
      </trkpt>
      <trkpt lat="43.9823" lon="5.41996">
        <ele>970.6</ele>
        <time>2019-10-27T11:28:37Z</time>
      </trkpt>
      <trkpt lat="43.98225" lon="5.41996">
        <ele>969.9</ele>
        <time>2019-10-27T11:28:38Z</time>
      </trkpt>
      <trkpt lat="43.98221" lon="5.41999">
        <ele>969.5</ele>
        <time>2019-10-27T11:28:39Z</time>
      </trkpt>
      <trkpt lat="43.98219" lon="5.42001">
        <ele>969.3</ele>
        <time>2019-10-27T11:28:40Z</time>
      </trkpt>
      <trkpt lat="43.98215" lon="5.42002">
        <ele>969</ele>
        <time>2019-10-27T11:28:41Z</time>
      </trkpt>
      <trkpt lat="43.98211" lon="5.41997">
        <ele>968.2</ele>
        <time>2019-10-27T11:28:43Z</time>
      </trkpt>
      <trkpt lat="43.9821" lon="5.41992">
        <ele>967.8</ele>
        <time>2019-10-27T11:28:44Z</time>
      </trkpt>
      <trkpt lat="43.9821" lon="5.41987">
        <ele>967.3</ele>
        <time>2019-10-27T11:28:45Z</time>
      </trkpt>
      <trkpt lat="43.98203" lon="5.41984">
        <ele>966.3</ele>
        <time>2019-10-27T11:28:46Z</time>
      </trkpt>
      <trkpt lat="43.982" lon="5.41985">
        <ele>965.7</ele>
        <time>2019-10-27T11:28:47Z</time>
      </trkpt>
      <trkpt lat="43.98196" lon="5.41986">
        <ele>964.9</ele>
        <time>2019-10-27T11:28:48Z</time>
      </trkpt>
      <trkpt lat="43.9819" lon="5.41982">
        <ele>963.9</ele>
        <time>2019-10-27T11:28:49Z</time>
      </trkpt>
      <trkpt lat="43.98185" lon="5.41977">
        <ele>963</ele>
        <time>2019-10-27T11:28:51Z</time>
      </trkpt>
      <trkpt lat="43.98183" lon="5.41973">
        <ele>962.4</ele>
        <time>2019-10-27T11:28:52Z</time>
      </trkpt>
      <trkpt lat="43.9818" lon="5.41964">
        <ele>961.5</ele>
        <time>2019-10-27T11:28:53Z</time>
      </trkpt>
      <trkpt lat="43.98178" lon="5.41953">
        <ele>960.6</ele>
        <time>2019-10-27T11:28:54Z</time>
      </trkpt>
      <trkpt lat="43.98175" lon="5.41945">
        <ele>959.9</ele>
        <time>2019-10-27T11:28:55Z</time>
      </trkpt>
      <trkpt lat="43.9817" lon="5.41938">
        <ele>959.1</ele>
        <time>2019-10-27T11:28:56Z</time>
      </trkpt>
      <trkpt lat="43.98166" lon="5.41932">
        <ele>958.5</ele>
        <time>2019-10-27T11:28:57Z</time>
      </trkpt>
      <trkpt lat="43.98163" lon="5.41927">
        <ele>958.1</ele>
        <time>2019-10-27T11:28:58Z</time>
      </trkpt>
      <trkpt lat="43.9816" lon="5.41923">
        <ele>957.8</ele>
        <time>2019-10-27T11:28:59Z</time>
      </trkpt>
      <trkpt lat="43.98156" lon="5.41915">
        <ele>956.9</ele>
        <time>2019-10-27T11:29:00Z</time>
      </trkpt>
      <trkpt lat="43.98154" lon="5.41906">
        <ele>955.6</ele>
        <time>2019-10-27T11:29:01Z</time>
      </trkpt>
      <trkpt lat="43.98151" lon="5.41895">
        <ele>953.6</ele>
        <time>2019-10-27T11:29:02Z</time>
      </trkpt>
      <trkpt lat="43.9815" lon="5.4189">
        <ele>952.6</ele>
        <time>2019-10-27T11:29:03Z</time>
      </trkpt>
      <trkpt lat="43.9815" lon="5.41882">
        <ele>951.1</ele>
        <time>2019-10-27T11:29:05Z</time>
      </trkpt>
      <trkpt lat="43.98152" lon="5.41876">
        <ele>949.8</ele>
        <time>2019-10-27T11:29:06Z</time>
      </trkpt>
      <trkpt lat="43.98153" lon="5.41872">
        <ele>948.8</ele>
        <time>2019-10-27T11:29:07Z</time>
      </trkpt>
      <trkpt lat="43.98152" lon="5.41867">
        <ele>947.5</ele>
        <time>2019-10-27T11:29:08Z</time>
      </trkpt>
      <trkpt lat="43.98152" lon="5.41861">
        <ele>946</ele>
        <time>2019-10-27T11:29:09Z</time>
      </trkpt>
      <trkpt lat="43.98153" lon="5.41855">
        <ele>944.6</ele>
        <time>2019-10-27T11:29:10Z</time>
      </trkpt>
      <trkpt lat="43.98154" lon="5.4185">
        <ele>943.2</ele>
        <time>2019-10-27T11:29:11Z</time>
      </trkpt>
      <trkpt lat="43.98155" lon="5.41845">
        <ele>942</ele>
        <time>2019-10-27T11:29:12Z</time>
      </trkpt>
      <trkpt lat="43.98155" lon="5.41839">
        <ele>940.9</ele>
        <time>2019-10-27T11:29:14Z</time>
      </trkpt>
      <trkpt lat="43.98151" lon="5.41832">
        <ele>938.7</ele>
        <time>2019-10-27T11:29:16Z</time>
      </trkpt>
      <trkpt lat="43.98148" lon="5.41827">
        <ele>936.9</ele>
        <time>2019-10-27T11:29:17Z</time>
      </trkpt>
      <trkpt lat="43.98144" lon="5.41825">
        <ele>935.5</ele>
        <time>2019-10-27T11:29:18Z</time>
      </trkpt>
      <trkpt lat="43.98142" lon="5.41824">
        <ele>934.6</ele>
        <time>2019-10-27T11:29:19Z</time>
      </trkpt>
      <trkpt lat="43.98137" lon="5.41821">
        <ele>933</ele>
        <time>2019-10-27T11:29:21Z</time>
      </trkpt>
      <trkpt lat="43.98134" lon="5.41818">
        <ele>932.9</ele>
        <time>2019-10-27T11:29:23Z</time>
      </trkpt>
      <trkpt lat="43.98132" lon="5.41815">
        <ele>932.1</ele>
        <time>2019-10-27T11:29:25Z</time>
      </trkpt>
      <trkpt lat="43.98129" lon="5.41813">
        <ele>931.2</ele>
        <time>2019-10-27T11:29:28Z</time>
      </trkpt>
      <trkpt lat="43.98126" lon="5.41813">
        <ele>929.9</ele>
        <time>2019-10-27T11:29:31Z</time>
      </trkpt>
      <trkpt lat="43.98123" lon="5.41813">
        <ele>928.9</ele>
        <time>2019-10-27T11:29:36Z</time>
      </trkpt>
      <trkpt lat="43.98118" lon="5.41799">
        <ele>927.1</ele>
        <time>2019-10-27T11:30:28Z</time>
      </trkpt>
      <trkpt lat="43.98115" lon="5.418">
        <ele>926.4</ele>
        <time>2019-10-27T11:30:30Z</time>
      </trkpt>
      <trkpt lat="43.98112" lon="5.41804">
        <ele>925.7</ele>
        <time>2019-10-27T11:30:31Z</time>
      </trkpt>
      <trkpt lat="43.98108" lon="5.41806">
        <ele>925.2</ele>
        <time>2019-10-27T11:30:32Z</time>
      </trkpt>
      <trkpt lat="43.98105" lon="5.41805">
        <ele>924.8</ele>
        <time>2019-10-27T11:30:33Z</time>
      </trkpt>
      <trkpt lat="43.98101" lon="5.41807">
        <ele>924.5</ele>
        <time>2019-10-27T11:30:34Z</time>
      </trkpt>
      <trkpt lat="43.98099" lon="5.41809">
        <ele>923.9</ele>
        <time>2019-10-27T11:30:35Z</time>
      </trkpt>
      <trkpt lat="43.98094" lon="5.4181">
        <ele>923</ele>
        <time>2019-10-27T11:30:36Z</time>
      </trkpt>
      <trkpt lat="43.9809" lon="5.41809">
        <ele>922</ele>
        <time>2019-10-27T11:30:37Z</time>
      </trkpt>
      <trkpt lat="43.98087" lon="5.4181">
        <ele>921.3</ele>
        <time>2019-10-27T11:30:38Z</time>
      </trkpt>
      <trkpt lat="43.98083" lon="5.41807">
        <ele>919.6</ele>
        <time>2019-10-27T11:30:40Z</time>
      </trkpt>
      <trkpt lat="43.98081" lon="5.41803">
        <ele>918.2</ele>
        <time>2019-10-27T11:30:42Z</time>
      </trkpt>
      <trkpt lat="43.98079" lon="5.41799">
        <ele>917.4</ele>
        <time>2019-10-27T11:30:43Z</time>
      </trkpt>
      <trkpt lat="43.98076" lon="5.41799">
        <ele>916.4</ele>
        <time>2019-10-27T11:30:44Z</time>
      </trkpt>
      <trkpt lat="43.98072" lon="5.418">
        <ele>915.4</ele>
        <time>2019-10-27T11:30:45Z</time>
      </trkpt>
      <trkpt lat="43.98067" lon="5.41801">
        <ele>913.9</ele>
        <time>2019-10-27T11:30:46Z</time>
      </trkpt>
      <trkpt lat="43.98065" lon="5.418">
        <ele>912.9</ele>
        <time>2019-10-27T11:30:47Z</time>
      </trkpt>
      <trkpt lat="43.98062" lon="5.41795">
        <ele>911.3</ele>
        <time>2019-10-27T11:30:48Z</time>
      </trkpt>
      <trkpt lat="43.98059" lon="5.41788">
        <ele>909</ele>
        <time>2019-10-27T11:30:50Z</time>
      </trkpt>
      <trkpt lat="43.98055" lon="5.41786">
        <ele>907.3</ele>
        <time>2019-10-27T11:30:52Z</time>
      </trkpt>
      <trkpt lat="43.98051" lon="5.41786">
        <ele>906</ele>
        <time>2019-10-27T11:30:53Z</time>
      </trkpt>
      <trkpt lat="43.98045" lon="5.41786">
        <ele>904.3</ele>
        <time>2019-10-27T11:30:54Z</time>
      </trkpt>
      <trkpt lat="43.98039" lon="5.41783">
        <ele>902.4</ele>
        <time>2019-10-27T11:30:55Z</time>
      </trkpt>
      <trkpt lat="43.98036" lon="5.4178">
        <ele>901.4</ele>
        <time>2019-10-27T11:30:56Z</time>
      </trkpt>
      <trkpt lat="43.98034" lon="5.41775">
        <ele>900.1</ele>
        <time>2019-10-27T11:30:57Z</time>
      </trkpt>
      <trkpt lat="43.98033" lon="5.41771">
        <ele>898.8</ele>
        <time>2019-10-27T11:30:58Z</time>
      </trkpt>
      <trkpt lat="43.98028" lon="5.41767">
        <ele>896.6</ele>
        <time>2019-10-27T11:30:59Z</time>
      </trkpt>
      <trkpt lat="43.98021" lon="5.41766">
        <ele>893.8</ele>
        <time>2019-10-27T11:31:00Z</time>
      </trkpt>
      <trkpt lat="43.98016" lon="5.41765">
        <ele>892.4</ele>
        <time>2019-10-27T11:31:01Z</time>
      </trkpt>
      <trkpt lat="43.98011" lon="5.41763">
        <ele>891.2</ele>
        <time>2019-10-27T11:31:02Z</time>
      </trkpt>
      <trkpt lat="43.98008" lon="5.41757">
        <ele>889</ele>
        <time>2019-10-27T11:31:03Z</time>
      </trkpt>
      <trkpt lat="43.98003" lon="5.41752">
        <ele>886.1</ele>
        <time>2019-10-27T11:31:04Z</time>
      </trkpt>
      <trkpt lat="43.97996" lon="5.4175">
        <ele>883.5</ele>
        <time>2019-10-27T11:31:05Z</time>
      </trkpt>
      <trkpt lat="43.97989" lon="5.41747">
        <ele>881.8</ele>
        <time>2019-10-27T11:31:06Z</time>
      </trkpt>
      <trkpt lat="43.97984" lon="5.41744">
        <ele>880</ele>
        <time>2019-10-27T11:31:07Z</time>
      </trkpt>
      <trkpt lat="43.9798" lon="5.41741">
        <ele>878.6</ele>
        <time>2019-10-27T11:31:08Z</time>
      </trkpt>
      <trkpt lat="43.97977" lon="5.41734">
        <ele>876.4</ele>
        <time>2019-10-27T11:31:10Z</time>
      </trkpt>
      <trkpt lat="43.97974" lon="5.41729">
        <ele>874.4</ele>
        <time>2019-10-27T11:31:11Z</time>
      </trkpt>
      <trkpt lat="43.97973" lon="5.41726">
        <ele>872.9</ele>
        <time>2019-10-27T11:31:12Z</time>
      </trkpt>
      <trkpt lat="43.97975" lon="5.41719">
        <ele>871.1</ele>
        <time>2019-10-27T11:31:14Z</time>
      </trkpt>
      <trkpt lat="43.97979" lon="5.41715">
        <ele>871.4</ele>
        <time>2019-10-27T11:31:15Z</time>
      </trkpt>
      <trkpt lat="43.97983" lon="5.41712">
        <ele>871.4</ele>
        <time>2019-10-27T11:31:16Z</time>
      </trkpt>
      <trkpt lat="43.97988" lon="5.4171">
        <ele>871.3</ele>
        <time>2019-10-27T11:31:17Z</time>
      </trkpt>
      <trkpt lat="43.97993" lon="5.41709">
        <ele>871.4</ele>
        <time>2019-10-27T11:31:18Z</time>
      </trkpt>
      <trkpt lat="43.97996" lon="5.41708">
        <ele>872</ele>
        <time>2019-10-27T11:31:19Z</time>
      </trkpt>
      <trkpt lat="43.98" lon="5.41707">
        <ele>872.6</ele>
        <time>2019-10-27T11:31:20Z</time>
      </trkpt>
      <trkpt lat="43.98004" lon="5.41707">
        <ele>873.1</ele>
        <time>2019-10-27T11:31:21Z</time>
      </trkpt>
      <trkpt lat="43.98008" lon="5.41704">
        <ele>873.6</ele>
        <time>2019-10-27T11:31:22Z</time>
      </trkpt>
      <trkpt lat="43.98011" lon="5.41702">
        <ele>873.8</ele>
        <time>2019-10-27T11:31:23Z</time>
      </trkpt>
      <trkpt lat="43.98013" lon="5.41698">
        <ele>873.9</ele>
        <time>2019-10-27T11:31:25Z</time>
      </trkpt>
      <trkpt lat="43.98016" lon="5.41696">
        <ele>873.8</ele>
        <time>2019-10-27T11:31:27Z</time>
      </trkpt>
      <trkpt lat="43.98019" lon="5.41691">
        <ele>873.2</ele>
        <time>2019-10-27T11:31:28Z</time>
      </trkpt>
      <trkpt lat="43.98022" lon="5.41685">
        <ele>872.9</ele>
        <time>2019-10-27T11:31:29Z</time>
      </trkpt>
      <trkpt lat="43.98024" lon="5.41681">
        <ele>873</ele>
        <time>2019-10-27T11:31:30Z</time>
      </trkpt>
      <trkpt lat="43.98029" lon="5.41677">
        <ele>872.8</ele>
        <time>2019-10-27T11:31:31Z</time>
      </trkpt>
      <trkpt lat="43.98031" lon="5.41672">
        <ele>872.3</ele>
        <time>2019-10-27T11:31:32Z</time>
      </trkpt>
      <trkpt lat="43.98033" lon="5.41666">
        <ele>871.9</ele>
        <time>2019-10-27T11:31:33Z</time>
      </trkpt>
      <trkpt lat="43.98036" lon="5.41664">
        <ele>871.5</ele>
        <time>2019-10-27T11:31:34Z</time>
      </trkpt>
      <trkpt lat="43.9804" lon="5.41662">
        <ele>871.1</ele>
        <time>2019-10-27T11:31:35Z</time>
      </trkpt>
      <trkpt lat="43.98043" lon="5.41657">
        <ele>870.9</ele>
        <time>2019-10-27T11:31:36Z</time>
      </trkpt>
      <trkpt lat="43.98045" lon="5.41648">
        <ele>869.1</ele>
        <time>2019-10-27T11:31:38Z</time>
      </trkpt>
      <trkpt lat="43.98044" lon="5.41642">
        <ele>867.2</ele>
        <time>2019-10-27T11:31:39Z</time>
      </trkpt>
      <trkpt lat="43.98044" lon="5.41638">
        <ele>865.8</ele>
        <time>2019-10-27T11:31:40Z</time>
      </trkpt>
      <trkpt lat="43.9804" lon="5.41637">
        <ele>863.3</ele>
        <time>2019-10-27T11:31:42Z</time>
      </trkpt>
      <trkpt lat="43.98036" lon="5.41637">
        <ele>861.3</ele>
        <time>2019-10-27T11:31:44Z</time>
      </trkpt>
      <trkpt lat="43.98034" lon="5.41635">
        <ele>860.3</ele>
        <time>2019-10-27T11:31:45Z</time>
      </trkpt>
      <trkpt lat="43.98029" lon="5.4163">
        <ele>858.9</ele>
        <time>2019-10-27T11:31:46Z</time>
      </trkpt>
      <trkpt lat="43.98024" lon="5.41626">
        <ele>855.7</ele>
        <time>2019-10-27T11:31:47Z</time>
      </trkpt>
      <trkpt lat="43.98021" lon="5.41624">
        <ele>854.1</ele>
        <time>2019-10-27T11:31:48Z</time>
      </trkpt>
      <trkpt lat="43.98017" lon="5.41622">
        <ele>852.6</ele>
        <time>2019-10-27T11:31:49Z</time>
      </trkpt>
      <trkpt lat="43.98015" lon="5.41619">
        <ele>851.4</ele>
        <time>2019-10-27T11:31:50Z</time>
      </trkpt>
      <trkpt lat="43.98017" lon="5.41616">
        <ele>850.2</ele>
        <time>2019-10-27T11:31:52Z</time>
      </trkpt>
      <trkpt lat="43.98019" lon="5.41613">
        <ele>848.8</ele>
        <time>2019-10-27T11:31:53Z</time>
      </trkpt>
      <trkpt lat="43.98021" lon="5.41608">
        <ele>847.4</ele>
        <time>2019-10-27T11:31:54Z</time>
      </trkpt>
      <trkpt lat="43.98019" lon="5.41604">
        <ele>846.7</ele>
        <time>2019-10-27T11:31:56Z</time>
      </trkpt>
      <trkpt lat="43.98016" lon="5.41603">
        <ele>845.8</ele>
        <time>2019-10-27T11:31:57Z</time>
      </trkpt>
      <trkpt lat="43.98013" lon="5.416">
        <ele>844.6</ele>
        <time>2019-10-27T11:31:58Z</time>
      </trkpt>
      <trkpt lat="43.98011" lon="5.41596">
        <ele>843.5</ele>
        <time>2019-10-27T11:31:59Z</time>
      </trkpt>
      <trkpt lat="43.9801" lon="5.41592">
        <ele>842.3</ele>
        <time>2019-10-27T11:32:00Z</time>
      </trkpt>
      <trkpt lat="43.98009" lon="5.41587">
        <ele>841.2</ele>
        <time>2019-10-27T11:32:01Z</time>
      </trkpt>
      <trkpt lat="43.9801" lon="5.4158">
        <ele>839.8</ele>
        <time>2019-10-27T11:32:02Z</time>
      </trkpt>
      <trkpt lat="43.98011" lon="5.41576">
        <ele>838.9</ele>
        <time>2019-10-27T11:32:03Z</time>
      </trkpt>
      <trkpt lat="43.98012" lon="5.4157">
        <ele>838</ele>
        <time>2019-10-27T11:32:04Z</time>
      </trkpt>
      <trkpt lat="43.98011" lon="5.41566">
        <ele>837.2</ele>
        <time>2019-10-27T11:32:05Z</time>
      </trkpt>
      <trkpt lat="43.98011" lon="5.41561">
        <ele>836.3</ele>
        <time>2019-10-27T11:32:06Z</time>
      </trkpt>
      <trkpt lat="43.98011" lon="5.41557">
        <ele>835.6</ele>
        <time>2019-10-27T11:32:07Z</time>
      </trkpt>
      <trkpt lat="43.98004" lon="5.41545">
        <ele>832.3</ele>
        <time>2019-10-27T11:32:25Z</time>
      </trkpt>
      <trkpt lat="43.98004" lon="5.41542">
        <ele>831.5</ele>
        <time>2019-10-27T11:32:26Z</time>
      </trkpt>
      <trkpt lat="43.98004" lon="5.41534">
        <ele>830.1</ele>
        <time>2019-10-27T11:32:27Z</time>
      </trkpt>
      <trkpt lat="43.98004" lon="5.41528">
        <ele>829.1</ele>
        <time>2019-10-27T11:32:28Z</time>
      </trkpt>
      <trkpt lat="43.98003" lon="5.41522">
        <ele>827.7</ele>
        <time>2019-10-27T11:32:30Z</time>
      </trkpt>
      <trkpt lat="43.98" lon="5.41517">
        <ele>826.9</ele>
        <time>2019-10-27T11:32:32Z</time>
      </trkpt>
      <trkpt lat="43.97997" lon="5.41513">
        <ele>826.1</ele>
        <time>2019-10-27T11:32:34Z</time>
      </trkpt>
      <trkpt lat="43.97992" lon="5.41511">
        <ele>824.8</ele>
        <time>2019-10-27T11:32:36Z</time>
      </trkpt>
      <trkpt lat="43.97989" lon="5.41509">
        <ele>823.9</ele>
        <time>2019-10-27T11:32:37Z</time>
      </trkpt>
      <trkpt lat="43.97984" lon="5.41508">
        <ele>822.5</ele>
        <time>2019-10-27T11:32:38Z</time>
      </trkpt>
      <trkpt lat="43.97977" lon="5.41507">
        <ele>822.3</ele>
        <time>2019-10-27T11:32:39Z</time>
      </trkpt>
      <trkpt lat="43.97974" lon="5.41506">
        <ele>822.1</ele>
        <time>2019-10-27T11:32:40Z</time>
      </trkpt>
      <trkpt lat="43.97977" lon="5.41507">
        <ele>822</ele>
        <time>2019-10-27T11:32:44Z</time>
      </trkpt>
      <trkpt lat="43.97979" lon="5.41511">
        <ele>821.9</ele>
        <time>2019-10-27T11:32:56Z</time>
      </trkpt>
      <trkpt lat="43.97978" lon="5.41508">
        <ele>821.8</ele>
        <time>2019-10-27T11:34:01Z</time>
      </trkpt>
      <trkpt lat="43.97976" lon="5.41502">
        <ele>821.7</ele>
        <time>2019-10-27T11:34:03Z</time>
      </trkpt>
      <trkpt lat="43.97974" lon="5.41497">
        <ele>821.5</ele>
        <time>2019-10-27T11:34:05Z</time>
      </trkpt>
      <trkpt lat="43.97972" lon="5.41493">
        <ele>821.3</ele>
        <time>2019-10-27T11:34:06Z</time>
      </trkpt>
      <trkpt lat="43.9797" lon="5.41489">
        <ele>821.1</ele>
        <time>2019-10-27T11:34:07Z</time>
      </trkpt>
      <trkpt lat="43.97967" lon="5.41485">
        <ele>820.9</ele>
        <time>2019-10-27T11:34:08Z</time>
      </trkpt>
      <trkpt lat="43.97964" lon="5.4148">
        <ele>820.7</ele>
        <time>2019-10-27T11:34:09Z</time>
      </trkpt>
      <trkpt lat="43.97962" lon="5.41474">
        <ele>820.4</ele>
        <time>2019-10-27T11:34:10Z</time>
      </trkpt>
      <trkpt lat="43.97961" lon="5.41467">
        <ele>820.1</ele>
        <time>2019-10-27T11:34:11Z</time>
      </trkpt>
      <trkpt lat="43.97959" lon="5.4146">
        <ele>819.7</ele>
        <time>2019-10-27T11:34:12Z</time>
      </trkpt>
      <trkpt lat="43.97958" lon="5.41453">
        <ele>819.4</ele>
        <time>2019-10-27T11:34:13Z</time>
      </trkpt>
      <trkpt lat="43.97956" lon="5.41445">
        <ele>818.7</ele>
        <time>2019-10-27T11:34:14Z</time>
      </trkpt>
      <trkpt lat="43.97955" lon="5.41436">
        <ele>817.8</ele>
        <time>2019-10-27T11:34:15Z</time>
      </trkpt>
      <trkpt lat="43.97956" lon="5.41427">
        <ele>816.7</ele>
        <time>2019-10-27T11:34:16Z</time>
      </trkpt>
      <trkpt lat="43.97956" lon="5.41416">
        <ele>815.1</ele>
        <time>2019-10-27T11:34:17Z</time>
      </trkpt>
      <trkpt lat="43.97957" lon="5.41406">
        <ele>813.4</ele>
        <time>2019-10-27T11:34:18Z</time>
      </trkpt>
      <trkpt lat="43.9796" lon="5.414">
        <ele>812.1</ele>
        <time>2019-10-27T11:34:19Z</time>
      </trkpt>
      <trkpt lat="43.9796" lon="5.41396">
        <ele>811.3</ele>
        <time>2019-10-27T11:34:20Z</time>
      </trkpt>
      <trkpt lat="43.97955" lon="5.4139">
        <ele>809.6</ele>
        <time>2019-10-27T11:34:22Z</time>
      </trkpt>
      <trkpt lat="43.97952" lon="5.41387">
        <ele>808.4</ele>
        <time>2019-10-27T11:34:24Z</time>
      </trkpt>
      <trkpt lat="43.97948" lon="5.41388">
        <ele>807.5</ele>
        <time>2019-10-27T11:34:26Z</time>
      </trkpt>
      <trkpt lat="43.97947" lon="5.41393">
        <ele>806.3</ele>
        <time>2019-10-27T11:34:29Z</time>
      </trkpt>
      <trkpt lat="43.97945" lon="5.41397">
        <ele>805.1</ele>
        <time>2019-10-27T11:34:31Z</time>
      </trkpt>
      <trkpt lat="43.97942" lon="5.41403">
        <ele>804</ele>
        <time>2019-10-27T11:34:33Z</time>
      </trkpt>
      <trkpt lat="43.97941" lon="5.41406">
        <ele>803.5</ele>
        <time>2019-10-27T11:34:34Z</time>
      </trkpt>
      <trkpt lat="43.97939" lon="5.4141">
        <ele>802.9</ele>
        <time>2019-10-27T11:34:35Z</time>
      </trkpt>
      <trkpt lat="43.97937" lon="5.41413">
        <ele>802.2</ele>
        <time>2019-10-27T11:34:36Z</time>
      </trkpt>
      <trkpt lat="43.97936" lon="5.41417">
        <ele>801.5</ele>
        <time>2019-10-27T11:34:37Z</time>
      </trkpt>
      <trkpt lat="43.97934" lon="5.41422">
        <ele>800.8</ele>
        <time>2019-10-27T11:34:38Z</time>
      </trkpt>
      <trkpt lat="43.97932" lon="5.41426">
        <ele>800</ele>
        <time>2019-10-27T11:34:39Z</time>
      </trkpt>
      <trkpt lat="43.97929" lon="5.4143">
        <ele>799.2</ele>
        <time>2019-10-27T11:34:40Z</time>
      </trkpt>
      <trkpt lat="43.97927" lon="5.41433">
        <ele>798.5</ele>
        <time>2019-10-27T11:34:41Z</time>
      </trkpt>
      <trkpt lat="43.97925" lon="5.41436">
        <ele>797.8</ele>
        <time>2019-10-27T11:34:42Z</time>
      </trkpt>
      <trkpt lat="43.97922" lon="5.41439">
        <ele>797.2</ele>
        <time>2019-10-27T11:34:43Z</time>
      </trkpt>
      <trkpt lat="43.9792" lon="5.41442">
        <ele>796.6</ele>
        <time>2019-10-27T11:34:44Z</time>
      </trkpt>
      <trkpt lat="43.97917" lon="5.41445">
        <ele>796.3</ele>
        <time>2019-10-27T11:34:50Z</time>
      </trkpt>
      <trkpt lat="43.97913" lon="5.41447">
        <ele>795.7</ele>
        <time>2019-10-27T11:34:54Z</time>
      </trkpt>
      <trkpt lat="43.9791" lon="5.4145">
        <ele>795.2</ele>
        <time>2019-10-27T11:34:55Z</time>
      </trkpt>
      <trkpt lat="43.97906" lon="5.41452">
        <ele>794.6</ele>
        <time>2019-10-27T11:34:56Z</time>
      </trkpt>
      <trkpt lat="43.97902" lon="5.41454">
        <ele>794.1</ele>
        <time>2019-10-27T11:34:57Z</time>
      </trkpt>
      <trkpt lat="43.97897" lon="5.41457">
        <ele>793.6</ele>
        <time>2019-10-27T11:34:58Z</time>
      </trkpt>
      <trkpt lat="43.97894" lon="5.4146">
        <ele>793.2</ele>
        <time>2019-10-27T11:34:59Z</time>
      </trkpt>
      <trkpt lat="43.97891" lon="5.41462">
        <ele>792.9</ele>
        <time>2019-10-27T11:35:00Z</time>
      </trkpt>
      <trkpt lat="43.97888" lon="5.41465">
        <ele>792.5</ele>
        <time>2019-10-27T11:35:01Z</time>
      </trkpt>
      <trkpt lat="43.97884" lon="5.4147">
        <ele>791.6</ele>
        <time>2019-10-27T11:35:02Z</time>
      </trkpt>
      <trkpt lat="43.9788" lon="5.41476">
        <ele>790.5</ele>
        <time>2019-10-27T11:35:03Z</time>
      </trkpt>
      <trkpt lat="43.97876" lon="5.4148">
        <ele>789.6</ele>
        <time>2019-10-27T11:35:04Z</time>
      </trkpt>
      <trkpt lat="43.97872" lon="5.41483">
        <ele>788.7</ele>
        <time>2019-10-27T11:35:05Z</time>
      </trkpt>
      <trkpt lat="43.97867" lon="5.41486">
        <ele>787.6</ele>
        <time>2019-10-27T11:35:06Z</time>
      </trkpt>
      <trkpt lat="43.97862" lon="5.4149">
        <ele>786.6</ele>
        <time>2019-10-27T11:35:07Z</time>
      </trkpt>
      <trkpt lat="43.97856" lon="5.41496">
        <ele>785.3</ele>
        <time>2019-10-27T11:35:08Z</time>
      </trkpt>
      <trkpt lat="43.97852" lon="5.41499">
        <ele>784.5</ele>
        <time>2019-10-27T11:35:09Z</time>
      </trkpt>
      <trkpt lat="43.97848" lon="5.41502">
        <ele>783.7</ele>
        <time>2019-10-27T11:35:10Z</time>
      </trkpt>
      <trkpt lat="43.97844" lon="5.41504">
        <ele>782.9</ele>
        <time>2019-10-27T11:35:11Z</time>
      </trkpt>
      <trkpt lat="43.97841" lon="5.41504">
        <ele>782.4</ele>
        <time>2019-10-27T11:35:13Z</time>
      </trkpt>
      <trkpt lat="43.97837" lon="5.41512">
        <ele>781</ele>
        <time>2019-10-27T11:35:15Z</time>
      </trkpt>
      <trkpt lat="43.97835" lon="5.41516">
        <ele>780.3</ele>
        <time>2019-10-27T11:35:16Z</time>
      </trkpt>
      <trkpt lat="43.97832" lon="5.41518">
        <ele>779.7</ele>
        <time>2019-10-27T11:35:17Z</time>
      </trkpt>
      <trkpt lat="43.97828" lon="5.41522">
        <ele>778.7</ele>
        <time>2019-10-27T11:35:18Z</time>
      </trkpt>
      <trkpt lat="43.97825" lon="5.41525">
        <ele>778.1</ele>
        <time>2019-10-27T11:35:19Z</time>
      </trkpt>
      <trkpt lat="43.97824" lon="5.41529">
        <ele>777.4</ele>
        <time>2019-10-27T11:35:20Z</time>
      </trkpt>
      <trkpt lat="43.97821" lon="5.41533">
        <ele>776.5</ele>
        <time>2019-10-27T11:35:23Z</time>
      </trkpt>
      <trkpt lat="43.9782" lon="5.41536">
        <ele>776</ele>
        <time>2019-10-27T11:35:28Z</time>
      </trkpt>
      <trkpt lat="43.97819" lon="5.41541">
        <ele>775.5</ele>
        <time>2019-10-27T11:35:30Z</time>
      </trkpt>
      <trkpt lat="43.97816" lon="5.41541">
        <ele>775</ele>
        <time>2019-10-27T11:35:32Z</time>
      </trkpt>
      <trkpt lat="43.97813" lon="5.41539">
        <ele>774.6</ele>
        <time>2019-10-27T11:35:33Z</time>
      </trkpt>
      <trkpt lat="43.97809" lon="5.41542">
        <ele>773.8</ele>
        <time>2019-10-27T11:35:35Z</time>
      </trkpt>
      <trkpt lat="43.97806" lon="5.41544">
        <ele>773.2</ele>
        <time>2019-10-27T11:35:36Z</time>
      </trkpt>
      <trkpt lat="43.97801" lon="5.41547">
        <ele>772.5</ele>
        <time>2019-10-27T11:35:37Z</time>
      </trkpt>
      <trkpt lat="43.97797" lon="5.41548">
        <ele>772</ele>
        <time>2019-10-27T11:35:38Z</time>
      </trkpt>
      <trkpt lat="43.97791" lon="5.41556">
        <ele>770.6</ele>
        <time>2019-10-27T11:35:40Z</time>
      </trkpt>
      <trkpt lat="43.97788" lon="5.41559">
        <ele>770</ele>
        <time>2019-10-27T11:35:41Z</time>
      </trkpt>
      <trkpt lat="43.97784" lon="5.41562">
        <ele>769.2</ele>
        <time>2019-10-27T11:35:42Z</time>
      </trkpt>
      <trkpt lat="43.9778" lon="5.41563">
        <ele>768.7</ele>
        <time>2019-10-27T11:35:43Z</time>
      </trkpt>
      <trkpt lat="43.97776" lon="5.41563">
        <ele>768.1</ele>
        <time>2019-10-27T11:35:44Z</time>
      </trkpt>
      <trkpt lat="43.97773" lon="5.41562">
        <ele>767.6</ele>
        <time>2019-10-27T11:35:45Z</time>
      </trkpt>
      <trkpt lat="43.97768" lon="5.4156">
        <ele>767.1</ele>
        <time>2019-10-27T11:35:46Z</time>
      </trkpt>
      <trkpt lat="43.97765" lon="5.4156">
        <ele>766.6</ele>
        <time>2019-10-27T11:35:47Z</time>
      </trkpt>
      <trkpt lat="43.97761" lon="5.41561">
        <ele>766</ele>
        <time>2019-10-27T11:35:48Z</time>
      </trkpt>
      <trkpt lat="43.97756" lon="5.4156">
        <ele>765.3</ele>
        <time>2019-10-27T11:35:49Z</time>
      </trkpt>
      <trkpt lat="43.97752" lon="5.4156">
        <ele>764.6</ele>
        <time>2019-10-27T11:35:50Z</time>
      </trkpt>
      <trkpt lat="43.97748" lon="5.41561">
        <ele>763.9</ele>
        <time>2019-10-27T11:35:51Z</time>
      </trkpt>
      <trkpt lat="43.97744" lon="5.41563">
        <ele>763.2</ele>
        <time>2019-10-27T11:35:52Z</time>
      </trkpt>
      <trkpt lat="43.9774" lon="5.41565">
        <ele>762.6</ele>
        <time>2019-10-27T11:35:53Z</time>
      </trkpt>
      <trkpt lat="43.97735" lon="5.41568">
        <ele>761.9</ele>
        <time>2019-10-27T11:35:55Z</time>
      </trkpt>
      <trkpt lat="43.97733" lon="5.4157">
        <ele>761.6</ele>
        <time>2019-10-27T11:35:56Z</time>
      </trkpt>
      <trkpt lat="43.9773" lon="5.41574">
        <ele>761.2</ele>
        <time>2019-10-27T11:35:57Z</time>
      </trkpt>
      <trkpt lat="43.97728" lon="5.41578">
        <ele>760.8</ele>
        <time>2019-10-27T11:35:58Z</time>
      </trkpt>
      <trkpt lat="43.97723" lon="5.41583">
        <ele>760</ele>
        <time>2019-10-27T11:35:59Z</time>
      </trkpt>
      <trkpt lat="43.97712" lon="5.41587">
        <ele>758.5</ele>
        <time>2019-10-27T11:36:00Z</time>
      </trkpt>
      <trkpt lat="43.97707" lon="5.41589">
        <ele>757.8</ele>
        <time>2019-10-27T11:36:01Z</time>
      </trkpt>
      <trkpt lat="43.97703" lon="5.4159">
        <ele>757.4</ele>
        <time>2019-10-27T11:36:02Z</time>
      </trkpt>
      <trkpt lat="43.977" lon="5.41591">
        <ele>756.9</ele>
        <time>2019-10-27T11:36:03Z</time>
      </trkpt>
      <trkpt lat="43.97695" lon="5.41593">
        <ele>756.4</ele>
        <time>2019-10-27T11:36:04Z</time>
      </trkpt>
      <trkpt lat="43.97692" lon="5.41594">
        <ele>756</ele>
        <time>2019-10-27T11:36:05Z</time>
      </trkpt>
      <trkpt lat="43.97688" lon="5.41595">
        <ele>755.5</ele>
        <time>2019-10-27T11:36:06Z</time>
      </trkpt>
      <trkpt lat="43.97684" lon="5.41597">
        <ele>755</ele>
        <time>2019-10-27T11:36:07Z</time>
      </trkpt>
      <trkpt lat="43.97682" lon="5.41597">
        <ele>754.6</ele>
        <time>2019-10-27T11:36:08Z</time>
      </trkpt>
      <trkpt lat="43.97678" lon="5.41597">
        <ele>754</ele>
        <time>2019-10-27T11:36:09Z</time>
      </trkpt>
      <trkpt lat="43.97673" lon="5.41599">
        <ele>753.4</ele>
        <time>2019-10-27T11:36:10Z</time>
      </trkpt>
      <trkpt lat="43.97668" lon="5.416">
        <ele>752.7</ele>
        <time>2019-10-27T11:36:11Z</time>
      </trkpt>
      <trkpt lat="43.97662" lon="5.41601">
        <ele>752.3</ele>
        <time>2019-10-27T11:36:12Z</time>
      </trkpt>
      <trkpt lat="43.97658" lon="5.41601">
        <ele>752</ele>
        <time>2019-10-27T11:36:13Z</time>
      </trkpt>
      <trkpt lat="43.97656" lon="5.41602">
        <ele>751.8</ele>
        <time>2019-10-27T11:36:14Z</time>
      </trkpt>
      <trkpt lat="43.9765" lon="5.416">
        <ele>751.3</ele>
        <time>2019-10-27T11:36:15Z</time>
      </trkpt>
      <trkpt lat="43.97646" lon="5.41597">
        <ele>750.8</ele>
        <time>2019-10-27T11:36:16Z</time>
      </trkpt>
      <trkpt lat="43.9764" lon="5.41594">
        <ele>750.4</ele>
        <time>2019-10-27T11:36:17Z</time>
      </trkpt>
      <trkpt lat="43.97634" lon="5.41592">
        <ele>750</ele>
        <time>2019-10-27T11:36:18Z</time>
      </trkpt>
      <trkpt lat="43.97627" lon="5.41591">
        <ele>749.4</ele>
        <time>2019-10-27T11:36:19Z</time>
      </trkpt>
      <trkpt lat="43.97621" lon="5.41592">
        <ele>748.7</ele>
        <time>2019-10-27T11:36:20Z</time>
      </trkpt>
      <trkpt lat="43.97615" lon="5.41592">
        <ele>748</ele>
        <time>2019-10-27T11:36:21Z</time>
      </trkpt>
      <trkpt lat="43.97608" lon="5.41593">
        <ele>747.3</ele>
        <time>2019-10-27T11:36:22Z</time>
      </trkpt>
      <trkpt lat="43.97601" lon="5.41594">
        <ele>746.5</ele>
        <time>2019-10-27T11:36:23Z</time>
      </trkpt>
      <trkpt lat="43.97595" lon="5.41595">
        <ele>745.7</ele>
        <time>2019-10-27T11:36:24Z</time>
      </trkpt>
      <trkpt lat="43.97589" lon="5.41594">
        <ele>745</ele>
        <time>2019-10-27T11:36:25Z</time>
      </trkpt>
      <trkpt lat="43.97583" lon="5.41596">
        <ele>744.3</ele>
        <time>2019-10-27T11:36:26Z</time>
      </trkpt>
      <trkpt lat="43.97579" lon="5.41596">
        <ele>743.5</ele>
        <time>2019-10-27T11:36:27Z</time>
      </trkpt>
      <trkpt lat="43.97577" lon="5.41593">
        <ele>743</ele>
        <time>2019-10-27T11:36:28Z</time>
      </trkpt>
      <trkpt lat="43.97573" lon="5.41587">
        <ele>742.1</ele>
        <time>2019-10-27T11:36:30Z</time>
      </trkpt>
      <trkpt lat="43.97568" lon="5.41586">
        <ele>741.4</ele>
        <time>2019-10-27T11:36:31Z</time>
      </trkpt>
      <trkpt lat="43.97564" lon="5.41586">
        <ele>740.7</ele>
        <time>2019-10-27T11:36:32Z</time>
      </trkpt>
      <trkpt lat="43.97561" lon="5.41588">
        <ele>740.1</ele>
        <time>2019-10-27T11:36:33Z</time>
      </trkpt>
      <trkpt lat="43.97557" lon="5.41588">
        <ele>739.6</ele>
        <time>2019-10-27T11:36:34Z</time>
      </trkpt>
      <trkpt lat="43.97555" lon="5.41587">
        <ele>739.2</ele>
        <time>2019-10-27T11:36:35Z</time>
      </trkpt>
      <trkpt lat="43.97551" lon="5.41585">
        <ele>738.6</ele>
        <time>2019-10-27T11:36:36Z</time>
      </trkpt>
      <trkpt lat="43.97548" lon="5.41583">
        <ele>738.1</ele>
        <time>2019-10-27T11:36:37Z</time>
      </trkpt>
      <trkpt lat="43.97545" lon="5.41582">
        <ele>737.4</ele>
        <time>2019-10-27T11:36:38Z</time>
      </trkpt>
      <trkpt lat="43.97541" lon="5.41581">
        <ele>736.3</ele>
        <time>2019-10-27T11:36:39Z</time>
      </trkpt>
      <trkpt lat="43.97537" lon="5.4158">
        <ele>735.5</ele>
        <time>2019-10-27T11:36:40Z</time>
      </trkpt>
      <trkpt lat="43.97532" lon="5.4158">
        <ele>734.7</ele>
        <time>2019-10-27T11:36:41Z</time>
      </trkpt>
      <trkpt lat="43.97527" lon="5.41578">
        <ele>734</ele>
        <time>2019-10-27T11:36:42Z</time>
      </trkpt>
      <trkpt lat="43.97523" lon="5.41577">
        <ele>733.5</ele>
        <time>2019-10-27T11:36:43Z</time>
      </trkpt>
      <trkpt lat="43.9752" lon="5.41578">
        <ele>733.1</ele>
        <time>2019-10-27T11:36:44Z</time>
      </trkpt>
      <trkpt lat="43.97516" lon="5.41574">
        <ele>732.5</ele>
        <time>2019-10-27T11:36:45Z</time>
      </trkpt>
      <trkpt lat="43.97512" lon="5.41571">
        <ele>731.8</ele>
        <time>2019-10-27T11:36:46Z</time>
      </trkpt>
      <trkpt lat="43.97509" lon="5.4157">
        <ele>731.4</ele>
        <time>2019-10-27T11:36:47Z</time>
      </trkpt>
      <trkpt lat="43.97505" lon="5.41571">
        <ele>730.8</ele>
        <time>2019-10-27T11:36:48Z</time>
      </trkpt>
      <trkpt lat="43.97502" lon="5.41569">
        <ele>730.4</ele>
        <time>2019-10-27T11:36:49Z</time>
      </trkpt>
      <trkpt lat="43.97496" lon="5.41568">
        <ele>729.7</ele>
        <time>2019-10-27T11:36:50Z</time>
      </trkpt>
      <trkpt lat="43.9749" lon="5.41566">
        <ele>728.9</ele>
        <time>2019-10-27T11:36:51Z</time>
      </trkpt>
      <trkpt lat="43.97484" lon="5.41564">
        <ele>728.3</ele>
        <time>2019-10-27T11:36:52Z</time>
      </trkpt>
      <trkpt lat="43.97479" lon="5.41564">
        <ele>727.8</ele>
        <time>2019-10-27T11:36:53Z</time>
      </trkpt>
      <trkpt lat="43.97474" lon="5.41566">
        <ele>727.2</ele>
        <time>2019-10-27T11:36:54Z</time>
      </trkpt>
      <trkpt lat="43.97472" lon="5.41568">
        <ele>726.9</ele>
        <time>2019-10-27T11:36:55Z</time>
      </trkpt>
      <trkpt lat="43.97466" lon="5.41566">
        <ele>726.1</ele>
        <time>2019-10-27T11:36:57Z</time>
      </trkpt>
      <trkpt lat="43.97461" lon="5.41565">
        <ele>725.6</ele>
        <time>2019-10-27T11:36:58Z</time>
      </trkpt>
      <trkpt lat="43.97457" lon="5.41564">
        <ele>725</ele>
        <time>2019-10-27T11:36:59Z</time>
      </trkpt>
      <trkpt lat="43.97453" lon="5.41561">
        <ele>724.5</ele>
        <time>2019-10-27T11:37:00Z</time>
      </trkpt>
      <trkpt lat="43.9745" lon="5.41556">
        <ele>724.1</ele>
        <time>2019-10-27T11:37:01Z</time>
      </trkpt>
      <trkpt lat="43.97446" lon="5.41552">
        <ele>723.6</ele>
        <time>2019-10-27T11:37:02Z</time>
      </trkpt>
      <trkpt lat="43.97441" lon="5.41549">
        <ele>723.1</ele>
        <time>2019-10-27T11:37:03Z</time>
      </trkpt>
      <trkpt lat="43.97435" lon="5.41549">
        <ele>722.7</ele>
        <time>2019-10-27T11:37:04Z</time>
      </trkpt>
      <trkpt lat="43.97429" lon="5.41552">
        <ele>722.2</ele>
        <time>2019-10-27T11:37:05Z</time>
      </trkpt>
      <trkpt lat="43.97422" lon="5.41556">
        <ele>721.7</ele>
        <time>2019-10-27T11:37:06Z</time>
      </trkpt>
      <trkpt lat="43.97416" lon="5.41557">
        <ele>721.2</ele>
        <time>2019-10-27T11:37:07Z</time>
      </trkpt>
      <trkpt lat="43.97411" lon="5.41557">
        <ele>720.6</ele>
        <time>2019-10-27T11:37:08Z</time>
      </trkpt>
      <trkpt lat="43.97407" lon="5.41555">
        <ele>720.1</ele>
        <time>2019-10-27T11:37:09Z</time>
      </trkpt>
      <trkpt lat="43.97402" lon="5.41553">
        <ele>719.4</ele>
        <time>2019-10-27T11:37:10Z</time>
      </trkpt>
      <trkpt lat="43.97396" lon="5.4155">
        <ele>718.6</ele>
        <time>2019-10-27T11:37:11Z</time>
      </trkpt>
      <trkpt lat="43.9739" lon="5.41547">
        <ele>718</ele>
        <time>2019-10-27T11:37:12Z</time>
      </trkpt>
      <trkpt lat="43.97384" lon="5.41545">
        <ele>717.4</ele>
        <time>2019-10-27T11:37:13Z</time>
      </trkpt>
      <trkpt lat="43.97379" lon="5.41539">
        <ele>716.9</ele>
        <time>2019-10-27T11:37:14Z</time>
      </trkpt>
      <trkpt lat="43.97375" lon="5.41535">
        <ele>716.3</ele>
        <time>2019-10-27T11:37:15Z</time>
      </trkpt>
      <trkpt lat="43.97372" lon="5.41534">
        <ele>716</ele>
        <time>2019-10-27T11:37:16Z</time>
      </trkpt>
      <trkpt lat="43.97368" lon="5.41531">
        <ele>715.5</ele>
        <time>2019-10-27T11:37:17Z</time>
      </trkpt>
      <trkpt lat="43.97363" lon="5.41528">
        <ele>714.7</ele>
        <time>2019-10-27T11:37:18Z</time>
      </trkpt>
      <trkpt lat="43.97359" lon="5.41526">
        <ele>713.8</ele>
        <time>2019-10-27T11:37:19Z</time>
      </trkpt>
      <trkpt lat="43.97355" lon="5.41525">
        <ele>712.9</ele>
        <time>2019-10-27T11:37:20Z</time>
      </trkpt>
      <trkpt lat="43.9735" lon="5.41525">
        <ele>712.1</ele>
        <time>2019-10-27T11:37:21Z</time>
      </trkpt>
      <trkpt lat="43.97345" lon="5.41525">
        <ele>711.1</ele>
        <time>2019-10-27T11:37:22Z</time>
      </trkpt>
      <trkpt lat="43.97341" lon="5.41524">
        <ele>710.1</ele>
        <time>2019-10-27T11:37:23Z</time>
      </trkpt>
      <trkpt lat="43.97336" lon="5.41522">
        <ele>708.6</ele>
        <time>2019-10-27T11:37:24Z</time>
      </trkpt>
      <trkpt lat="43.97331" lon="5.41518">
        <ele>707.2</ele>
        <time>2019-10-27T11:37:25Z</time>
      </trkpt>
      <trkpt lat="43.97326" lon="5.41516">
        <ele>706.1</ele>
        <time>2019-10-27T11:37:26Z</time>
      </trkpt>
      <trkpt lat="43.97323" lon="5.41515">
        <ele>705.5</ele>
        <time>2019-10-27T11:37:27Z</time>
      </trkpt>
      <trkpt lat="43.97317" lon="5.41514">
        <ele>704.6</ele>
        <time>2019-10-27T11:37:29Z</time>
      </trkpt>
      <trkpt lat="43.97313" lon="5.41513">
        <ele>704.1</ele>
        <time>2019-10-27T11:37:30Z</time>
      </trkpt>
      <trkpt lat="43.97307" lon="5.41512">
        <ele>703.5</ele>
        <time>2019-10-27T11:37:31Z</time>
      </trkpt>
      <trkpt lat="43.97302" lon="5.41511">
        <ele>702.9</ele>
        <time>2019-10-27T11:37:32Z</time>
      </trkpt>
      <trkpt lat="43.97299" lon="5.41511">
        <ele>702.6</ele>
        <time>2019-10-27T11:37:33Z</time>
      </trkpt>
      <trkpt lat="43.97296" lon="5.41512">
        <ele>702.3</ele>
        <time>2019-10-27T11:37:34Z</time>
      </trkpt>
      <trkpt lat="43.97289" lon="5.41511">
        <ele>701.6</ele>
        <time>2019-10-27T11:37:36Z</time>
      </trkpt>
      <trkpt lat="43.97283" lon="5.41509">
        <ele>701</ele>
        <time>2019-10-27T11:37:37Z</time>
      </trkpt>
      <trkpt lat="43.97277" lon="5.41506">
        <ele>700.4</ele>
        <time>2019-10-27T11:37:38Z</time>
      </trkpt>
      <trkpt lat="43.97273" lon="5.41502">
        <ele>700</ele>
        <time>2019-10-27T11:37:39Z</time>
      </trkpt>
      <trkpt lat="43.97267" lon="5.41498">
        <ele>699.5</ele>
        <time>2019-10-27T11:37:40Z</time>
      </trkpt>
      <trkpt lat="43.97261" lon="5.41497">
        <ele>699</ele>
        <time>2019-10-27T11:37:41Z</time>
      </trkpt>
      <trkpt lat="43.97255" lon="5.41495">
        <ele>698.4</ele>
        <time>2019-10-27T11:37:42Z</time>
      </trkpt>
      <trkpt lat="43.97252" lon="5.41491">
        <ele>697.8</ele>
        <time>2019-10-27T11:37:43Z</time>
      </trkpt>
      <trkpt lat="43.97249" lon="5.41488">
        <ele>697.4</ele>
        <time>2019-10-27T11:37:44Z</time>
      </trkpt>
      <trkpt lat="43.97245" lon="5.41485">
        <ele>696.9</ele>
        <time>2019-10-27T11:37:45Z</time>
      </trkpt>
      <trkpt lat="43.97242" lon="5.41481">
        <ele>696.5</ele>
        <time>2019-10-27T11:37:46Z</time>
      </trkpt>
      <trkpt lat="43.97237" lon="5.41478">
        <ele>695.9</ele>
        <time>2019-10-27T11:37:47Z</time>
      </trkpt>
      <trkpt lat="43.97234" lon="5.41474">
        <ele>695.2</ele>
        <time>2019-10-27T11:37:48Z</time>
      </trkpt>
      <trkpt lat="43.97229" lon="5.4147">
        <ele>694.2</ele>
        <time>2019-10-27T11:37:49Z</time>
      </trkpt>
      <trkpt lat="43.97224" lon="5.41466">
        <ele>693.4</ele>
        <time>2019-10-27T11:37:50Z</time>
      </trkpt>
      <trkpt lat="43.97221" lon="5.41463">
        <ele>692.7</ele>
        <time>2019-10-27T11:37:51Z</time>
      </trkpt>
      <trkpt lat="43.97217" lon="5.41463">
        <ele>691.9</ele>
        <time>2019-10-27T11:37:52Z</time>
      </trkpt>
      <trkpt lat="43.97211" lon="5.41461">
        <ele>690.7</ele>
        <time>2019-10-27T11:37:53Z</time>
      </trkpt>
      <trkpt lat="43.97207" lon="5.41459">
        <ele>689.7</ele>
        <time>2019-10-27T11:37:54Z</time>
      </trkpt>
      <trkpt lat="43.97203" lon="5.41456">
        <ele>688.9</ele>
        <time>2019-10-27T11:37:55Z</time>
      </trkpt>
      <trkpt lat="43.97198" lon="5.41453">
        <ele>687.8</ele>
        <time>2019-10-27T11:37:56Z</time>
      </trkpt>
      <trkpt lat="43.97193" lon="5.41452">
        <ele>686.9</ele>
        <time>2019-10-27T11:37:57Z</time>
      </trkpt>
      <trkpt lat="43.97189" lon="5.41449">
        <ele>686.2</ele>
        <time>2019-10-27T11:37:58Z</time>
      </trkpt>
      <trkpt lat="43.97186" lon="5.41449">
        <ele>685.5</ele>
        <time>2019-10-27T11:38:00Z</time>
      </trkpt>
      <trkpt lat="43.9718" lon="5.41447">
        <ele>684.4</ele>
        <time>2019-10-27T11:38:02Z</time>
      </trkpt>
      <trkpt lat="43.97175" lon="5.41446">
        <ele>683.5</ele>
        <time>2019-10-27T11:38:03Z</time>
      </trkpt>
      <trkpt lat="43.97169" lon="5.41445">
        <ele>682.5</ele>
        <time>2019-10-27T11:38:04Z</time>
      </trkpt>
      <trkpt lat="43.97163" lon="5.41443">
        <ele>681.6</ele>
        <time>2019-10-27T11:38:05Z</time>
      </trkpt>
      <trkpt lat="43.97154" lon="5.41441">
        <ele>680.6</ele>
        <time>2019-10-27T11:38:06Z</time>
      </trkpt>
      <trkpt lat="43.97144" lon="5.4144">
        <ele>679.2</ele>
        <time>2019-10-27T11:38:07Z</time>
      </trkpt>
      <trkpt lat="43.97137" lon="5.41439">
        <ele>677.9</ele>
        <time>2019-10-27T11:38:08Z</time>
      </trkpt>
      <trkpt lat="43.97131" lon="5.41438">
        <ele>676.5</ele>
        <time>2019-10-27T11:38:09Z</time>
      </trkpt>
      <trkpt lat="43.97124" lon="5.41438">
        <ele>674.7</ele>
        <time>2019-10-27T11:38:10Z</time>
      </trkpt>
      <trkpt lat="43.97118" lon="5.41438">
        <ele>672.8</ele>
        <time>2019-10-27T11:38:11Z</time>
      </trkpt>
      <trkpt lat="43.97112" lon="5.41437">
        <ele>670.9</ele>
        <time>2019-10-27T11:38:12Z</time>
      </trkpt>
      <trkpt lat="43.97108" lon="5.41437">
        <ele>670</ele>
        <time>2019-10-27T11:38:13Z</time>
      </trkpt>
      <trkpt lat="43.97106" lon="5.41436">
        <ele>669.2</ele>
        <time>2019-10-27T11:38:18Z</time>
      </trkpt>
      <trkpt lat="43.97101" lon="5.41438">
        <ele>668.1</ele>
        <time>2019-10-27T11:38:21Z</time>
      </trkpt>
      <trkpt lat="43.97098" lon="5.41439">
        <ele>667.3</ele>
        <time>2019-10-27T11:38:22Z</time>
      </trkpt>
      <trkpt lat="43.97095" lon="5.41438">
        <ele>666.6</ele>
        <time>2019-10-27T11:38:23Z</time>
      </trkpt>
      <trkpt lat="43.97093" lon="5.41436">
        <ele>666.2</ele>
        <time>2019-10-27T11:38:24Z</time>
      </trkpt>
      <trkpt lat="43.97089" lon="5.41434">
        <ele>665.6</ele>
        <time>2019-10-27T11:38:25Z</time>
      </trkpt>
      <trkpt lat="43.97087" lon="5.41432">
        <ele>665.1</ele>
        <time>2019-10-27T11:38:26Z</time>
      </trkpt>
      <trkpt lat="43.97084" lon="5.41431">
        <ele>664.7</ele>
        <time>2019-10-27T11:38:27Z</time>
      </trkpt>
      <trkpt lat="43.97081" lon="5.41429">
        <ele>664.3</ele>
        <time>2019-10-27T11:38:28Z</time>
      </trkpt>
      <trkpt lat="43.97076" lon="5.41426">
        <ele>663.6</ele>
        <time>2019-10-27T11:38:29Z</time>
      </trkpt>
      <trkpt lat="43.97069" lon="5.41422">
        <ele>663.1</ele>
        <time>2019-10-27T11:38:30Z</time>
      </trkpt>
      <trkpt lat="43.97062" lon="5.41421">
        <ele>662.6</ele>
        <time>2019-10-27T11:38:31Z</time>
      </trkpt>
      <trkpt lat="43.97055" lon="5.41419">
        <ele>662.1</ele>
        <time>2019-10-27T11:38:32Z</time>
      </trkpt>
      <trkpt lat="43.97047" lon="5.41418">
        <ele>661.7</ele>
        <time>2019-10-27T11:38:33Z</time>
      </trkpt>
      <trkpt lat="43.97038" lon="5.41418">
        <ele>661.3</ele>
        <time>2019-10-27T11:38:34Z</time>
      </trkpt>
      <trkpt lat="43.97029" lon="5.41418">
        <ele>660.8</ele>
        <time>2019-10-27T11:38:35Z</time>
      </trkpt>
      <trkpt lat="43.97023" lon="5.41421">
        <ele>660.1</ele>
        <time>2019-10-27T11:38:36Z</time>
      </trkpt>
      <trkpt lat="43.97018" lon="5.41426">
        <ele>659.3</ele>
        <time>2019-10-27T11:38:37Z</time>
      </trkpt>
      <trkpt lat="43.97012" lon="5.4143">
        <ele>658.2</ele>
        <time>2019-10-27T11:38:38Z</time>
      </trkpt>
      <trkpt lat="43.97004" lon="5.4143">
        <ele>656.8</ele>
        <time>2019-10-27T11:38:39Z</time>
      </trkpt>
      <trkpt lat="43.96996" lon="5.41431">
        <ele>655.4</ele>
        <time>2019-10-27T11:38:40Z</time>
      </trkpt>
      <trkpt lat="43.96988" lon="5.41434">
        <ele>654.1</ele>
        <time>2019-10-27T11:38:41Z</time>
      </trkpt>
      <trkpt lat="43.9698" lon="5.41437">
        <ele>652.8</ele>
        <time>2019-10-27T11:38:42Z</time>
      </trkpt>
      <trkpt lat="43.96972" lon="5.41439">
        <ele>651.8</ele>
        <time>2019-10-27T11:38:43Z</time>
      </trkpt>
      <trkpt lat="43.96965" lon="5.41438">
        <ele>651.1</ele>
        <time>2019-10-27T11:38:44Z</time>
      </trkpt>
      <trkpt lat="43.9696" lon="5.41431">
        <ele>650.4</ele>
        <time>2019-10-27T11:38:45Z</time>
      </trkpt>
      <trkpt lat="43.96954" lon="5.41423">
        <ele>649.6</ele>
        <time>2019-10-27T11:38:46Z</time>
      </trkpt>
      <trkpt lat="43.96947" lon="5.41418">
        <ele>649</ele>
        <time>2019-10-27T11:38:47Z</time>
      </trkpt>
      <trkpt lat="43.9694" lon="5.41411">
        <ele>648.6</ele>
        <time>2019-10-27T11:38:48Z</time>
      </trkpt>
      <trkpt lat="43.96933" lon="5.41404">
        <ele>648.1</ele>
        <time>2019-10-27T11:38:49Z</time>
      </trkpt>
      <trkpt lat="43.96926" lon="5.41396">
        <ele>647.4</ele>
        <time>2019-10-27T11:38:50Z</time>
      </trkpt>
      <trkpt lat="43.96919" lon="5.41387">
        <ele>646.7</ele>
        <time>2019-10-27T11:38:51Z</time>
      </trkpt>
      <trkpt lat="43.96912" lon="5.41378">
        <ele>645.6</ele>
        <time>2019-10-27T11:38:52Z</time>
      </trkpt>
      <trkpt lat="43.96903" lon="5.41371">
        <ele>644.1</ele>
        <time>2019-10-27T11:38:53Z</time>
      </trkpt>
      <trkpt lat="43.96894" lon="5.41366">
        <ele>642.3</ele>
        <time>2019-10-27T11:38:54Z</time>
      </trkpt>
      <trkpt lat="43.96886" lon="5.41363">
        <ele>640.5</ele>
        <time>2019-10-27T11:38:55Z</time>
      </trkpt>
      <trkpt lat="43.96879" lon="5.41359">
        <ele>639.2</ele>
        <time>2019-10-27T11:38:56Z</time>
      </trkpt>
      <trkpt lat="43.96873" lon="5.41355">
        <ele>638.3</ele>
        <time>2019-10-27T11:38:57Z</time>
      </trkpt>
      <trkpt lat="43.96868" lon="5.41351">
        <ele>637.3</ele>
        <time>2019-10-27T11:38:58Z</time>
      </trkpt>
      <trkpt lat="43.96861" lon="5.41349">
        <ele>636.4</ele>
        <time>2019-10-27T11:38:59Z</time>
      </trkpt>
      <trkpt lat="43.96857" lon="5.41348">
        <ele>635.9</ele>
        <time>2019-10-27T11:39:00Z</time>
      </trkpt>
      <trkpt lat="43.9685" lon="5.41347">
        <ele>635.5</ele>
        <time>2019-10-27T11:39:01Z</time>
      </trkpt>
      <trkpt lat="43.96843" lon="5.41346">
        <ele>635.1</ele>
        <time>2019-10-27T11:39:02Z</time>
      </trkpt>
      <trkpt lat="43.96833" lon="5.41346">
        <ele>634.6</ele>
        <time>2019-10-27T11:39:03Z</time>
      </trkpt>
      <trkpt lat="43.96823" lon="5.41346">
        <ele>634</ele>
        <time>2019-10-27T11:39:04Z</time>
      </trkpt>
      <trkpt lat="43.96814" lon="5.41346">
        <ele>633.5</ele>
        <time>2019-10-27T11:39:05Z</time>
      </trkpt>
      <trkpt lat="43.96804" lon="5.41346">
        <ele>633.1</ele>
        <time>2019-10-27T11:39:06Z</time>
      </trkpt>
      <trkpt lat="43.96794" lon="5.41344">
        <ele>632.6</ele>
        <time>2019-10-27T11:39:07Z</time>
      </trkpt>
      <trkpt lat="43.96786" lon="5.41341">
        <ele>632.1</ele>
        <time>2019-10-27T11:39:08Z</time>
      </trkpt>
      <trkpt lat="43.96781" lon="5.41338">
        <ele>631.2</ele>
        <time>2019-10-27T11:39:09Z</time>
      </trkpt>
      <trkpt lat="43.96778" lon="5.41336">
        <ele>630.4</ele>
        <time>2019-10-27T11:39:10Z</time>
      </trkpt>
      <trkpt lat="43.96773" lon="5.41335">
        <ele>629.1</ele>
        <time>2019-10-27T11:39:12Z</time>
      </trkpt>
      <trkpt lat="43.96768" lon="5.41333">
        <ele>627.7</ele>
        <time>2019-10-27T11:39:13Z</time>
      </trkpt>
      <trkpt lat="43.96761" lon="5.41332">
        <ele>625.5</ele>
        <time>2019-10-27T11:39:14Z</time>
      </trkpt>
      <trkpt lat="43.96754" lon="5.41332">
        <ele>623.1</ele>
        <time>2019-10-27T11:39:15Z</time>
      </trkpt>
      <trkpt lat="43.96747" lon="5.41332">
        <ele>620.5</ele>
        <time>2019-10-27T11:39:16Z</time>
      </trkpt>
      <trkpt lat="43.9674" lon="5.41332">
        <ele>618.1</ele>
        <time>2019-10-27T11:39:17Z</time>
      </trkpt>
      <trkpt lat="43.96734" lon="5.41328">
        <ele>615.6</ele>
        <time>2019-10-27T11:39:18Z</time>
      </trkpt>
      <trkpt lat="43.96729" lon="5.41323">
        <ele>613.1</ele>
        <time>2019-10-27T11:39:19Z</time>
      </trkpt>
      <trkpt lat="43.96722" lon="5.41322">
        <ele>610.6</ele>
        <time>2019-10-27T11:39:20Z</time>
      </trkpt>
      <trkpt lat="43.96718" lon="5.4132">
        <ele>608.8</ele>
        <time>2019-10-27T11:39:21Z</time>
      </trkpt>
      <trkpt lat="43.96715" lon="5.41318">
        <ele>607.7</ele>
        <time>2019-10-27T11:39:22Z</time>
      </trkpt>
      <trkpt lat="43.9671" lon="5.41314">
        <ele>605.8</ele>
        <time>2019-10-27T11:39:24Z</time>
      </trkpt>
      <trkpt lat="43.96705" lon="5.41311">
        <ele>604.5</ele>
        <time>2019-10-27T11:39:25Z</time>
      </trkpt>
      <trkpt lat="43.96701" lon="5.41309">
        <ele>603.2</ele>
        <time>2019-10-27T11:39:26Z</time>
      </trkpt>
      <trkpt lat="43.96697" lon="5.41306">
        <ele>602.2</ele>
        <time>2019-10-27T11:39:27Z</time>
      </trkpt>
      <trkpt lat="43.96693" lon="5.41303">
        <ele>601.2</ele>
        <time>2019-10-27T11:39:28Z</time>
      </trkpt>
      <trkpt lat="43.96688" lon="5.41298">
        <ele>600.2</ele>
        <time>2019-10-27T11:39:29Z</time>
      </trkpt>
      <trkpt lat="43.96683" lon="5.41294">
        <ele>599.5</ele>
        <time>2019-10-27T11:39:30Z</time>
      </trkpt>
      <trkpt lat="43.96679" lon="5.41289">
        <ele>598.9</ele>
        <time>2019-10-27T11:39:31Z</time>
      </trkpt>
      <trkpt lat="43.96673" lon="5.41286">
        <ele>598.3</ele>
        <time>2019-10-27T11:39:32Z</time>
      </trkpt>
      <trkpt lat="43.96667" lon="5.41283">
        <ele>597.7</ele>
        <time>2019-10-27T11:39:33Z</time>
      </trkpt>
      <trkpt lat="43.96664" lon="5.41278">
        <ele>597.4</ele>
        <time>2019-10-27T11:39:34Z</time>
      </trkpt>
      <trkpt lat="43.9666" lon="5.41272">
        <ele>597</ele>
        <time>2019-10-27T11:39:35Z</time>
      </trkpt>
      <trkpt lat="43.96656" lon="5.41266">
        <ele>596.7</ele>
        <time>2019-10-27T11:39:36Z</time>
      </trkpt>
      <trkpt lat="43.9665" lon="5.41261">
        <ele>596.1</ele>
        <time>2019-10-27T11:39:37Z</time>
      </trkpt>
      <trkpt lat="43.96644" lon="5.41257">
        <ele>595.8</ele>
        <time>2019-10-27T11:39:38Z</time>
      </trkpt>
      <trkpt lat="43.96639" lon="5.41253">
        <ele>595.5</ele>
        <time>2019-10-27T11:39:39Z</time>
      </trkpt>
      <trkpt lat="43.96637" lon="5.4125">
        <ele>595.3</ele>
        <time>2019-10-27T11:39:40Z</time>
      </trkpt>
      <trkpt lat="43.96633" lon="5.41252">
        <ele>595.1</ele>
        <time>2019-10-27T11:45:43Z</time>
      </trkpt>
      <trkpt lat="43.96636" lon="5.4125">
        <ele>595</ele>
        <time>2019-10-27T11:45:48Z</time>
      </trkpt>
      <trkpt lat="43.96635" lon="5.41247">
        <ele>594.9</ele>
        <time>2019-10-27T11:45:55Z</time>
      </trkpt>
      <trkpt lat="43.96634" lon="5.4124">
        <ele>593.8</ele>
        <time>2019-10-27T11:45:57Z</time>
      </trkpt>
      <trkpt lat="43.96631" lon="5.41237">
        <ele>593.4</ele>
        <time>2019-10-27T11:45:59Z</time>
      </trkpt>
      <trkpt lat="43.96628" lon="5.41233">
        <ele>592.9</ele>
        <time>2019-10-27T11:46:02Z</time>
      </trkpt>
      <trkpt lat="43.96627" lon="5.4123">
        <ele>592.5</ele>
        <time>2019-10-27T11:46:04Z</time>
      </trkpt>
      <trkpt lat="43.96625" lon="5.41226">
        <ele>592</ele>
        <time>2019-10-27T11:46:06Z</time>
      </trkpt>
      <trkpt lat="43.96623" lon="5.41221">
        <ele>591.5</ele>
        <time>2019-10-27T11:46:08Z</time>
      </trkpt>
      <trkpt lat="43.96621" lon="5.41216">
        <ele>591.2</ele>
        <time>2019-10-27T11:46:10Z</time>
      </trkpt>
      <trkpt lat="43.96618" lon="5.41212">
        <ele>590.8</ele>
        <time>2019-10-27T11:46:12Z</time>
      </trkpt>
      <trkpt lat="43.96615" lon="5.4121">
        <ele>590.6</ele>
        <time>2019-10-27T11:46:13Z</time>
      </trkpt>
      <trkpt lat="43.96611" lon="5.41207">
        <ele>590.1</ele>
        <time>2019-10-27T11:46:15Z</time>
      </trkpt>
      <trkpt lat="43.96605" lon="5.41204">
        <ele>589.7</ele>
        <time>2019-10-27T11:46:17Z</time>
      </trkpt>
      <trkpt lat="43.96601" lon="5.41203">
        <ele>589.6</ele>
        <time>2019-10-27T11:46:18Z</time>
      </trkpt>
      <trkpt lat="43.96598" lon="5.41201">
        <ele>589.6</ele>
        <time>2019-10-27T11:46:19Z</time>
      </trkpt>
      <trkpt lat="43.96594" lon="5.412">
        <ele>589.6</ele>
        <time>2019-10-27T11:46:21Z</time>
      </trkpt>
      <trkpt lat="43.9659" lon="5.41196">
        <ele>589.7</ele>
        <time>2019-10-27T11:46:23Z</time>
      </trkpt>
      <trkpt lat="43.96587" lon="5.41193">
        <ele>589.7</ele>
        <time>2019-10-27T11:46:25Z</time>
      </trkpt>
      <trkpt lat="43.96584" lon="5.41193">
        <ele>590</ele>
        <time>2019-10-27T11:46:27Z</time>
      </trkpt>
      <trkpt lat="43.9658" lon="5.4119">
        <ele>590.4</ele>
        <time>2019-10-27T11:46:29Z</time>
      </trkpt>
      <trkpt lat="43.96577" lon="5.41186">
        <ele>590.9</ele>
        <time>2019-10-27T11:46:31Z</time>
      </trkpt>
      <trkpt lat="43.96572" lon="5.41183">
        <ele>591.5</ele>
        <time>2019-10-27T11:46:33Z</time>
      </trkpt>
      <trkpt lat="43.96569" lon="5.4118">
        <ele>592.1</ele>
        <time>2019-10-27T11:46:35Z</time>
      </trkpt>
      <trkpt lat="43.96566" lon="5.41178">
        <ele>592.5</ele>
        <time>2019-10-27T11:46:37Z</time>
      </trkpt>
      <trkpt lat="43.96563" lon="5.41179">
        <ele>592.9</ele>
        <time>2019-10-27T11:46:38Z</time>
      </trkpt>
      <trkpt lat="43.96556" lon="5.4118">
        <ele>593.9</ele>
        <time>2019-10-27T11:46:40Z</time>
      </trkpt>
      <trkpt lat="43.96551" lon="5.41181">
        <ele>594.8</ele>
        <time>2019-10-27T11:46:41Z</time>
      </trkpt>
      <trkpt lat="43.96544" lon="5.41182">
        <ele>596.3</ele>
        <time>2019-10-27T11:46:42Z</time>
      </trkpt>
      <trkpt lat="43.96539" lon="5.41184">
        <ele>597.7</ele>
        <time>2019-10-27T11:46:43Z</time>
      </trkpt>
      <trkpt lat="43.96534" lon="5.41184">
        <ele>598.5</ele>
        <time>2019-10-27T11:46:44Z</time>
      </trkpt>
      <trkpt lat="43.96529" lon="5.41184">
        <ele>599.5</ele>
        <time>2019-10-27T11:46:45Z</time>
      </trkpt>
      <trkpt lat="43.96524" lon="5.41184">
        <ele>600.1</ele>
        <time>2019-10-27T11:46:46Z</time>
      </trkpt>
      <trkpt lat="43.9652" lon="5.41183">
        <ele>600.5</ele>
        <time>2019-10-27T11:46:47Z</time>
      </trkpt>
      <trkpt lat="43.96516" lon="5.41183">
        <ele>600.9</ele>
        <time>2019-10-27T11:46:48Z</time>
      </trkpt>
      <trkpt lat="43.96512" lon="5.41181">
        <ele>601.2</ele>
        <time>2019-10-27T11:46:50Z</time>
      </trkpt>
      <trkpt lat="43.96508" lon="5.41176">
        <ele>601.4</ele>
        <time>2019-10-27T11:46:52Z</time>
      </trkpt>
      <trkpt lat="43.96507" lon="5.41172">
        <ele>601.4</ele>
        <time>2019-10-27T11:46:53Z</time>
      </trkpt>
      <trkpt lat="43.96504" lon="5.4117">
        <ele>601.5</ele>
        <time>2019-10-27T11:46:55Z</time>
      </trkpt>
      <trkpt lat="43.96501" lon="5.41166">
        <ele>601.5</ele>
        <time>2019-10-27T11:46:57Z</time>
      </trkpt>
      <trkpt lat="43.96498" lon="5.41164">
        <ele>601.5</ele>
        <time>2019-10-27T11:46:59Z</time>
      </trkpt>
      <trkpt lat="43.96495" lon="5.41162">
        <ele>601.5</ele>
        <time>2019-10-27T11:47:01Z</time>
      </trkpt>
      <trkpt lat="43.96492" lon="5.41161">
        <ele>601.6</ele>
        <time>2019-10-27T11:47:03Z</time>
      </trkpt>
      <trkpt lat="43.96489" lon="5.41159">
        <ele>601.7</ele>
        <time>2019-10-27T11:47:05Z</time>
      </trkpt>
      <trkpt lat="43.96487" lon="5.41156">
        <ele>601.8</ele>
        <time>2019-10-27T11:47:07Z</time>
      </trkpt>
      <trkpt lat="43.96485" lon="5.41154">
        <ele>602</ele>
        <time>2019-10-27T11:47:09Z</time>
      </trkpt>
      <trkpt lat="43.96482" lon="5.41151">
        <ele>602.2</ele>
        <time>2019-10-27T11:47:12Z</time>
      </trkpt>
      <trkpt lat="43.96479" lon="5.41149">
        <ele>602.3</ele>
        <time>2019-10-27T11:47:14Z</time>
      </trkpt>
      <trkpt lat="43.96476" lon="5.41147">
        <ele>602.5</ele>
        <time>2019-10-27T11:47:16Z</time>
      </trkpt>
      <trkpt lat="43.96472" lon="5.41143">
        <ele>602.9</ele>
        <time>2019-10-27T11:47:18Z</time>
      </trkpt>
      <trkpt lat="43.96468" lon="5.4114">
        <ele>603.3</ele>
        <time>2019-10-27T11:47:20Z</time>
      </trkpt>
      <trkpt lat="43.96465" lon="5.41137">
        <ele>603.7</ele>
        <time>2019-10-27T11:47:22Z</time>
      </trkpt>
      <trkpt lat="43.96461" lon="5.41135">
        <ele>604.1</ele>
        <time>2019-10-27T11:47:24Z</time>
      </trkpt>
      <trkpt lat="43.96457" lon="5.41132">
        <ele>604.7</ele>
        <time>2019-10-27T11:47:26Z</time>
      </trkpt>
      <trkpt lat="43.96452" lon="5.41128">
        <ele>605.4</ele>
        <time>2019-10-27T11:47:28Z</time>
      </trkpt>
      <trkpt lat="43.96448" lon="5.41125">
        <ele>606.2</ele>
        <time>2019-10-27T11:47:30Z</time>
      </trkpt>
      <trkpt lat="43.96444" lon="5.41123">
        <ele>607.1</ele>
        <time>2019-10-27T11:47:32Z</time>
      </trkpt>
      <trkpt lat="43.9644" lon="5.41122">
        <ele>607.9</ele>
        <time>2019-10-27T11:47:34Z</time>
      </trkpt>
      <trkpt lat="43.96436" lon="5.41119">
        <ele>608.7</ele>
        <time>2019-10-27T11:47:36Z</time>
      </trkpt>
      <trkpt lat="43.96432" lon="5.41117">
        <ele>609.3</ele>
        <time>2019-10-27T11:47:38Z</time>
      </trkpt>
      <trkpt lat="43.96428" lon="5.41114">
        <ele>609.7</ele>
        <time>2019-10-27T11:47:40Z</time>
      </trkpt>
      <trkpt lat="43.96425" lon="5.41111">
        <ele>610</ele>
        <time>2019-10-27T11:47:42Z</time>
      </trkpt>
      <trkpt lat="43.96422" lon="5.41109">
        <ele>610.3</ele>
        <time>2019-10-27T11:47:44Z</time>
      </trkpt>
      <trkpt lat="43.9642" lon="5.41106">
        <ele>610.6</ele>
        <time>2019-10-27T11:47:46Z</time>
      </trkpt>
      <trkpt lat="43.96417" lon="5.41104">
        <ele>610.8</ele>
        <time>2019-10-27T11:47:48Z</time>
      </trkpt>
      <trkpt lat="43.96415" lon="5.411">
        <ele>611.1</ele>
        <time>2019-10-27T11:47:51Z</time>
      </trkpt>
      <trkpt lat="43.96413" lon="5.41097">
        <ele>611.3</ele>
        <time>2019-10-27T11:47:53Z</time>
      </trkpt>
      <trkpt lat="43.9641" lon="5.41093">
        <ele>611.5</ele>
        <time>2019-10-27T11:47:55Z</time>
      </trkpt>
      <trkpt lat="43.96408" lon="5.41092">
        <ele>611.7</ele>
        <time>2019-10-27T11:47:59Z</time>
      </trkpt>
      <trkpt lat="43.96404" lon="5.4109">
        <ele>611.9</ele>
        <time>2019-10-27T11:48:02Z</time>
      </trkpt>
      <trkpt lat="43.96401" lon="5.41088">
        <ele>612</ele>
        <time>2019-10-27T11:48:04Z</time>
      </trkpt>
      <trkpt lat="43.96399" lon="5.41086">
        <ele>612.1</ele>
        <time>2019-10-27T11:48:06Z</time>
      </trkpt>
      <trkpt lat="43.96396" lon="5.41084">
        <ele>612.2</ele>
        <time>2019-10-27T11:48:09Z</time>
      </trkpt>
      <trkpt lat="43.96393" lon="5.41082">
        <ele>612.3</ele>
        <time>2019-10-27T11:48:12Z</time>
      </trkpt>
      <trkpt lat="43.9639" lon="5.4108">
        <ele>612.4</ele>
        <time>2019-10-27T11:48:15Z</time>
      </trkpt>
      <trkpt lat="43.96387" lon="5.41078">
        <ele>612.4</ele>
        <time>2019-10-27T11:48:18Z</time>
      </trkpt>
      <trkpt lat="43.96384" lon="5.41077">
        <ele>612.5</ele>
        <time>2019-10-27T11:48:32Z</time>
      </trkpt>
      <trkpt lat="43.96381" lon="5.41076">
        <ele>612.5</ele>
        <time>2019-10-27T11:48:34Z</time>
      </trkpt>
      <trkpt lat="43.96377" lon="5.41076">
        <ele>612.6</ele>
        <time>2019-10-27T11:48:36Z</time>
      </trkpt>
      <trkpt lat="43.96373" lon="5.41075">
        <ele>612.6</ele>
        <time>2019-10-27T11:48:38Z</time>
      </trkpt>
      <trkpt lat="43.96368" lon="5.41075">
        <ele>612.6</ele>
        <time>2019-10-27T11:48:40Z</time>
      </trkpt>
      <trkpt lat="43.96364" lon="5.41075">
        <ele>612.6</ele>
        <time>2019-10-27T11:48:42Z</time>
      </trkpt>
      <trkpt lat="43.9636" lon="5.41076">
        <ele>612.6</ele>
        <time>2019-10-27T11:48:44Z</time>
      </trkpt>
      <trkpt lat="43.96356" lon="5.41077">
        <ele>612.6</ele>
        <time>2019-10-27T11:48:46Z</time>
      </trkpt>
      <trkpt lat="43.96353" lon="5.41078">
        <ele>612.5</ele>
        <time>2019-10-27T11:48:48Z</time>
      </trkpt>
      <trkpt lat="43.9635" lon="5.41076">
        <ele>612.5</ele>
        <time>2019-10-27T11:48:50Z</time>
      </trkpt>
      <trkpt lat="43.96348" lon="5.41072">
        <ele>612.4</ele>
        <time>2019-10-27T11:48:53Z</time>
      </trkpt>
      <trkpt lat="43.96345" lon="5.41067">
        <ele>612.3</ele>
        <time>2019-10-27T11:48:56Z</time>
      </trkpt>
      <trkpt lat="43.96342" lon="5.41064">
        <ele>612.2</ele>
        <time>2019-10-27T11:48:58Z</time>
      </trkpt>
      <trkpt lat="43.96338" lon="5.41063">
        <ele>612</ele>
        <time>2019-10-27T11:49:00Z</time>
      </trkpt>
      <trkpt lat="43.96336" lon="5.4106">
        <ele>611.9</ele>
        <time>2019-10-27T11:49:02Z</time>
      </trkpt>
      <trkpt lat="43.96334" lon="5.41056">
        <ele>611.8</ele>
        <time>2019-10-27T11:49:04Z</time>
      </trkpt>
      <trkpt lat="43.96333" lon="5.41052">
        <ele>611.7</ele>
        <time>2019-10-27T11:49:06Z</time>
      </trkpt>
      <trkpt lat="43.96332" lon="5.41048">
        <ele>611.6</ele>
        <time>2019-10-27T11:49:08Z</time>
      </trkpt>
      <trkpt lat="43.9633" lon="5.41044">
        <ele>611.5</ele>
        <time>2019-10-27T11:49:10Z</time>
      </trkpt>
      <trkpt lat="43.96328" lon="5.4104">
        <ele>611.4</ele>
        <time>2019-10-27T11:49:12Z</time>
      </trkpt>
      <trkpt lat="43.96327" lon="5.41036">
        <ele>611.3</ele>
        <time>2019-10-27T11:49:14Z</time>
      </trkpt>
      <trkpt lat="43.96326" lon="5.41033">
        <ele>611.3</ele>
        <time>2019-10-27T11:49:16Z</time>
      </trkpt>
      <trkpt lat="43.96325" lon="5.41029">
        <ele>611.2</ele>
        <time>2019-10-27T11:49:18Z</time>
      </trkpt>
      <trkpt lat="43.96324" lon="5.41026">
        <ele>611.1</ele>
        <time>2019-10-27T11:49:20Z</time>
      </trkpt>
      <trkpt lat="43.96322" lon="5.41021">
        <ele>611</ele>
        <time>2019-10-27T11:49:23Z</time>
      </trkpt>
      <trkpt lat="43.96321" lon="5.41016">
        <ele>611</ele>
        <time>2019-10-27T11:49:26Z</time>
      </trkpt>
      <trkpt lat="43.96319" lon="5.41012">
        <ele>610.9</ele>
        <time>2019-10-27T11:49:29Z</time>
      </trkpt>
      <trkpt lat="43.96317" lon="5.41007">
        <ele>610.8</ele>
        <time>2019-10-27T11:49:32Z</time>
      </trkpt>
      <trkpt lat="43.96316" lon="5.41003">
        <ele>610.7</ele>
        <time>2019-10-27T11:49:34Z</time>
      </trkpt>
      <trkpt lat="43.96314" lon="5.41">
        <ele>610.6</ele>
        <time>2019-10-27T11:49:36Z</time>
      </trkpt>
      <trkpt lat="43.96313" lon="5.40996">
        <ele>610.5</ele>
        <time>2019-10-27T11:49:38Z</time>
      </trkpt>
      <trkpt lat="43.96311" lon="5.40992">
        <ele>610.4</ele>
        <time>2019-10-27T11:49:41Z</time>
      </trkpt>
      <trkpt lat="43.96309" lon="5.40988">
        <ele>610.2</ele>
        <time>2019-10-27T11:49:43Z</time>
      </trkpt>
      <trkpt lat="43.96308" lon="5.40985">
        <ele>610.1</ele>
        <time>2019-10-27T11:49:45Z</time>
      </trkpt>
      <trkpt lat="43.96306" lon="5.40982">
        <ele>609.9</ele>
        <time>2019-10-27T11:49:47Z</time>
      </trkpt>
      <trkpt lat="43.96305" lon="5.40978">
        <ele>609.7</ele>
        <time>2019-10-27T11:49:49Z</time>
      </trkpt>
      <trkpt lat="43.96302" lon="5.40972">
        <ele>609.3</ele>
        <time>2019-10-27T11:49:52Z</time>
      </trkpt>
      <trkpt lat="43.96299" lon="5.40967">
        <ele>608.8</ele>
        <time>2019-10-27T11:49:54Z</time>
      </trkpt>
      <trkpt lat="43.96296" lon="5.40962">
        <ele>608.4</ele>
        <time>2019-10-27T11:49:56Z</time>
      </trkpt>
      <trkpt lat="43.96293" lon="5.40958">
        <ele>608.1</ele>
        <time>2019-10-27T11:49:58Z</time>
      </trkpt>
      <trkpt lat="43.96291" lon="5.40954">
        <ele>607.8</ele>
        <time>2019-10-27T11:50:00Z</time>
      </trkpt>
      <trkpt lat="43.96286" lon="5.40948">
        <ele>607.2</ele>
        <time>2019-10-27T11:51:26Z</time>
      </trkpt>
      <trkpt lat="43.96283" lon="5.40944">
        <ele>606.9</ele>
        <time>2019-10-27T11:51:28Z</time>
      </trkpt>
      <trkpt lat="43.9628" lon="5.40941">
        <ele>606.7</ele>
        <time>2019-10-27T11:51:30Z</time>
      </trkpt>
      <trkpt lat="43.96278" lon="5.40938">
        <ele>606.5</ele>
        <time>2019-10-27T11:51:32Z</time>
      </trkpt>
      <trkpt lat="43.96274" lon="5.40933">
        <ele>606.2</ele>
        <time>2019-10-27T11:51:34Z</time>
      </trkpt>
      <trkpt lat="43.96272" lon="5.4093">
        <ele>606</ele>
        <time>2019-10-27T11:51:35Z</time>
      </trkpt>
      <trkpt lat="43.9627" lon="5.40927">
        <ele>605.7</ele>
        <time>2019-10-27T11:51:36Z</time>
      </trkpt>
      <trkpt lat="43.96268" lon="5.40924">
        <ele>605.5</ele>
        <time>2019-10-27T11:51:37Z</time>
      </trkpt>
      <trkpt lat="43.96265" lon="5.40922">
        <ele>605.3</ele>
        <time>2019-10-27T11:51:38Z</time>
      </trkpt>
      <trkpt lat="43.96263" lon="5.4092">
        <ele>605</ele>
        <time>2019-10-27T11:51:39Z</time>
      </trkpt>
      <trkpt lat="43.9626" lon="5.40918">
        <ele>604.7</ele>
        <time>2019-10-27T11:51:40Z</time>
      </trkpt>
      <trkpt lat="43.96257" lon="5.40915">
        <ele>604.3</ele>
        <time>2019-10-27T11:51:41Z</time>
      </trkpt>
      <trkpt lat="43.96254" lon="5.40913">
        <ele>603.9</ele>
        <time>2019-10-27T11:51:42Z</time>
      </trkpt>
      <trkpt lat="43.9625" lon="5.40909">
        <ele>603.4</ele>
        <time>2019-10-27T11:51:43Z</time>
      </trkpt>
      <trkpt lat="43.96247" lon="5.40905">
        <ele>602.9</ele>
        <time>2019-10-27T11:51:44Z</time>
      </trkpt>
      <trkpt lat="43.96244" lon="5.40902">
        <ele>602.4</ele>
        <time>2019-10-27T11:51:45Z</time>
      </trkpt>
      <trkpt lat="43.96242" lon="5.40899">
        <ele>602.1</ele>
        <time>2019-10-27T11:51:46Z</time>
      </trkpt>
      <trkpt lat="43.96238" lon="5.40897">
        <ele>601.7</ele>
        <time>2019-10-27T11:51:47Z</time>
      </trkpt>
      <trkpt lat="43.96235" lon="5.40894">
        <ele>601.3</ele>
        <time>2019-10-27T11:51:48Z</time>
      </trkpt>
      <trkpt lat="43.96232" lon="5.40892">
        <ele>601</ele>
        <time>2019-10-27T11:51:49Z</time>
      </trkpt>
      <trkpt lat="43.96228" lon="5.40888">
        <ele>600.6</ele>
        <time>2019-10-27T11:51:50Z</time>
      </trkpt>
      <trkpt lat="43.96224" lon="5.40884">
        <ele>600.2</ele>
        <time>2019-10-27T11:51:51Z</time>
      </trkpt>
      <trkpt lat="43.96219" lon="5.40879">
        <ele>599.8</ele>
        <time>2019-10-27T11:51:52Z</time>
      </trkpt>
      <trkpt lat="43.96214" lon="5.40875">
        <ele>599.5</ele>
        <time>2019-10-27T11:51:53Z</time>
      </trkpt>
      <trkpt lat="43.96209" lon="5.4087">
        <ele>599.2</ele>
        <time>2019-10-27T11:51:54Z</time>
      </trkpt>
      <trkpt lat="43.96204" lon="5.40864">
        <ele>599</ele>
        <time>2019-10-27T11:51:55Z</time>
      </trkpt>
      <trkpt lat="43.96199" lon="5.40857">
        <ele>598.8</ele>
        <time>2019-10-27T11:51:56Z</time>
      </trkpt>
      <trkpt lat="43.96194" lon="5.40851">
        <ele>598.7</ele>
        <time>2019-10-27T11:51:57Z</time>
      </trkpt>
      <trkpt lat="43.96188" lon="5.40847">
        <ele>598.6</ele>
        <time>2019-10-27T11:51:58Z</time>
      </trkpt>
      <trkpt lat="43.96185" lon="5.40841">
        <ele>598.5</ele>
        <time>2019-10-27T11:51:59Z</time>
      </trkpt>
      <trkpt lat="43.96182" lon="5.40835">
        <ele>598.4</ele>
        <time>2019-10-27T11:52:00Z</time>
      </trkpt>
      <trkpt lat="43.96179" lon="5.40829">
        <ele>598.3</ele>
        <time>2019-10-27T11:52:01Z</time>
      </trkpt>
      <trkpt lat="43.96174" lon="5.40824">
        <ele>598.2</ele>
        <time>2019-10-27T11:52:02Z</time>
      </trkpt>
      <trkpt lat="43.96169" lon="5.40818">
        <ele>598.1</ele>
        <time>2019-10-27T11:52:03Z</time>
      </trkpt>
      <trkpt lat="43.96166" lon="5.40812">
        <ele>598</ele>
        <time>2019-10-27T11:52:04Z</time>
      </trkpt>
      <trkpt lat="43.96162" lon="5.40806">
        <ele>597.9</ele>
        <time>2019-10-27T11:52:05Z</time>
      </trkpt>
      <trkpt lat="43.96157" lon="5.408">
        <ele>597.7</ele>
        <time>2019-10-27T11:52:06Z</time>
      </trkpt>
      <trkpt lat="43.96152" lon="5.40794">
        <ele>597.5</ele>
        <time>2019-10-27T11:52:07Z</time>
      </trkpt>
      <trkpt lat="43.96148" lon="5.40788">
        <ele>597.1</ele>
        <time>2019-10-27T11:52:08Z</time>
      </trkpt>
      <trkpt lat="43.96143" lon="5.40784">
        <ele>596.8</ele>
        <time>2019-10-27T11:52:09Z</time>
      </trkpt>
      <trkpt lat="43.96139" lon="5.40777">
        <ele>596.4</ele>
        <time>2019-10-27T11:52:10Z</time>
      </trkpt>
      <trkpt lat="43.96134" lon="5.40771">
        <ele>596.1</ele>
        <time>2019-10-27T11:52:11Z</time>
      </trkpt>
      <trkpt lat="43.96129" lon="5.40766">
        <ele>595.7</ele>
        <time>2019-10-27T11:52:12Z</time>
      </trkpt>
      <trkpt lat="43.96124" lon="5.4076">
        <ele>595.2</ele>
        <time>2019-10-27T11:52:13Z</time>
      </trkpt>
      <trkpt lat="43.96119" lon="5.40756">
        <ele>594.7</ele>
        <time>2019-10-27T11:52:14Z</time>
      </trkpt>
      <trkpt lat="43.96113" lon="5.40753">
        <ele>594.2</ele>
        <time>2019-10-27T11:52:15Z</time>
      </trkpt>
      <trkpt lat="43.96109" lon="5.4075">
        <ele>593.8</ele>
        <time>2019-10-27T11:52:16Z</time>
      </trkpt>
      <trkpt lat="43.96105" lon="5.40748">
        <ele>593.4</ele>
        <time>2019-10-27T11:52:17Z</time>
      </trkpt>
      <trkpt lat="43.96102" lon="5.40746">
        <ele>593.2</ele>
        <time>2019-10-27T11:52:18Z</time>
      </trkpt>
      <trkpt lat="43.96098" lon="5.40742">
        <ele>592.8</ele>
        <time>2019-10-27T11:52:20Z</time>
      </trkpt>
      <trkpt lat="43.96094" lon="5.40739">
        <ele>592.4</ele>
        <time>2019-10-27T11:52:22Z</time>
      </trkpt>
      <trkpt lat="43.9609" lon="5.40736">
        <ele>592</ele>
        <time>2019-10-27T11:52:24Z</time>
      </trkpt>
      <trkpt lat="43.96086" lon="5.40733">
        <ele>591.6</ele>
        <time>2019-10-27T11:52:26Z</time>
      </trkpt>
      <trkpt lat="43.96083" lon="5.40729">
        <ele>591.1</ele>
        <time>2019-10-27T11:52:28Z</time>
      </trkpt>
      <trkpt lat="43.96081" lon="5.40725">
        <ele>591.2</ele>
        <time>2019-10-27T11:52:30Z</time>
      </trkpt>
      <trkpt lat="43.96079" lon="5.40721">
        <ele>591.4</ele>
        <time>2019-10-27T11:52:33Z</time>
      </trkpt>
      <trkpt lat="43.96078" lon="5.40717">
        <ele>591.6</ele>
        <time>2019-10-27T11:52:36Z</time>
      </trkpt>
      <trkpt lat="43.96081" lon="5.40717">
        <ele>591.8</ele>
        <time>2019-10-27T11:52:40Z</time>
      </trkpt>
      <trkpt lat="43.96085" lon="5.40718">
        <ele>592</ele>
        <time>2019-10-27T11:52:43Z</time>
      </trkpt>
      <trkpt lat="43.96088" lon="5.40719">
        <ele>592.3</ele>
        <time>2019-10-27T11:52:46Z</time>
      </trkpt>
      <trkpt lat="43.96093" lon="5.40719">
        <ele>592.5</ele>
        <time>2019-10-27T11:52:49Z</time>
      </trkpt>
      <trkpt lat="43.96096" lon="5.40719">
        <ele>593.7</ele>
        <time>2019-10-27T11:52:51Z</time>
      </trkpt>
      <trkpt lat="43.96099" lon="5.40719">
        <ele>594.2</ele>
        <time>2019-10-27T11:52:53Z</time>
      </trkpt>
      <trkpt lat="43.96103" lon="5.40719">
        <ele>594.8</ele>
        <time>2019-10-27T11:52:55Z</time>
      </trkpt>
      <trkpt lat="43.96107" lon="5.40719">
        <ele>595.5</ele>
        <time>2019-10-27T11:52:57Z</time>
      </trkpt>
      <trkpt lat="43.96111" lon="5.40719">
        <ele>596.1</ele>
        <time>2019-10-27T11:52:59Z</time>
      </trkpt>
      <trkpt lat="43.96115" lon="5.40719">
        <ele>596.7</ele>
        <time>2019-10-27T11:53:01Z</time>
      </trkpt>
      <trkpt lat="43.96118" lon="5.40719">
        <ele>597.2</ele>
        <time>2019-10-27T11:53:03Z</time>
      </trkpt>
      <trkpt lat="43.96122" lon="5.40719">
        <ele>597.7</ele>
        <time>2019-10-27T11:53:05Z</time>
      </trkpt>
      <trkpt lat="43.96126" lon="5.40719">
        <ele>598.2</ele>
        <time>2019-10-27T11:53:08Z</time>
      </trkpt>
      <trkpt lat="43.96129" lon="5.40719">
        <ele>598.6</ele>
        <time>2019-10-27T11:53:10Z</time>
      </trkpt>
      <trkpt lat="43.96133" lon="5.40719">
        <ele>599</ele>
        <time>2019-10-27T11:53:13Z</time>
      </trkpt>
      <trkpt lat="43.96137" lon="5.4072">
        <ele>599.5</ele>
        <time>2019-10-27T11:53:16Z</time>
      </trkpt>
      <trkpt lat="43.9614" lon="5.40721">
        <ele>600</ele>
        <time>2019-10-27T11:53:19Z</time>
      </trkpt>
      <trkpt lat="43.96144" lon="5.40722">
        <ele>600.4</ele>
        <time>2019-10-27T11:53:22Z</time>
      </trkpt>
      <trkpt lat="43.96147" lon="5.40723">
        <ele>600.8</ele>
        <time>2019-10-27T11:53:24Z</time>
      </trkpt>
      <trkpt lat="43.96151" lon="5.40724">
        <ele>601.2</ele>
        <time>2019-10-27T11:53:27Z</time>
      </trkpt>
      <trkpt lat="43.96155" lon="5.40725">
        <ele>601.7</ele>
        <time>2019-10-27T11:53:30Z</time>
      </trkpt>
      <trkpt lat="43.96158" lon="5.40726">
        <ele>602.1</ele>
        <time>2019-10-27T11:53:32Z</time>
      </trkpt>
      <trkpt lat="43.96161" lon="5.40727">
        <ele>602.4</ele>
        <time>2019-10-27T11:53:34Z</time>
      </trkpt>
      <trkpt lat="43.96163" lon="5.40728">
        <ele>602.8</ele>
        <time>2019-10-27T11:53:36Z</time>
      </trkpt>
      <trkpt lat="43.96166" lon="5.40729">
        <ele>603.2</ele>
        <time>2019-10-27T11:53:38Z</time>
      </trkpt>
      <trkpt lat="43.9617" lon="5.40729">
        <ele>603.8</ele>
        <time>2019-10-27T11:53:41Z</time>
      </trkpt>
      <trkpt lat="43.96174" lon="5.40731">
        <ele>604.2</ele>
        <time>2019-10-27T11:53:44Z</time>
      </trkpt>
      <trkpt lat="43.96177" lon="5.40732">
        <ele>604.7</ele>
        <time>2019-10-27T11:53:47Z</time>
      </trkpt>
      <trkpt lat="43.9618" lon="5.40733">
        <ele>605.1</ele>
        <time>2019-10-27T11:53:50Z</time>
      </trkpt>
      <trkpt lat="43.96184" lon="5.40735">
        <ele>605.7</ele>
        <time>2019-10-27T11:53:53Z</time>
      </trkpt>
      <trkpt lat="43.96188" lon="5.40736">
        <ele>606.1</ele>
        <time>2019-10-27T11:53:56Z</time>
      </trkpt>
      <trkpt lat="43.96191" lon="5.40736">
        <ele>606.6</ele>
        <time>2019-10-27T11:53:58Z</time>
      </trkpt>
      <trkpt lat="43.96194" lon="5.40737">
        <ele>607.2</ele>
        <time>2019-10-27T11:54:01Z</time>
      </trkpt>
      <trkpt lat="43.96197" lon="5.40738">
        <ele>607.7</ele>
        <time>2019-10-27T11:54:03Z</time>
      </trkpt>
      <trkpt lat="43.96201" lon="5.40738">
        <ele>608.3</ele>
        <time>2019-10-27T11:54:07Z</time>
      </trkpt>
      <trkpt lat="43.96205" lon="5.40739">
        <ele>609</ele>
        <time>2019-10-27T11:54:10Z</time>
      </trkpt>
      <trkpt lat="43.96208" lon="5.4074">
        <ele>609.5</ele>
        <time>2019-10-27T11:54:12Z</time>
      </trkpt>
      <trkpt lat="43.96211" lon="5.40741">
        <ele>610</ele>
        <time>2019-10-27T11:54:15Z</time>
      </trkpt>
      <trkpt lat="43.96214" lon="5.40742">
        <ele>610.6</ele>
        <time>2019-10-27T11:54:18Z</time>
      </trkpt>
      <trkpt lat="43.96218" lon="5.40743">
        <ele>611.2</ele>
        <time>2019-10-27T11:54:21Z</time>
      </trkpt>
      <trkpt lat="43.96221" lon="5.40744">
        <ele>611.8</ele>
        <time>2019-10-27T11:54:23Z</time>
      </trkpt>
      <trkpt lat="43.96224" lon="5.40745">
        <ele>612.3</ele>
        <time>2019-10-27T11:54:25Z</time>
      </trkpt>
      <trkpt lat="43.96227" lon="5.40746">
        <ele>612.8</ele>
        <time>2019-10-27T11:54:28Z</time>
      </trkpt>
      <trkpt lat="43.9623" lon="5.40746">
        <ele>613.4</ele>
        <time>2019-10-27T11:54:30Z</time>
      </trkpt>
      <trkpt lat="43.96233" lon="5.40746">
        <ele>613.9</ele>
        <time>2019-10-27T11:54:32Z</time>
      </trkpt>
      <trkpt lat="43.96236" lon="5.40746">
        <ele>614.6</ele>
        <time>2019-10-27T11:54:34Z</time>
      </trkpt>
      <trkpt lat="43.9624" lon="5.40746">
        <ele>615.4</ele>
        <time>2019-10-27T11:54:37Z</time>
      </trkpt>
      <trkpt lat="43.96243" lon="5.40746">
        <ele>616.1</ele>
        <time>2019-10-27T11:54:39Z</time>
      </trkpt>
      <trkpt lat="43.96246" lon="5.40745">
        <ele>616.8</ele>
        <time>2019-10-27T11:54:41Z</time>
      </trkpt>
      <trkpt lat="43.96249" lon="5.40745">
        <ele>617.7</ele>
        <time>2019-10-27T11:54:44Z</time>
      </trkpt>
      <trkpt lat="43.96252" lon="5.40745">
        <ele>618.4</ele>
        <time>2019-10-27T11:54:47Z</time>
      </trkpt>
      <trkpt lat="43.96255" lon="5.40744">
        <ele>619.1</ele>
        <time>2019-10-27T11:54:49Z</time>
      </trkpt>
      <trkpt lat="43.96258" lon="5.40744">
        <ele>619.9</ele>
        <time>2019-10-27T11:54:51Z</time>
      </trkpt>
      <trkpt lat="43.96262" lon="5.40744">
        <ele>620.7</ele>
        <time>2019-10-27T11:54:54Z</time>
      </trkpt>
      <trkpt lat="43.96265" lon="5.40744">
        <ele>621.4</ele>
        <time>2019-10-27T11:54:57Z</time>
      </trkpt>
      <trkpt lat="43.96269" lon="5.40744">
        <ele>622</ele>
        <time>2019-10-27T11:55:00Z</time>
      </trkpt>
      <trkpt lat="43.96271" lon="5.40745">
        <ele>622.5</ele>
        <time>2019-10-27T11:55:03Z</time>
      </trkpt>
      <trkpt lat="43.96275" lon="5.40747">
        <ele>623.1</ele>
        <time>2019-10-27T11:55:06Z</time>
      </trkpt>
      <trkpt lat="43.96278" lon="5.40749">
        <ele>623.6</ele>
        <time>2019-10-27T11:55:09Z</time>
      </trkpt>
      <trkpt lat="43.9628" lon="5.40752">
        <ele>624.1</ele>
        <time>2019-10-27T11:55:12Z</time>
      </trkpt>
      <trkpt lat="43.96282" lon="5.40756">
        <ele>624.8</ele>
        <time>2019-10-27T11:55:15Z</time>
      </trkpt>
      <trkpt lat="43.96284" lon="5.4076">
        <ele>625.4</ele>
        <time>2019-10-27T11:55:18Z</time>
      </trkpt>
      <trkpt lat="43.96287" lon="5.40763">
        <ele>626</ele>
        <time>2019-10-27T11:55:21Z</time>
      </trkpt>
      <trkpt lat="43.96288" lon="5.40768">
        <ele>626.5</ele>
        <time>2019-10-27T11:55:24Z</time>
      </trkpt>
      <trkpt lat="43.9629" lon="5.40772">
        <ele>627.1</ele>
        <time>2019-10-27T11:55:27Z</time>
      </trkpt>
      <trkpt lat="43.96292" lon="5.40777">
        <ele>627.7</ele>
        <time>2019-10-27T11:55:30Z</time>
      </trkpt>
      <trkpt lat="43.96293" lon="5.40782">
        <ele>628.3</ele>
        <time>2019-10-27T11:55:33Z</time>
      </trkpt>
      <trkpt lat="43.96295" lon="5.40786">
        <ele>628.8</ele>
        <time>2019-10-27T11:55:36Z</time>
      </trkpt>
      <trkpt lat="43.96297" lon="5.4079">
        <ele>629.4</ele>
        <time>2019-10-27T11:55:39Z</time>
      </trkpt>
      <trkpt lat="43.96299" lon="5.40793">
        <ele>629.9</ele>
        <time>2019-10-27T11:55:41Z</time>
      </trkpt>
      <trkpt lat="43.96302" lon="5.40796">
        <ele>630.3</ele>
        <time>2019-10-27T11:55:43Z</time>
      </trkpt>
      <trkpt lat="43.96304" lon="5.40799">
        <ele>630.7</ele>
        <time>2019-10-27T11:55:45Z</time>
      </trkpt>
      <trkpt lat="43.96307" lon="5.40802">
        <ele>631.3</ele>
        <time>2019-10-27T11:55:48Z</time>
      </trkpt>
      <trkpt lat="43.9631" lon="5.40804">
        <ele>631.7</ele>
        <time>2019-10-27T11:55:51Z</time>
      </trkpt>
      <trkpt lat="43.96313" lon="5.40807">
        <ele>632.1</ele>
        <time>2019-10-27T11:55:53Z</time>
      </trkpt>
      <trkpt lat="43.96315" lon="5.40809">
        <ele>632.6</ele>
        <time>2019-10-27T11:55:55Z</time>
      </trkpt>
      <trkpt lat="43.96317" lon="5.40812">
        <ele>633</ele>
        <time>2019-10-27T11:55:57Z</time>
      </trkpt>
      <trkpt lat="43.9632" lon="5.40814">
        <ele>633.5</ele>
        <time>2019-10-27T11:56:00Z</time>
      </trkpt>
      <trkpt lat="43.96323" lon="5.40816">
        <ele>634</ele>
        <time>2019-10-27T11:56:03Z</time>
      </trkpt>
      <trkpt lat="43.96326" lon="5.40818">
        <ele>634.5</ele>
        <time>2019-10-27T11:56:06Z</time>
      </trkpt>
      <trkpt lat="43.96329" lon="5.4082">
        <ele>635</ele>
        <time>2019-10-27T11:56:09Z</time>
      </trkpt>
      <trkpt lat="43.96332" lon="5.40821">
        <ele>635.5</ele>
        <time>2019-10-27T11:56:12Z</time>
      </trkpt>
      <trkpt lat="43.96335" lon="5.40822">
        <ele>636.1</ele>
        <time>2019-10-27T11:56:15Z</time>
      </trkpt>
      <trkpt lat="43.96338" lon="5.40823">
        <ele>636.6</ele>
        <time>2019-10-27T11:56:18Z</time>
      </trkpt>
      <trkpt lat="43.96341" lon="5.40825">
        <ele>637.4</ele>
        <time>2019-10-27T11:56:21Z</time>
      </trkpt>
      <trkpt lat="43.96345" lon="5.40827">
        <ele>638.2</ele>
        <time>2019-10-27T11:56:25Z</time>
      </trkpt>
      <trkpt lat="43.96348" lon="5.40831">
        <ele>639</ele>
        <time>2019-10-27T11:56:28Z</time>
      </trkpt>
      <trkpt lat="43.9635" lon="5.40832">
        <ele>639.4</ele>
        <time>2019-10-27T11:56:30Z</time>
      </trkpt>
      <trkpt lat="43.96353" lon="5.40835">
        <ele>639.9</ele>
        <time>2019-10-27T11:56:33Z</time>
      </trkpt>
      <trkpt lat="43.96356" lon="5.40838">
        <ele>640.5</ele>
        <time>2019-10-27T11:56:36Z</time>
      </trkpt>
      <trkpt lat="43.9636" lon="5.40839">
        <ele>641</ele>
        <time>2019-10-27T11:56:39Z</time>
      </trkpt>
      <trkpt lat="43.96363" lon="5.40842">
        <ele>641.6</ele>
        <time>2019-10-27T11:56:42Z</time>
      </trkpt>
      <trkpt lat="43.96366" lon="5.40844">
        <ele>642</ele>
        <time>2019-10-27T11:56:44Z</time>
      </trkpt>
      <trkpt lat="43.96369" lon="5.40846">
        <ele>642.6</ele>
        <time>2019-10-27T11:56:47Z</time>
      </trkpt>
      <trkpt lat="43.96373" lon="5.40848">
        <ele>643.3</ele>
        <time>2019-10-27T11:56:50Z</time>
      </trkpt>
      <trkpt lat="43.96376" lon="5.40849">
        <ele>643.9</ele>
        <time>2019-10-27T11:56:53Z</time>
      </trkpt>
      <trkpt lat="43.96379" lon="5.40851">
        <ele>644.5</ele>
        <time>2019-10-27T11:56:56Z</time>
      </trkpt>
      <trkpt lat="43.96382" lon="5.40852">
        <ele>645.2</ele>
        <time>2019-10-27T11:56:59Z</time>
      </trkpt>
      <trkpt lat="43.96386" lon="5.40853">
        <ele>645.9</ele>
        <time>2019-10-27T11:57:03Z</time>
      </trkpt>
      <trkpt lat="43.96389" lon="5.40853">
        <ele>646.4</ele>
        <time>2019-10-27T11:57:06Z</time>
      </trkpt>
      <trkpt lat="43.96391" lon="5.40855">
        <ele>646.8</ele>
        <time>2019-10-27T11:57:08Z</time>
      </trkpt>
      <trkpt lat="43.96395" lon="5.40856">
        <ele>647.3</ele>
        <time>2019-10-27T11:57:11Z</time>
      </trkpt>
      <trkpt lat="43.96399" lon="5.40858">
        <ele>647.9</ele>
        <time>2019-10-27T11:57:14Z</time>
      </trkpt>
      <trkpt lat="43.96402" lon="5.4086">
        <ele>648.4</ele>
        <time>2019-10-27T11:57:17Z</time>
      </trkpt>
      <trkpt lat="43.96404" lon="5.40861">
        <ele>648.8</ele>
        <time>2019-10-27T11:57:19Z</time>
      </trkpt>
      <trkpt lat="43.96408" lon="5.40863">
        <ele>649.4</ele>
        <time>2019-10-27T11:57:22Z</time>
      </trkpt>
      <trkpt lat="43.9641" lon="5.40865">
        <ele>649.9</ele>
        <time>2019-10-27T11:57:25Z</time>
      </trkpt>
      <trkpt lat="43.96414" lon="5.40867">
        <ele>650.5</ele>
        <time>2019-10-27T11:57:28Z</time>
      </trkpt>
      <trkpt lat="43.96417" lon="5.40868">
        <ele>651</ele>
        <time>2019-10-27T11:57:31Z</time>
      </trkpt>
      <trkpt lat="43.9642" lon="5.40869">
        <ele>651.6</ele>
        <time>2019-10-27T11:57:34Z</time>
      </trkpt>
      <trkpt lat="43.96423" lon="5.40871">
        <ele>652.1</ele>
        <time>2019-10-27T11:57:37Z</time>
      </trkpt>
      <trkpt lat="43.96426" lon="5.40872">
        <ele>652.7</ele>
        <time>2019-10-27T11:57:40Z</time>
      </trkpt>
      <trkpt lat="43.96429" lon="5.40874">
        <ele>653.2</ele>
        <time>2019-10-27T11:57:43Z</time>
      </trkpt>
      <trkpt lat="43.96432" lon="5.40875">
        <ele>653.8</ele>
        <time>2019-10-27T11:57:45Z</time>
      </trkpt>
      <trkpt lat="43.96435" lon="5.40876">
        <ele>654.4</ele>
        <time>2019-10-27T11:57:47Z</time>
      </trkpt>
      <trkpt lat="43.96438" lon="5.40878">
        <ele>655.1</ele>
        <time>2019-10-27T11:57:50Z</time>
      </trkpt>
      <trkpt lat="43.96441" lon="5.4088">
        <ele>655.7</ele>
        <time>2019-10-27T11:57:53Z</time>
      </trkpt>
      <trkpt lat="43.96444" lon="5.40881">
        <ele>656.2</ele>
        <time>2019-10-27T11:57:55Z</time>
      </trkpt>
      <trkpt lat="43.96447" lon="5.40883">
        <ele>656.9</ele>
        <time>2019-10-27T11:57:58Z</time>
      </trkpt>
      <trkpt lat="43.96451" lon="5.40884">
        <ele>657.6</ele>
        <time>2019-10-27T11:58:01Z</time>
      </trkpt>
      <trkpt lat="43.96454" lon="5.40885">
        <ele>658.2</ele>
        <time>2019-10-27T11:58:04Z</time>
      </trkpt>
      <trkpt lat="43.96457" lon="5.40887">
        <ele>658.9</ele>
        <time>2019-10-27T11:58:07Z</time>
      </trkpt>
      <trkpt lat="43.9646" lon="5.40888">
        <ele>659.6</ele>
        <time>2019-10-27T11:58:10Z</time>
      </trkpt>
      <trkpt lat="43.96464" lon="5.4089">
        <ele>660.4</ele>
        <time>2019-10-27T11:58:14Z</time>
      </trkpt>
      <trkpt lat="43.96467" lon="5.40892">
        <ele>661.1</ele>
        <time>2019-10-27T11:58:17Z</time>
      </trkpt>
      <trkpt lat="43.9647" lon="5.40893">
        <ele>661.7</ele>
        <time>2019-10-27T11:58:20Z</time>
      </trkpt>
      <trkpt lat="43.96473" lon="5.40895">
        <ele>662.2</ele>
        <time>2019-10-27T11:58:23Z</time>
      </trkpt>
      <trkpt lat="43.96475" lon="5.40896">
        <ele>662.6</ele>
        <time>2019-10-27T11:58:26Z</time>
      </trkpt>
      <trkpt lat="43.96478" lon="5.40898">
        <ele>663.1</ele>
        <time>2019-10-27T11:58:29Z</time>
      </trkpt>
      <trkpt lat="43.96481" lon="5.409">
        <ele>663.5</ele>
        <time>2019-10-27T11:58:32Z</time>
      </trkpt>
      <trkpt lat="43.96484" lon="5.40902">
        <ele>663.9</ele>
        <time>2019-10-27T11:58:35Z</time>
      </trkpt>
      <trkpt lat="43.96487" lon="5.40904">
        <ele>664.3</ele>
        <time>2019-10-27T11:58:38Z</time>
      </trkpt>
      <trkpt lat="43.9649" lon="5.40906">
        <ele>664.7</ele>
        <time>2019-10-27T11:58:41Z</time>
      </trkpt>
      <trkpt lat="43.96493" lon="5.40907">
        <ele>665</ele>
        <time>2019-10-27T11:58:43Z</time>
      </trkpt>
      <trkpt lat="43.96496" lon="5.40909">
        <ele>665.4</ele>
        <time>2019-10-27T11:58:46Z</time>
      </trkpt>
      <trkpt lat="43.96499" lon="5.40911">
        <ele>665.7</ele>
        <time>2019-10-27T11:58:49Z</time>
      </trkpt>
      <trkpt lat="43.96502" lon="5.40912">
        <ele>666</ele>
        <time>2019-10-27T11:58:51Z</time>
      </trkpt>
      <trkpt lat="43.96505" lon="5.40914">
        <ele>666.4</ele>
        <time>2019-10-27T11:58:54Z</time>
      </trkpt>
      <trkpt lat="43.96508" lon="5.40916">
        <ele>666.8</ele>
        <time>2019-10-27T11:58:57Z</time>
      </trkpt>
      <trkpt lat="43.96511" lon="5.40918">
        <ele>667.2</ele>
        <time>2019-10-27T11:59:00Z</time>
      </trkpt>
      <trkpt lat="43.96514" lon="5.40919">
        <ele>667.7</ele>
        <time>2019-10-27T11:59:03Z</time>
      </trkpt>
      <trkpt lat="43.96517" lon="5.40921">
        <ele>668.1</ele>
        <time>2019-10-27T11:59:06Z</time>
      </trkpt>
      <trkpt lat="43.9652" lon="5.40924">
        <ele>668.6</ele>
        <time>2019-10-27T11:59:09Z</time>
      </trkpt>
      <trkpt lat="43.96523" lon="5.40926">
        <ele>669.1</ele>
        <time>2019-10-27T11:59:11Z</time>
      </trkpt>
      <trkpt lat="43.96526" lon="5.40929">
        <ele>669.8</ele>
        <time>2019-10-27T11:59:14Z</time>
      </trkpt>
      <trkpt lat="43.96529" lon="5.40931">
        <ele>670.3</ele>
        <time>2019-10-27T11:59:17Z</time>
      </trkpt>
      <trkpt lat="43.96532" lon="5.40933">
        <ele>670.8</ele>
        <time>2019-10-27T11:59:20Z</time>
      </trkpt>
      <trkpt lat="43.96535" lon="5.40934">
        <ele>671.3</ele>
        <time>2019-10-27T11:59:23Z</time>
      </trkpt>
      <trkpt lat="43.96538" lon="5.40936">
        <ele>671.8</ele>
        <time>2019-10-27T11:59:26Z</time>
      </trkpt>
      <trkpt lat="43.96541" lon="5.40938">
        <ele>672.3</ele>
        <time>2019-10-27T11:59:29Z</time>
      </trkpt>
      <trkpt lat="43.96544" lon="5.4094">
        <ele>672.8</ele>
        <time>2019-10-27T11:59:32Z</time>
      </trkpt>
      <trkpt lat="43.96548" lon="5.40942">
        <ele>673.2</ele>
        <time>2019-10-27T11:59:35Z</time>
      </trkpt>
      <trkpt lat="43.9655" lon="5.40943">
        <ele>673.6</ele>
        <time>2019-10-27T11:59:37Z</time>
      </trkpt>
      <trkpt lat="43.96553" lon="5.40945">
        <ele>674</ele>
        <time>2019-10-27T11:59:40Z</time>
      </trkpt>
      <trkpt lat="43.96556" lon="5.40947">
        <ele>674.5</ele>
        <time>2019-10-27T11:59:43Z</time>
      </trkpt>
      <trkpt lat="43.96559" lon="5.4095">
        <ele>675.1</ele>
        <time>2019-10-27T11:59:46Z</time>
      </trkpt>
      <trkpt lat="43.96562" lon="5.40952">
        <ele>675.6</ele>
        <time>2019-10-27T11:59:49Z</time>
      </trkpt>
      <trkpt lat="43.96565" lon="5.40954">
        <ele>676.1</ele>
        <time>2019-10-27T11:59:52Z</time>
      </trkpt>
      <trkpt lat="43.96568" lon="5.40955">
        <ele>676.8</ele>
        <time>2019-10-27T11:59:55Z</time>
      </trkpt>
      <trkpt lat="43.96571" lon="5.40956">
        <ele>677.3</ele>
        <time>2019-10-27T11:59:58Z</time>
      </trkpt>
      <trkpt lat="43.96574" lon="5.40956">
        <ele>678</ele>
        <time>2019-10-27T12:00:02Z</time>
      </trkpt>
      <trkpt lat="43.96576" lon="5.40959">
        <ele>678.6</ele>
        <time>2019-10-27T12:00:05Z</time>
      </trkpt>
      <trkpt lat="43.96578" lon="5.4096">
        <ele>679.2</ele>
        <time>2019-10-27T12:00:08Z</time>
      </trkpt>
      <trkpt lat="43.96581" lon="5.40962">
        <ele>679.7</ele>
        <time>2019-10-27T12:00:11Z</time>
      </trkpt>
      <trkpt lat="43.96584" lon="5.40964">
        <ele>680.3</ele>
        <time>2019-10-27T12:00:14Z</time>
      </trkpt>
      <trkpt lat="43.96587" lon="5.40966">
        <ele>680.9</ele>
        <time>2019-10-27T12:00:17Z</time>
      </trkpt>
      <trkpt lat="43.9659" lon="5.40968">
        <ele>681.5</ele>
        <time>2019-10-27T12:00:20Z</time>
      </trkpt>
      <trkpt lat="43.96593" lon="5.40971">
        <ele>682.1</ele>
        <time>2019-10-27T12:00:23Z</time>
      </trkpt>
      <trkpt lat="43.96595" lon="5.40973">
        <ele>682.6</ele>
        <time>2019-10-27T12:00:26Z</time>
      </trkpt>
      <trkpt lat="43.96599" lon="5.40975">
        <ele>683.2</ele>
        <time>2019-10-27T12:00:29Z</time>
      </trkpt>
      <trkpt lat="43.96601" lon="5.40977">
        <ele>683.7</ele>
        <time>2019-10-27T12:00:31Z</time>
      </trkpt>
      <trkpt lat="43.96604" lon="5.40979">
        <ele>684.2</ele>
        <time>2019-10-27T12:00:35Z</time>
      </trkpt>
      <trkpt lat="43.96607" lon="5.40981">
        <ele>684.6</ele>
        <time>2019-10-27T12:00:38Z</time>
      </trkpt>
      <trkpt lat="43.9661" lon="5.40983">
        <ele>685.1</ele>
        <time>2019-10-27T12:00:41Z</time>
      </trkpt>
      <trkpt lat="43.96613" lon="5.40985">
        <ele>685.6</ele>
        <time>2019-10-27T12:00:45Z</time>
      </trkpt>
      <trkpt lat="43.96616" lon="5.40986">
        <ele>686.1</ele>
        <time>2019-10-27T12:00:48Z</time>
      </trkpt>
      <trkpt lat="43.96619" lon="5.40988">
        <ele>686.6</ele>
        <time>2019-10-27T12:00:51Z</time>
      </trkpt>
      <trkpt lat="43.96623" lon="5.4099">
        <ele>687.3</ele>
        <time>2019-10-27T12:00:55Z</time>
      </trkpt>
      <trkpt lat="43.96626" lon="5.40992">
        <ele>687.8</ele>
        <time>2019-10-27T12:00:58Z</time>
      </trkpt>
      <trkpt lat="43.96629" lon="5.40994">
        <ele>688.3</ele>
        <time>2019-10-27T12:01:01Z</time>
      </trkpt>
      <trkpt lat="43.96632" lon="5.40996">
        <ele>688.8</ele>
        <time>2019-10-27T12:01:04Z</time>
      </trkpt>
      <trkpt lat="43.96635" lon="5.40997">
        <ele>689.3</ele>
        <time>2019-10-27T12:01:07Z</time>
      </trkpt>
      <trkpt lat="43.96638" lon="5.40998">
        <ele>689.7</ele>
        <time>2019-10-27T12:01:10Z</time>
      </trkpt>
      <trkpt lat="43.9664" lon="5.41">
        <ele>690.1</ele>
        <time>2019-10-27T12:01:13Z</time>
      </trkpt>
      <trkpt lat="43.96644" lon="5.41001">
        <ele>690.6</ele>
        <time>2019-10-27T12:01:16Z</time>
      </trkpt>
      <trkpt lat="43.96647" lon="5.41003">
        <ele>691.2</ele>
        <time>2019-10-27T12:01:19Z</time>
      </trkpt>
      <trkpt lat="43.96649" lon="5.41005">
        <ele>691.6</ele>
        <time>2019-10-27T12:01:22Z</time>
      </trkpt>
      <trkpt lat="43.96652" lon="5.41008">
        <ele>692</ele>
        <time>2019-10-27T12:01:25Z</time>
      </trkpt>
      <trkpt lat="43.96656" lon="5.41009">
        <ele>692.4</ele>
        <time>2019-10-27T12:01:28Z</time>
      </trkpt>
      <trkpt lat="43.96658" lon="5.41008">
        <ele>692.8</ele>
        <time>2019-10-27T12:01:31Z</time>
      </trkpt>
      <trkpt lat="43.9666" lon="5.41003">
        <ele>693.2</ele>
        <time>2019-10-27T12:01:34Z</time>
      </trkpt>
      <trkpt lat="43.96659" lon="5.40998">
        <ele>693.6</ele>
        <time>2019-10-27T12:01:36Z</time>
      </trkpt>
      <trkpt lat="43.96658" lon="5.40994">
        <ele>694</ele>
        <time>2019-10-27T12:01:39Z</time>
      </trkpt>
      <trkpt lat="43.96657" lon="5.40989">
        <ele>694.4</ele>
        <time>2019-10-27T12:01:42Z</time>
      </trkpt>
      <trkpt lat="43.96654" lon="5.40985">
        <ele>694.9</ele>
        <time>2019-10-27T12:01:45Z</time>
      </trkpt>
      <trkpt lat="43.96652" lon="5.40981">
        <ele>695.2</ele>
        <time>2019-10-27T12:01:47Z</time>
      </trkpt>
      <trkpt lat="43.96651" lon="5.40977">
        <ele>695.6</ele>
        <time>2019-10-27T12:01:48Z</time>
      </trkpt>
      <trkpt lat="43.9665" lon="5.40972">
        <ele>695.9</ele>
        <time>2019-10-27T12:01:51Z</time>
      </trkpt>
      <trkpt lat="43.96648" lon="5.40969">
        <ele>696.2</ele>
        <time>2019-10-27T12:01:53Z</time>
      </trkpt>
      <trkpt lat="43.96646" lon="5.40965">
        <ele>696.5</ele>
        <time>2019-10-27T12:01:56Z</time>
      </trkpt>
      <trkpt lat="43.96645" lon="5.40959">
        <ele>697.1</ele>
        <time>2019-10-27T12:01:59Z</time>
      </trkpt>
      <trkpt lat="43.96643" lon="5.40955">
        <ele>697.6</ele>
        <time>2019-10-27T12:02:01Z</time>
      </trkpt>
      <trkpt lat="43.96642" lon="5.4095">
        <ele>698.1</ele>
        <time>2019-10-27T12:02:02Z</time>
      </trkpt>
      <trkpt lat="43.96641" lon="5.40947">
        <ele>698.5</ele>
        <time>2019-10-27T12:02:03Z</time>
      </trkpt>
      <trkpt lat="43.96641" lon="5.40941">
        <ele>699.3</ele>
        <time>2019-10-27T12:02:05Z</time>
      </trkpt>
      <trkpt lat="43.96641" lon="5.40937">
        <ele>699.9</ele>
        <time>2019-10-27T12:02:07Z</time>
      </trkpt>
      <trkpt lat="43.96642" lon="5.40933">
        <ele>700.6</ele>
        <time>2019-10-27T12:02:10Z</time>
      </trkpt>
      <trkpt lat="43.96645" lon="5.4093">
        <ele>701.3</ele>
        <time>2019-10-27T12:02:12Z</time>
      </trkpt>
      <trkpt lat="43.9665" lon="5.40934">
        <ele>702.5</ele>
        <time>2019-10-27T12:02:15Z</time>
      </trkpt>
      <trkpt lat="43.96652" lon="5.40937">
        <ele>703.3</ele>
        <time>2019-10-27T12:02:16Z</time>
      </trkpt>
      <trkpt lat="43.96656" lon="5.40941">
        <ele>704.2</ele>
        <time>2019-10-27T12:02:18Z</time>
      </trkpt>
      <trkpt lat="43.96659" lon="5.40944">
        <ele>704.8</ele>
        <time>2019-10-27T12:02:20Z</time>
      </trkpt>
      <trkpt lat="43.96661" lon="5.40948">
        <ele>705.4</ele>
        <time>2019-10-27T12:02:23Z</time>
      </trkpt>
      <trkpt lat="43.96664" lon="5.40951">
        <ele>705.9</ele>
        <time>2019-10-27T12:02:26Z</time>
      </trkpt>
      <trkpt lat="43.96666" lon="5.40954">
        <ele>706.4</ele>
        <time>2019-10-27T12:02:29Z</time>
      </trkpt>
      <trkpt lat="43.96669" lon="5.40956">
        <ele>706.9</ele>
        <time>2019-10-27T12:02:32Z</time>
      </trkpt>
      <trkpt lat="43.96671" lon="5.40959">
        <ele>707.4</ele>
        <time>2019-10-27T12:02:34Z</time>
      </trkpt>
      <trkpt lat="43.96674" lon="5.40961">
        <ele>707.8</ele>
        <time>2019-10-27T12:02:37Z</time>
      </trkpt>
      <trkpt lat="43.96677" lon="5.40964">
        <ele>708.3</ele>
        <time>2019-10-27T12:02:41Z</time>
      </trkpt>
      <trkpt lat="43.9668" lon="5.40966">
        <ele>708.8</ele>
        <time>2019-10-27T12:02:44Z</time>
      </trkpt>
      <trkpt lat="43.96683" lon="5.40968">
        <ele>709.2</ele>
        <time>2019-10-27T12:02:47Z</time>
      </trkpt>
      <trkpt lat="43.96687" lon="5.40971">
        <ele>709.7</ele>
        <time>2019-10-27T12:02:50Z</time>
      </trkpt>
      <trkpt lat="43.9669" lon="5.40972">
        <ele>710.2</ele>
        <time>2019-10-27T12:02:53Z</time>
      </trkpt>
      <trkpt lat="43.96692" lon="5.40974">
        <ele>710.6</ele>
        <time>2019-10-27T12:02:57Z</time>
      </trkpt>
      <trkpt lat="43.96695" lon="5.40975">
        <ele>711.1</ele>
        <time>2019-10-27T12:03:00Z</time>
      </trkpt>
      <trkpt lat="43.96698" lon="5.40976">
        <ele>711.6</ele>
        <time>2019-10-27T12:03:03Z</time>
      </trkpt>
      <trkpt lat="43.96701" lon="5.40977">
        <ele>712.1</ele>
        <time>2019-10-27T12:03:06Z</time>
      </trkpt>
      <trkpt lat="43.96705" lon="5.40978">
        <ele>712.6</ele>
        <time>2019-10-27T12:03:09Z</time>
      </trkpt>
      <trkpt lat="43.96707" lon="5.4098">
        <ele>713</ele>
        <time>2019-10-27T12:03:11Z</time>
      </trkpt>
      <trkpt lat="43.96711" lon="5.40982">
        <ele>713.5</ele>
        <time>2019-10-27T12:03:14Z</time>
      </trkpt>
      <trkpt lat="43.96714" lon="5.40983">
        <ele>713.9</ele>
        <time>2019-10-27T12:03:17Z</time>
      </trkpt>
      <trkpt lat="43.96717" lon="5.40984">
        <ele>714.5</ele>
        <time>2019-10-27T12:03:20Z</time>
      </trkpt>
      <trkpt lat="43.96721" lon="5.40986">
        <ele>715.1</ele>
        <time>2019-10-27T12:03:23Z</time>
      </trkpt>
      <trkpt lat="43.96724" lon="5.40987">
        <ele>715.5</ele>
        <time>2019-10-27T12:03:26Z</time>
      </trkpt>
      <trkpt lat="43.96727" lon="5.40988">
        <ele>715.9</ele>
        <time>2019-10-27T12:03:29Z</time>
      </trkpt>
      <trkpt lat="43.9673" lon="5.40988">
        <ele>716.4</ele>
        <time>2019-10-27T12:03:32Z</time>
      </trkpt>
      <trkpt lat="43.96733" lon="5.4099">
        <ele>716.8</ele>
        <time>2019-10-27T12:03:34Z</time>
      </trkpt>
      <trkpt lat="43.96736" lon="5.40991">
        <ele>717.2</ele>
        <time>2019-10-27T12:03:37Z</time>
      </trkpt>
      <trkpt lat="43.96739" lon="5.40992">
        <ele>717.7</ele>
        <time>2019-10-27T12:03:40Z</time>
      </trkpt>
      <trkpt lat="43.96742" lon="5.40993">
        <ele>718.2</ele>
        <time>2019-10-27T12:03:43Z</time>
      </trkpt>
      <trkpt lat="43.96745" lon="5.40994">
        <ele>718.6</ele>
        <time>2019-10-27T12:03:46Z</time>
      </trkpt>
      <trkpt lat="43.96749" lon="5.40995">
        <ele>719.1</ele>
        <time>2019-10-27T12:03:49Z</time>
      </trkpt>
      <trkpt lat="43.96752" lon="5.40995">
        <ele>719.5</ele>
        <time>2019-10-27T12:03:52Z</time>
      </trkpt>
      <trkpt lat="43.96755" lon="5.40996">
        <ele>720</ele>
        <time>2019-10-27T12:03:55Z</time>
      </trkpt>
      <trkpt lat="43.96759" lon="5.40998">
        <ele>720.4</ele>
        <time>2019-10-27T12:03:58Z</time>
      </trkpt>
      <trkpt lat="43.96761" lon="5.40999">
        <ele>720.9</ele>
        <time>2019-10-27T12:04:01Z</time>
      </trkpt>
      <trkpt lat="43.96764" lon="5.41002">
        <ele>721.6</ele>
        <time>2019-10-27T12:04:04Z</time>
      </trkpt>
      <trkpt lat="43.96767" lon="5.41003">
        <ele>722.1</ele>
        <time>2019-10-27T12:04:07Z</time>
      </trkpt>
      <trkpt lat="43.96771" lon="5.41005">
        <ele>722.9</ele>
        <time>2019-10-27T12:04:10Z</time>
      </trkpt>
      <trkpt lat="43.96773" lon="5.41005">
        <ele>723.4</ele>
        <time>2019-10-27T12:04:13Z</time>
      </trkpt>
      <trkpt lat="43.96776" lon="5.41006">
        <ele>724</ele>
        <time>2019-10-27T12:04:16Z</time>
      </trkpt>
      <trkpt lat="43.96782" lon="5.41005">
        <ele>725.2</ele>
        <time>2019-10-27T12:06:16Z</time>
      </trkpt>
      <trkpt lat="43.96785" lon="5.41006">
        <ele>725.8</ele>
        <time>2019-10-27T12:06:18Z</time>
      </trkpt>
      <trkpt lat="43.96787" lon="5.41006">
        <ele>726.3</ele>
        <time>2019-10-27T12:06:20Z</time>
      </trkpt>
      <trkpt lat="43.96791" lon="5.41007">
        <ele>726.9</ele>
        <time>2019-10-27T12:06:22Z</time>
      </trkpt>
      <trkpt lat="43.96794" lon="5.41007">
        <ele>727.3</ele>
        <time>2019-10-27T12:06:24Z</time>
      </trkpt>
      <trkpt lat="43.96796" lon="5.41008">
        <ele>727.7</ele>
        <time>2019-10-27T12:06:26Z</time>
      </trkpt>
      <trkpt lat="43.968" lon="5.41009">
        <ele>728.2</ele>
        <time>2019-10-27T12:06:28Z</time>
      </trkpt>
      <trkpt lat="43.96802" lon="5.4101">
        <ele>728.6</ele>
        <time>2019-10-27T12:06:30Z</time>
      </trkpt>
      <trkpt lat="43.96805" lon="5.41011">
        <ele>728.9</ele>
        <time>2019-10-27T12:06:32Z</time>
      </trkpt>
      <trkpt lat="43.96808" lon="5.41012">
        <ele>729.3</ele>
        <time>2019-10-27T12:06:34Z</time>
      </trkpt>
      <trkpt lat="43.96812" lon="5.41014">
        <ele>729.8</ele>
        <time>2019-10-27T12:06:37Z</time>
      </trkpt>
      <trkpt lat="43.96814" lon="5.41015">
        <ele>730.1</ele>
        <time>2019-10-27T12:06:39Z</time>
      </trkpt>
      <trkpt lat="43.96818" lon="5.41017">
        <ele>730.6</ele>
        <time>2019-10-27T12:06:42Z</time>
      </trkpt>
      <trkpt lat="43.96821" lon="5.41019">
        <ele>731</ele>
        <time>2019-10-27T12:06:44Z</time>
      </trkpt>
      <trkpt lat="43.96824" lon="5.41021">
        <ele>731.4</ele>
        <time>2019-10-27T12:06:47Z</time>
      </trkpt>
      <trkpt lat="43.96828" lon="5.41024">
        <ele>731.9</ele>
        <time>2019-10-27T12:06:50Z</time>
      </trkpt>
      <trkpt lat="43.96832" lon="5.41026">
        <ele>732.4</ele>
        <time>2019-10-27T12:06:53Z</time>
      </trkpt>
      <trkpt lat="43.96835" lon="5.41028">
        <ele>732.9</ele>
        <time>2019-10-27T12:06:56Z</time>
      </trkpt>
      <trkpt lat="43.96838" lon="5.4103">
        <ele>733.3</ele>
        <time>2019-10-27T12:06:58Z</time>
      </trkpt>
      <trkpt lat="43.96842" lon="5.41032">
        <ele>733.8</ele>
        <time>2019-10-27T12:07:01Z</time>
      </trkpt>
      <trkpt lat="43.96845" lon="5.41034">
        <ele>734.1</ele>
        <time>2019-10-27T12:07:03Z</time>
      </trkpt>
      <trkpt lat="43.96847" lon="5.41035">
        <ele>734.4</ele>
        <time>2019-10-27T12:07:05Z</time>
      </trkpt>
      <trkpt lat="43.9685" lon="5.41038">
        <ele>734.9</ele>
        <time>2019-10-27T12:07:08Z</time>
      </trkpt>
      <trkpt lat="43.96853" lon="5.41039">
        <ele>735.2</ele>
        <time>2019-10-27T12:07:10Z</time>
      </trkpt>
      <trkpt lat="43.96856" lon="5.41041">
        <ele>735.5</ele>
        <time>2019-10-27T12:07:12Z</time>
      </trkpt>
      <trkpt lat="43.96859" lon="5.41043">
        <ele>736</ele>
        <time>2019-10-27T12:07:14Z</time>
      </trkpt>
      <trkpt lat="43.96861" lon="5.41046">
        <ele>736.4</ele>
        <time>2019-10-27T12:07:16Z</time>
      </trkpt>
      <trkpt lat="43.96865" lon="5.41048">
        <ele>736.8</ele>
        <time>2019-10-27T12:07:19Z</time>
      </trkpt>
      <trkpt lat="43.96868" lon="5.41052">
        <ele>737.3</ele>
        <time>2019-10-27T12:07:22Z</time>
      </trkpt>
      <trkpt lat="43.96871" lon="5.41055">
        <ele>737.7</ele>
        <time>2019-10-27T12:07:25Z</time>
      </trkpt>
      <trkpt lat="43.96874" lon="5.41057">
        <ele>738</ele>
        <time>2019-10-27T12:07:27Z</time>
      </trkpt>
      <trkpt lat="43.96877" lon="5.41058">
        <ele>738.2</ele>
        <time>2019-10-27T12:07:29Z</time>
      </trkpt>
      <trkpt lat="43.96879" lon="5.4106">
        <ele>738.5</ele>
        <time>2019-10-27T12:07:31Z</time>
      </trkpt>
      <trkpt lat="43.96882" lon="5.41062">
        <ele>738.7</ele>
        <time>2019-10-27T12:07:33Z</time>
      </trkpt>
      <trkpt lat="43.96885" lon="5.41064">
        <ele>738.9</ele>
        <time>2019-10-27T12:07:35Z</time>
      </trkpt>
      <trkpt lat="43.96887" lon="5.41066">
        <ele>739.1</ele>
        <time>2019-10-27T12:07:37Z</time>
      </trkpt>
      <trkpt lat="43.9689" lon="5.41067">
        <ele>739.3</ele>
        <time>2019-10-27T12:07:39Z</time>
      </trkpt>
      <trkpt lat="43.96893" lon="5.41069">
        <ele>739.6</ele>
        <time>2019-10-27T12:07:42Z</time>
      </trkpt>
      <trkpt lat="43.96897" lon="5.41071">
        <ele>739.9</ele>
        <time>2019-10-27T12:07:45Z</time>
      </trkpt>
      <trkpt lat="43.96899" lon="5.41073">
        <ele>740.1</ele>
        <time>2019-10-27T12:07:47Z</time>
      </trkpt>
      <trkpt lat="43.96902" lon="5.41074">
        <ele>740.4</ele>
        <time>2019-10-27T12:07:49Z</time>
      </trkpt>
      <trkpt lat="43.96904" lon="5.41076">
        <ele>740.6</ele>
        <time>2019-10-27T12:07:51Z</time>
      </trkpt>
      <trkpt lat="43.96907" lon="5.41078">
        <ele>740.9</ele>
        <time>2019-10-27T12:07:53Z</time>
      </trkpt>
      <trkpt lat="43.96911" lon="5.4108">
        <ele>741.3</ele>
        <time>2019-10-27T12:07:56Z</time>
      </trkpt>
      <trkpt lat="43.96913" lon="5.41081">
        <ele>741.6</ele>
        <time>2019-10-27T12:07:58Z</time>
      </trkpt>
      <trkpt lat="43.96917" lon="5.41083">
        <ele>742</ele>
        <time>2019-10-27T12:08:00Z</time>
      </trkpt>
      <trkpt lat="43.9692" lon="5.41085">
        <ele>742.5</ele>
        <time>2019-10-27T12:08:03Z</time>
      </trkpt>
      <trkpt lat="43.96923" lon="5.41086">
        <ele>742.8</ele>
        <time>2019-10-27T12:08:05Z</time>
      </trkpt>
      <trkpt lat="43.96927" lon="5.41087">
        <ele>743.3</ele>
        <time>2019-10-27T12:08:07Z</time>
      </trkpt>
      <trkpt lat="43.96929" lon="5.41088">
        <ele>743.7</ele>
        <time>2019-10-27T12:08:09Z</time>
      </trkpt>
      <trkpt lat="43.96932" lon="5.4109">
        <ele>744.1</ele>
        <time>2019-10-27T12:08:11Z</time>
      </trkpt>
      <trkpt lat="43.96935" lon="5.41091">
        <ele>744.5</ele>
        <time>2019-10-27T12:08:13Z</time>
      </trkpt>
      <trkpt lat="43.96938" lon="5.41093">
        <ele>744.9</ele>
        <time>2019-10-27T12:08:15Z</time>
      </trkpt>
      <trkpt lat="43.96941" lon="5.41094">
        <ele>745.2</ele>
        <time>2019-10-27T12:08:17Z</time>
      </trkpt>
      <trkpt lat="43.96944" lon="5.41095">
        <ele>745.6</ele>
        <time>2019-10-27T12:08:19Z</time>
      </trkpt>
      <trkpt lat="43.96946" lon="5.41096">
        <ele>746</ele>
        <time>2019-10-27T12:08:21Z</time>
      </trkpt>
      <trkpt lat="43.96951" lon="5.41099">
        <ele>746.5</ele>
        <time>2019-10-27T12:08:24Z</time>
      </trkpt>
      <trkpt lat="43.96954" lon="5.411">
        <ele>746.9</ele>
        <time>2019-10-27T12:08:27Z</time>
      </trkpt>
      <trkpt lat="43.96958" lon="5.41101">
        <ele>747.5</ele>
        <time>2019-10-27T12:08:30Z</time>
      </trkpt>
      <trkpt lat="43.96962" lon="5.41103">
        <ele>748</ele>
        <time>2019-10-27T12:08:32Z</time>
      </trkpt>
      <trkpt lat="43.96965" lon="5.41105">
        <ele>748.5</ele>
        <time>2019-10-27T12:08:34Z</time>
      </trkpt>
      <trkpt lat="43.96968" lon="5.41107">
        <ele>749.1</ele>
        <time>2019-10-27T12:08:37Z</time>
      </trkpt>
      <trkpt lat="43.96971" lon="5.41108">
        <ele>749.5</ele>
        <time>2019-10-27T12:08:39Z</time>
      </trkpt>
      <trkpt lat="43.96974" lon="5.41109">
        <ele>749.9</ele>
        <time>2019-10-27T12:08:41Z</time>
      </trkpt>
      <trkpt lat="43.96977" lon="5.41111">
        <ele>750.4</ele>
        <time>2019-10-27T12:08:44Z</time>
      </trkpt>
      <trkpt lat="43.9698" lon="5.41112">
        <ele>750.8</ele>
        <time>2019-10-27T12:08:46Z</time>
      </trkpt>
      <trkpt lat="43.96983" lon="5.41113">
        <ele>751.2</ele>
        <time>2019-10-27T12:08:49Z</time>
      </trkpt>
      <trkpt lat="43.96986" lon="5.41115">
        <ele>751.6</ele>
        <time>2019-10-27T12:08:51Z</time>
      </trkpt>
      <trkpt lat="43.96988" lon="5.41118">
        <ele>752</ele>
        <time>2019-10-27T12:08:54Z</time>
      </trkpt>
      <trkpt lat="43.96991" lon="5.41121">
        <ele>752.4</ele>
        <time>2019-10-27T12:08:59Z</time>
      </trkpt>
      <trkpt lat="43.96993" lon="5.41123">
        <ele>752.8</ele>
        <time>2019-10-27T12:09:03Z</time>
      </trkpt>
      <trkpt lat="43.96996" lon="5.41114">
        <ele>753.6</ele>
        <time>2019-10-27T12:27:52Z</time>
      </trkpt>
      <trkpt lat="43.97" lon="5.41114">
        <ele>753.4</ele>
        <time>2019-10-27T12:27:54Z</time>
      </trkpt>
      <trkpt lat="43.97003" lon="5.41114">
        <ele>753.2</ele>
        <time>2019-10-27T12:27:57Z</time>
      </trkpt>
      <trkpt lat="43.97004" lon="5.41118">
        <ele>753.1</ele>
        <time>2019-10-27T12:28:03Z</time>
      </trkpt>
      <trkpt lat="43.97004" lon="5.41113">
        <ele>753</ele>
        <time>2019-10-27T12:28:06Z</time>
      </trkpt>
      <trkpt lat="43.97002" lon="5.41109">
        <ele>752.9</ele>
        <time>2019-10-27T12:28:11Z</time>
      </trkpt>
      <trkpt lat="43.96999" lon="5.41106">
        <ele>752.8</ele>
        <time>2019-10-27T12:28:14Z</time>
      </trkpt>
      <trkpt lat="43.96997" lon="5.41103">
        <ele>752.8</ele>
        <time>2019-10-27T12:28:17Z</time>
      </trkpt>
      <trkpt lat="43.96995" lon="5.411">
        <ele>752.7</ele>
        <time>2019-10-27T12:28:21Z</time>
      </trkpt>
      <trkpt lat="43.96992" lon="5.41097">
        <ele>752.6</ele>
        <time>2019-10-27T12:28:27Z</time>
      </trkpt>
      <trkpt lat="43.96989" lon="5.41095">
        <ele>752.5</ele>
        <time>2019-10-27T12:28:30Z</time>
      </trkpt>
      <trkpt lat="43.96985" lon="5.41092">
        <ele>752.5</ele>
        <time>2019-10-27T12:28:32Z</time>
      </trkpt>
      <trkpt lat="43.96981" lon="5.41089">
        <ele>752.4</ele>
        <time>2019-10-27T12:28:34Z</time>
      </trkpt>
      <trkpt lat="43.96978" lon="5.41085">
        <ele>752.3</ele>
        <time>2019-10-27T12:28:36Z</time>
      </trkpt>
      <trkpt lat="43.96975" lon="5.41081">
        <ele>752.3</ele>
        <time>2019-10-27T12:28:38Z</time>
      </trkpt>
      <trkpt lat="43.96972" lon="5.41078">
        <ele>752.2</ele>
        <time>2019-10-27T12:28:40Z</time>
      </trkpt>
      <trkpt lat="43.96968" lon="5.41074">
        <ele>752.1</ele>
        <time>2019-10-27T12:28:42Z</time>
      </trkpt>
      <trkpt lat="43.96965" lon="5.41072">
        <ele>752.1</ele>
        <time>2019-10-27T12:28:43Z</time>
      </trkpt>
      <trkpt lat="43.96962" lon="5.41069">
        <ele>752</ele>
        <time>2019-10-27T12:28:44Z</time>
      </trkpt>
      <trkpt lat="43.96959" lon="5.41065">
        <ele>752</ele>
        <time>2019-10-27T12:28:45Z</time>
      </trkpt>
      <trkpt lat="43.96956" lon="5.41063">
        <ele>751.9</ele>
        <time>2019-10-27T12:28:46Z</time>
      </trkpt>
      <trkpt lat="43.96952" lon="5.4106">
        <ele>751.9</ele>
        <time>2019-10-27T12:28:47Z</time>
      </trkpt>
      <trkpt lat="43.9695" lon="5.41057">
        <ele>751.8</ele>
        <time>2019-10-27T12:28:48Z</time>
      </trkpt>
      <trkpt lat="43.96948" lon="5.41055">
        <ele>751.8</ele>
        <time>2019-10-27T12:28:50Z</time>
      </trkpt>
      <trkpt lat="43.96945" lon="5.41051">
        <ele>751.8</ele>
        <time>2019-10-27T12:28:52Z</time>
      </trkpt>
      <trkpt lat="43.96942" lon="5.41047">
        <ele>751.7</ele>
        <time>2019-10-27T12:28:54Z</time>
      </trkpt>
      <trkpt lat="43.96938" lon="5.41042">
        <ele>751.7</ele>
        <time>2019-10-27T12:28:56Z</time>
      </trkpt>
      <trkpt lat="43.96935" lon="5.41037">
        <ele>751.6</ele>
        <time>2019-10-27T12:28:58Z</time>
      </trkpt>
      <trkpt lat="43.96932" lon="5.41032">
        <ele>751.6</ele>
        <time>2019-10-27T12:29:00Z</time>
      </trkpt>
      <trkpt lat="43.9693" lon="5.41028">
        <ele>751.5</ele>
        <time>2019-10-27T12:29:02Z</time>
      </trkpt>
      <trkpt lat="43.96928" lon="5.41023">
        <ele>751.5</ele>
        <time>2019-10-27T12:29:04Z</time>
      </trkpt>
      <trkpt lat="43.96924" lon="5.41019">
        <ele>751.4</ele>
        <time>2019-10-27T12:29:06Z</time>
      </trkpt>
      <trkpt lat="43.96922" lon="5.41016">
        <ele>751.3</ele>
        <time>2019-10-27T12:29:07Z</time>
      </trkpt>
      <trkpt lat="43.96918" lon="5.4101">
        <ele>751.2</ele>
        <time>2019-10-27T12:29:09Z</time>
      </trkpt>
      <trkpt lat="43.96915" lon="5.41007">
        <ele>751.1</ele>
        <time>2019-10-27T12:29:10Z</time>
      </trkpt>
      <trkpt lat="43.96912" lon="5.41004">
        <ele>751</ele>
        <time>2019-10-27T12:29:11Z</time>
      </trkpt>
      <trkpt lat="43.96909" lon="5.41001">
        <ele>750.8</ele>
        <time>2019-10-27T12:29:12Z</time>
      </trkpt>
      <trkpt lat="43.96906" lon="5.40998">
        <ele>750.7</ele>
        <time>2019-10-27T12:29:13Z</time>
      </trkpt>
      <trkpt lat="43.96903" lon="5.40996">
        <ele>750.5</ele>
        <time>2019-10-27T12:29:14Z</time>
      </trkpt>
      <trkpt lat="43.96899" lon="5.40991">
        <ele>750.3</ele>
        <time>2019-10-27T12:29:16Z</time>
      </trkpt>
      <trkpt lat="43.96896" lon="5.40988">
        <ele>750.2</ele>
        <time>2019-10-27T12:29:17Z</time>
      </trkpt>
      <trkpt lat="43.96892" lon="5.40985">
        <ele>750</ele>
        <time>2019-10-27T12:29:18Z</time>
      </trkpt>
      <trkpt lat="43.96889" lon="5.40982">
        <ele>749.7</ele>
        <time>2019-10-27T12:29:19Z</time>
      </trkpt>
      <trkpt lat="43.96886" lon="5.40978">
        <ele>749.5</ele>
        <time>2019-10-27T12:29:20Z</time>
      </trkpt>
      <trkpt lat="43.96883" lon="5.40973">
        <ele>749.3</ele>
        <time>2019-10-27T12:29:21Z</time>
      </trkpt>
      <trkpt lat="43.9688" lon="5.4097">
        <ele>749</ele>
        <time>2019-10-27T12:29:22Z</time>
      </trkpt>
      <trkpt lat="43.96876" lon="5.40965">
        <ele>748.8</ele>
        <time>2019-10-27T12:29:23Z</time>
      </trkpt>
      <trkpt lat="43.96872" lon="5.40961">
        <ele>748.5</ele>
        <time>2019-10-27T12:29:24Z</time>
      </trkpt>
      <trkpt lat="43.96869" lon="5.40957">
        <ele>748.2</ele>
        <time>2019-10-27T12:29:25Z</time>
      </trkpt>
      <trkpt lat="43.96866" lon="5.40953">
        <ele>748</ele>
        <time>2019-10-27T12:29:26Z</time>
      </trkpt>
      <trkpt lat="43.96863" lon="5.4095">
        <ele>747.8</ele>
        <time>2019-10-27T12:29:27Z</time>
      </trkpt>
      <trkpt lat="43.9686" lon="5.40948">
        <ele>747.7</ele>
        <time>2019-10-27T12:29:28Z</time>
      </trkpt>
      <trkpt lat="43.96857" lon="5.40946">
        <ele>747.5</ele>
        <time>2019-10-27T12:29:29Z</time>
      </trkpt>
      <trkpt lat="43.96854" lon="5.40942">
        <ele>747.3</ele>
        <time>2019-10-27T12:29:30Z</time>
      </trkpt>
      <trkpt lat="43.96851" lon="5.40939">
        <ele>747.1</ele>
        <time>2019-10-27T12:29:31Z</time>
      </trkpt>
      <trkpt lat="43.96848" lon="5.40937">
        <ele>747</ele>
        <time>2019-10-27T12:29:32Z</time>
      </trkpt>
      <trkpt lat="43.96845" lon="5.40934">
        <ele>746.8</ele>
        <time>2019-10-27T12:29:33Z</time>
      </trkpt>
      <trkpt lat="43.96842" lon="5.40931">
        <ele>746.6</ele>
        <time>2019-10-27T12:29:34Z</time>
      </trkpt>
      <trkpt lat="43.96838" lon="5.40928">
        <ele>746.4</ele>
        <time>2019-10-27T12:29:35Z</time>
      </trkpt>
      <trkpt lat="43.96834" lon="5.40926">
        <ele>746.2</ele>
        <time>2019-10-27T12:29:36Z</time>
      </trkpt>
      <trkpt lat="43.96831" lon="5.40921">
        <ele>746</ele>
        <time>2019-10-27T12:29:37Z</time>
      </trkpt>
      <trkpt lat="43.96828" lon="5.40918">
        <ele>745.8</ele>
        <time>2019-10-27T12:29:38Z</time>
      </trkpt>
      <trkpt lat="43.96824" lon="5.40915">
        <ele>745.6</ele>
        <time>2019-10-27T12:29:39Z</time>
      </trkpt>
      <trkpt lat="43.9682" lon="5.40911">
        <ele>745.3</ele>
        <time>2019-10-27T12:29:40Z</time>
      </trkpt>
      <trkpt lat="43.96817" lon="5.40907">
        <ele>745.1</ele>
        <time>2019-10-27T12:29:41Z</time>
      </trkpt>
      <trkpt lat="43.96813" lon="5.40903">
        <ele>744.8</ele>
        <time>2019-10-27T12:29:42Z</time>
      </trkpt>
      <trkpt lat="43.9681" lon="5.40899">
        <ele>744.6</ele>
        <time>2019-10-27T12:29:43Z</time>
      </trkpt>
      <trkpt lat="43.96807" lon="5.40895">
        <ele>744.3</ele>
        <time>2019-10-27T12:29:44Z</time>
      </trkpt>
      <trkpt lat="43.96804" lon="5.40893">
        <ele>743.9</ele>
        <time>2019-10-27T12:29:45Z</time>
      </trkpt>
      <trkpt lat="43.968" lon="5.4089">
        <ele>743.6</ele>
        <time>2019-10-27T12:29:46Z</time>
      </trkpt>
      <trkpt lat="43.96796" lon="5.40888">
        <ele>743.2</ele>
        <time>2019-10-27T12:29:47Z</time>
      </trkpt>
      <trkpt lat="43.96791" lon="5.40886">
        <ele>742.7</ele>
        <time>2019-10-27T12:29:48Z</time>
      </trkpt>
      <trkpt lat="43.96786" lon="5.40884">
        <ele>742.1</ele>
        <time>2019-10-27T12:29:49Z</time>
      </trkpt>
      <trkpt lat="43.96781" lon="5.40883">
        <ele>741.6</ele>
        <time>2019-10-27T12:29:50Z</time>
      </trkpt>
      <trkpt lat="43.96777" lon="5.40881">
        <ele>741.2</ele>
        <time>2019-10-27T12:29:51Z</time>
      </trkpt>
      <trkpt lat="43.96772" lon="5.40878">
        <ele>740.7</ele>
        <time>2019-10-27T12:29:52Z</time>
      </trkpt>
      <trkpt lat="43.96767" lon="5.40875">
        <ele>740.1</ele>
        <time>2019-10-27T12:29:53Z</time>
      </trkpt>
      <trkpt lat="43.96762" lon="5.40868">
        <ele>739.6</ele>
        <time>2019-10-27T12:29:54Z</time>
      </trkpt>
      <trkpt lat="43.96758" lon="5.40863">
        <ele>739.2</ele>
        <time>2019-10-27T12:29:55Z</time>
      </trkpt>
      <trkpt lat="43.96755" lon="5.4086">
        <ele>739</ele>
        <time>2019-10-27T12:29:56Z</time>
      </trkpt>
      <trkpt lat="43.96752" lon="5.40856">
        <ele>738.7</ele>
        <time>2019-10-27T12:29:57Z</time>
      </trkpt>
      <trkpt lat="43.9675" lon="5.40854">
        <ele>738.5</ele>
        <time>2019-10-27T12:29:58Z</time>
      </trkpt>
      <trkpt lat="43.96747" lon="5.40849">
        <ele>738.3</ele>
        <time>2019-10-27T12:29:59Z</time>
      </trkpt>
      <trkpt lat="43.96743" lon="5.40846">
        <ele>738</ele>
        <time>2019-10-27T12:30:00Z</time>
      </trkpt>
      <trkpt lat="43.9674" lon="5.40843">
        <ele>737.8</ele>
        <time>2019-10-27T12:30:01Z</time>
      </trkpt>
      <trkpt lat="43.96735" lon="5.4084">
        <ele>737.5</ele>
        <time>2019-10-27T12:30:02Z</time>
      </trkpt>
      <trkpt lat="43.9673" lon="5.40837">
        <ele>737.2</ele>
        <time>2019-10-27T12:30:03Z</time>
      </trkpt>
      <trkpt lat="43.96725" lon="5.40834">
        <ele>736.6</ele>
        <time>2019-10-27T12:30:04Z</time>
      </trkpt>
      <trkpt lat="43.96721" lon="5.40831">
        <ele>736.2</ele>
        <time>2019-10-27T12:30:05Z</time>
      </trkpt>
      <trkpt lat="43.96719" lon="5.40828">
        <ele>735.7</ele>
        <time>2019-10-27T12:30:06Z</time>
      </trkpt>
      <trkpt lat="43.96715" lon="5.40824">
        <ele>735.2</ele>
        <time>2019-10-27T12:30:08Z</time>
      </trkpt>
      <trkpt lat="43.9671" lon="5.40821">
        <ele>734.7</ele>
        <time>2019-10-27T12:30:10Z</time>
      </trkpt>
      <trkpt lat="43.96707" lon="5.40819">
        <ele>734.3</ele>
        <time>2019-10-27T12:30:11Z</time>
      </trkpt>
      <trkpt lat="43.96704" lon="5.40817">
        <ele>733.9</ele>
        <time>2019-10-27T12:30:12Z</time>
      </trkpt>
      <trkpt lat="43.967" lon="5.40816">
        <ele>733.5</ele>
        <time>2019-10-27T12:30:13Z</time>
      </trkpt>
      <trkpt lat="43.96697" lon="5.40813">
        <ele>733</ele>
        <time>2019-10-27T12:30:14Z</time>
      </trkpt>
      <trkpt lat="43.96692" lon="5.40811">
        <ele>732.5</ele>
        <time>2019-10-27T12:30:15Z</time>
      </trkpt>
      <trkpt lat="43.96688" lon="5.40808">
        <ele>731.9</ele>
        <time>2019-10-27T12:30:16Z</time>
      </trkpt>
      <trkpt lat="43.96684" lon="5.40806">
        <ele>731.4</ele>
        <time>2019-10-27T12:30:17Z</time>
      </trkpt>
      <trkpt lat="43.96681" lon="5.40803">
        <ele>730.8</ele>
        <time>2019-10-27T12:30:18Z</time>
      </trkpt>
      <trkpt lat="43.96677" lon="5.408">
        <ele>730.2</ele>
        <time>2019-10-27T12:30:19Z</time>
      </trkpt>
      <trkpt lat="43.96671" lon="5.40799">
        <ele>729.5</ele>
        <time>2019-10-27T12:30:20Z</time>
      </trkpt>
      <trkpt lat="43.96666" lon="5.40797">
        <ele>728.7</ele>
        <time>2019-10-27T12:30:21Z</time>
      </trkpt>
      <trkpt lat="43.96657" lon="5.40794">
        <ele>727.6</ele>
        <time>2019-10-27T12:30:22Z</time>
      </trkpt>
      <trkpt lat="43.96648" lon="5.40791">
        <ele>726.4</ele>
        <time>2019-10-27T12:30:23Z</time>
      </trkpt>
      <trkpt lat="43.9664" lon="5.40787">
        <ele>725</ele>
        <time>2019-10-27T12:30:24Z</time>
      </trkpt>
      <trkpt lat="43.96632" lon="5.40783">
        <ele>723.6</ele>
        <time>2019-10-27T12:30:25Z</time>
      </trkpt>
      <trkpt lat="43.96623" lon="5.40779">
        <ele>722.1</ele>
        <time>2019-10-27T12:30:26Z</time>
      </trkpt>
      <trkpt lat="43.96614" lon="5.40772">
        <ele>720.6</ele>
        <time>2019-10-27T12:30:27Z</time>
      </trkpt>
      <trkpt lat="43.96605" lon="5.40766">
        <ele>718.8</ele>
        <time>2019-10-27T12:30:28Z</time>
      </trkpt>
      <trkpt lat="43.96595" lon="5.40759">
        <ele>717</ele>
        <time>2019-10-27T12:30:29Z</time>
      </trkpt>
      <trkpt lat="43.96586" lon="5.40754">
        <ele>715.4</ele>
        <time>2019-10-27T12:30:30Z</time>
      </trkpt>
      <trkpt lat="43.96577" lon="5.40749">
        <ele>713.9</ele>
        <time>2019-10-27T12:30:31Z</time>
      </trkpt>
      <trkpt lat="43.96566" lon="5.40745">
        <ele>712</ele>
        <time>2019-10-27T12:30:32Z</time>
      </trkpt>
      <trkpt lat="43.96556" lon="5.40739">
        <ele>709.9</ele>
        <time>2019-10-27T12:30:33Z</time>
      </trkpt>
      <trkpt lat="43.96545" lon="5.40733">
        <ele>707.7</ele>
        <time>2019-10-27T12:30:34Z</time>
      </trkpt>
      <trkpt lat="43.96535" lon="5.40723">
        <ele>705.5</ele>
        <time>2019-10-27T12:30:35Z</time>
      </trkpt>
      <trkpt lat="43.96525" lon="5.40714">
        <ele>703.6</ele>
        <time>2019-10-27T12:30:36Z</time>
      </trkpt>
      <trkpt lat="43.96515" lon="5.40706">
        <ele>701.8</ele>
        <time>2019-10-27T12:30:37Z</time>
      </trkpt>
      <trkpt lat="43.96505" lon="5.40699">
        <ele>699.9</ele>
        <time>2019-10-27T12:30:38Z</time>
      </trkpt>
      <trkpt lat="43.96494" lon="5.40694">
        <ele>698.2</ele>
        <time>2019-10-27T12:30:39Z</time>
      </trkpt>
      <trkpt lat="43.96483" lon="5.40688">
        <ele>695.9</ele>
        <time>2019-10-27T12:30:40Z</time>
      </trkpt>
      <trkpt lat="43.96473" lon="5.40684">
        <ele>693.7</ele>
        <time>2019-10-27T12:30:41Z</time>
      </trkpt>
      <trkpt lat="43.96464" lon="5.40679">
        <ele>691.6</ele>
        <time>2019-10-27T12:30:42Z</time>
      </trkpt>
      <trkpt lat="43.96457" lon="5.40672">
        <ele>689.7</ele>
        <time>2019-10-27T12:30:43Z</time>
      </trkpt>
      <trkpt lat="43.96448" lon="5.40666">
        <ele>687.6</ele>
        <time>2019-10-27T12:30:44Z</time>
      </trkpt>
      <trkpt lat="43.9644" lon="5.40659">
        <ele>686</ele>
        <time>2019-10-27T12:30:45Z</time>
      </trkpt>
      <trkpt lat="43.96431" lon="5.40652">
        <ele>684.6</ele>
        <time>2019-10-27T12:30:46Z</time>
      </trkpt>
      <trkpt lat="43.96424" lon="5.40645">
        <ele>683.4</ele>
        <time>2019-10-27T12:30:47Z</time>
      </trkpt>
      <trkpt lat="43.96417" lon="5.4064">
        <ele>682</ele>
        <time>2019-10-27T12:30:48Z</time>
      </trkpt>
      <trkpt lat="43.96411" lon="5.40635">
        <ele>680.8</ele>
        <time>2019-10-27T12:30:49Z</time>
      </trkpt>
      <trkpt lat="43.96404" lon="5.40631">
        <ele>679.6</ele>
        <time>2019-10-27T12:30:50Z</time>
      </trkpt>
      <trkpt lat="43.96396" lon="5.40629">
        <ele>678.2</ele>
        <time>2019-10-27T12:30:51Z</time>
      </trkpt>
      <trkpt lat="43.96389" lon="5.40625">
        <ele>677</ele>
        <time>2019-10-27T12:30:52Z</time>
      </trkpt>
      <trkpt lat="43.96382" lon="5.40618">
        <ele>675.9</ele>
        <time>2019-10-27T12:30:53Z</time>
      </trkpt>
      <trkpt lat="43.96375" lon="5.40611">
        <ele>674.4</ele>
        <time>2019-10-27T12:30:54Z</time>
      </trkpt>
      <trkpt lat="43.96367" lon="5.40606">
        <ele>673</ele>
        <time>2019-10-27T12:30:55Z</time>
      </trkpt>
      <trkpt lat="43.96359" lon="5.40601">
        <ele>671.7</ele>
        <time>2019-10-27T12:30:56Z</time>
      </trkpt>
      <trkpt lat="43.9635" lon="5.40597">
        <ele>670.3</ele>
        <time>2019-10-27T12:30:57Z</time>
      </trkpt>
      <trkpt lat="43.96343" lon="5.40588">
        <ele>669.1</ele>
        <time>2019-10-27T12:30:58Z</time>
      </trkpt>
      <trkpt lat="43.96338" lon="5.40581">
        <ele>667.9</ele>
        <time>2019-10-27T12:30:59Z</time>
      </trkpt>
      <trkpt lat="43.9633" lon="5.40576">
        <ele>666.8</ele>
        <time>2019-10-27T12:31:00Z</time>
      </trkpt>
      <trkpt lat="43.96324" lon="5.40569">
        <ele>666.1</ele>
        <time>2019-10-27T12:31:01Z</time>
      </trkpt>
      <trkpt lat="43.9632" lon="5.4056">
        <ele>665.4</ele>
        <time>2019-10-27T12:31:02Z</time>
      </trkpt>
      <trkpt lat="43.96314" lon="5.40553">
        <ele>664.6</ele>
        <time>2019-10-27T12:31:03Z</time>
      </trkpt>
      <trkpt lat="43.96305" lon="5.4055">
        <ele>663.9</ele>
        <time>2019-10-27T12:31:04Z</time>
      </trkpt>
      <trkpt lat="43.96299" lon="5.40546">
        <ele>663.4</ele>
        <time>2019-10-27T12:31:05Z</time>
      </trkpt>
      <trkpt lat="43.96293" lon="5.40541">
        <ele>662.9</ele>
        <time>2019-10-27T12:31:06Z</time>
      </trkpt>
      <trkpt lat="43.96288" lon="5.40537">
        <ele>662.4</ele>
        <time>2019-10-27T12:31:07Z</time>
      </trkpt>
      <trkpt lat="43.96284" lon="5.40531">
        <ele>661.7</ele>
        <time>2019-10-27T12:31:08Z</time>
      </trkpt>
      <trkpt lat="43.96279" lon="5.40524">
        <ele>661</ele>
        <time>2019-10-27T12:31:09Z</time>
      </trkpt>
      <trkpt lat="43.96273" lon="5.40516">
        <ele>660.2</ele>
        <time>2019-10-27T12:31:10Z</time>
      </trkpt>
      <trkpt lat="43.96265" lon="5.40509">
        <ele>659.1</ele>
        <time>2019-10-27T12:31:11Z</time>
      </trkpt>
      <trkpt lat="43.96257" lon="5.40502">
        <ele>657.8</ele>
        <time>2019-10-27T12:31:12Z</time>
      </trkpt>
      <trkpt lat="43.96248" lon="5.40499">
        <ele>656.3</ele>
        <time>2019-10-27T12:31:13Z</time>
      </trkpt>
      <trkpt lat="43.96239" lon="5.40495">
        <ele>654.5</ele>
        <time>2019-10-27T12:31:14Z</time>
      </trkpt>
      <trkpt lat="43.96232" lon="5.40491">
        <ele>652.9</ele>
        <time>2019-10-27T12:31:15Z</time>
      </trkpt>
      <trkpt lat="43.96226" lon="5.40485">
        <ele>651.6</ele>
        <time>2019-10-27T12:31:16Z</time>
      </trkpt>
      <trkpt lat="43.96222" lon="5.40478">
        <ele>650.5</ele>
        <time>2019-10-27T12:31:17Z</time>
      </trkpt>
      <trkpt lat="43.96219" lon="5.4047">
        <ele>649</ele>
        <time>2019-10-27T12:31:18Z</time>
      </trkpt>
      <trkpt lat="43.96215" lon="5.40462">
        <ele>647.6</ele>
        <time>2019-10-27T12:31:19Z</time>
      </trkpt>
      <trkpt lat="43.96211" lon="5.40455">
        <ele>646.1</ele>
        <time>2019-10-27T12:31:20Z</time>
      </trkpt>
      <trkpt lat="43.96207" lon="5.40447">
        <ele>644.5</ele>
        <time>2019-10-27T12:31:21Z</time>
      </trkpt>
      <trkpt lat="43.96203" lon="5.4044">
        <ele>642.9</ele>
        <time>2019-10-27T12:31:22Z</time>
      </trkpt>
      <trkpt lat="43.96199" lon="5.40436">
        <ele>641.9</ele>
        <time>2019-10-27T12:31:23Z</time>
      </trkpt>
      <trkpt lat="43.96193" lon="5.40439">
        <ele>640.3</ele>
        <time>2019-10-27T12:31:25Z</time>
      </trkpt>
      <trkpt lat="43.96188" lon="5.40442">
        <ele>638.8</ele>
        <time>2019-10-27T12:31:26Z</time>
      </trkpt>
      <trkpt lat="43.96182" lon="5.40446">
        <ele>637.1</ele>
        <time>2019-10-27T12:31:27Z</time>
      </trkpt>
      <trkpt lat="43.96176" lon="5.40448">
        <ele>635.4</ele>
        <time>2019-10-27T12:31:28Z</time>
      </trkpt>
      <trkpt lat="43.96171" lon="5.40446">
        <ele>634.2</ele>
        <time>2019-10-27T12:31:29Z</time>
      </trkpt>
      <trkpt lat="43.96166" lon="5.40447">
        <ele>633.2</ele>
        <time>2019-10-27T12:31:30Z</time>
      </trkpt>
      <trkpt lat="43.96162" lon="5.40448">
        <ele>632.6</ele>
        <time>2019-10-27T12:31:32Z</time>
      </trkpt>
      <trkpt lat="43.96161" lon="5.40442">
        <ele>631.7</ele>
        <time>2019-10-27T12:31:34Z</time>
      </trkpt>
      <trkpt lat="43.9616" lon="5.40436">
        <ele>631.1</ele>
        <time>2019-10-27T12:31:35Z</time>
      </trkpt>
      <trkpt lat="43.9616" lon="5.40427">
        <ele>629.9</ele>
        <time>2019-10-27T12:31:37Z</time>
      </trkpt>
      <trkpt lat="43.96159" lon="5.40423">
        <ele>629.6</ele>
        <time>2019-10-27T12:31:38Z</time>
      </trkpt>
      <trkpt lat="43.9616" lon="5.40417">
        <ele>629</ele>
        <time>2019-10-27T12:31:39Z</time>
      </trkpt>
      <trkpt lat="43.9616" lon="5.4041">
        <ele>628.4</ele>
        <time>2019-10-27T12:31:40Z</time>
      </trkpt>
      <trkpt lat="43.9616" lon="5.40404">
        <ele>628</ele>
        <time>2019-10-27T12:31:41Z</time>
      </trkpt>
      <trkpt lat="43.96157" lon="5.404">
        <ele>627.8</ele>
        <time>2019-10-27T12:31:42Z</time>
      </trkpt>
      <trkpt lat="43.96155" lon="5.40397">
        <ele>627.6</ele>
        <time>2019-10-27T12:31:43Z</time>
      </trkpt>
      <trkpt lat="43.96151" lon="5.40391">
        <ele>627.4</ele>
        <time>2019-10-27T12:31:44Z</time>
      </trkpt>
      <trkpt lat="43.96147" lon="5.40387">
        <ele>627.2</ele>
        <time>2019-10-27T12:31:45Z</time>
      </trkpt>
      <trkpt lat="43.96143" lon="5.40382">
        <ele>627</ele>
        <time>2019-10-27T12:31:46Z</time>
      </trkpt>
      <trkpt lat="43.96138" lon="5.40379">
        <ele>626.8</ele>
        <time>2019-10-27T12:31:47Z</time>
      </trkpt>
      <trkpt lat="43.96133" lon="5.40375">
        <ele>626.6</ele>
        <time>2019-10-27T12:31:48Z</time>
      </trkpt>
      <trkpt lat="43.9613" lon="5.40371">
        <ele>626.5</ele>
        <time>2019-10-27T12:31:49Z</time>
      </trkpt>
      <trkpt lat="43.96125" lon="5.40368">
        <ele>626.4</ele>
        <time>2019-10-27T12:31:51Z</time>
      </trkpt>
      <trkpt lat="43.96121" lon="5.40368">
        <ele>626.3</ele>
        <time>2019-10-27T12:31:52Z</time>
      </trkpt>
      <trkpt lat="43.96118" lon="5.40367">
        <ele>626.2</ele>
        <time>2019-10-27T12:31:53Z</time>
      </trkpt>
      <trkpt lat="43.96114" lon="5.40366">
        <ele>626.1</ele>
        <time>2019-10-27T12:31:54Z</time>
      </trkpt>
      <trkpt lat="43.96109" lon="5.40365">
        <ele>626</ele>
        <time>2019-10-27T12:31:55Z</time>
      </trkpt>
      <trkpt lat="43.96105" lon="5.40363">
        <ele>625.8</ele>
        <time>2019-10-27T12:31:56Z</time>
      </trkpt>
      <trkpt lat="43.96099" lon="5.40362">
        <ele>625.6</ele>
        <time>2019-10-27T12:31:57Z</time>
      </trkpt>
      <trkpt lat="43.96094" lon="5.40361">
        <ele>625.4</ele>
        <time>2019-10-27T12:31:58Z</time>
      </trkpt>
      <trkpt lat="43.96089" lon="5.40359">
        <ele>625.3</ele>
        <time>2019-10-27T12:31:59Z</time>
      </trkpt>
      <trkpt lat="43.96084" lon="5.40358">
        <ele>625</ele>
        <time>2019-10-27T12:32:00Z</time>
      </trkpt>
      <trkpt lat="43.96079" lon="5.40357">
        <ele>624.7</ele>
        <time>2019-10-27T12:32:01Z</time>
      </trkpt>
      <trkpt lat="43.96074" lon="5.40355">
        <ele>624.4</ele>
        <time>2019-10-27T12:32:02Z</time>
      </trkpt>
      <trkpt lat="43.96068" lon="5.40353">
        <ele>623.9</ele>
        <time>2019-10-27T12:32:03Z</time>
      </trkpt>
      <trkpt lat="43.96062" lon="5.40351">
        <ele>623.4</ele>
        <time>2019-10-27T12:32:04Z</time>
      </trkpt>
      <trkpt lat="43.96054" lon="5.40348">
        <ele>622.8</ele>
        <time>2019-10-27T12:32:05Z</time>
      </trkpt>
      <trkpt lat="43.96048" lon="5.40345">
        <ele>622.3</ele>
        <time>2019-10-27T12:32:06Z</time>
      </trkpt>
      <trkpt lat="43.96044" lon="5.40342">
        <ele>621.9</ele>
        <time>2019-10-27T12:32:07Z</time>
      </trkpt>
      <trkpt lat="43.96039" lon="5.40339">
        <ele>621.6</ele>
        <time>2019-10-27T12:32:08Z</time>
      </trkpt>
      <trkpt lat="43.96034" lon="5.40336">
        <ele>621.2</ele>
        <time>2019-10-27T12:32:09Z</time>
      </trkpt>
      <trkpt lat="43.96026" lon="5.40332">
        <ele>620.6</ele>
        <time>2019-10-27T12:32:10Z</time>
      </trkpt>
      <trkpt lat="43.96019" lon="5.40329">
        <ele>620.2</ele>
        <time>2019-10-27T12:32:11Z</time>
      </trkpt>
      <trkpt lat="43.96013" lon="5.40325">
        <ele>619.8</ele>
        <time>2019-10-27T12:32:12Z</time>
      </trkpt>
      <trkpt lat="43.96008" lon="5.40319">
        <ele>619.5</ele>
        <time>2019-10-27T12:32:13Z</time>
      </trkpt>
      <trkpt lat="43.96004" lon="5.40315">
        <ele>619.1</ele>
        <time>2019-10-27T12:32:14Z</time>
      </trkpt>
      <trkpt lat="43.95999" lon="5.40311">
        <ele>618.9</ele>
        <time>2019-10-27T12:32:15Z</time>
      </trkpt>
      <trkpt lat="43.95995" lon="5.40307">
        <ele>618.5</ele>
        <time>2019-10-27T12:32:16Z</time>
      </trkpt>
      <trkpt lat="43.95989" lon="5.40304">
        <ele>618</ele>
        <time>2019-10-27T12:32:17Z</time>
      </trkpt>
      <trkpt lat="43.95983" lon="5.40302">
        <ele>617.5</ele>
        <time>2019-10-27T12:32:18Z</time>
      </trkpt>
      <trkpt lat="43.95977" lon="5.40298">
        <ele>617.1</ele>
        <time>2019-10-27T12:32:19Z</time>
      </trkpt>
      <trkpt lat="43.95971" lon="5.40292">
        <ele>616.7</ele>
        <time>2019-10-27T12:32:20Z</time>
      </trkpt>
      <trkpt lat="43.95966" lon="5.40285">
        <ele>616.2</ele>
        <time>2019-10-27T12:32:21Z</time>
      </trkpt>
      <trkpt lat="43.9596" lon="5.40279">
        <ele>615.8</ele>
        <time>2019-10-27T12:32:22Z</time>
      </trkpt>
      <trkpt lat="43.95955" lon="5.40274">
        <ele>615.4</ele>
        <time>2019-10-27T12:32:23Z</time>
      </trkpt>
      <trkpt lat="43.95951" lon="5.4027">
        <ele>615</ele>
        <time>2019-10-27T12:32:24Z</time>
      </trkpt>
      <trkpt lat="43.95946" lon="5.40266">
        <ele>614.5</ele>
        <time>2019-10-27T12:32:25Z</time>
      </trkpt>
      <trkpt lat="43.9594" lon="5.40262">
        <ele>614</ele>
        <time>2019-10-27T12:32:26Z</time>
      </trkpt>
      <trkpt lat="43.95934" lon="5.40258">
        <ele>612.9</ele>
        <time>2019-10-27T12:32:27Z</time>
      </trkpt>
      <trkpt lat="43.95927" lon="5.40253">
        <ele>612.3</ele>
        <time>2019-10-27T12:32:28Z</time>
      </trkpt>
      <trkpt lat="43.9592" lon="5.40249">
        <ele>611.6</ele>
        <time>2019-10-27T12:32:29Z</time>
      </trkpt>
      <trkpt lat="43.95913" lon="5.40246">
        <ele>610.5</ele>
        <time>2019-10-27T12:32:30Z</time>
      </trkpt>
      <trkpt lat="43.95906" lon="5.40242">
        <ele>609.4</ele>
        <time>2019-10-27T12:32:31Z</time>
      </trkpt>
      <trkpt lat="43.959" lon="5.40234">
        <ele>608.3</ele>
        <time>2019-10-27T12:32:32Z</time>
      </trkpt>
      <trkpt lat="43.95896" lon="5.40227">
        <ele>607.6</ele>
        <time>2019-10-27T12:32:33Z</time>
      </trkpt>
      <trkpt lat="43.95891" lon="5.4022">
        <ele>607</ele>
        <time>2019-10-27T12:32:34Z</time>
      </trkpt>
      <trkpt lat="43.95884" lon="5.40217">
        <ele>606.6</ele>
        <time>2019-10-27T12:32:35Z</time>
      </trkpt>
      <trkpt lat="43.95878" lon="5.40214">
        <ele>606.2</ele>
        <time>2019-10-27T12:32:36Z</time>
      </trkpt>
      <trkpt lat="43.95871" lon="5.40213">
        <ele>605.7</ele>
        <time>2019-10-27T12:32:37Z</time>
      </trkpt>
      <trkpt lat="43.95865" lon="5.40208">
        <ele>605.1</ele>
        <time>2019-10-27T12:32:38Z</time>
      </trkpt>
      <trkpt lat="43.9586" lon="5.40201">
        <ele>604.4</ele>
        <time>2019-10-27T12:32:39Z</time>
      </trkpt>
      <trkpt lat="43.95853" lon="5.40196">
        <ele>603.5</ele>
        <time>2019-10-27T12:32:40Z</time>
      </trkpt>
      <trkpt lat="43.95845" lon="5.40192">
        <ele>602.6</ele>
        <time>2019-10-27T12:32:41Z</time>
      </trkpt>
      <trkpt lat="43.95837" lon="5.40189">
        <ele>601.7</ele>
        <time>2019-10-27T12:32:42Z</time>
      </trkpt>
      <trkpt lat="43.95828" lon="5.40186">
        <ele>600.9</ele>
        <time>2019-10-27T12:32:43Z</time>
      </trkpt>
      <trkpt lat="43.9582" lon="5.40178">
        <ele>600</ele>
        <time>2019-10-27T12:32:44Z</time>
      </trkpt>
      <trkpt lat="43.95813" lon="5.40173">
        <ele>599.1</ele>
        <time>2019-10-27T12:32:45Z</time>
      </trkpt>
      <trkpt lat="43.95808" lon="5.40165">
        <ele>598.2</ele>
        <time>2019-10-27T12:32:46Z</time>
      </trkpt>
      <trkpt lat="43.95802" lon="5.40156">
        <ele>597.1</ele>
        <time>2019-10-27T12:32:47Z</time>
      </trkpt>
      <trkpt lat="43.95794" lon="5.40148">
        <ele>596</ele>
        <time>2019-10-27T12:32:48Z</time>
      </trkpt>
      <trkpt lat="43.95785" lon="5.40144">
        <ele>594.8</ele>
        <time>2019-10-27T12:32:49Z</time>
      </trkpt>
      <trkpt lat="43.95776" lon="5.40137">
        <ele>593.5</ele>
        <time>2019-10-27T12:32:50Z</time>
      </trkpt>
      <trkpt lat="43.95766" lon="5.40134">
        <ele>591.9</ele>
        <time>2019-10-27T12:32:51Z</time>
      </trkpt>
      <trkpt lat="43.95758" lon="5.40129">
        <ele>590.1</ele>
        <time>2019-10-27T12:32:52Z</time>
      </trkpt>
      <trkpt lat="43.95752" lon="5.40121">
        <ele>588.2</ele>
        <time>2019-10-27T12:32:53Z</time>
      </trkpt>
      <trkpt lat="43.95744" lon="5.40113">
        <ele>586.4</ele>
        <time>2019-10-27T12:32:54Z</time>
      </trkpt>
      <trkpt lat="43.95738" lon="5.40102">
        <ele>584.7</ele>
        <time>2019-10-27T12:32:55Z</time>
      </trkpt>
      <trkpt lat="43.9573" lon="5.40095">
        <ele>582.8</ele>
        <time>2019-10-27T12:32:56Z</time>
      </trkpt>
      <trkpt lat="43.95723" lon="5.40085">
        <ele>581.2</ele>
        <time>2019-10-27T12:32:57Z</time>
      </trkpt>
      <trkpt lat="43.9572" lon="5.40074">
        <ele>579.2</ele>
        <time>2019-10-27T12:32:58Z</time>
      </trkpt>
      <trkpt lat="43.95717" lon="5.40069">
        <ele>578.8</ele>
        <time>2019-10-27T12:32:59Z</time>
      </trkpt>
      <trkpt lat="43.95715" lon="5.40065">
        <ele>578.6</ele>
        <time>2019-10-27T12:33:00Z</time>
      </trkpt>
      <trkpt lat="43.95707" lon="5.4006">
        <ele>577.9</ele>
        <time>2019-10-27T12:33:53Z</time>
      </trkpt>
      <trkpt lat="43.95705" lon="5.40055">
        <ele>577.5</ele>
        <time>2019-10-27T12:33:55Z</time>
      </trkpt>
      <trkpt lat="43.95703" lon="5.40052">
        <ele>577.2</ele>
        <time>2019-10-27T12:33:56Z</time>
      </trkpt>
      <trkpt lat="43.957" lon="5.40049">
        <ele>576.9</ele>
        <time>2019-10-27T12:33:57Z</time>
      </trkpt>
      <trkpt lat="43.95697" lon="5.40047">
        <ele>576.6</ele>
        <time>2019-10-27T12:33:58Z</time>
      </trkpt>
      <trkpt lat="43.95693" lon="5.40044">
        <ele>576.1</ele>
        <time>2019-10-27T12:33:59Z</time>
      </trkpt>
      <trkpt lat="43.95688" lon="5.40039">
        <ele>575.3</ele>
        <time>2019-10-27T12:34:00Z</time>
      </trkpt>
      <trkpt lat="43.95682" lon="5.40034">
        <ele>574.4</ele>
        <time>2019-10-27T12:34:01Z</time>
      </trkpt>
      <trkpt lat="43.95676" lon="5.4003">
        <ele>573.3</ele>
        <time>2019-10-27T12:34:02Z</time>
      </trkpt>
      <trkpt lat="43.95672" lon="5.40027">
        <ele>572.5</ele>
        <time>2019-10-27T12:34:03Z</time>
      </trkpt>
      <trkpt lat="43.95668" lon="5.40025">
        <ele>571.7</ele>
        <time>2019-10-27T12:34:04Z</time>
      </trkpt>
      <trkpt lat="43.95662" lon="5.40022">
        <ele>570.8</ele>
        <time>2019-10-27T12:34:05Z</time>
      </trkpt>
      <trkpt lat="43.95657" lon="5.40022">
        <ele>570</ele>
        <time>2019-10-27T12:34:07Z</time>
      </trkpt>
      <trkpt lat="43.95655" lon="5.40021">
        <ele>569.5</ele>
        <time>2019-10-27T12:34:09Z</time>
      </trkpt>
      <trkpt lat="43.95651" lon="5.4002">
        <ele>569.1</ele>
        <time>2019-10-27T12:34:13Z</time>
      </trkpt>
      <trkpt lat="43.95648" lon="5.40017">
        <ele>568.3</ele>
        <time>2019-10-27T12:34:16Z</time>
      </trkpt>
      <trkpt lat="43.95645" lon="5.40014">
        <ele>567.6</ele>
        <time>2019-10-27T12:34:17Z</time>
      </trkpt>
      <trkpt lat="43.95642" lon="5.40011">
        <ele>566.8</ele>
        <time>2019-10-27T12:34:18Z</time>
      </trkpt>
      <trkpt lat="43.95638" lon="5.40008">
        <ele>566</ele>
        <time>2019-10-27T12:34:19Z</time>
      </trkpt>
      <trkpt lat="43.95634" lon="5.40004">
        <ele>565</ele>
        <time>2019-10-27T12:34:20Z</time>
      </trkpt>
      <trkpt lat="43.9563" lon="5.40001">
        <ele>564.2</ele>
        <time>2019-10-27T12:34:21Z</time>
      </trkpt>
      <trkpt lat="43.95626" lon="5.39997">
        <ele>563.2</ele>
        <time>2019-10-27T12:34:22Z</time>
      </trkpt>
      <trkpt lat="43.95621" lon="5.39991">
        <ele>561.9</ele>
        <time>2019-10-27T12:34:23Z</time>
      </trkpt>
      <trkpt lat="43.95615" lon="5.39986">
        <ele>560.5</ele>
        <time>2019-10-27T12:34:24Z</time>
      </trkpt>
      <trkpt lat="43.95608" lon="5.3998">
        <ele>559.1</ele>
        <time>2019-10-27T12:34:25Z</time>
      </trkpt>
      <trkpt lat="43.95601" lon="5.39973">
        <ele>557.4</ele>
        <time>2019-10-27T12:34:26Z</time>
      </trkpt>
      <trkpt lat="43.95593" lon="5.39966">
        <ele>555.5</ele>
        <time>2019-10-27T12:34:27Z</time>
      </trkpt>
      <trkpt lat="43.95585" lon="5.39961">
        <ele>553.8</ele>
        <time>2019-10-27T12:34:28Z</time>
      </trkpt>
      <trkpt lat="43.95576" lon="5.39957">
        <ele>551.9</ele>
        <time>2019-10-27T12:34:29Z</time>
      </trkpt>
      <trkpt lat="43.95567" lon="5.39955">
        <ele>549.7</ele>
        <time>2019-10-27T12:34:30Z</time>
      </trkpt>
      <trkpt lat="43.95558" lon="5.39953">
        <ele>547.5</ele>
        <time>2019-10-27T12:34:31Z</time>
      </trkpt>
      <trkpt lat="43.95549" lon="5.39949">
        <ele>545.3</ele>
        <time>2019-10-27T12:34:32Z</time>
      </trkpt>
      <trkpt lat="43.95539" lon="5.39946">
        <ele>543.1</ele>
        <time>2019-10-27T12:34:33Z</time>
      </trkpt>
      <trkpt lat="43.9553" lon="5.39942">
        <ele>541</ele>
        <time>2019-10-27T12:34:34Z</time>
      </trkpt>
      <trkpt lat="43.9552" lon="5.39942">
        <ele>538.6</ele>
        <time>2019-10-27T12:34:35Z</time>
      </trkpt>
      <trkpt lat="43.9551" lon="5.39939">
        <ele>536.4</ele>
        <time>2019-10-27T12:34:36Z</time>
      </trkpt>
      <trkpt lat="43.955" lon="5.39934">
        <ele>534.2</ele>
        <time>2019-10-27T12:34:37Z</time>
      </trkpt>
      <trkpt lat="43.9549" lon="5.39927">
        <ele>531.8</ele>
        <time>2019-10-27T12:34:38Z</time>
      </trkpt>
      <trkpt lat="43.95478" lon="5.39925">
        <ele>529.5</ele>
        <time>2019-10-27T12:34:39Z</time>
      </trkpt>
      <trkpt lat="43.95468" lon="5.39923">
        <ele>527.6</ele>
        <time>2019-10-27T12:34:40Z</time>
      </trkpt>
      <trkpt lat="43.95462" lon="5.39919">
        <ele>526.2</ele>
        <time>2019-10-27T12:34:41Z</time>
      </trkpt>
      <trkpt lat="43.95455" lon="5.39919">
        <ele>525</ele>
        <time>2019-10-27T12:34:42Z</time>
      </trkpt>
      <trkpt lat="43.95452" lon="5.39919">
        <ele>524.3</ele>
        <time>2019-10-27T12:34:43Z</time>
      </trkpt>
      <trkpt lat="43.95458" lon="5.39909">
        <ele>522.5</ele>
        <time>2019-10-27T12:37:23Z</time>
      </trkpt>
      <trkpt lat="43.95452" lon="5.39906">
        <ele>521.7</ele>
        <time>2019-10-27T12:37:25Z</time>
      </trkpt>
      <trkpt lat="43.95448" lon="5.39903">
        <ele>521</ele>
        <time>2019-10-27T12:37:26Z</time>
      </trkpt>
      <trkpt lat="43.95444" lon="5.399">
        <ele>520.1</ele>
        <time>2019-10-27T12:37:27Z</time>
      </trkpt>
      <trkpt lat="43.95438" lon="5.39895">
        <ele>519.1</ele>
        <time>2019-10-27T12:37:28Z</time>
      </trkpt>
      <trkpt lat="43.95432" lon="5.39889">
        <ele>518.1</ele>
        <time>2019-10-27T12:37:29Z</time>
      </trkpt>
      <trkpt lat="43.95426" lon="5.39883">
        <ele>517</ele>
        <time>2019-10-27T12:37:30Z</time>
      </trkpt>
      <trkpt lat="43.95419" lon="5.39876">
        <ele>515.9</ele>
        <time>2019-10-27T12:37:31Z</time>
      </trkpt>
      <trkpt lat="43.95412" lon="5.3987">
        <ele>514.6</ele>
        <time>2019-10-27T12:37:32Z</time>
      </trkpt>
      <trkpt lat="43.95404" lon="5.39864">
        <ele>513.2</ele>
        <time>2019-10-27T12:37:33Z</time>
      </trkpt>
      <trkpt lat="43.95397" lon="5.39858">
        <ele>511.9</ele>
        <time>2019-10-27T12:37:34Z</time>
      </trkpt>
      <trkpt lat="43.9539" lon="5.3985">
        <ele>510.6</ele>
        <time>2019-10-27T12:37:35Z</time>
      </trkpt>
      <trkpt lat="43.95382" lon="5.39843">
        <ele>509.2</ele>
        <time>2019-10-27T12:37:36Z</time>
      </trkpt>
      <trkpt lat="43.95374" lon="5.39836">
        <ele>507.9</ele>
        <time>2019-10-27T12:37:37Z</time>
      </trkpt>
      <trkpt lat="43.95367" lon="5.39831">
        <ele>506.8</ele>
        <time>2019-10-27T12:37:38Z</time>
      </trkpt>
      <trkpt lat="43.95361" lon="5.39826">
        <ele>505.9</ele>
        <time>2019-10-27T12:37:39Z</time>
      </trkpt>
      <trkpt lat="43.95357" lon="5.39824">
        <ele>505.3</ele>
        <time>2019-10-27T12:37:40Z</time>
      </trkpt>
      <trkpt lat="43.95354" lon="5.39821">
        <ele>503.3</ele>
        <time>2019-10-27T12:37:41Z</time>
      </trkpt>
      <trkpt lat="43.95351" lon="5.39822">
        <ele>503</ele>
        <time>2019-10-27T12:37:47Z</time>
      </trkpt>
      <trkpt lat="43.95348" lon="5.39826">
        <ele>502.6</ele>
        <time>2019-10-27T12:37:50Z</time>
      </trkpt>
      <trkpt lat="43.95345" lon="5.39829">
        <ele>502.2</ele>
        <time>2019-10-27T12:37:52Z</time>
      </trkpt>
      <trkpt lat="43.95342" lon="5.39833">
        <ele>501.8</ele>
        <time>2019-10-27T12:37:53Z</time>
      </trkpt>
      <trkpt lat="43.9534" lon="5.39836">
        <ele>501.4</ele>
        <time>2019-10-27T12:37:54Z</time>
      </trkpt>
      <trkpt lat="43.95337" lon="5.39839">
        <ele>501</ele>
        <time>2019-10-27T12:37:55Z</time>
      </trkpt>
      <trkpt lat="43.95334" lon="5.39843">
        <ele>500.5</ele>
        <time>2019-10-27T12:37:56Z</time>
      </trkpt>
      <trkpt lat="43.9533" lon="5.39847">
        <ele>500.1</ele>
        <time>2019-10-27T12:37:57Z</time>
      </trkpt>
      <trkpt lat="43.95327" lon="5.3985">
        <ele>499.5</ele>
        <time>2019-10-27T12:37:58Z</time>
      </trkpt>
      <trkpt lat="43.95323" lon="5.39854">
        <ele>499</ele>
        <time>2019-10-27T12:37:59Z</time>
      </trkpt>
      <trkpt lat="43.95319" lon="5.39858">
        <ele>498.4</ele>
        <time>2019-10-27T12:38:00Z</time>
      </trkpt>
      <trkpt lat="43.95315" lon="5.39863">
        <ele>497.9</ele>
        <time>2019-10-27T12:38:01Z</time>
      </trkpt>
      <trkpt lat="43.95311" lon="5.39868">
        <ele>497.2</ele>
        <time>2019-10-27T12:38:02Z</time>
      </trkpt>
      <trkpt lat="43.95307" lon="5.39873">
        <ele>496.5</ele>
        <time>2019-10-27T12:38:03Z</time>
      </trkpt>
      <trkpt lat="43.95303" lon="5.39877">
        <ele>495.9</ele>
        <time>2019-10-27T12:38:04Z</time>
      </trkpt>
      <trkpt lat="43.95299" lon="5.39882">
        <ele>495.2</ele>
        <time>2019-10-27T12:38:05Z</time>
      </trkpt>
      <trkpt lat="43.95295" lon="5.39886">
        <ele>494.5</ele>
        <time>2019-10-27T12:38:06Z</time>
      </trkpt>
      <trkpt lat="43.95291" lon="5.39891">
        <ele>493.9</ele>
        <time>2019-10-27T12:38:07Z</time>
      </trkpt>
      <trkpt lat="43.95287" lon="5.39896">
        <ele>493.3</ele>
        <time>2019-10-27T12:38:08Z</time>
      </trkpt>
      <trkpt lat="43.95284" lon="5.399">
        <ele>492.7</ele>
        <time>2019-10-27T12:38:09Z</time>
      </trkpt>
      <trkpt lat="43.95281" lon="5.39904">
        <ele>492.3</ele>
        <time>2019-10-27T12:38:10Z</time>
      </trkpt>
      <trkpt lat="43.95278" lon="5.39907">
        <ele>491.9</ele>
        <time>2019-10-27T12:38:11Z</time>
      </trkpt>
      <trkpt lat="43.95275" lon="5.39908">
        <ele>491.6</ele>
        <time>2019-10-27T12:38:12Z</time>
      </trkpt>
      <trkpt lat="43.95272" lon="5.39908">
        <ele>491.3</ele>
        <time>2019-10-27T12:38:13Z</time>
      </trkpt>
      <trkpt lat="43.95269" lon="5.39906">
        <ele>491</ele>
        <time>2019-10-27T12:38:14Z</time>
      </trkpt>
      <trkpt lat="43.95268" lon="5.39901">
        <ele>490.7</ele>
        <time>2019-10-27T12:38:15Z</time>
      </trkpt>
      <trkpt lat="43.95268" lon="5.39893">
        <ele>489.6</ele>
        <time>2019-10-27T12:38:17Z</time>
      </trkpt>
      <trkpt lat="43.95267" lon="5.39888">
        <ele>489.4</ele>
        <time>2019-10-27T12:38:18Z</time>
      </trkpt>
      <trkpt lat="43.95267" lon="5.39884">
        <ele>489.2</ele>
        <time>2019-10-27T12:38:19Z</time>
      </trkpt>
      <trkpt lat="43.95267" lon="5.39879">
        <ele>489</ele>
        <time>2019-10-27T12:38:20Z</time>
      </trkpt>
      <trkpt lat="43.95267" lon="5.39875">
        <ele>488.8</ele>
        <time>2019-10-27T12:38:21Z</time>
      </trkpt>
      <trkpt lat="43.95266" lon="5.3987">
        <ele>488.6</ele>
        <time>2019-10-27T12:38:22Z</time>
      </trkpt>
      <trkpt lat="43.95266" lon="5.39864">
        <ele>488.4</ele>
        <time>2019-10-27T12:38:23Z</time>
      </trkpt>
      <trkpt lat="43.95266" lon="5.39859">
        <ele>488.2</ele>
        <time>2019-10-27T12:38:24Z</time>
      </trkpt>
      <trkpt lat="43.95266" lon="5.39853">
        <ele>488</ele>
        <time>2019-10-27T12:38:25Z</time>
      </trkpt>
      <trkpt lat="43.95265" lon="5.39847">
        <ele>487.7</ele>
        <time>2019-10-27T12:38:26Z</time>
      </trkpt>
      <trkpt lat="43.95264" lon="5.39842">
        <ele>487.5</ele>
        <time>2019-10-27T12:38:27Z</time>
      </trkpt>
      <trkpt lat="43.95264" lon="5.39837">
        <ele>487.3</ele>
        <time>2019-10-27T12:38:28Z</time>
      </trkpt>
      <trkpt lat="43.95263" lon="5.39831">
        <ele>487.1</ele>
        <time>2019-10-27T12:38:29Z</time>
      </trkpt>
      <trkpt lat="43.95262" lon="5.39826">
        <ele>486.8</ele>
        <time>2019-10-27T12:38:30Z</time>
      </trkpt>
      <trkpt lat="43.95261" lon="5.39819">
        <ele>486.5</ele>
        <time>2019-10-27T12:38:31Z</time>
      </trkpt>
      <trkpt lat="43.95259" lon="5.39813">
        <ele>486.2</ele>
        <time>2019-10-27T12:38:32Z</time>
      </trkpt>
      <trkpt lat="43.95258" lon="5.39807">
        <ele>485.8</ele>
        <time>2019-10-27T12:38:33Z</time>
      </trkpt>
      <trkpt lat="43.95256" lon="5.39801">
        <ele>485.6</ele>
        <time>2019-10-27T12:38:34Z</time>
      </trkpt>
      <trkpt lat="43.95255" lon="5.39795">
        <ele>485</ele>
        <time>2019-10-27T12:38:35Z</time>
      </trkpt>
      <trkpt lat="43.95253" lon="5.39789">
        <ele>484.4</ele>
        <time>2019-10-27T12:38:36Z</time>
      </trkpt>
      <trkpt lat="43.95252" lon="5.39783">
        <ele>483.9</ele>
        <time>2019-10-27T12:38:37Z</time>
      </trkpt>
      <trkpt lat="43.9525" lon="5.39776">
        <ele>483.3</ele>
        <time>2019-10-27T12:38:38Z</time>
      </trkpt>
      <trkpt lat="43.95248" lon="5.39769">
        <ele>482.8</ele>
        <time>2019-10-27T12:38:39Z</time>
      </trkpt>
      <trkpt lat="43.95247" lon="5.39762">
        <ele>482.2</ele>
        <time>2019-10-27T12:38:40Z</time>
      </trkpt>
      <trkpt lat="43.95245" lon="5.39754">
        <ele>481.6</ele>
        <time>2019-10-27T12:38:41Z</time>
      </trkpt>
      <trkpt lat="43.95243" lon="5.39747">
        <ele>481.1</ele>
        <time>2019-10-27T12:38:42Z</time>
      </trkpt>
      <trkpt lat="43.95241" lon="5.3974">
        <ele>480.7</ele>
        <time>2019-10-27T12:38:43Z</time>
      </trkpt>
      <trkpt lat="43.95239" lon="5.39733">
        <ele>480.3</ele>
        <time>2019-10-27T12:38:44Z</time>
      </trkpt>
      <trkpt lat="43.95238" lon="5.39727">
        <ele>479.9</ele>
        <time>2019-10-27T12:38:45Z</time>
      </trkpt>
      <trkpt lat="43.95236" lon="5.39719">
        <ele>479.4</ele>
        <time>2019-10-27T12:38:46Z</time>
      </trkpt>
      <trkpt lat="43.95235" lon="5.39711">
        <ele>478.9</ele>
        <time>2019-10-27T12:38:47Z</time>
      </trkpt>
      <trkpt lat="43.95233" lon="5.39703">
        <ele>478.2</ele>
        <time>2019-10-27T12:38:48Z</time>
      </trkpt>
      <trkpt lat="43.95231" lon="5.39694">
        <ele>477.4</ele>
        <time>2019-10-27T12:38:49Z</time>
      </trkpt>
      <trkpt lat="43.9523" lon="5.39684">
        <ele>476.4</ele>
        <time>2019-10-27T12:38:50Z</time>
      </trkpt>
      <trkpt lat="43.9523" lon="5.39673">
        <ele>475.4</ele>
        <time>2019-10-27T12:38:51Z</time>
      </trkpt>
      <trkpt lat="43.95231" lon="5.39665">
        <ele>474.6</ele>
        <time>2019-10-27T12:38:52Z</time>
      </trkpt>
      <trkpt lat="43.95231" lon="5.39656">
        <ele>473.8</ele>
        <time>2019-10-27T12:38:53Z</time>
      </trkpt>
      <trkpt lat="43.95232" lon="5.39648">
        <ele>473.1</ele>
        <time>2019-10-27T12:38:54Z</time>
      </trkpt>
      <trkpt lat="43.95232" lon="5.39642">
        <ele>472.5</ele>
        <time>2019-10-27T12:38:55Z</time>
      </trkpt>
      <trkpt lat="43.95233" lon="5.39636">
        <ele>471.8</ele>
        <time>2019-10-27T12:38:56Z</time>
      </trkpt>
      <trkpt lat="43.95234" lon="5.39631">
        <ele>471.1</ele>
        <time>2019-10-27T12:38:57Z</time>
      </trkpt>
      <trkpt lat="43.95235" lon="5.39625">
        <ele>470.3</ele>
        <time>2019-10-27T12:38:58Z</time>
      </trkpt>
      <trkpt lat="43.95238" lon="5.39619">
        <ele>469.7</ele>
        <time>2019-10-27T12:38:59Z</time>
      </trkpt>
      <trkpt lat="43.95241" lon="5.39614">
        <ele>469.3</ele>
        <time>2019-10-27T12:39:00Z</time>
      </trkpt>
      <trkpt lat="43.95245" lon="5.39608">
        <ele>468.9</ele>
        <time>2019-10-27T12:39:01Z</time>
      </trkpt>
      <trkpt lat="43.95249" lon="5.39603">
        <ele>468.6</ele>
        <time>2019-10-27T12:39:02Z</time>
      </trkpt>
      <trkpt lat="43.95253" lon="5.39598">
        <ele>468.2</ele>
        <time>2019-10-27T12:39:03Z</time>
      </trkpt>
      <trkpt lat="43.95258" lon="5.39593">
        <ele>468</ele>
        <time>2019-10-27T12:39:04Z</time>
      </trkpt>
      <trkpt lat="43.95263" lon="5.39587">
        <ele>467.7</ele>
        <time>2019-10-27T12:39:05Z</time>
      </trkpt>
      <trkpt lat="43.95268" lon="5.39582">
        <ele>467.5</ele>
        <time>2019-10-27T12:39:06Z</time>
      </trkpt>
      <trkpt lat="43.95273" lon="5.39578">
        <ele>467.2</ele>
        <time>2019-10-27T12:39:07Z</time>
      </trkpt>
      <trkpt lat="43.95279" lon="5.39574">
        <ele>466.9</ele>
        <time>2019-10-27T12:39:08Z</time>
      </trkpt>
      <trkpt lat="43.95285" lon="5.3957">
        <ele>466.6</ele>
        <time>2019-10-27T12:39:09Z</time>
      </trkpt>
      <trkpt lat="43.9529" lon="5.39566">
        <ele>466.3</ele>
        <time>2019-10-27T12:39:10Z</time>
      </trkpt>
      <trkpt lat="43.95296" lon="5.39563">
        <ele>465.9</ele>
        <time>2019-10-27T12:39:11Z</time>
      </trkpt>
      <trkpt lat="43.95301" lon="5.39558">
        <ele>465.6</ele>
        <time>2019-10-27T12:39:12Z</time>
      </trkpt>
      <trkpt lat="43.95306" lon="5.39553">
        <ele>465.2</ele>
        <time>2019-10-27T12:39:13Z</time>
      </trkpt>
      <trkpt lat="43.95308" lon="5.39546">
        <ele>464.9</ele>
        <time>2019-10-27T12:39:14Z</time>
      </trkpt>
      <trkpt lat="43.95308" lon="5.39539">
        <ele>464.5</ele>
        <time>2019-10-27T12:39:15Z</time>
      </trkpt>
      <trkpt lat="43.95305" lon="5.39533">
        <ele>464.2</ele>
        <time>2019-10-27T12:39:16Z</time>
      </trkpt>
      <trkpt lat="43.95301" lon="5.39527">
        <ele>463.9</ele>
        <time>2019-10-27T12:39:17Z</time>
      </trkpt>
      <trkpt lat="43.95297" lon="5.39521">
        <ele>463.7</ele>
        <time>2019-10-27T12:39:18Z</time>
      </trkpt>
      <trkpt lat="43.95293" lon="5.39514">
        <ele>463.5</ele>
        <time>2019-10-27T12:39:19Z</time>
      </trkpt>
      <trkpt lat="43.95288" lon="5.39508">
        <ele>463.3</ele>
        <time>2019-10-27T12:39:20Z</time>
      </trkpt>
      <trkpt lat="43.95284" lon="5.39501">
        <ele>463.1</ele>
        <time>2019-10-27T12:39:21Z</time>
      </trkpt>
      <trkpt lat="43.9528" lon="5.39494">
        <ele>462.9</ele>
        <time>2019-10-27T12:39:22Z</time>
      </trkpt>
      <trkpt lat="43.95276" lon="5.39487">
        <ele>462.8</ele>
        <time>2019-10-27T12:39:23Z</time>
      </trkpt>
      <trkpt lat="43.95273" lon="5.39481">
        <ele>462.6</ele>
        <time>2019-10-27T12:39:24Z</time>
      </trkpt>
      <trkpt lat="43.9527" lon="5.39474">
        <ele>462.5</ele>
        <time>2019-10-27T12:39:25Z</time>
      </trkpt>
      <trkpt lat="43.95267" lon="5.39468">
        <ele>462.3</ele>
        <time>2019-10-27T12:39:26Z</time>
      </trkpt>
      <trkpt lat="43.95264" lon="5.39461">
        <ele>462</ele>
        <time>2019-10-27T12:39:27Z</time>
      </trkpt>
      <trkpt lat="43.95261" lon="5.39453">
        <ele>461.8</ele>
        <time>2019-10-27T12:39:28Z</time>
      </trkpt>
      <trkpt lat="43.95258" lon="5.39445">
        <ele>461.5</ele>
        <time>2019-10-27T12:39:29Z</time>
      </trkpt>
      <trkpt lat="43.95255" lon="5.39438">
        <ele>461.2</ele>
        <time>2019-10-27T12:39:30Z</time>
      </trkpt>
      <trkpt lat="43.95252" lon="5.3943">
        <ele>460.9</ele>
        <time>2019-10-27T12:39:31Z</time>
      </trkpt>
      <trkpt lat="43.9525" lon="5.39423">
        <ele>460.7</ele>
        <time>2019-10-27T12:39:32Z</time>
      </trkpt>
      <trkpt lat="43.95247" lon="5.39415">
        <ele>460.4</ele>
        <time>2019-10-27T12:39:33Z</time>
      </trkpt>
      <trkpt lat="43.95244" lon="5.39407">
        <ele>460.1</ele>
        <time>2019-10-27T12:39:34Z</time>
      </trkpt>
      <trkpt lat="43.9524" lon="5.394">
        <ele>459.8</ele>
        <time>2019-10-27T12:39:35Z</time>
      </trkpt>
      <trkpt lat="43.95236" lon="5.39393">
        <ele>459.5</ele>
        <time>2019-10-27T12:39:36Z</time>
      </trkpt>
      <trkpt lat="43.95233" lon="5.39385">
        <ele>459.2</ele>
        <time>2019-10-27T12:39:37Z</time>
      </trkpt>
      <trkpt lat="43.95229" lon="5.39377">
        <ele>459</ele>
        <time>2019-10-27T12:39:38Z</time>
      </trkpt>
      <trkpt lat="43.95225" lon="5.39368">
        <ele>458.6</ele>
        <time>2019-10-27T12:39:39Z</time>
      </trkpt>
      <trkpt lat="43.95221" lon="5.39359">
        <ele>458.3</ele>
        <time>2019-10-27T12:39:40Z</time>
      </trkpt>
      <trkpt lat="43.95216" lon="5.39351">
        <ele>457.9</ele>
        <time>2019-10-27T12:39:41Z</time>
      </trkpt>
      <trkpt lat="43.95211" lon="5.39342">
        <ele>457.5</ele>
        <time>2019-10-27T12:39:42Z</time>
      </trkpt>
      <trkpt lat="43.95206" lon="5.39334">
        <ele>457.1</ele>
        <time>2019-10-27T12:39:43Z</time>
      </trkpt>
      <trkpt lat="43.95201" lon="5.39324">
        <ele>456.6</ele>
        <time>2019-10-27T12:39:44Z</time>
      </trkpt>
      <trkpt lat="43.95194" lon="5.39316">
        <ele>456.2</ele>
        <time>2019-10-27T12:39:45Z</time>
      </trkpt>
      <trkpt lat="43.95189" lon="5.39306">
        <ele>455.6</ele>
        <time>2019-10-27T12:39:46Z</time>
      </trkpt>
      <trkpt lat="43.95183" lon="5.39296">
        <ele>454.9</ele>
        <time>2019-10-27T12:39:47Z</time>
      </trkpt>
      <trkpt lat="43.95176" lon="5.39286">
        <ele>454.3</ele>
        <time>2019-10-27T12:39:48Z</time>
      </trkpt>
      <trkpt lat="43.9517" lon="5.39275">
        <ele>453.5</ele>
        <time>2019-10-27T12:39:49Z</time>
      </trkpt>
      <trkpt lat="43.95163" lon="5.39265">
        <ele>452.8</ele>
        <time>2019-10-27T12:39:50Z</time>
      </trkpt>
      <trkpt lat="43.95157" lon="5.39253">
        <ele>452</ele>
        <time>2019-10-27T12:39:51Z</time>
      </trkpt>
      <trkpt lat="43.9515" lon="5.39242">
        <ele>451.1</ele>
        <time>2019-10-27T12:39:52Z</time>
      </trkpt>
      <trkpt lat="43.95144" lon="5.3923">
        <ele>450.1</ele>
        <time>2019-10-27T12:39:53Z</time>
      </trkpt>
      <trkpt lat="43.95137" lon="5.3922">
        <ele>449.2</ele>
        <time>2019-10-27T12:39:54Z</time>
      </trkpt>
      <trkpt lat="43.9513" lon="5.3921">
        <ele>448.2</ele>
        <time>2019-10-27T12:39:55Z</time>
      </trkpt>
      <trkpt lat="43.95121" lon="5.39201">
        <ele>447.3</ele>
        <time>2019-10-27T12:39:56Z</time>
      </trkpt>
      <trkpt lat="43.95113" lon="5.39192">
        <ele>446.1</ele>
        <time>2019-10-27T12:39:57Z</time>
      </trkpt>
      <trkpt lat="43.95104" lon="5.39182">
        <ele>444.4</ele>
        <time>2019-10-27T12:39:58Z</time>
      </trkpt>
      <trkpt lat="43.95094" lon="5.39173">
        <ele>443</ele>
        <time>2019-10-27T12:39:59Z</time>
      </trkpt>
      <trkpt lat="43.95085" lon="5.39162">
        <ele>441.9</ele>
        <time>2019-10-27T12:40:00Z</time>
      </trkpt>
      <trkpt lat="43.95077" lon="5.3915">
        <ele>440.8</ele>
        <time>2019-10-27T12:40:01Z</time>
      </trkpt>
      <trkpt lat="43.95068" lon="5.39139">
        <ele>439.9</ele>
        <time>2019-10-27T12:40:02Z</time>
      </trkpt>
      <trkpt lat="43.95059" lon="5.39128">
        <ele>438.8</ele>
        <time>2019-10-27T12:40:03Z</time>
      </trkpt>
      <trkpt lat="43.95049" lon="5.39117">
        <ele>437.5</ele>
        <time>2019-10-27T12:40:04Z</time>
      </trkpt>
      <trkpt lat="43.95039" lon="5.39105">
        <ele>436.2</ele>
        <time>2019-10-27T12:40:05Z</time>
      </trkpt>
      <trkpt lat="43.95029" lon="5.39094">
        <ele>434.6</ele>
        <time>2019-10-27T12:40:06Z</time>
      </trkpt>
      <trkpt lat="43.95019" lon="5.39083">
        <ele>433.3</ele>
        <time>2019-10-27T12:40:07Z</time>
      </trkpt>
      <trkpt lat="43.9501" lon="5.39071">
        <ele>432</ele>
        <time>2019-10-27T12:40:08Z</time>
      </trkpt>
      <trkpt lat="43.95" lon="5.39059">
        <ele>430.8</ele>
        <time>2019-10-27T12:40:09Z</time>
      </trkpt>
      <trkpt lat="43.94991" lon="5.39047">
        <ele>429.2</ele>
        <time>2019-10-27T12:40:10Z</time>
      </trkpt>
      <trkpt lat="43.94981" lon="5.39036">
        <ele>428</ele>
        <time>2019-10-27T12:40:11Z</time>
      </trkpt>
      <trkpt lat="43.94971" lon="5.39025">
        <ele>426.7</ele>
        <time>2019-10-27T12:40:12Z</time>
      </trkpt>
      <trkpt lat="43.9496" lon="5.39014">
        <ele>425</ele>
        <time>2019-10-27T12:40:13Z</time>
      </trkpt>
      <trkpt lat="43.94949" lon="5.39005">
        <ele>423.7</ele>
        <time>2019-10-27T12:40:14Z</time>
      </trkpt>
      <trkpt lat="43.94937" lon="5.38998">
        <ele>422.4</ele>
        <time>2019-10-27T12:40:15Z</time>
      </trkpt>
      <trkpt lat="43.94926" lon="5.38992">
        <ele>420.9</ele>
        <time>2019-10-27T12:40:16Z</time>
      </trkpt>
      <trkpt lat="43.94916" lon="5.38985">
        <ele>419.6</ele>
        <time>2019-10-27T12:40:17Z</time>
      </trkpt>
      <trkpt lat="43.94906" lon="5.38977">
        <ele>418.4</ele>
        <time>2019-10-27T12:40:18Z</time>
      </trkpt>
      <trkpt lat="43.94895" lon="5.3897">
        <ele>416.9</ele>
        <time>2019-10-27T12:40:19Z</time>
      </trkpt>
      <trkpt lat="43.94883" lon="5.38965">
        <ele>415.7</ele>
        <time>2019-10-27T12:40:20Z</time>
      </trkpt>
      <trkpt lat="43.94871" lon="5.38961">
        <ele>414.7</ele>
        <time>2019-10-27T12:40:21Z</time>
      </trkpt>
      <trkpt lat="43.94858" lon="5.38959">
        <ele>413.6</ele>
        <time>2019-10-27T12:40:22Z</time>
      </trkpt>
      <trkpt lat="43.94846" lon="5.38958">
        <ele>412.4</ele>
        <time>2019-10-27T12:40:23Z</time>
      </trkpt>
      <trkpt lat="43.94834" lon="5.38956">
        <ele>411.2</ele>
        <time>2019-10-27T12:40:24Z</time>
      </trkpt>
      <trkpt lat="43.94823" lon="5.38952">
        <ele>410.2</ele>
        <time>2019-10-27T12:40:25Z</time>
      </trkpt>
      <trkpt lat="43.94813" lon="5.38947">
        <ele>409.2</ele>
        <time>2019-10-27T12:40:26Z</time>
      </trkpt>
      <trkpt lat="43.94803" lon="5.38939">
        <ele>408.2</ele>
        <time>2019-10-27T12:40:27Z</time>
      </trkpt>
      <trkpt lat="43.94794" lon="5.3893">
        <ele>406.8</ele>
        <time>2019-10-27T12:40:28Z</time>
      </trkpt>
      <trkpt lat="43.94784" lon="5.3892">
        <ele>405.7</ele>
        <time>2019-10-27T12:40:29Z</time>
      </trkpt>
      <trkpt lat="43.94776" lon="5.3891">
        <ele>404.8</ele>
        <time>2019-10-27T12:40:30Z</time>
      </trkpt>
      <trkpt lat="43.94767" lon="5.38901">
        <ele>403.9</ele>
        <time>2019-10-27T12:40:31Z</time>
      </trkpt>
      <trkpt lat="43.94759" lon="5.38891">
        <ele>402.9</ele>
        <time>2019-10-27T12:40:32Z</time>
      </trkpt>
      <trkpt lat="43.94751" lon="5.38882">
        <ele>402.1</ele>
        <time>2019-10-27T12:40:33Z</time>
      </trkpt>
      <trkpt lat="43.94742" lon="5.38874">
        <ele>401.4</ele>
        <time>2019-10-27T12:40:34Z</time>
      </trkpt>
      <trkpt lat="43.94733" lon="5.38865">
        <ele>400.7</ele>
        <time>2019-10-27T12:40:35Z</time>
      </trkpt>
      <trkpt lat="43.94724" lon="5.38856">
        <ele>400</ele>
        <time>2019-10-27T12:40:36Z</time>
      </trkpt>
      <trkpt lat="43.94716" lon="5.38847">
        <ele>399.2</ele>
        <time>2019-10-27T12:40:37Z</time>
      </trkpt>
      <trkpt lat="43.94707" lon="5.38837">
        <ele>398.6</ele>
        <time>2019-10-27T12:40:38Z</time>
      </trkpt>
      <trkpt lat="43.94699" lon="5.38828">
        <ele>397.9</ele>
        <time>2019-10-27T12:40:39Z</time>
      </trkpt>
      <trkpt lat="43.94691" lon="5.3882">
        <ele>397.3</ele>
        <time>2019-10-27T12:40:40Z</time>
      </trkpt>
      <trkpt lat="43.94685" lon="5.38813">
        <ele>396.4</ele>
        <time>2019-10-27T12:40:41Z</time>
      </trkpt>
      <trkpt lat="43.94679" lon="5.38806">
        <ele>396.6</ele>
        <time>2019-10-27T12:40:42Z</time>
      </trkpt>
      <trkpt lat="43.94674" lon="5.38797">
        <ele>396.7</ele>
        <time>2019-10-27T12:40:43Z</time>
      </trkpt>
      <trkpt lat="43.94668" lon="5.38789">
        <ele>396.8</ele>
        <time>2019-10-27T12:40:44Z</time>
      </trkpt>
      <trkpt lat="43.94663" lon="5.3878">
        <ele>396.9</ele>
        <time>2019-10-27T12:40:45Z</time>
      </trkpt>
      <trkpt lat="43.94659" lon="5.38771">
        <ele>396.9</ele>
        <time>2019-10-27T12:40:46Z</time>
      </trkpt>
      <trkpt lat="43.94654" lon="5.38763">
        <ele>397</ele>
        <time>2019-10-27T12:40:47Z</time>
      </trkpt>
      <trkpt lat="43.94649" lon="5.38754">
        <ele>397</ele>
        <time>2019-10-27T12:40:48Z</time>
      </trkpt>
      <trkpt lat="43.94644" lon="5.38746">
        <ele>397.1</ele>
        <time>2019-10-27T12:40:49Z</time>
      </trkpt>
      <trkpt lat="43.9464" lon="5.38739">
        <ele>397.1</ele>
        <time>2019-10-27T12:40:50Z</time>
      </trkpt>
      <trkpt lat="43.94637" lon="5.38732">
        <ele>397.2</ele>
        <time>2019-10-27T12:40:51Z</time>
      </trkpt>
      <trkpt lat="43.94633" lon="5.38725">
        <ele>397.3</ele>
        <time>2019-10-27T12:40:52Z</time>
      </trkpt>
      <trkpt lat="43.9463" lon="5.38719">
        <ele>397.5</ele>
        <time>2019-10-27T12:40:53Z</time>
      </trkpt>
      <trkpt lat="43.94626" lon="5.38713">
        <ele>397.8</ele>
        <time>2019-10-27T12:40:54Z</time>
      </trkpt>
      <trkpt lat="43.94622" lon="5.38707">
        <ele>398.2</ele>
        <time>2019-10-27T12:40:55Z</time>
      </trkpt>
      <trkpt lat="43.94619" lon="5.38702">
        <ele>398.7</ele>
        <time>2019-10-27T12:40:56Z</time>
      </trkpt>
      <trkpt lat="43.94616" lon="5.38697">
        <ele>399</ele>
        <time>2019-10-27T12:40:57Z</time>
      </trkpt>
      <trkpt lat="43.94612" lon="5.38693">
        <ele>398.6</ele>
        <time>2019-10-27T12:40:58Z</time>
      </trkpt>
      <trkpt lat="43.94609" lon="5.38689">
        <ele>398.2</ele>
        <time>2019-10-27T12:40:59Z</time>
      </trkpt>
      <trkpt lat="43.94607" lon="5.38685">
        <ele>397.8</ele>
        <time>2019-10-27T12:41:00Z</time>
      </trkpt>
      <trkpt lat="43.94604" lon="5.38682">
        <ele>397.5</ele>
        <time>2019-10-27T12:41:01Z</time>
      </trkpt>
      <trkpt lat="43.94602" lon="5.38678">
        <ele>397.2</ele>
        <time>2019-10-27T12:41:02Z</time>
      </trkpt>
      <trkpt lat="43.94601" lon="5.38675">
        <ele>397</ele>
        <time>2019-10-27T12:41:03Z</time>
      </trkpt>
      <trkpt lat="43.94599" lon="5.38672">
        <ele>396.8</ele>
        <time>2019-10-27T12:41:04Z</time>
      </trkpt>
      <trkpt lat="43.94596" lon="5.38667">
        <ele>396.4</ele>
        <time>2019-10-27T12:41:06Z</time>
      </trkpt>
      <trkpt lat="43.94593" lon="5.38663">
        <ele>396</ele>
        <time>2019-10-27T12:41:08Z</time>
      </trkpt>
      <trkpt lat="43.9459" lon="5.38658">
        <ele>395.7</ele>
        <time>2019-10-27T12:41:10Z</time>
      </trkpt>
      <trkpt lat="43.94586" lon="5.38654">
        <ele>395.4</ele>
        <time>2019-10-27T12:41:12Z</time>
      </trkpt>
      <trkpt lat="43.94582" lon="5.38649">
        <ele>395.1</ele>
        <time>2019-10-27T12:41:14Z</time>
      </trkpt>
      <trkpt lat="43.9458" lon="5.38646">
        <ele>395</ele>
        <time>2019-10-27T12:41:15Z</time>
      </trkpt>
      <trkpt lat="43.94578" lon="5.38643">
        <ele>394.8</ele>
        <time>2019-10-27T12:41:16Z</time>
      </trkpt>
      <trkpt lat="43.94574" lon="5.38638">
        <ele>394.6</ele>
        <time>2019-10-27T12:41:18Z</time>
      </trkpt>
      <trkpt lat="43.94573" lon="5.38635">
        <ele>394.5</ele>
        <time>2019-10-27T12:41:19Z</time>
      </trkpt>
      <trkpt lat="43.9457" lon="5.38632">
        <ele>394.4</ele>
        <time>2019-10-27T12:41:20Z</time>
      </trkpt>
      <trkpt lat="43.94568" lon="5.38629">
        <ele>394.3</ele>
        <time>2019-10-27T12:41:21Z</time>
      </trkpt>
      <trkpt lat="43.94565" lon="5.38628">
        <ele>394.2</ele>
        <time>2019-10-27T12:41:22Z</time>
      </trkpt>
      <trkpt lat="43.94563" lon="5.38624">
        <ele>394.1</ele>
        <time>2019-10-27T12:41:23Z</time>
      </trkpt>
      <trkpt lat="43.94561" lon="5.38622">
        <ele>394</ele>
        <time>2019-10-27T12:41:24Z</time>
      </trkpt>
      <trkpt lat="43.94559" lon="5.38619">
        <ele>394</ele>
        <time>2019-10-27T12:41:25Z</time>
      </trkpt>
      <trkpt lat="43.94556" lon="5.38616">
        <ele>393.9</ele>
        <time>2019-10-27T12:41:26Z</time>
      </trkpt>
      <trkpt lat="43.94554" lon="5.38613">
        <ele>393.9</ele>
        <time>2019-10-27T12:41:27Z</time>
      </trkpt>
      <trkpt lat="43.94551" lon="5.3861">
        <ele>393.9</ele>
        <time>2019-10-27T12:41:28Z</time>
      </trkpt>
      <trkpt lat="43.94549" lon="5.38607">
        <ele>393.8</ele>
        <time>2019-10-27T12:41:29Z</time>
      </trkpt>
      <trkpt lat="43.94546" lon="5.38603">
        <ele>393.8</ele>
        <time>2019-10-27T12:41:30Z</time>
      </trkpt>
      <trkpt lat="43.94544" lon="5.38599">
        <ele>393.8</ele>
        <time>2019-10-27T12:41:31Z</time>
      </trkpt>
      <trkpt lat="43.94541" lon="5.38596">
        <ele>393.8</ele>
        <time>2019-10-27T12:41:32Z</time>
      </trkpt>
      <trkpt lat="43.94538" lon="5.38592">
        <ele>393.8</ele>
        <time>2019-10-27T12:41:33Z</time>
      </trkpt>
      <trkpt lat="43.94535" lon="5.38588">
        <ele>393.8</ele>
        <time>2019-10-27T12:41:34Z</time>
      </trkpt>
      <trkpt lat="43.94532" lon="5.38584">
        <ele>393.7</ele>
        <time>2019-10-27T12:41:35Z</time>
      </trkpt>
      <trkpt lat="43.94529" lon="5.38581">
        <ele>393.7</ele>
        <time>2019-10-27T12:41:36Z</time>
      </trkpt>
      <trkpt lat="43.94526" lon="5.38579">
        <ele>393.7</ele>
        <time>2019-10-27T12:41:37Z</time>
      </trkpt>
      <trkpt lat="43.94524" lon="5.38576">
        <ele>393.8</ele>
        <time>2019-10-27T12:41:38Z</time>
      </trkpt>
      <trkpt lat="43.94521" lon="5.38572">
        <ele>393.9</ele>
        <time>2019-10-27T12:41:39Z</time>
      </trkpt>
      <trkpt lat="43.94519" lon="5.38568">
        <ele>394.1</ele>
        <time>2019-10-27T12:41:40Z</time>
      </trkpt>
      <trkpt lat="43.94516" lon="5.38565">
        <ele>394.3</ele>
        <time>2019-10-27T12:41:41Z</time>
      </trkpt>
      <trkpt lat="43.94513" lon="5.38561">
        <ele>394.5</ele>
        <time>2019-10-27T12:41:42Z</time>
      </trkpt>
      <trkpt lat="43.9451" lon="5.38557">
        <ele>394.7</ele>
        <time>2019-10-27T12:41:43Z</time>
      </trkpt>
      <trkpt lat="43.94507" lon="5.38553">
        <ele>395</ele>
        <time>2019-10-27T12:41:44Z</time>
      </trkpt>
      <trkpt lat="43.94504" lon="5.38548">
        <ele>395.1</ele>
        <time>2019-10-27T12:41:45Z</time>
      </trkpt>
      <trkpt lat="43.945" lon="5.38544">
        <ele>395.2</ele>
        <time>2019-10-27T12:41:46Z</time>
      </trkpt>
      <trkpt lat="43.94497" lon="5.3854">
        <ele>395.4</ele>
        <time>2019-10-27T12:41:47Z</time>
      </trkpt>
      <trkpt lat="43.94493" lon="5.38536">
        <ele>395.5</ele>
        <time>2019-10-27T12:41:48Z</time>
      </trkpt>
      <trkpt lat="43.9449" lon="5.38531">
        <ele>395.6</ele>
        <time>2019-10-27T12:41:49Z</time>
      </trkpt>
      <trkpt lat="43.94487" lon="5.38526">
        <ele>395.7</ele>
        <time>2019-10-27T12:41:50Z</time>
      </trkpt>
      <trkpt lat="43.94484" lon="5.38524">
        <ele>395.8</ele>
        <time>2019-10-27T12:41:51Z</time>
      </trkpt>
      <trkpt lat="43.9448" lon="5.38523">
        <ele>395.9</ele>
        <time>2019-10-27T12:41:52Z</time>
      </trkpt>
      <trkpt lat="43.94478" lon="5.3852">
        <ele>396</ele>
        <time>2019-10-27T12:41:53Z</time>
      </trkpt>
      <trkpt lat="43.94475" lon="5.38515">
        <ele>396.1</ele>
        <time>2019-10-27T12:41:54Z</time>
      </trkpt>
      <trkpt lat="43.94472" lon="5.38513">
        <ele>396.2</ele>
        <time>2019-10-27T12:41:55Z</time>
      </trkpt>
      <trkpt lat="43.94468" lon="5.3851">
        <ele>396.3</ele>
        <time>2019-10-27T12:41:56Z</time>
      </trkpt>
      <trkpt lat="43.94464" lon="5.38506">
        <ele>396.5</ele>
        <time>2019-10-27T12:41:57Z</time>
      </trkpt>
      <trkpt lat="43.94459" lon="5.38502">
        <ele>396.6</ele>
        <time>2019-10-27T12:41:58Z</time>
      </trkpt>
      <trkpt lat="43.94454" lon="5.38498">
        <ele>396.7</ele>
        <time>2019-10-27T12:41:59Z</time>
      </trkpt>
      <trkpt lat="43.94451" lon="5.38492">
        <ele>396.7</ele>
        <time>2019-10-27T12:42:00Z</time>
      </trkpt>
      <trkpt lat="43.94447" lon="5.38488">
        <ele>396.5</ele>
        <time>2019-10-27T12:42:01Z</time>
      </trkpt>
      <trkpt lat="43.94443" lon="5.38484">
        <ele>396.4</ele>
        <time>2019-10-27T12:42:02Z</time>
      </trkpt>
      <trkpt lat="43.94439" lon="5.38479">
        <ele>396.3</ele>
        <time>2019-10-27T12:42:03Z</time>
      </trkpt>
      <trkpt lat="43.94436" lon="5.38473">
        <ele>396.2</ele>
        <time>2019-10-27T12:42:04Z</time>
      </trkpt>
      <trkpt lat="43.94432" lon="5.38467">
        <ele>396.1</ele>
        <time>2019-10-27T12:42:05Z</time>
      </trkpt>
      <trkpt lat="43.94428" lon="5.38462">
        <ele>395.9</ele>
        <time>2019-10-27T12:42:06Z</time>
      </trkpt>
      <trkpt lat="43.94424" lon="5.38457">
        <ele>395.9</ele>
        <time>2019-10-27T12:42:08Z</time>
      </trkpt>
      <trkpt lat="43.94422" lon="5.38453">
        <ele>395.8</ele>
        <time>2019-10-27T12:42:09Z</time>
      </trkpt>
      <trkpt lat="43.9442" lon="5.38449">
        <ele>395.8</ele>
        <time>2019-10-27T12:42:10Z</time>
      </trkpt>
      <trkpt lat="43.94418" lon="5.38447">
        <ele>395.7</ele>
        <time>2019-10-27T12:42:11Z</time>
      </trkpt>
      <trkpt lat="43.94413" lon="5.38445">
        <ele>395.7</ele>
        <time>2019-10-27T12:42:12Z</time>
      </trkpt>
      <trkpt lat="43.9441" lon="5.38444">
        <ele>395.1</ele>
        <time>2019-10-27T12:42:13Z</time>
      </trkpt>
      <trkpt lat="43.94406" lon="5.38442">
        <ele>394.6</ele>
        <time>2019-10-27T12:42:14Z</time>
      </trkpt>
      <trkpt lat="43.94402" lon="5.3844">
        <ele>394.1</ele>
        <time>2019-10-27T12:42:15Z</time>
      </trkpt>
      <trkpt lat="43.94398" lon="5.38436">
        <ele>393.6</ele>
        <time>2019-10-27T12:42:16Z</time>
      </trkpt>
      <trkpt lat="43.94395" lon="5.38433">
        <ele>393.1</ele>
        <time>2019-10-27T12:42:17Z</time>
      </trkpt>
      <trkpt lat="43.94392" lon="5.38432">
        <ele>391.1</ele>
        <time>2019-10-27T12:42:19Z</time>
      </trkpt>
      <trkpt lat="43.94389" lon="5.38434">
        <ele>390.6</ele>
        <time>2019-10-27T12:42:20Z</time>
      </trkpt>
      <trkpt lat="43.94386" lon="5.38436">
        <ele>390</ele>
        <time>2019-10-27T12:42:21Z</time>
      </trkpt>
      <trkpt lat="43.94383" lon="5.38439">
        <ele>389.4</ele>
        <time>2019-10-27T12:42:22Z</time>
      </trkpt>
      <trkpt lat="43.9438" lon="5.38443">
        <ele>388.5</ele>
        <time>2019-10-27T12:42:23Z</time>
      </trkpt>
      <trkpt lat="43.94373" lon="5.38445">
        <ele>387.5</ele>
        <time>2019-10-27T12:42:24Z</time>
      </trkpt>
      <trkpt lat="43.94369" lon="5.38447">
        <ele>386.8</ele>
        <time>2019-10-27T12:42:25Z</time>
      </trkpt>
      <trkpt lat="43.94366" lon="5.38447">
        <ele>386.3</ele>
        <time>2019-10-27T12:42:26Z</time>
      </trkpt>
      <trkpt lat="43.94363" lon="5.38445">
        <ele>385.8</ele>
        <time>2019-10-27T12:42:27Z</time>
      </trkpt>
      <trkpt lat="43.9436" lon="5.38445">
        <ele>385.2</ele>
        <time>2019-10-27T12:42:28Z</time>
      </trkpt>
      <trkpt lat="43.94356" lon="5.38444">
        <ele>384.4</ele>
        <time>2019-10-27T12:42:29Z</time>
      </trkpt>
      <trkpt lat="43.94352" lon="5.38443">
        <ele>383.6</ele>
        <time>2019-10-27T12:42:30Z</time>
      </trkpt>
      <trkpt lat="43.94348" lon="5.38442">
        <ele>382.9</ele>
        <time>2019-10-27T12:42:31Z</time>
      </trkpt>
      <trkpt lat="43.94344" lon="5.38441">
        <ele>382.2</ele>
        <time>2019-10-27T12:42:32Z</time>
      </trkpt>
      <trkpt lat="43.94341" lon="5.38439">
        <ele>381.6</ele>
        <time>2019-10-27T12:42:33Z</time>
      </trkpt>
      <trkpt lat="43.94339" lon="5.38436">
        <ele>381.5</ele>
        <time>2019-10-27T12:42:34Z</time>
      </trkpt>
      <trkpt lat="43.94336" lon="5.3843">
        <ele>381.5</ele>
        <time>2019-10-27T12:42:36Z</time>
      </trkpt>
      <trkpt lat="43.94333" lon="5.38425">
        <ele>381.5</ele>
        <time>2019-10-27T12:42:38Z</time>
      </trkpt>
      <trkpt lat="43.94331" lon="5.38422">
        <ele>381.7</ele>
        <time>2019-10-27T12:42:39Z</time>
      </trkpt>
      <trkpt lat="43.94329" lon="5.38419">
        <ele>381.8</ele>
        <time>2019-10-27T12:42:40Z</time>
      </trkpt>
      <trkpt lat="43.94328" lon="5.38415">
        <ele>381.8</ele>
        <time>2019-10-27T12:42:41Z</time>
      </trkpt>
      <trkpt lat="43.94325" lon="5.38409">
        <ele>381.9</ele>
        <time>2019-10-27T12:42:43Z</time>
      </trkpt>
      <trkpt lat="43.94321" lon="5.38404">
        <ele>382</ele>
        <time>2019-10-27T12:42:45Z</time>
      </trkpt>
      <trkpt lat="43.94318" lon="5.384">
        <ele>382.1</ele>
        <time>2019-10-27T12:42:46Z</time>
      </trkpt>
      <trkpt lat="43.94316" lon="5.38397">
        <ele>382.2</ele>
        <time>2019-10-27T12:42:47Z</time>
      </trkpt>
      <trkpt lat="43.94313" lon="5.38394">
        <ele>382</ele>
        <time>2019-10-27T12:42:48Z</time>
      </trkpt>
      <trkpt lat="43.94311" lon="5.3839">
        <ele>381.9</ele>
        <time>2019-10-27T12:42:49Z</time>
      </trkpt>
      <trkpt lat="43.94309" lon="5.38387">
        <ele>381.7</ele>
        <time>2019-10-27T12:42:50Z</time>
      </trkpt>
      <trkpt lat="43.94306" lon="5.38384">
        <ele>381.6</ele>
        <time>2019-10-27T12:42:51Z</time>
      </trkpt>
      <trkpt lat="43.94304" lon="5.38381">
        <ele>381.5</ele>
        <time>2019-10-27T12:42:52Z</time>
      </trkpt>
      <trkpt lat="43.94302" lon="5.38378">
        <ele>381.4</ele>
        <time>2019-10-27T12:42:53Z</time>
      </trkpt>
      <trkpt lat="43.94299" lon="5.38374">
        <ele>381.3</ele>
        <time>2019-10-27T12:42:54Z</time>
      </trkpt>
      <trkpt lat="43.94297" lon="5.38371">
        <ele>381.2</ele>
        <time>2019-10-27T12:42:55Z</time>
      </trkpt>
      <trkpt lat="43.94294" lon="5.38368">
        <ele>381.1</ele>
        <time>2019-10-27T12:42:56Z</time>
      </trkpt>
      <trkpt lat="43.94291" lon="5.38364">
        <ele>381</ele>
        <time>2019-10-27T12:42:57Z</time>
      </trkpt>
      <trkpt lat="43.94288" lon="5.3836">
        <ele>380.9</ele>
        <time>2019-10-27T12:42:58Z</time>
      </trkpt>
      <trkpt lat="43.94286" lon="5.38356">
        <ele>380.7</ele>
        <time>2019-10-27T12:42:59Z</time>
      </trkpt>
      <trkpt lat="43.94283" lon="5.38352">
        <ele>380.5</ele>
        <time>2019-10-27T12:43:00Z</time>
      </trkpt>
      <trkpt lat="43.9428" lon="5.38348">
        <ele>380.3</ele>
        <time>2019-10-27T12:43:01Z</time>
      </trkpt>
      <trkpt lat="43.94277" lon="5.38343">
        <ele>380.2</ele>
        <time>2019-10-27T12:43:02Z</time>
      </trkpt>
      <trkpt lat="43.94275" lon="5.38338">
        <ele>380</ele>
        <time>2019-10-27T12:43:03Z</time>
      </trkpt>
      <trkpt lat="43.94274" lon="5.38333">
        <ele>379.9</ele>
        <time>2019-10-27T12:43:04Z</time>
      </trkpt>
      <trkpt lat="43.94273" lon="5.38329">
        <ele>379.8</ele>
        <time>2019-10-27T12:43:05Z</time>
      </trkpt>
      <trkpt lat="43.94271" lon="5.38325">
        <ele>379.3</ele>
        <time>2019-10-27T12:43:06Z</time>
      </trkpt>
      <trkpt lat="43.9427" lon="5.3832">
        <ele>379.3</ele>
        <time>2019-10-27T12:43:07Z</time>
      </trkpt>
      <trkpt lat="43.94269" lon="5.38316">
        <ele>379.4</ele>
        <time>2019-10-27T12:43:08Z</time>
      </trkpt>
      <trkpt lat="43.94267" lon="5.38312">
        <ele>379.4</ele>
        <time>2019-10-27T12:43:09Z</time>
      </trkpt>
      <trkpt lat="43.94266" lon="5.38308">
        <ele>379.4</ele>
        <time>2019-10-27T12:43:10Z</time>
      </trkpt>
      <trkpt lat="43.94265" lon="5.38303">
        <ele>379.5</ele>
        <time>2019-10-27T12:43:11Z</time>
      </trkpt>
      <trkpt lat="43.94263" lon="5.38299">
        <ele>379.7</ele>
        <time>2019-10-27T12:43:12Z</time>
      </trkpt>
      <trkpt lat="43.94262" lon="5.38293">
        <ele>380</ele>
        <time>2019-10-27T12:43:14Z</time>
      </trkpt>
      <trkpt lat="43.94261" lon="5.38289">
        <ele>380.1</ele>
        <time>2019-10-27T12:43:15Z</time>
      </trkpt>
      <trkpt lat="43.9426" lon="5.38285">
        <ele>380.3</ele>
        <time>2019-10-27T12:43:16Z</time>
      </trkpt>
      <trkpt lat="43.94258" lon="5.3828">
        <ele>380.4</ele>
        <time>2019-10-27T12:43:17Z</time>
      </trkpt>
      <trkpt lat="43.94257" lon="5.38275">
        <ele>380.7</ele>
        <time>2019-10-27T12:43:18Z</time>
      </trkpt>
      <trkpt lat="43.94256" lon="5.3827">
        <ele>380.9</ele>
        <time>2019-10-27T12:43:19Z</time>
      </trkpt>
      <trkpt lat="43.94254" lon="5.38262">
        <ele>381.3</ele>
        <time>2019-10-27T12:43:21Z</time>
      </trkpt>
      <trkpt lat="43.94252" lon="5.38257">
        <ele>381.5</ele>
        <time>2019-10-27T12:43:22Z</time>
      </trkpt>
      <trkpt lat="43.94251" lon="5.38253">
        <ele>381.6</ele>
        <time>2019-10-27T12:43:23Z</time>
      </trkpt>
      <trkpt lat="43.94251" lon="5.38249">
        <ele>381.8</ele>
        <time>2019-10-27T12:43:24Z</time>
      </trkpt>
      <trkpt lat="43.9425" lon="5.38246">
        <ele>382</ele>
        <time>2019-10-27T12:43:25Z</time>
      </trkpt>
      <trkpt lat="43.94248" lon="5.38239">
        <ele>382.4</ele>
        <time>2019-10-27T12:43:27Z</time>
      </trkpt>
      <trkpt lat="43.94247" lon="5.38233">
        <ele>382.8</ele>
        <time>2019-10-27T12:43:29Z</time>
      </trkpt>
      <trkpt lat="43.94245" lon="5.38228">
        <ele>383.2</ele>
        <time>2019-10-27T12:43:31Z</time>
      </trkpt>
      <trkpt lat="43.94242" lon="5.38223">
        <ele>383.7</ele>
        <time>2019-10-27T12:43:33Z</time>
      </trkpt>
      <trkpt lat="43.9424" lon="5.38218">
        <ele>384.2</ele>
        <time>2019-10-27T12:43:35Z</time>
      </trkpt>
      <trkpt lat="43.94238" lon="5.38213">
        <ele>384.6</ele>
        <time>2019-10-27T12:43:37Z</time>
      </trkpt>
      <trkpt lat="43.94234" lon="5.38209">
        <ele>384.9</ele>
        <time>2019-10-27T12:43:39Z</time>
      </trkpt>
      <trkpt lat="43.94232" lon="5.38205">
        <ele>384.8</ele>
        <time>2019-10-27T12:43:41Z</time>
      </trkpt>
      <trkpt lat="43.94229" lon="5.38201">
        <ele>384.7</ele>
        <time>2019-10-27T12:43:44Z</time>
      </trkpt>
      <trkpt lat="43.94227" lon="5.38197">
        <ele>384.6</ele>
        <time>2019-10-27T12:43:46Z</time>
      </trkpt>
      <trkpt lat="43.94228" lon="5.38186">
        <ele>383.4</ele>
        <time>2019-10-27T12:45:54Z</time>
      </trkpt>
    </trkseg>
  </trk>
</gpx>